<?xml version="1.0" encoding="UTF-8" standalone="no" ?>
<gpx xmlns="http://www.topografix.com/GPX/1/1" xmlns:xsi="http://www.w3.org/2001/XMLSchema-instance" xsi:schemaLocation="http://www.topografix.com/GPX/1/1 http://www.topografix.com/GPX/1/1/gpx.xsd" version="1.1" creator="VisuGPX - https://www.visugpx.com">
  <metadata>
    <name>Pornichet 09012020</name>
    <desc><![CDATA[Sortie VTT du jeudi 09 janvier 2020
]]></desc>
  </metadata>
  <trk>
    <name><![CDATA[Pornichet Cyclisme]]></name>
    <trkseg>
      <trkpt lat="47.26461" lon="-2.31592">
        <ele>12</ele>
        <time>2020-01-09T08:27:11.000Z</time>
      </trkpt>
      <trkpt lat="47.26447" lon="-2.31599">
        <ele>11.1</ele>
        <time>2020-01-09T08:27:14.000Z</time>
      </trkpt>
      <trkpt lat="47.26442" lon="-2.31603">
        <ele>0.20000000298023</ele>
        <time>2020-01-09T08:27:15.000Z</time>
      </trkpt>
      <trkpt lat="47.26436" lon="-2.31608">
        <ele>0.20000000298023</ele>
        <time>2020-01-09T08:27:16.000Z</time>
      </trkpt>
      <trkpt lat="47.26406" lon="-2.3163">
        <ele>0.20000000298023</ele>
        <time>2020-01-09T08:27:22.000Z</time>
      </trkpt>
      <trkpt lat="47.26372" lon="-2.31646">
        <ele>0.20000000298023</ele>
        <time>2020-01-09T08:27:28.000Z</time>
      </trkpt>
      <trkpt lat="47.26363" lon="-2.31649">
        <ele>-0.20000000298023</ele>
        <time>2020-01-09T08:27:30.000Z</time>
      </trkpt>
      <trkpt lat="47.26359" lon="-2.31648">
        <ele>-0.60000002384186</ele>
        <time>2020-01-09T08:27:31.000Z</time>
      </trkpt>
      <trkpt lat="47.26355" lon="-2.31646">
        <ele>-1.2000000476837</ele>
        <time>2020-01-09T08:27:32.000Z</time>
      </trkpt>
      <trkpt lat="47.26352" lon="-2.31644">
        <ele>-1.6000000238419</ele>
        <time>2020-01-09T08:27:33.000Z</time>
      </trkpt>
      <trkpt lat="47.2635" lon="-2.31641">
        <ele>-2</ele>
        <time>2020-01-09T08:27:34.000Z</time>
      </trkpt>
      <trkpt lat="47.26345" lon="-2.31631">
        <ele>-2</ele>
        <time>2020-01-09T08:27:37.000Z</time>
      </trkpt>
      <trkpt lat="47.26333" lon="-2.31609">
        <ele>-2</ele>
        <time>2020-01-09T08:27:42.000Z</time>
      </trkpt>
      <trkpt lat="47.2633" lon="-2.31604">
        <ele>-2</ele>
        <time>2020-01-09T08:27:43.000Z</time>
      </trkpt>
      <trkpt lat="47.26324" lon="-2.31592">
        <ele>-2</ele>
        <time>2020-01-09T08:27:46.000Z</time>
      </trkpt>
      <trkpt lat="47.2632" lon="-2.31582">
        <ele>-2</ele>
        <time>2020-01-09T08:27:48.000Z</time>
      </trkpt>
      <trkpt lat="47.26312" lon="-2.31569">
        <ele>-2</ele>
        <time>2020-01-09T08:27:51.000Z</time>
      </trkpt>
      <trkpt lat="47.26308" lon="-2.31563">
        <ele>-2</ele>
        <time>2020-01-09T08:27:52.000Z</time>
      </trkpt>
      <trkpt lat="47.26299" lon="-2.3155">
        <ele>-2</ele>
        <time>2020-01-09T08:27:55.000Z</time>
      </trkpt>
      <trkpt lat="47.26295" lon="-2.31546">
        <ele>-2</ele>
        <time>2020-01-09T08:27:56.000Z</time>
      </trkpt>
      <trkpt lat="47.26274" lon="-2.31538">
        <ele>-2</ele>
        <time>2020-01-09T08:28:01.000Z</time>
      </trkpt>
      <trkpt lat="47.26265" lon="-2.31537">
        <ele>-2</ele>
        <time>2020-01-09T08:28:03.000Z</time>
      </trkpt>
      <trkpt lat="47.26251" lon="-2.31541">
        <ele>-2</ele>
        <time>2020-01-09T08:28:06.000Z</time>
      </trkpt>
      <trkpt lat="47.26218" lon="-2.3155">
        <ele>-2</ele>
        <time>2020-01-09T08:28:14.000Z</time>
      </trkpt>
      <trkpt lat="47.26195" lon="-2.31558">
        <ele>-2</ele>
        <time>2020-01-09T08:28:20.000Z</time>
      </trkpt>
      <trkpt lat="47.26171" lon="-2.31559">
        <ele>-2</ele>
        <time>2020-01-09T08:28:27.000Z</time>
      </trkpt>
      <trkpt lat="47.26159" lon="-2.31545">
        <ele>-2</ele>
        <time>2020-01-09T08:28:31.000Z</time>
      </trkpt>
      <trkpt lat="47.26145" lon="-2.31534">
        <ele>-2</ele>
        <time>2020-01-09T08:28:36.000Z</time>
      </trkpt>
      <trkpt lat="47.26137" lon="-2.31539">
        <ele>-2</ele>
        <time>2020-01-09T08:28:38.000Z</time>
      </trkpt>
      <trkpt lat="47.26128" lon="-2.3155">
        <ele>-2</ele>
        <time>2020-01-09T08:28:41.000Z</time>
      </trkpt>
      <trkpt lat="47.26106" lon="-2.31578">
        <ele>-2</ele>
        <time>2020-01-09T08:28:48.000Z</time>
      </trkpt>
      <trkpt lat="47.26069" lon="-2.31614">
        <ele>-2</ele>
        <time>2020-01-09T08:28:56.000Z</time>
      </trkpt>
      <trkpt lat="47.26059" lon="-2.31617">
        <ele>-2</ele>
        <time>2020-01-09T08:28:58.000Z</time>
      </trkpt>
      <trkpt lat="47.26048" lon="-2.31611">
        <ele>-2</ele>
        <time>2020-01-09T08:29:00.000Z</time>
      </trkpt>
      <trkpt lat="47.26041" lon="-2.31604">
        <ele>-2</ele>
        <time>2020-01-09T08:29:02.000Z</time>
      </trkpt>
      <trkpt lat="47.26036" lon="-2.31602">
        <ele>-2</ele>
        <time>2020-01-09T08:29:03.000Z</time>
      </trkpt>
      <trkpt lat="47.26016" lon="-2.31589">
        <ele>-2</ele>
        <time>2020-01-09T08:29:07.000Z</time>
      </trkpt>
      <trkpt lat="47.26002" lon="-2.31572">
        <ele>-1.6000000238419</ele>
        <time>2020-01-09T08:29:11.000Z</time>
      </trkpt>
      <trkpt lat="47.26" lon="-2.31567">
        <ele>-1.2000000476837</ele>
        <time>2020-01-09T08:29:12.000Z</time>
      </trkpt>
      <trkpt lat="47.25996" lon="-2.31563">
        <ele>-0.80000001192093</ele>
        <time>2020-01-09T08:29:13.000Z</time>
      </trkpt>
      <trkpt lat="47.25992" lon="-2.31559">
        <ele>-0.40000000596046</ele>
        <time>2020-01-09T08:29:14.000Z</time>
      </trkpt>
      <trkpt lat="47.25988" lon="-2.31554">
        <ele>7.4</ele>
        <time>2020-01-09T08:29:15.000Z</time>
      </trkpt>
      <trkpt lat="47.25976" lon="-2.31534">
        <ele>7.8</ele>
        <time>2020-01-09T08:29:19.000Z</time>
      </trkpt>
      <trkpt lat="47.25963" lon="-2.31505">
        <ele>7.5</ele>
        <time>2020-01-09T08:29:24.000Z</time>
      </trkpt>
      <trkpt lat="47.25955" lon="-2.31496">
        <ele>7.5</ele>
        <time>2020-01-09T08:29:26.000Z</time>
      </trkpt>
      <trkpt lat="47.25941" lon="-2.31494">
        <ele>7.8</ele>
        <time>2020-01-09T08:29:28.000Z</time>
      </trkpt>
      <trkpt lat="47.25933" lon="-2.31496">
        <ele>7.9</ele>
        <time>2020-01-09T08:29:29.000Z</time>
      </trkpt>
      <trkpt lat="47.25918" lon="-2.31507">
        <ele>8.3</ele>
        <time>2020-01-09T08:29:31.000Z</time>
      </trkpt>
      <trkpt lat="47.2591" lon="-2.31524">
        <ele>0.40000000596046</ele>
        <time>2020-01-09T08:29:34.000Z</time>
      </trkpt>
      <trkpt lat="47.25907" lon="-2.3153">
        <ele>1</ele>
        <time>2020-01-09T08:29:35.000Z</time>
      </trkpt>
      <trkpt lat="47.25904" lon="-2.31535">
        <ele>1.3999999761581</ele>
        <time>2020-01-09T08:29:36.000Z</time>
      </trkpt>
      <trkpt lat="47.25902" lon="-2.31541">
        <ele>1.7999999523163</ele>
        <time>2020-01-09T08:29:37.000Z</time>
      </trkpt>
      <trkpt lat="47.25899" lon="-2.31547">
        <ele>2.2000000476837</ele>
        <time>2020-01-09T08:29:38.000Z</time>
      </trkpt>
      <trkpt lat="47.25894" lon="-2.31558">
        <ele>2.2000000476837</ele>
        <time>2020-01-09T08:29:40.000Z</time>
      </trkpt>
      <trkpt lat="47.25887" lon="-2.31567">
        <ele>2.2000000476837</ele>
        <time>2020-01-09T08:29:42.000Z</time>
      </trkpt>
      <trkpt lat="47.25867" lon="-2.31589">
        <ele>2.7999999523163</ele>
        <time>2020-01-09T08:29:48.000Z</time>
      </trkpt>
      <trkpt lat="47.25864" lon="-2.31593">
        <ele>3.2000000476837</ele>
        <time>2020-01-09T08:29:49.000Z</time>
      </trkpt>
      <trkpt lat="47.2586" lon="-2.31596">
        <ele>3.5999999046326</ele>
        <time>2020-01-09T08:29:50.000Z</time>
      </trkpt>
      <trkpt lat="47.25857" lon="-2.31599">
        <ele>4</ele>
        <time>2020-01-09T08:29:51.000Z</time>
      </trkpt>
      <trkpt lat="47.25853" lon="-2.31602">
        <ele>4.4000000953674</ele>
        <time>2020-01-09T08:29:52.000Z</time>
      </trkpt>
      <trkpt lat="47.25835" lon="-2.31615">
        <ele>4.8000001907349</ele>
        <time>2020-01-09T08:29:57.000Z</time>
      </trkpt>
      <trkpt lat="47.25831" lon="-2.31618">
        <ele>5.1999998092651</ele>
        <time>2020-01-09T08:29:58.000Z</time>
      </trkpt>
      <trkpt lat="47.25827" lon="-2.31621">
        <ele>5.5999999046326</ele>
        <time>2020-01-09T08:29:59.000Z</time>
      </trkpt>
      <trkpt lat="47.25824" lon="-2.31623">
        <ele>6</ele>
        <time>2020-01-09T08:30:00.000Z</time>
      </trkpt>
      <trkpt lat="47.25819" lon="-2.31627">
        <ele>6.4000000953674</ele>
        <time>2020-01-09T08:30:01.000Z</time>
      </trkpt>
      <trkpt lat="47.25803" lon="-2.31638">
        <ele>6.4000000953674</ele>
        <time>2020-01-09T08:30:05.000Z</time>
      </trkpt>
      <trkpt lat="47.25786" lon="-2.3165">
        <ele>6.4000000953674</ele>
        <time>2020-01-09T08:30:09.000Z</time>
      </trkpt>
      <trkpt lat="47.25778" lon="-2.31656">
        <ele>6.4000000953674</ele>
        <time>2020-01-09T08:30:11.000Z</time>
      </trkpt>
      <trkpt lat="47.25773" lon="-2.31659">
        <ele>6.4000000953674</ele>
        <time>2020-01-09T08:30:12.000Z</time>
      </trkpt>
      <trkpt lat="47.2575" lon="-2.31673">
        <ele>6.4000000953674</ele>
        <time>2020-01-09T08:30:17.000Z</time>
      </trkpt>
      <trkpt lat="47.25737" lon="-2.31684">
        <ele>6.4000000953674</ele>
        <time>2020-01-09T08:30:20.000Z</time>
      </trkpt>
      <trkpt lat="47.25734" lon="-2.31685">
        <ele>6</ele>
        <time>2020-01-09T08:30:21.000Z</time>
      </trkpt>
      <trkpt lat="47.25732" lon="-2.31685">
        <ele>5.5999999046326</ele>
        <time>2020-01-09T08:30:22.000Z</time>
      </trkpt>
      <trkpt lat="47.25732" lon="-2.31688">
        <ele>5.1999998092651</ele>
        <time>2020-01-09T08:30:23.000Z</time>
      </trkpt>
      <trkpt lat="47.25731" lon="-2.31691">
        <ele>4.8000001907349</ele>
        <time>2020-01-09T08:30:24.000Z</time>
      </trkpt>
      <trkpt lat="47.25729" lon="-2.31693">
        <ele>4.4000000953674</ele>
        <time>2020-01-09T08:30:25.000Z</time>
      </trkpt>
      <trkpt lat="47.25719" lon="-2.31688">
        <ele>4.4000000953674</ele>
        <time>2020-01-09T08:30:28.000Z</time>
      </trkpt>
      <trkpt lat="47.25698" lon="-2.31678">
        <ele>4.4000000953674</ele>
        <time>2020-01-09T08:30:34.000Z</time>
      </trkpt>
      <trkpt lat="47.25682" lon="-2.31674">
        <ele>4.4000000953674</ele>
        <time>2020-01-09T08:30:38.000Z</time>
      </trkpt>
      <trkpt lat="47.25676" lon="-2.31677">
        <ele>4.4000000953674</ele>
        <time>2020-01-09T08:30:40.000Z</time>
      </trkpt>
      <trkpt lat="47.25669" lon="-2.31682">
        <ele>4.8000001907349</ele>
        <time>2020-01-09T08:30:42.000Z</time>
      </trkpt>
      <trkpt lat="47.25666" lon="-2.31684">
        <ele>5.1999998092651</ele>
        <time>2020-01-09T08:30:43.000Z</time>
      </trkpt>
      <trkpt lat="47.25663" lon="-2.31686">
        <ele>6</ele>
        <time>2020-01-09T08:30:44.000Z</time>
      </trkpt>
      <trkpt lat="47.2566" lon="-2.31689">
        <ele>6.5999999046326</ele>
        <time>2020-01-09T08:30:45.000Z</time>
      </trkpt>
      <trkpt lat="47.25655" lon="-2.31696">
        <ele>6.5999999046326</ele>
        <time>2020-01-09T08:30:47.000Z</time>
      </trkpt>
      <trkpt lat="47.25651" lon="-2.31703">
        <ele>6.5999999046326</ele>
        <time>2020-01-09T08:30:49.000Z</time>
      </trkpt>
      <trkpt lat="47.25648" lon="-2.31707">
        <ele>7</ele>
        <time>2020-01-09T08:30:50.000Z</time>
      </trkpt>
      <trkpt lat="47.25645" lon="-2.3171">
        <ele>7.4000000953674</ele>
        <time>2020-01-09T08:30:51.000Z</time>
      </trkpt>
      <trkpt lat="47.25642" lon="-2.31713">
        <ele>8</ele>
        <time>2020-01-09T08:30:52.000Z</time>
      </trkpt>
      <trkpt lat="47.2564" lon="-2.31717">
        <ele>8.3999996185303</ele>
        <time>2020-01-09T08:30:53.000Z</time>
      </trkpt>
      <trkpt lat="47.25638" lon="-2.31721">
        <ele>8.8000001907349</ele>
        <time>2020-01-09T08:30:54.000Z</time>
      </trkpt>
      <trkpt lat="47.25637" lon="-2.31726">
        <ele>8.8000001907349</ele>
        <time>2020-01-09T08:30:55.000Z</time>
      </trkpt>
      <trkpt lat="47.25632" lon="-2.31744">
        <ele>8.8000001907349</ele>
        <time>2020-01-09T08:30:58.000Z</time>
      </trkpt>
      <trkpt lat="47.25627" lon="-2.31755">
        <ele>8.8000001907349</ele>
        <time>2020-01-09T08:31:00.000Z</time>
      </trkpt>
      <trkpt lat="47.25624" lon="-2.3176">
        <ele>9.3999996185303</ele>
        <time>2020-01-09T08:31:01.000Z</time>
      </trkpt>
      <trkpt lat="47.25619" lon="-2.31762">
        <ele>9.8000001907349</ele>
        <time>2020-01-09T08:31:02.000Z</time>
      </trkpt>
      <trkpt lat="47.25615" lon="-2.31764">
        <ele>10.199999809265</ele>
        <time>2020-01-09T08:31:03.000Z</time>
      </trkpt>
      <trkpt lat="47.2561" lon="-2.31765">
        <ele>10.60000038147</ele>
        <time>2020-01-09T08:31:04.000Z</time>
      </trkpt>
      <trkpt lat="47.25606" lon="-2.31766">
        <ele>11</ele>
        <time>2020-01-09T08:31:05.000Z</time>
      </trkpt>
      <trkpt lat="47.25596" lon="-2.31768">
        <ele>11</ele>
        <time>2020-01-09T08:31:07.000Z</time>
      </trkpt>
      <trkpt lat="47.25588" lon="-2.31772">
        <ele>11</ele>
        <time>2020-01-09T08:31:09.000Z</time>
      </trkpt>
      <trkpt lat="47.25573" lon="-2.31788">
        <ele>11</ele>
        <time>2020-01-09T08:31:14.000Z</time>
      </trkpt>
      <trkpt lat="47.25571" lon="-2.31792">
        <ele>11.39999961853</ele>
        <time>2020-01-09T08:31:15.000Z</time>
      </trkpt>
      <trkpt lat="47.25568" lon="-2.31795">
        <ele>11.800000190735</ele>
        <time>2020-01-09T08:31:16.000Z</time>
      </trkpt>
      <trkpt lat="47.25565" lon="-2.31799">
        <ele>12.199999809265</ele>
        <time>2020-01-09T08:31:17.000Z</time>
      </trkpt>
      <trkpt lat="47.25562" lon="-2.31801">
        <ele>12.60000038147</ele>
        <time>2020-01-09T08:31:18.000Z</time>
      </trkpt>
      <trkpt lat="47.25558" lon="-2.31802">
        <ele>13</ele>
        <time>2020-01-09T08:31:19.000Z</time>
      </trkpt>
      <trkpt lat="47.25532" lon="-2.3181">
        <ele>13.39999961853</ele>
        <time>2020-01-09T08:31:27.000Z</time>
      </trkpt>
      <trkpt lat="47.25529" lon="-2.31811">
        <ele>13.800000190735</ele>
        <time>2020-01-09T08:31:28.000Z</time>
      </trkpt>
      <trkpt lat="47.25526" lon="-2.31812">
        <ele>14.199999809265</ele>
        <time>2020-01-09T08:31:29.000Z</time>
      </trkpt>
      <trkpt lat="47.25523" lon="-2.31813">
        <ele>14.60000038147</ele>
        <time>2020-01-09T08:31:30.000Z</time>
      </trkpt>
      <trkpt lat="47.25521" lon="-2.31814">
        <ele>15</ele>
        <time>2020-01-09T08:31:31.000Z</time>
      </trkpt>
      <trkpt lat="47.25514" lon="-2.31819">
        <ele>15</ele>
        <time>2020-01-09T08:31:34.000Z</time>
      </trkpt>
      <trkpt lat="47.25512" lon="-2.31823">
        <ele>15</ele>
        <time>2020-01-09T08:31:37.000Z</time>
      </trkpt>
      <trkpt lat="47.25513" lon="-2.31825">
        <ele>15</ele>
        <time>2020-01-09T08:31:38.000Z</time>
      </trkpt>
      <trkpt lat="47.25521" lon="-2.31826">
        <ele>15</ele>
        <time>2020-01-09T08:31:44.000Z</time>
      </trkpt>
      <trkpt lat="47.25521" lon="-2.31826">
        <ele>15</ele>
        <time>2020-01-09T08:31:46.000Z</time>
      </trkpt>
      <trkpt lat="47.25514" lon="-2.31826">
        <ele>38.200000762939</ele>
        <time>2020-01-09T08:42:15.000Z</time>
      </trkpt>
      <trkpt lat="47.25513" lon="-2.31827">
        <ele>38.200000762939</ele>
        <time>2020-01-09T08:42:16.000Z</time>
      </trkpt>
      <trkpt lat="47.25505" lon="-2.31824">
        <ele>38.200000762939</ele>
        <time>2020-01-09T08:42:21.000Z</time>
      </trkpt>
      <trkpt lat="47.25497" lon="-2.31826">
        <ele>38.200000762939</ele>
        <time>2020-01-09T08:42:25.000Z</time>
      </trkpt>
      <trkpt lat="47.2548" lon="-2.31834">
        <ele>38.200000762939</ele>
        <time>2020-01-09T08:42:33.000Z</time>
      </trkpt>
      <trkpt lat="47.25477" lon="-2.31836">
        <ele>38.200000762939</ele>
        <time>2020-01-09T08:42:36.000Z</time>
      </trkpt>
      <trkpt lat="47.25476" lon="-2.31837">
        <ele>38.200000762939</ele>
        <time>2020-01-09T08:42:45.000Z</time>
      </trkpt>
      <trkpt lat="47.25475" lon="-2.31838">
        <ele>38.200000762939</ele>
        <time>2020-01-09T08:42:46.000Z</time>
      </trkpt>
      <trkpt lat="47.25471" lon="-2.31842">
        <ele>38.200000762939</ele>
        <time>2020-01-09T08:42:49.000Z</time>
      </trkpt>
      <trkpt lat="47.25468" lon="-2.31843">
        <ele>38.200000762939</ele>
        <time>2020-01-09T08:42:51.000Z</time>
      </trkpt>
      <trkpt lat="47.25458" lon="-2.31841">
        <ele>38.200000762939</ele>
        <time>2020-01-09T08:42:55.000Z</time>
      </trkpt>
      <trkpt lat="47.25453" lon="-2.31828">
        <ele>38.200000762939</ele>
        <time>2020-01-09T08:42:58.000Z</time>
      </trkpt>
      <trkpt lat="47.25452" lon="-2.31823">
        <ele>38.200000762939</ele>
        <time>2020-01-09T08:42:59.000Z</time>
      </trkpt>
      <trkpt lat="47.25447" lon="-2.31802">
        <ele>38.599998474121</ele>
        <time>2020-01-09T08:43:03.000Z</time>
      </trkpt>
      <trkpt lat="47.25446" lon="-2.31797">
        <ele>39</ele>
        <time>2020-01-09T08:43:04.000Z</time>
      </trkpt>
      <trkpt lat="47.25445" lon="-2.31792">
        <ele>39.400001525879</ele>
        <time>2020-01-09T08:43:05.000Z</time>
      </trkpt>
      <trkpt lat="47.25445" lon="-2.31786">
        <ele>40.200000762939</ele>
        <time>2020-01-09T08:43:06.000Z</time>
      </trkpt>
      <trkpt lat="47.25442" lon="-2.31766">
        <ele>40.200000762939</ele>
        <time>2020-01-09T08:43:10.000Z</time>
      </trkpt>
      <trkpt lat="47.2543" lon="-2.31733">
        <ele>40.200000762939</ele>
        <time>2020-01-09T08:43:17.000Z</time>
      </trkpt>
      <trkpt lat="47.25415" lon="-2.31696">
        <ele>40.200000762939</ele>
        <time>2020-01-09T08:43:25.000Z</time>
      </trkpt>
      <trkpt lat="47.25397" lon="-2.31655">
        <ele>40.200000762939</ele>
        <time>2020-01-09T08:43:34.000Z</time>
      </trkpt>
      <trkpt lat="47.25393" lon="-2.31647">
        <ele>40.599998474121</ele>
        <time>2020-01-09T08:43:36.000Z</time>
      </trkpt>
      <trkpt lat="47.25391" lon="-2.31643">
        <ele>41.200000762939</ele>
        <time>2020-01-09T08:43:37.000Z</time>
      </trkpt>
      <trkpt lat="47.25389" lon="-2.3164">
        <ele>41.599998474121</ele>
        <time>2020-01-09T08:43:38.000Z</time>
      </trkpt>
      <trkpt lat="47.25386" lon="-2.31636">
        <ele>42</ele>
        <time>2020-01-09T08:43:39.000Z</time>
      </trkpt>
      <trkpt lat="47.25384" lon="-2.31633">
        <ele>42.400001525879</ele>
        <time>2020-01-09T08:43:40.000Z</time>
      </trkpt>
      <trkpt lat="47.25381" lon="-2.31629">
        <ele>42.400001525879</ele>
        <time>2020-01-09T08:43:41.000Z</time>
      </trkpt>
      <trkpt lat="47.2536" lon="-2.31594">
        <ele>42.400001525879</ele>
        <time>2020-01-09T08:43:50.000Z</time>
      </trkpt>
      <trkpt lat="47.25346" lon="-2.31568">
        <ele>42.799999237061</ele>
        <time>2020-01-09T08:43:56.000Z</time>
      </trkpt>
      <trkpt lat="47.25344" lon="-2.31563">
        <ele>43.200000762939</ele>
        <time>2020-01-09T08:43:57.000Z</time>
      </trkpt>
      <trkpt lat="47.25341" lon="-2.31559">
        <ele>43.599998474121</ele>
        <time>2020-01-09T08:43:58.000Z</time>
      </trkpt>
      <trkpt lat="47.2534" lon="-2.31554">
        <ele>44</ele>
        <time>2020-01-09T08:43:59.000Z</time>
      </trkpt>
      <trkpt lat="47.25338" lon="-2.31549">
        <ele>44.400001525879</ele>
        <time>2020-01-09T08:44:00.000Z</time>
      </trkpt>
      <trkpt lat="47.25334" lon="-2.31534">
        <ele>44.400001525879</ele>
        <time>2020-01-09T08:44:03.000Z</time>
      </trkpt>
      <trkpt lat="47.25327" lon="-2.315">
        <ele>44.400001525879</ele>
        <time>2020-01-09T08:44:10.000Z</time>
      </trkpt>
      <trkpt lat="47.25325" lon="-2.31484">
        <ele>44.799999237061</ele>
        <time>2020-01-09T08:44:13.000Z</time>
      </trkpt>
      <trkpt lat="47.25324" lon="-2.31479">
        <ele>45.200000762939</ele>
        <time>2020-01-09T08:44:14.000Z</time>
      </trkpt>
      <trkpt lat="47.25324" lon="-2.31474">
        <ele>45.599998474121</ele>
        <time>2020-01-09T08:44:15.000Z</time>
      </trkpt>
      <trkpt lat="47.25323" lon="-2.31469">
        <ele>46.200000762939</ele>
        <time>2020-01-09T08:44:16.000Z</time>
      </trkpt>
      <trkpt lat="47.25323" lon="-2.31464">
        <ele>46.599998474121</ele>
        <time>2020-01-09T08:44:17.000Z</time>
      </trkpt>
      <trkpt lat="47.25314" lon="-2.31436">
        <ele>46.599998474121</ele>
        <time>2020-01-09T08:44:23.000Z</time>
      </trkpt>
      <trkpt lat="47.25301" lon="-2.3143">
        <ele>46.599998474121</ele>
        <time>2020-01-09T08:44:27.000Z</time>
      </trkpt>
      <trkpt lat="47.25286" lon="-2.31434">
        <ele>46.599998474121</ele>
        <time>2020-01-09T08:44:31.000Z</time>
      </trkpt>
      <trkpt lat="47.25274" lon="-2.31438">
        <ele>47</ele>
        <time>2020-01-09T08:44:34.000Z</time>
      </trkpt>
      <trkpt lat="47.2527" lon="-2.3144">
        <ele>47.400001525879</ele>
        <time>2020-01-09T08:44:35.000Z</time>
      </trkpt>
      <trkpt lat="47.25267" lon="-2.31441">
        <ele>47.799999237061</ele>
        <time>2020-01-09T08:44:36.000Z</time>
      </trkpt>
      <trkpt lat="47.25263" lon="-2.31443">
        <ele>48.200000762939</ele>
        <time>2020-01-09T08:44:37.000Z</time>
      </trkpt>
      <trkpt lat="47.25259" lon="-2.31445">
        <ele>48.599998474121</ele>
        <time>2020-01-09T08:44:38.000Z</time>
      </trkpt>
      <trkpt lat="47.2524" lon="-2.31453">
        <ele>48.599998474121</ele>
        <time>2020-01-09T08:44:43.000Z</time>
      </trkpt>
      <trkpt lat="47.25216" lon="-2.31471">
        <ele>48.599998474121</ele>
        <time>2020-01-09T08:44:50.000Z</time>
      </trkpt>
      <trkpt lat="47.25192" lon="-2.31495">
        <ele>48.599998474121</ele>
        <time>2020-01-09T08:44:57.000Z</time>
      </trkpt>
      <trkpt lat="47.25176" lon="-2.31515">
        <ele>48.599998474121</ele>
        <time>2020-01-09T08:45:02.000Z</time>
      </trkpt>
      <trkpt lat="47.25173" lon="-2.31519">
        <ele>48.599998474121</ele>
        <time>2020-01-09T08:45:03.000Z</time>
      </trkpt>
      <trkpt lat="47.2515" lon="-2.31548">
        <ele>49.400001525879</ele>
        <time>2020-01-09T08:45:10.000Z</time>
      </trkpt>
      <trkpt lat="47.25147" lon="-2.31551">
        <ele>49.799999237061</ele>
        <time>2020-01-09T08:45:11.000Z</time>
      </trkpt>
      <trkpt lat="47.25144" lon="-2.31554">
        <ele>50.200000762939</ele>
        <time>2020-01-09T08:45:12.000Z</time>
      </trkpt>
      <trkpt lat="47.2514" lon="-2.31557">
        <ele>50.599998474121</ele>
        <time>2020-01-09T08:45:13.000Z</time>
      </trkpt>
      <trkpt lat="47.25127" lon="-2.31568">
        <ele>50.599998474121</ele>
        <time>2020-01-09T08:45:17.000Z</time>
      </trkpt>
      <trkpt lat="47.25101" lon="-2.31588">
        <ele>50.599998474121</ele>
        <time>2020-01-09T08:45:25.000Z</time>
      </trkpt>
      <trkpt lat="47.25079" lon="-2.31612">
        <ele>50.599998474121</ele>
        <time>2020-01-09T08:45:32.000Z</time>
      </trkpt>
      <trkpt lat="47.25075" lon="-2.31615">
        <ele>50.599998474121</ele>
        <time>2020-01-09T08:45:33.000Z</time>
      </trkpt>
      <trkpt lat="47.25057" lon="-2.3163">
        <ele>50.599998474121</ele>
        <time>2020-01-09T08:45:38.000Z</time>
      </trkpt>
      <trkpt lat="47.25039" lon="-2.31646">
        <ele>50.599998474121</ele>
        <time>2020-01-09T08:45:43.000Z</time>
      </trkpt>
      <trkpt lat="47.2501" lon="-2.31676">
        <ele>50.599998474121</ele>
        <time>2020-01-09T08:45:51.000Z</time>
      </trkpt>
      <trkpt lat="47.24996" lon="-2.31692">
        <ele>51</ele>
        <time>2020-01-09T08:45:55.000Z</time>
      </trkpt>
      <trkpt lat="47.24993" lon="-2.31695">
        <ele>51.400001525879</ele>
        <time>2020-01-09T08:45:56.000Z</time>
      </trkpt>
      <trkpt lat="47.24989" lon="-2.31698">
        <ele>51.799999237061</ele>
        <time>2020-01-09T08:45:57.000Z</time>
      </trkpt>
      <trkpt lat="47.24986" lon="-2.31702">
        <ele>52.200000762939</ele>
        <time>2020-01-09T08:45:58.000Z</time>
      </trkpt>
      <trkpt lat="47.24982" lon="-2.31705">
        <ele>52.799999237061</ele>
        <time>2020-01-09T08:45:59.000Z</time>
      </trkpt>
      <trkpt lat="47.24963" lon="-2.31727">
        <ele>52.799999237061</ele>
        <time>2020-01-09T08:46:05.000Z</time>
      </trkpt>
      <trkpt lat="47.24936" lon="-2.3175">
        <ele>52.799999237061</ele>
        <time>2020-01-09T08:46:12.000Z</time>
      </trkpt>
      <trkpt lat="47.24903" lon="-2.3178">
        <ele>52.799999237061</ele>
        <time>2020-01-09T08:46:20.000Z</time>
      </trkpt>
      <trkpt lat="47.24874" lon="-2.31804">
        <ele>52.799999237061</ele>
        <time>2020-01-09T08:46:27.000Z</time>
      </trkpt>
      <trkpt lat="47.2484" lon="-2.31834">
        <ele>52.799999237061</ele>
        <time>2020-01-09T08:46:35.000Z</time>
      </trkpt>
      <trkpt lat="47.24805" lon="-2.31864">
        <ele>52.799999237061</ele>
        <time>2020-01-09T08:46:44.000Z</time>
      </trkpt>
      <trkpt lat="47.24798" lon="-2.31871">
        <ele>52.799999237061</ele>
        <time>2020-01-09T08:46:46.000Z</time>
      </trkpt>
      <trkpt lat="47.24782" lon="-2.31887">
        <ele>52.799999237061</ele>
        <time>2020-01-09T08:46:50.000Z</time>
      </trkpt>
      <trkpt lat="47.24745" lon="-2.31921">
        <ele>52.799999237061</ele>
        <time>2020-01-09T08:46:59.000Z</time>
      </trkpt>
      <trkpt lat="47.24717" lon="-2.31946">
        <ele>52.400001525879</ele>
        <time>2020-01-09T08:47:05.000Z</time>
      </trkpt>
      <trkpt lat="47.24713" lon="-2.3195">
        <ele>52</ele>
        <time>2020-01-09T08:47:06.000Z</time>
      </trkpt>
      <trkpt lat="47.24708" lon="-2.31954">
        <ele>51.599998474121</ele>
        <time>2020-01-09T08:47:07.000Z</time>
      </trkpt>
      <trkpt lat="47.24704" lon="-2.31958">
        <ele>51.200000762939</ele>
        <time>2020-01-09T08:47:08.000Z</time>
      </trkpt>
      <trkpt lat="47.24699" lon="-2.31962">
        <ele>50.799999237061</ele>
        <time>2020-01-09T08:47:09.000Z</time>
      </trkpt>
      <trkpt lat="47.24681" lon="-2.31979">
        <ele>49.799999237061</ele>
        <time>2020-01-09T08:47:13.000Z</time>
      </trkpt>
      <trkpt lat="47.24676" lon="-2.31983">
        <ele>49.400001525879</ele>
        <time>2020-01-09T08:47:14.000Z</time>
      </trkpt>
      <trkpt lat="47.24672" lon="-2.31986">
        <ele>49</ele>
        <time>2020-01-09T08:47:15.000Z</time>
      </trkpt>
      <trkpt lat="47.24669" lon="-2.31989">
        <ele>48.400001525879</ele>
        <time>2020-01-09T08:47:16.000Z</time>
      </trkpt>
      <trkpt lat="47.24649" lon="-2.32005">
        <ele>48.400001525879</ele>
        <time>2020-01-09T08:47:21.000Z</time>
      </trkpt>
      <trkpt lat="47.24641" lon="-2.32011">
        <ele>48</ele>
        <time>2020-01-09T08:47:24.000Z</time>
      </trkpt>
      <trkpt lat="47.24639" lon="-2.32013">
        <ele>47.599998474121</ele>
        <time>2020-01-09T08:47:25.000Z</time>
      </trkpt>
      <trkpt lat="47.24637" lon="-2.32014">
        <ele>47.200000762939</ele>
        <time>2020-01-09T08:47:26.000Z</time>
      </trkpt>
      <trkpt lat="47.24635" lon="-2.32015">
        <ele>46.799999237061</ele>
        <time>2020-01-09T08:47:27.000Z</time>
      </trkpt>
      <trkpt lat="47.24633" lon="-2.32017">
        <ele>46.400001525879</ele>
        <time>2020-01-09T08:47:28.000Z</time>
      </trkpt>
      <trkpt lat="47.24625" lon="-2.32023">
        <ele>46.400001525879</ele>
        <time>2020-01-09T08:47:32.000Z</time>
      </trkpt>
      <trkpt lat="47.24608" lon="-2.32038">
        <ele>46.400001525879</ele>
        <time>2020-01-09T08:47:37.000Z</time>
      </trkpt>
      <trkpt lat="47.24593" lon="-2.32051">
        <ele>46.400001525879</ele>
        <time>2020-01-09T08:47:41.000Z</time>
      </trkpt>
      <trkpt lat="47.24586" lon="-2.32058">
        <ele>46.400001525879</ele>
        <time>2020-01-09T08:47:43.000Z</time>
      </trkpt>
      <trkpt lat="47.24584" lon="-2.3206">
        <ele>45.799999237061</ele>
        <time>2020-01-09T08:47:44.000Z</time>
      </trkpt>
      <trkpt lat="47.24582" lon="-2.32062">
        <ele>45.200000762939</ele>
        <time>2020-01-09T08:47:45.000Z</time>
      </trkpt>
      <trkpt lat="47.24579" lon="-2.32061">
        <ele>44.599998474121</ele>
        <time>2020-01-09T08:47:46.000Z</time>
      </trkpt>
      <trkpt lat="47.24577" lon="-2.32059">
        <ele>43.799999237061</ele>
        <time>2020-01-09T08:47:47.000Z</time>
      </trkpt>
      <trkpt lat="47.24575" lon="-2.32057">
        <ele>43.200000762939</ele>
        <time>2020-01-09T08:47:48.000Z</time>
      </trkpt>
      <trkpt lat="47.24573" lon="-2.32055">
        <ele>42.400001525879</ele>
        <time>2020-01-09T08:47:49.000Z</time>
      </trkpt>
      <trkpt lat="47.24572" lon="-2.32053">
        <ele>41.599998474121</ele>
        <time>2020-01-09T08:47:50.000Z</time>
      </trkpt>
      <trkpt lat="47.24569" lon="-2.32052">
        <ele>41.599998474121</ele>
        <time>2020-01-09T08:47:52.000Z</time>
      </trkpt>
      <trkpt lat="47.24563" lon="-2.3205">
        <ele>41.599998474121</ele>
        <time>2020-01-09T08:47:56.000Z</time>
      </trkpt>
      <trkpt lat="47.2456" lon="-2.32048">
        <ele>41.599998474121</ele>
        <time>2020-01-09T08:47:57.000Z</time>
      </trkpt>
      <trkpt lat="47.24546" lon="-2.3204">
        <ele>41.599998474121</ele>
        <time>2020-01-09T08:48:01.000Z</time>
      </trkpt>
      <trkpt lat="47.24536" lon="-2.32033">
        <ele>41.599998474121</ele>
        <time>2020-01-09T08:48:04.000Z</time>
      </trkpt>
      <trkpt lat="47.24527" lon="-2.32028">
        <ele>41.599998474121</ele>
        <time>2020-01-09T08:48:06.000Z</time>
      </trkpt>
      <trkpt lat="47.24522" lon="-2.32026">
        <ele>41.599998474121</ele>
        <time>2020-01-09T08:48:07.000Z</time>
      </trkpt>
      <trkpt lat="47.24509" lon="-2.32021">
        <ele>41.599998474121</ele>
        <time>2020-01-09T08:48:10.000Z</time>
      </trkpt>
      <trkpt lat="47.24501" lon="-2.32013">
        <ele>41.599998474121</ele>
        <time>2020-01-09T08:48:12.000Z</time>
      </trkpt>
      <trkpt lat="47.24486" lon="-2.31997">
        <ele>41.599998474121</ele>
        <time>2020-01-09T08:48:16.000Z</time>
      </trkpt>
      <trkpt lat="47.24479" lon="-2.31989">
        <ele>41.599998474121</ele>
        <time>2020-01-09T08:48:18.000Z</time>
      </trkpt>
      <trkpt lat="47.2447" lon="-2.31973">
        <ele>41.599998474121</ele>
        <time>2020-01-09T08:48:21.000Z</time>
      </trkpt>
      <trkpt lat="47.24467" lon="-2.31966">
        <ele>41.599998474121</ele>
        <time>2020-01-09T08:48:22.000Z</time>
      </trkpt>
      <trkpt lat="47.24458" lon="-2.31942">
        <ele>41.599998474121</ele>
        <time>2020-01-09T08:48:26.000Z</time>
      </trkpt>
      <trkpt lat="47.24453" lon="-2.3193">
        <ele>41.599998474121</ele>
        <time>2020-01-09T08:48:30.000Z</time>
      </trkpt>
      <trkpt lat="47.24452" lon="-2.31924">
        <ele>41.599998474121</ele>
        <time>2020-01-09T08:48:34.000Z</time>
      </trkpt>
      <trkpt lat="47.24451" lon="-2.31922">
        <ele>41.599998474121</ele>
        <time>2020-01-09T08:48:37.000Z</time>
      </trkpt>
      <trkpt lat="47.24449" lon="-2.31917">
        <ele>41.599998474121</ele>
        <time>2020-01-09T08:48:42.000Z</time>
      </trkpt>
      <trkpt lat="47.24447" lon="-2.31911">
        <ele>41.599998474121</ele>
        <time>2020-01-09T08:48:44.000Z</time>
      </trkpt>
      <trkpt lat="47.24444" lon="-2.31899">
        <ele>42.200000762939</ele>
        <time>2020-01-09T08:48:47.000Z</time>
      </trkpt>
      <trkpt lat="47.24443" lon="-2.31896">
        <ele>42.599998474121</ele>
        <time>2020-01-09T08:48:48.000Z</time>
      </trkpt>
      <trkpt lat="47.24441" lon="-2.31893">
        <ele>43</ele>
        <time>2020-01-09T08:48:49.000Z</time>
      </trkpt>
      <trkpt lat="47.2444" lon="-2.31889">
        <ele>43.400001525879</ele>
        <time>2020-01-09T08:48:50.000Z</time>
      </trkpt>
      <trkpt lat="47.24438" lon="-2.31885">
        <ele>43.799999237061</ele>
        <time>2020-01-09T08:48:51.000Z</time>
      </trkpt>
      <trkpt lat="47.2443" lon="-2.31876">
        <ele>43.799999237061</ele>
        <time>2020-01-09T08:48:54.000Z</time>
      </trkpt>
      <trkpt lat="47.24422" lon="-2.31874">
        <ele>43.799999237061</ele>
        <time>2020-01-09T08:48:56.000Z</time>
      </trkpt>
      <trkpt lat="47.24415" lon="-2.31871">
        <ele>43.799999237061</ele>
        <time>2020-01-09T08:48:58.000Z</time>
      </trkpt>
      <trkpt lat="47.24405" lon="-2.31863">
        <ele>43.799999237061</ele>
        <time>2020-01-09T08:49:03.000Z</time>
      </trkpt>
      <trkpt lat="47.24389" lon="-2.31849">
        <ele>43.799999237061</ele>
        <time>2020-01-09T08:49:09.000Z</time>
      </trkpt>
      <trkpt lat="47.24371" lon="-2.31826">
        <ele>43.799999237061</ele>
        <time>2020-01-09T08:49:15.000Z</time>
      </trkpt>
      <trkpt lat="47.24353" lon="-2.31794">
        <ele>43.799999237061</ele>
        <time>2020-01-09T08:49:22.000Z</time>
      </trkpt>
      <trkpt lat="47.2435" lon="-2.31768">
        <ele>43.799999237061</ele>
        <time>2020-01-09T08:49:27.000Z</time>
      </trkpt>
      <trkpt lat="47.24346" lon="-2.31755">
        <ele>43.799999237061</ele>
        <time>2020-01-09T08:49:30.000Z</time>
      </trkpt>
      <trkpt lat="47.24342" lon="-2.31753">
        <ele>43.799999237061</ele>
        <time>2020-01-09T08:49:31.000Z</time>
      </trkpt>
      <trkpt lat="47.24327" lon="-2.3174">
        <ele>43.799999237061</ele>
        <time>2020-01-09T08:49:36.000Z</time>
      </trkpt>
      <trkpt lat="47.24326" lon="-2.31736">
        <ele>43.799999237061</ele>
        <time>2020-01-09T08:49:37.000Z</time>
      </trkpt>
      <trkpt lat="47.24329" lon="-2.31729">
        <ele>43.799999237061</ele>
        <time>2020-01-09T08:49:39.000Z</time>
      </trkpt>
      <trkpt lat="47.24334" lon="-2.31723">
        <ele>43.799999237061</ele>
        <time>2020-01-09T08:49:41.000Z</time>
      </trkpt>
      <trkpt lat="47.2434" lon="-2.31716">
        <ele>43.799999237061</ele>
        <time>2020-01-09T08:49:43.000Z</time>
      </trkpt>
      <trkpt lat="47.24343" lon="-2.31716">
        <ele>43.799999237061</ele>
        <time>2020-01-09T08:49:44.000Z</time>
      </trkpt>
      <trkpt lat="47.2435" lon="-2.31721">
        <ele>43.799999237061</ele>
        <time>2020-01-09T08:49:46.000Z</time>
      </trkpt>
      <trkpt lat="47.24359" lon="-2.31717">
        <ele>43.799999237061</ele>
        <time>2020-01-09T08:49:49.000Z</time>
      </trkpt>
      <trkpt lat="47.24362" lon="-2.31707">
        <ele>43.799999237061</ele>
        <time>2020-01-09T08:49:51.000Z</time>
      </trkpt>
      <trkpt lat="47.24366" lon="-2.31695">
        <ele>43.799999237061</ele>
        <time>2020-01-09T08:49:53.000Z</time>
      </trkpt>
      <trkpt lat="47.24367" lon="-2.31689">
        <ele>44.400001525879</ele>
        <time>2020-01-09T08:49:54.000Z</time>
      </trkpt>
      <trkpt lat="47.24369" lon="-2.31682">
        <ele>44.799999237061</ele>
        <time>2020-01-09T08:49:55.000Z</time>
      </trkpt>
      <trkpt lat="47.2437" lon="-2.31676">
        <ele>45.200000762939</ele>
        <time>2020-01-09T08:49:56.000Z</time>
      </trkpt>
      <trkpt lat="47.24371" lon="-2.31669">
        <ele>45.599998474121</ele>
        <time>2020-01-09T08:49:57.000Z</time>
      </trkpt>
      <trkpt lat="47.24372" lon="-2.31662">
        <ele>46</ele>
        <time>2020-01-09T08:49:58.000Z</time>
      </trkpt>
      <trkpt lat="47.24373" lon="-2.31655">
        <ele>46</ele>
        <time>2020-01-09T08:49:59.000Z</time>
      </trkpt>
      <trkpt lat="47.24373" lon="-2.31648">
        <ele>46</ele>
        <time>2020-01-09T08:50:00.000Z</time>
      </trkpt>
      <trkpt lat="47.24374" lon="-2.31624">
        <ele>46</ele>
        <time>2020-01-09T08:50:04.000Z</time>
      </trkpt>
      <trkpt lat="47.24373" lon="-2.31602">
        <ele>46</ele>
        <time>2020-01-09T08:50:07.000Z</time>
      </trkpt>
      <trkpt lat="47.24373" lon="-2.31595">
        <ele>46</ele>
        <time>2020-01-09T08:50:08.000Z</time>
      </trkpt>
      <trkpt lat="47.24365" lon="-2.31568">
        <ele>46</ele>
        <time>2020-01-09T08:50:12.000Z</time>
      </trkpt>
      <trkpt lat="47.24364" lon="-2.31558">
        <ele>45.599998474121</ele>
        <time>2020-01-09T08:50:15.000Z</time>
      </trkpt>
      <trkpt lat="47.24364" lon="-2.31555">
        <ele>45.200000762939</ele>
        <time>2020-01-09T08:50:16.000Z</time>
      </trkpt>
      <trkpt lat="47.24364" lon="-2.31552">
        <ele>44.599998474121</ele>
        <time>2020-01-09T08:50:17.000Z</time>
      </trkpt>
      <trkpt lat="47.24364" lon="-2.31549">
        <ele>44.200000762939</ele>
        <time>2020-01-09T08:50:18.000Z</time>
      </trkpt>
      <trkpt lat="47.24364" lon="-2.31547">
        <ele>43.799999237061</ele>
        <time>2020-01-09T08:50:19.000Z</time>
      </trkpt>
      <trkpt lat="47.24364" lon="-2.31543">
        <ele>43.799999237061</ele>
        <time>2020-01-09T08:50:21.000Z</time>
      </trkpt>
      <trkpt lat="47.24364" lon="-2.31541">
        <ele>43.799999237061</ele>
        <time>2020-01-09T08:50:22.000Z</time>
      </trkpt>
      <trkpt lat="47.24365" lon="-2.31537">
        <ele>43.799999237061</ele>
        <time>2020-01-09T08:50:25.000Z</time>
      </trkpt>
      <trkpt lat="47.24364" lon="-2.31534">
        <ele>43.799999237061</ele>
        <time>2020-01-09T08:50:27.000Z</time>
      </trkpt>
      <trkpt lat="47.24362" lon="-2.31528">
        <ele>43.799999237061</ele>
        <time>2020-01-09T08:50:29.000Z</time>
      </trkpt>
      <trkpt lat="47.24359" lon="-2.31521">
        <ele>43.799999237061</ele>
        <time>2020-01-09T08:50:31.000Z</time>
      </trkpt>
      <trkpt lat="47.24354" lon="-2.31496">
        <ele>43.799999237061</ele>
        <time>2020-01-09T08:50:36.000Z</time>
      </trkpt>
      <trkpt lat="47.24357" lon="-2.31478">
        <ele>43.799999237061</ele>
        <time>2020-01-09T08:50:39.000Z</time>
      </trkpt>
      <trkpt lat="47.24361" lon="-2.31467">
        <ele>43.799999237061</ele>
        <time>2020-01-09T08:50:41.000Z</time>
      </trkpt>
      <trkpt lat="47.24372" lon="-2.31451">
        <ele>43.799999237061</ele>
        <time>2020-01-09T08:50:45.000Z</time>
      </trkpt>
      <trkpt lat="47.24383" lon="-2.31432">
        <ele>44.200000762939</ele>
        <time>2020-01-09T08:50:50.000Z</time>
      </trkpt>
      <trkpt lat="47.24385" lon="-2.31428">
        <ele>44.599998474121</ele>
        <time>2020-01-09T08:50:51.000Z</time>
      </trkpt>
      <trkpt lat="47.24387" lon="-2.31422">
        <ele>45</ele>
        <time>2020-01-09T08:50:52.000Z</time>
      </trkpt>
      <trkpt lat="47.24387" lon="-2.31416">
        <ele>45.400001525879</ele>
        <time>2020-01-09T08:50:53.000Z</time>
      </trkpt>
      <trkpt lat="47.24386" lon="-2.3141">
        <ele>45.799999237061</ele>
        <time>2020-01-09T08:50:54.000Z</time>
      </trkpt>
      <trkpt lat="47.24376" lon="-2.31384">
        <ele>45.799999237061</ele>
        <time>2020-01-09T08:50:58.000Z</time>
      </trkpt>
      <trkpt lat="47.24367" lon="-2.31353">
        <ele>45.799999237061</ele>
        <time>2020-01-09T08:51:03.000Z</time>
      </trkpt>
      <trkpt lat="47.24373" lon="-2.31337">
        <ele>45.799999237061</ele>
        <time>2020-01-09T08:51:06.000Z</time>
      </trkpt>
      <trkpt lat="47.24385" lon="-2.31325">
        <ele>45.799999237061</ele>
        <time>2020-01-09T08:51:09.000Z</time>
      </trkpt>
      <trkpt lat="47.24389" lon="-2.31322">
        <ele>45.799999237061</ele>
        <time>2020-01-09T08:51:10.000Z</time>
      </trkpt>
      <trkpt lat="47.24412" lon="-2.31303">
        <ele>45.799999237061</ele>
        <time>2020-01-09T08:51:16.000Z</time>
      </trkpt>
      <trkpt lat="47.24416" lon="-2.31301">
        <ele>46.200000762939</ele>
        <time>2020-01-09T08:51:17.000Z</time>
      </trkpt>
      <trkpt lat="47.24419" lon="-2.31298">
        <ele>47</ele>
        <time>2020-01-09T08:51:18.000Z</time>
      </trkpt>
      <trkpt lat="47.24423" lon="-2.31295">
        <ele>47.400001525879</ele>
        <time>2020-01-09T08:51:19.000Z</time>
      </trkpt>
      <trkpt lat="47.24427" lon="-2.31292">
        <ele>47.799999237061</ele>
        <time>2020-01-09T08:51:20.000Z</time>
      </trkpt>
      <trkpt lat="47.24434" lon="-2.31286">
        <ele>48.400001525879</ele>
        <time>2020-01-09T08:51:22.000Z</time>
      </trkpt>
      <trkpt lat="47.24437" lon="-2.31283">
        <ele>48.799999237061</ele>
        <time>2020-01-09T08:51:23.000Z</time>
      </trkpt>
      <trkpt lat="47.24441" lon="-2.31281">
        <ele>49.200000762939</ele>
        <time>2020-01-09T08:51:24.000Z</time>
      </trkpt>
      <trkpt lat="47.24444" lon="-2.31279">
        <ele>49.599998474121</ele>
        <time>2020-01-09T08:51:25.000Z</time>
      </trkpt>
      <trkpt lat="47.24447" lon="-2.31275">
        <ele>50</ele>
        <time>2020-01-09T08:51:26.000Z</time>
      </trkpt>
      <trkpt lat="47.2445" lon="-2.31271">
        <ele>50</ele>
        <time>2020-01-09T08:51:27.000Z</time>
      </trkpt>
      <trkpt lat="47.24452" lon="-2.31268">
        <ele>50.400001525879</ele>
        <time>2020-01-09T08:51:28.000Z</time>
      </trkpt>
      <trkpt lat="47.24455" lon="-2.31266">
        <ele>50.799999237061</ele>
        <time>2020-01-09T08:51:29.000Z</time>
      </trkpt>
      <trkpt lat="47.24457" lon="-2.31264">
        <ele>51.200000762939</ele>
        <time>2020-01-09T08:51:30.000Z</time>
      </trkpt>
      <trkpt lat="47.24458" lon="-2.3126">
        <ele>51.599998474121</ele>
        <time>2020-01-09T08:51:31.000Z</time>
      </trkpt>
      <trkpt lat="47.24458" lon="-2.31257">
        <ele>52</ele>
        <time>2020-01-09T08:51:32.000Z</time>
      </trkpt>
      <trkpt lat="47.24454" lon="-2.31236">
        <ele>52</ele>
        <time>2020-01-09T08:51:37.000Z</time>
      </trkpt>
      <trkpt lat="47.24446" lon="-2.31223">
        <ele>52</ele>
        <time>2020-01-09T08:51:41.000Z</time>
      </trkpt>
      <trkpt lat="47.24443" lon="-2.31222">
        <ele>52</ele>
        <time>2020-01-09T08:51:42.000Z</time>
      </trkpt>
      <trkpt lat="47.24431" lon="-2.31225">
        <ele>52</ele>
        <time>2020-01-09T08:51:46.000Z</time>
      </trkpt>
      <trkpt lat="47.24426" lon="-2.31219">
        <ele>52</ele>
        <time>2020-01-09T08:51:49.000Z</time>
      </trkpt>
      <trkpt lat="47.24426" lon="-2.31219">
        <ele>51.599998474121</ele>
        <time>2020-01-09T08:51:50.000Z</time>
      </trkpt>
      <trkpt lat="47.24425" lon="-2.31217">
        <ele>51.200000762939</ele>
        <time>2020-01-09T08:51:51.000Z</time>
      </trkpt>
      <trkpt lat="47.24424" lon="-2.31215">
        <ele>50.799999237061</ele>
        <time>2020-01-09T08:51:52.000Z</time>
      </trkpt>
      <trkpt lat="47.24423" lon="-2.31213">
        <ele>50.400001525879</ele>
        <time>2020-01-09T08:51:53.000Z</time>
      </trkpt>
      <trkpt lat="47.24423" lon="-2.3121">
        <ele>50</ele>
        <time>2020-01-09T08:51:54.000Z</time>
      </trkpt>
      <trkpt lat="47.24416" lon="-2.312">
        <ele>50</ele>
        <time>2020-01-09T08:51:58.000Z</time>
      </trkpt>
      <trkpt lat="47.24415" lon="-2.31197">
        <ele>50</ele>
        <time>2020-01-09T08:51:59.000Z</time>
      </trkpt>
      <trkpt lat="47.24415" lon="-2.31195">
        <ele>50.400001525879</ele>
        <time>2020-01-09T08:52:00.000Z</time>
      </trkpt>
      <trkpt lat="47.24415" lon="-2.31193">
        <ele>50.799999237061</ele>
        <time>2020-01-09T08:52:01.000Z</time>
      </trkpt>
      <trkpt lat="47.24413" lon="-2.3119">
        <ele>51.400001525879</ele>
        <time>2020-01-09T08:52:02.000Z</time>
      </trkpt>
      <trkpt lat="47.24411" lon="-2.31187">
        <ele>51.799999237061</ele>
        <time>2020-01-09T08:52:03.000Z</time>
      </trkpt>
      <trkpt lat="47.24409" lon="-2.31184">
        <ele>52.200000762939</ele>
        <time>2020-01-09T08:52:04.000Z</time>
      </trkpt>
      <trkpt lat="47.24404" lon="-2.3118">
        <ele>52.599998474121</ele>
        <time>2020-01-09T08:52:06.000Z</time>
      </trkpt>
      <trkpt lat="47.24401" lon="-2.31176">
        <ele>53</ele>
        <time>2020-01-09T08:52:07.000Z</time>
      </trkpt>
      <trkpt lat="47.24397" lon="-2.31173">
        <ele>53.799999237061</ele>
        <time>2020-01-09T08:52:08.000Z</time>
      </trkpt>
      <trkpt lat="47.24394" lon="-2.31169">
        <ele>54.200000762939</ele>
        <time>2020-01-09T08:52:09.000Z</time>
      </trkpt>
      <trkpt lat="47.24385" lon="-2.31161">
        <ele>54.200000762939</ele>
        <time>2020-01-09T08:52:12.000Z</time>
      </trkpt>
      <trkpt lat="47.24372" lon="-2.31144">
        <ele>54.200000762939</ele>
        <time>2020-01-09T08:52:17.000Z</time>
      </trkpt>
      <trkpt lat="47.24357" lon="-2.31116">
        <ele>54.200000762939</ele>
        <time>2020-01-09T08:52:23.000Z</time>
      </trkpt>
      <trkpt lat="47.2435" lon="-2.31096">
        <ele>54.200000762939</ele>
        <time>2020-01-09T08:52:27.000Z</time>
      </trkpt>
      <trkpt lat="47.24345" lon="-2.31072">
        <ele>54.200000762939</ele>
        <time>2020-01-09T08:52:32.000Z</time>
      </trkpt>
      <trkpt lat="47.2434" lon="-2.31058">
        <ele>54.599998474121</ele>
        <time>2020-01-09T08:52:36.000Z</time>
      </trkpt>
      <trkpt lat="47.24339" lon="-2.31055">
        <ele>55</ele>
        <time>2020-01-09T08:52:37.000Z</time>
      </trkpt>
      <trkpt lat="47.24337" lon="-2.31053">
        <ele>55.400001525879</ele>
        <time>2020-01-09T08:52:38.000Z</time>
      </trkpt>
      <trkpt lat="47.24335" lon="-2.31051">
        <ele>55.799999237061</ele>
        <time>2020-01-09T08:52:39.000Z</time>
      </trkpt>
      <trkpt lat="47.24333" lon="-2.31049">
        <ele>56.200000762939</ele>
        <time>2020-01-09T08:52:40.000Z</time>
      </trkpt>
      <trkpt lat="47.24325" lon="-2.31044">
        <ele>56.200000762939</ele>
        <time>2020-01-09T08:52:42.000Z</time>
      </trkpt>
      <trkpt lat="47.2432" lon="-2.31042">
        <ele>56.200000762939</ele>
        <time>2020-01-09T08:52:43.000Z</time>
      </trkpt>
      <trkpt lat="47.24298" lon="-2.31038">
        <ele>56.200000762939</ele>
        <time>2020-01-09T08:52:47.000Z</time>
      </trkpt>
      <trkpt lat="47.24283" lon="-2.31035">
        <ele>55.799999237061</ele>
        <time>2020-01-09T08:52:50.000Z</time>
      </trkpt>
      <trkpt lat="47.24281" lon="-2.31033">
        <ele>55.400001525879</ele>
        <time>2020-01-09T08:52:51.000Z</time>
      </trkpt>
      <trkpt lat="47.2428" lon="-2.31028">
        <ele>55</ele>
        <time>2020-01-09T08:52:52.000Z</time>
      </trkpt>
      <trkpt lat="47.2428" lon="-2.31023">
        <ele>54.599998474121</ele>
        <time>2020-01-09T08:52:53.000Z</time>
      </trkpt>
      <trkpt lat="47.24281" lon="-2.31017">
        <ele>54</ele>
        <time>2020-01-09T08:52:54.000Z</time>
      </trkpt>
      <trkpt lat="47.24284" lon="-2.31005">
        <ele>54</ele>
        <time>2020-01-09T08:52:56.000Z</time>
      </trkpt>
      <trkpt lat="47.24285" lon="-2.30998">
        <ele>54</ele>
        <time>2020-01-09T08:52:57.000Z</time>
      </trkpt>
      <trkpt lat="47.24287" lon="-2.30984">
        <ele>54</ele>
        <time>2020-01-09T08:52:59.000Z</time>
      </trkpt>
      <trkpt lat="47.24291" lon="-2.30956">
        <ele>54.400001525879</ele>
        <time>2020-01-09T08:53:04.000Z</time>
      </trkpt>
      <trkpt lat="47.24291" lon="-2.3095">
        <ele>55</ele>
        <time>2020-01-09T08:53:05.000Z</time>
      </trkpt>
      <trkpt lat="47.24292" lon="-2.30945">
        <ele>55.400001525879</ele>
        <time>2020-01-09T08:53:06.000Z</time>
      </trkpt>
      <trkpt lat="47.24292" lon="-2.30939">
        <ele>55.799999237061</ele>
        <time>2020-01-09T08:53:07.000Z</time>
      </trkpt>
      <trkpt lat="47.24292" lon="-2.30934">
        <ele>56.200000762939</ele>
        <time>2020-01-09T08:53:08.000Z</time>
      </trkpt>
      <trkpt lat="47.24292" lon="-2.30929">
        <ele>56.599998474121</ele>
        <time>2020-01-09T08:53:09.000Z</time>
      </trkpt>
      <trkpt lat="47.24293" lon="-2.30924">
        <ele>57</ele>
        <time>2020-01-09T08:53:10.000Z</time>
      </trkpt>
      <trkpt lat="47.24293" lon="-2.30918">
        <ele>57.400001525879</ele>
        <time>2020-01-09T08:53:11.000Z</time>
      </trkpt>
      <trkpt lat="47.24292" lon="-2.30912">
        <ele>57.799999237061</ele>
        <time>2020-01-09T08:53:12.000Z</time>
      </trkpt>
      <trkpt lat="47.24291" lon="-2.30907">
        <ele>58.200000762939</ele>
        <time>2020-01-09T08:53:13.000Z</time>
      </trkpt>
      <trkpt lat="47.24289" lon="-2.30898">
        <ele>58.200000762939</ele>
        <time>2020-01-09T08:53:15.000Z</time>
      </trkpt>
      <trkpt lat="47.24287" lon="-2.30878">
        <ele>58.599998474121</ele>
        <time>2020-01-09T08:53:19.000Z</time>
      </trkpt>
      <trkpt lat="47.24287" lon="-2.30872">
        <ele>59.200000762939</ele>
        <time>2020-01-09T08:53:20.000Z</time>
      </trkpt>
      <trkpt lat="47.24289" lon="-2.30867">
        <ele>59.599998474121</ele>
        <time>2020-01-09T08:53:21.000Z</time>
      </trkpt>
      <trkpt lat="47.2429" lon="-2.30862">
        <ele>60.400001525879</ele>
        <time>2020-01-09T08:53:22.000Z</time>
      </trkpt>
      <trkpt lat="47.24291" lon="-2.30858">
        <ele>60.400001525879</ele>
        <time>2020-01-09T08:53:23.000Z</time>
      </trkpt>
      <trkpt lat="47.24294" lon="-2.30848">
        <ele>60.400001525879</ele>
        <time>2020-01-09T08:53:25.000Z</time>
      </trkpt>
      <trkpt lat="47.24298" lon="-2.30832">
        <ele>60.400001525879</ele>
        <time>2020-01-09T08:53:28.000Z</time>
      </trkpt>
      <trkpt lat="47.24307" lon="-2.30815">
        <ele>60.799999237061</ele>
        <time>2020-01-09T08:53:32.000Z</time>
      </trkpt>
      <trkpt lat="47.2431" lon="-2.30812">
        <ele>61.200000762939</ele>
        <time>2020-01-09T08:53:33.000Z</time>
      </trkpt>
      <trkpt lat="47.24312" lon="-2.3081">
        <ele>61.599998474121</ele>
        <time>2020-01-09T08:53:34.000Z</time>
      </trkpt>
      <trkpt lat="47.24316" lon="-2.30807">
        <ele>62.200000762939</ele>
        <time>2020-01-09T08:53:35.000Z</time>
      </trkpt>
      <trkpt lat="47.24319" lon="-2.30805">
        <ele>62.599998474121</ele>
        <time>2020-01-09T08:53:36.000Z</time>
      </trkpt>
      <trkpt lat="47.24331" lon="-2.30801">
        <ele>62.599998474121</ele>
        <time>2020-01-09T08:53:39.000Z</time>
      </trkpt>
      <trkpt lat="47.24351" lon="-2.30793">
        <ele>62.599998474121</ele>
        <time>2020-01-09T08:53:44.000Z</time>
      </trkpt>
      <trkpt lat="47.24363" lon="-2.30787">
        <ele>63.400001525879</ele>
        <time>2020-01-09T08:53:47.000Z</time>
      </trkpt>
      <trkpt lat="47.24367" lon="-2.30785">
        <ele>63.799999237061</ele>
        <time>2020-01-09T08:53:48.000Z</time>
      </trkpt>
      <trkpt lat="47.2437" lon="-2.30782">
        <ele>64.199996948242</ele>
        <time>2020-01-09T08:53:49.000Z</time>
      </trkpt>
      <trkpt lat="47.24373" lon="-2.30779">
        <ele>64.599998474121</ele>
        <time>2020-01-09T08:53:50.000Z</time>
      </trkpt>
      <trkpt lat="47.2438" lon="-2.30766">
        <ele>65.199996948242</ele>
        <time>2020-01-09T08:53:53.000Z</time>
      </trkpt>
      <trkpt lat="47.24381" lon="-2.30762">
        <ele>65.599998474121</ele>
        <time>2020-01-09T08:53:54.000Z</time>
      </trkpt>
      <trkpt lat="47.24383" lon="-2.30759">
        <ele>66</ele>
        <time>2020-01-09T08:53:55.000Z</time>
      </trkpt>
      <trkpt lat="47.24385" lon="-2.30757">
        <ele>66.400001525879</ele>
        <time>2020-01-09T08:53:56.000Z</time>
      </trkpt>
      <trkpt lat="47.24387" lon="-2.30755">
        <ele>66.800003051758</ele>
        <time>2020-01-09T08:53:57.000Z</time>
      </trkpt>
      <trkpt lat="47.24394" lon="-2.30747">
        <ele>66.800003051758</ele>
        <time>2020-01-09T08:54:00.000Z</time>
      </trkpt>
      <trkpt lat="47.24396" lon="-2.30741">
        <ele>66.800003051758</ele>
        <time>2020-01-09T08:54:01.000Z</time>
      </trkpt>
      <trkpt lat="47.24398" lon="-2.30735">
        <ele>67.199996948242</ele>
        <time>2020-01-09T08:54:02.000Z</time>
      </trkpt>
      <trkpt lat="47.24398" lon="-2.3073">
        <ele>67.599998474121</ele>
        <time>2020-01-09T08:54:03.000Z</time>
      </trkpt>
      <trkpt lat="47.24398" lon="-2.30724">
        <ele>68</ele>
        <time>2020-01-09T08:54:04.000Z</time>
      </trkpt>
      <trkpt lat="47.24399" lon="-2.30718">
        <ele>68.400001525879</ele>
        <time>2020-01-09T08:54:05.000Z</time>
      </trkpt>
      <trkpt lat="47.244" lon="-2.30712">
        <ele>68.800003051758</ele>
        <time>2020-01-09T08:54:06.000Z</time>
      </trkpt>
      <trkpt lat="47.24402" lon="-2.307">
        <ele>68.800003051758</ele>
        <time>2020-01-09T08:54:08.000Z</time>
      </trkpt>
      <trkpt lat="47.24412" lon="-2.30666">
        <ele>68.800003051758</ele>
        <time>2020-01-09T08:54:13.000Z</time>
      </trkpt>
      <trkpt lat="47.24418" lon="-2.30648">
        <ele>68.800003051758</ele>
        <time>2020-01-09T08:54:16.000Z</time>
      </trkpt>
      <trkpt lat="47.24423" lon="-2.30631">
        <ele>68.800003051758</ele>
        <time>2020-01-09T08:54:19.000Z</time>
      </trkpt>
      <trkpt lat="47.24434" lon="-2.30616">
        <ele>68.800003051758</ele>
        <time>2020-01-09T08:54:23.000Z</time>
      </trkpt>
      <trkpt lat="47.24451" lon="-2.30602">
        <ele>68.800003051758</ele>
        <time>2020-01-09T08:54:28.000Z</time>
      </trkpt>
      <trkpt lat="47.24454" lon="-2.30596">
        <ele>68.800003051758</ele>
        <time>2020-01-09T08:54:29.000Z</time>
      </trkpt>
      <trkpt lat="47.2446" lon="-2.30584">
        <ele>68.800003051758</ele>
        <time>2020-01-09T08:54:31.000Z</time>
      </trkpt>
      <trkpt lat="47.24472" lon="-2.30557">
        <ele>68</ele>
        <time>2020-01-09T08:54:36.000Z</time>
      </trkpt>
      <trkpt lat="47.24473" lon="-2.30554">
        <ele>67.599998474121</ele>
        <time>2020-01-09T08:54:37.000Z</time>
      </trkpt>
      <trkpt lat="47.24473" lon="-2.30552">
        <ele>67.199996948242</ele>
        <time>2020-01-09T08:54:38.000Z</time>
      </trkpt>
      <trkpt lat="47.24473" lon="-2.3055">
        <ele>66.800003051758</ele>
        <time>2020-01-09T08:54:39.000Z</time>
      </trkpt>
      <trkpt lat="47.24471" lon="-2.30549">
        <ele>66.800003051758</ele>
        <time>2020-01-09T08:54:41.000Z</time>
      </trkpt>
      <trkpt lat="47.24466" lon="-2.30549">
        <ele>66.800003051758</ele>
        <time>2020-01-09T08:54:44.000Z</time>
      </trkpt>
      <trkpt lat="47.24454" lon="-2.30559">
        <ele>66.800003051758</ele>
        <time>2020-01-09T08:54:49.000Z</time>
      </trkpt>
      <trkpt lat="47.24438" lon="-2.30572">
        <ele>66.400001525879</ele>
        <time>2020-01-09T08:54:53.000Z</time>
      </trkpt>
      <trkpt lat="47.24434" lon="-2.30573">
        <ele>66</ele>
        <time>2020-01-09T08:54:54.000Z</time>
      </trkpt>
      <trkpt lat="47.24429" lon="-2.30575">
        <ele>65.599998474121</ele>
        <time>2020-01-09T08:54:55.000Z</time>
      </trkpt>
      <trkpt lat="47.24424" lon="-2.30577">
        <ele>65</ele>
        <time>2020-01-09T08:54:56.000Z</time>
      </trkpt>
      <trkpt lat="47.24419" lon="-2.30579">
        <ele>64.599998474121</ele>
        <time>2020-01-09T08:54:57.000Z</time>
      </trkpt>
      <trkpt lat="47.2441" lon="-2.3058">
        <ele>64.599998474121</ele>
        <time>2020-01-09T08:54:59.000Z</time>
      </trkpt>
      <trkpt lat="47.24407" lon="-2.30579">
        <ele>64.599998474121</ele>
        <time>2020-01-09T08:55:00.000Z</time>
      </trkpt>
      <trkpt lat="47.24398" lon="-2.30574">
        <ele>64.199996948242</ele>
        <time>2020-01-09T08:55:03.000Z</time>
      </trkpt>
      <trkpt lat="47.24394" lon="-2.30572">
        <ele>63.799999237061</ele>
        <time>2020-01-09T08:55:04.000Z</time>
      </trkpt>
      <trkpt lat="47.2439" lon="-2.3057">
        <ele>63.400001525879</ele>
        <time>2020-01-09T08:55:05.000Z</time>
      </trkpt>
      <trkpt lat="47.24386" lon="-2.30567">
        <ele>63</ele>
        <time>2020-01-09T08:55:06.000Z</time>
      </trkpt>
      <trkpt lat="47.24383" lon="-2.30565">
        <ele>62.599998474121</ele>
        <time>2020-01-09T08:55:07.000Z</time>
      </trkpt>
      <trkpt lat="47.24375" lon="-2.30554">
        <ele>62.599998474121</ele>
        <time>2020-01-09T08:55:10.000Z</time>
      </trkpt>
      <trkpt lat="47.24372" lon="-2.30548">
        <ele>62.599998474121</ele>
        <time>2020-01-09T08:55:11.000Z</time>
      </trkpt>
      <trkpt lat="47.24369" lon="-2.30532">
        <ele>62.599998474121</ele>
        <time>2020-01-09T08:55:14.000Z</time>
      </trkpt>
      <trkpt lat="47.2437" lon="-2.30515">
        <ele>62.599998474121</ele>
        <time>2020-01-09T08:55:18.000Z</time>
      </trkpt>
      <trkpt lat="47.2437" lon="-2.30504">
        <ele>63</ele>
        <time>2020-01-09T08:55:21.000Z</time>
      </trkpt>
      <trkpt lat="47.24372" lon="-2.305">
        <ele>63.400001525879</ele>
        <time>2020-01-09T08:55:22.000Z</time>
      </trkpt>
      <trkpt lat="47.24373" lon="-2.30495">
        <ele>63.799999237061</ele>
        <time>2020-01-09T08:55:23.000Z</time>
      </trkpt>
      <trkpt lat="47.24374" lon="-2.30491">
        <ele>64.400001525879</ele>
        <time>2020-01-09T08:55:24.000Z</time>
      </trkpt>
      <trkpt lat="47.24376" lon="-2.30485">
        <ele>64.800003051758</ele>
        <time>2020-01-09T08:55:25.000Z</time>
      </trkpt>
      <trkpt lat="47.24377" lon="-2.30479">
        <ele>65.199996948242</ele>
        <time>2020-01-09T08:55:26.000Z</time>
      </trkpt>
      <trkpt lat="47.24378" lon="-2.30474">
        <ele>65.599998474121</ele>
        <time>2020-01-09T08:55:27.000Z</time>
      </trkpt>
      <trkpt lat="47.24379" lon="-2.30468">
        <ele>66</ele>
        <time>2020-01-09T08:55:28.000Z</time>
      </trkpt>
      <trkpt lat="47.2438" lon="-2.30462">
        <ele>66.400001525879</ele>
        <time>2020-01-09T08:55:29.000Z</time>
      </trkpt>
      <trkpt lat="47.2438" lon="-2.30457">
        <ele>66.800003051758</ele>
        <time>2020-01-09T08:55:30.000Z</time>
      </trkpt>
      <trkpt lat="47.24378" lon="-2.30451">
        <ele>66.800003051758</ele>
        <time>2020-01-09T08:55:32.000Z</time>
      </trkpt>
      <trkpt lat="47.24378" lon="-2.30449">
        <ele>66.800003051758</ele>
        <time>2020-01-09T08:55:33.000Z</time>
      </trkpt>
      <trkpt lat="47.24376" lon="-2.30449">
        <ele>67.199996948242</ele>
        <time>2020-01-09T08:55:34.000Z</time>
      </trkpt>
      <trkpt lat="47.24373" lon="-2.3045">
        <ele>67.599998474121</ele>
        <time>2020-01-09T08:55:35.000Z</time>
      </trkpt>
      <trkpt lat="47.24369" lon="-2.30451">
        <ele>68</ele>
        <time>2020-01-09T08:55:36.000Z</time>
      </trkpt>
      <trkpt lat="47.24365" lon="-2.30452">
        <ele>68.400001525879</ele>
        <time>2020-01-09T08:55:37.000Z</time>
      </trkpt>
      <trkpt lat="47.24362" lon="-2.30452">
        <ele>68.800003051758</ele>
        <time>2020-01-09T08:55:38.000Z</time>
      </trkpt>
      <trkpt lat="47.24352" lon="-2.30449">
        <ele>68.800003051758</ele>
        <time>2020-01-09T08:55:41.000Z</time>
      </trkpt>
      <trkpt lat="47.24335" lon="-2.3044">
        <ele>69.199996948242</ele>
        <time>2020-01-09T08:55:46.000Z</time>
      </trkpt>
      <trkpt lat="47.24331" lon="-2.30438">
        <ele>69.599998474121</ele>
        <time>2020-01-09T08:55:47.000Z</time>
      </trkpt>
      <trkpt lat="47.24327" lon="-2.30435">
        <ele>70</ele>
        <time>2020-01-09T08:55:48.000Z</time>
      </trkpt>
      <trkpt lat="47.24325" lon="-2.30432">
        <ele>70.400001525879</ele>
        <time>2020-01-09T08:55:49.000Z</time>
      </trkpt>
      <trkpt lat="47.24323" lon="-2.30429">
        <ele>70.800003051758</ele>
        <time>2020-01-09T08:55:50.000Z</time>
      </trkpt>
      <trkpt lat="47.2432" lon="-2.30428">
        <ele>70.800003051758</ele>
        <time>2020-01-09T08:55:51.000Z</time>
      </trkpt>
      <trkpt lat="47.24308" lon="-2.30421">
        <ele>70.800003051758</ele>
        <time>2020-01-09T08:55:56.000Z</time>
      </trkpt>
      <trkpt lat="47.24287" lon="-2.30405">
        <ele>70.800003051758</ele>
        <time>2020-01-09T08:56:02.000Z</time>
      </trkpt>
      <trkpt lat="47.24271" lon="-2.30383">
        <ele>70.800003051758</ele>
        <time>2020-01-09T08:56:08.000Z</time>
      </trkpt>
      <trkpt lat="47.24258" lon="-2.30364">
        <ele>70.800003051758</ele>
        <time>2020-01-09T08:56:14.000Z</time>
      </trkpt>
      <trkpt lat="47.24245" lon="-2.3034">
        <ele>70.800003051758</ele>
        <time>2020-01-09T08:56:20.000Z</time>
      </trkpt>
      <trkpt lat="47.2423" lon="-2.30325">
        <ele>70.800003051758</ele>
        <time>2020-01-09T08:56:25.000Z</time>
      </trkpt>
      <trkpt lat="47.24226" lon="-2.30327">
        <ele>70.800003051758</ele>
        <time>2020-01-09T08:56:26.000Z</time>
      </trkpt>
      <trkpt lat="47.24207" lon="-2.3033">
        <ele>70.800003051758</ele>
        <time>2020-01-09T08:56:30.000Z</time>
      </trkpt>
      <trkpt lat="47.24204" lon="-2.30325">
        <ele>70.400001525879</ele>
        <time>2020-01-09T08:56:32.000Z</time>
      </trkpt>
      <trkpt lat="47.24203" lon="-2.3032">
        <ele>70</ele>
        <time>2020-01-09T08:56:33.000Z</time>
      </trkpt>
      <trkpt lat="47.24201" lon="-2.30314">
        <ele>69.400001525879</ele>
        <time>2020-01-09T08:56:34.000Z</time>
      </trkpt>
      <trkpt lat="47.242" lon="-2.30307">
        <ele>69</ele>
        <time>2020-01-09T08:56:35.000Z</time>
      </trkpt>
      <trkpt lat="47.24198" lon="-2.303">
        <ele>68.400001525879</ele>
        <time>2020-01-09T08:56:36.000Z</time>
      </trkpt>
      <trkpt lat="47.24196" lon="-2.30295">
        <ele>68.400001525879</ele>
        <time>2020-01-09T08:56:37.000Z</time>
      </trkpt>
      <trkpt lat="47.24192" lon="-2.30261">
        <ele>68.400001525879</ele>
        <time>2020-01-09T08:56:42.000Z</time>
      </trkpt>
      <trkpt lat="47.24193" lon="-2.30239">
        <ele>68.400001525879</ele>
        <time>2020-01-09T08:56:47.000Z</time>
      </trkpt>
      <trkpt lat="47.24191" lon="-2.30237">
        <ele>68.400001525879</ele>
        <time>2020-01-09T08:56:48.000Z</time>
      </trkpt>
      <trkpt lat="47.24186" lon="-2.3024">
        <ele>68.400001525879</ele>
        <time>2020-01-09T08:56:50.000Z</time>
      </trkpt>
      <trkpt lat="47.24171" lon="-2.30246">
        <ele>68.400001525879</ele>
        <time>2020-01-09T08:56:54.000Z</time>
      </trkpt>
      <trkpt lat="47.24158" lon="-2.30256">
        <ele>68.400001525879</ele>
        <time>2020-01-09T08:56:58.000Z</time>
      </trkpt>
      <trkpt lat="47.24153" lon="-2.30258">
        <ele>68.400001525879</ele>
        <time>2020-01-09T08:57:00.000Z</time>
      </trkpt>
      <trkpt lat="47.2414" lon="-2.30262">
        <ele>69.400001525879</ele>
        <time>2020-01-09T08:57:04.000Z</time>
      </trkpt>
      <trkpt lat="47.24137" lon="-2.30264">
        <ele>69.800003051758</ele>
        <time>2020-01-09T08:57:05.000Z</time>
      </trkpt>
      <trkpt lat="47.24134" lon="-2.30265">
        <ele>70.400001525879</ele>
        <time>2020-01-09T08:57:06.000Z</time>
      </trkpt>
      <trkpt lat="47.2413" lon="-2.30266">
        <ele>70.800003051758</ele>
        <time>2020-01-09T08:57:07.000Z</time>
      </trkpt>
      <trkpt lat="47.24123" lon="-2.30268">
        <ele>71.199996948242</ele>
        <time>2020-01-09T08:57:09.000Z</time>
      </trkpt>
      <trkpt lat="47.24119" lon="-2.30269">
        <ele>71.800003051758</ele>
        <time>2020-01-09T08:57:10.000Z</time>
      </trkpt>
      <trkpt lat="47.24116" lon="-2.3027">
        <ele>72.199996948242</ele>
        <time>2020-01-09T08:57:11.000Z</time>
      </trkpt>
      <trkpt lat="47.24114" lon="-2.30271">
        <ele>72.599998474121</ele>
        <time>2020-01-09T08:57:12.000Z</time>
      </trkpt>
      <trkpt lat="47.24111" lon="-2.30273">
        <ele>73</ele>
        <time>2020-01-09T08:57:13.000Z</time>
      </trkpt>
      <trkpt lat="47.24103" lon="-2.30277">
        <ele>73</ele>
        <time>2020-01-09T08:57:15.000Z</time>
      </trkpt>
      <trkpt lat="47.24086" lon="-2.30284">
        <ele>73</ele>
        <time>2020-01-09T08:57:20.000Z</time>
      </trkpt>
      <trkpt lat="47.24068" lon="-2.30291">
        <ele>73</ele>
        <time>2020-01-09T08:57:25.000Z</time>
      </trkpt>
      <trkpt lat="47.24052" lon="-2.30297">
        <ele>73</ele>
        <time>2020-01-09T08:57:29.000Z</time>
      </trkpt>
      <trkpt lat="47.24048" lon="-2.30298">
        <ele>73</ele>
        <time>2020-01-09T08:57:30.000Z</time>
      </trkpt>
      <trkpt lat="47.24036" lon="-2.30298">
        <ele>73</ele>
        <time>2020-01-09T08:57:33.000Z</time>
      </trkpt>
      <trkpt lat="47.24033" lon="-2.30293">
        <ele>73</ele>
        <time>2020-01-09T08:57:34.000Z</time>
      </trkpt>
      <trkpt lat="47.24031" lon="-2.30273">
        <ele>73</ele>
        <time>2020-01-09T08:57:37.000Z</time>
      </trkpt>
      <trkpt lat="47.24032" lon="-2.30259">
        <ele>73</ele>
        <time>2020-01-09T08:57:39.000Z</time>
      </trkpt>
      <trkpt lat="47.24036" lon="-2.30236">
        <ele>73</ele>
        <time>2020-01-09T08:57:43.000Z</time>
      </trkpt>
      <trkpt lat="47.24036" lon="-2.30231">
        <ele>73.400001525879</ele>
        <time>2020-01-09T08:57:44.000Z</time>
      </trkpt>
      <trkpt lat="47.24036" lon="-2.30225">
        <ele>74</ele>
        <time>2020-01-09T08:57:45.000Z</time>
      </trkpt>
      <trkpt lat="47.24037" lon="-2.3022">
        <ele>74.400001525879</ele>
        <time>2020-01-09T08:57:46.000Z</time>
      </trkpt>
      <trkpt lat="47.24037" lon="-2.30215">
        <ele>74.800003051758</ele>
        <time>2020-01-09T08:57:47.000Z</time>
      </trkpt>
      <trkpt lat="47.24037" lon="-2.30212">
        <ele>75.199996948242</ele>
        <time>2020-01-09T08:57:48.000Z</time>
      </trkpt>
      <trkpt lat="47.24038" lon="-2.30208">
        <ele>75.199996948242</ele>
        <time>2020-01-09T08:57:49.000Z</time>
      </trkpt>
      <trkpt lat="47.2404" lon="-2.30191">
        <ele>75.599998474121</ele>
        <time>2020-01-09T08:57:54.000Z</time>
      </trkpt>
      <trkpt lat="47.24039" lon="-2.30189">
        <ele>76</ele>
        <time>2020-01-09T08:57:55.000Z</time>
      </trkpt>
      <trkpt lat="47.24039" lon="-2.30186">
        <ele>76.400001525879</ele>
        <time>2020-01-09T08:57:56.000Z</time>
      </trkpt>
      <trkpt lat="47.24038" lon="-2.30183">
        <ele>76.800003051758</ele>
        <time>2020-01-09T08:57:57.000Z</time>
      </trkpt>
      <trkpt lat="47.24036" lon="-2.3018">
        <ele>77.199996948242</ele>
        <time>2020-01-09T08:57:58.000Z</time>
      </trkpt>
      <trkpt lat="47.24032" lon="-2.30175">
        <ele>77.199996948242</ele>
        <time>2020-01-09T08:58:00.000Z</time>
      </trkpt>
      <trkpt lat="47.24029" lon="-2.30173">
        <ele>77.199996948242</ele>
        <time>2020-01-09T08:58:01.000Z</time>
      </trkpt>
      <trkpt lat="47.24018" lon="-2.30168">
        <ele>77.199996948242</ele>
        <time>2020-01-09T08:58:05.000Z</time>
      </trkpt>
      <trkpt lat="47.24" lon="-2.30157">
        <ele>77.199996948242</ele>
        <time>2020-01-09T08:58:10.000Z</time>
      </trkpt>
      <trkpt lat="47.23983" lon="-2.30145">
        <ele>77.199996948242</ele>
        <time>2020-01-09T08:58:15.000Z</time>
      </trkpt>
      <trkpt lat="47.2398" lon="-2.30131">
        <ele>77.199996948242</ele>
        <time>2020-01-09T08:58:19.000Z</time>
      </trkpt>
      <trkpt lat="47.23986" lon="-2.30109">
        <ele>77.199996948242</ele>
        <time>2020-01-09T08:58:25.000Z</time>
      </trkpt>
      <trkpt lat="47.23991" lon="-2.30084">
        <ele>77.199996948242</ele>
        <time>2020-01-09T08:58:30.000Z</time>
      </trkpt>
      <trkpt lat="47.23998" lon="-2.30059">
        <ele>77.199996948242</ele>
        <time>2020-01-09T08:58:35.000Z</time>
      </trkpt>
      <trkpt lat="47.24" lon="-2.30055">
        <ele>77.599998474121</ele>
        <time>2020-01-09T08:58:36.000Z</time>
      </trkpt>
      <trkpt lat="47.24002" lon="-2.30051">
        <ele>78</ele>
        <time>2020-01-09T08:58:37.000Z</time>
      </trkpt>
      <trkpt lat="47.24003" lon="-2.30047">
        <ele>78.400001525879</ele>
        <time>2020-01-09T08:58:38.000Z</time>
      </trkpt>
      <trkpt lat="47.24005" lon="-2.30042">
        <ele>78.800003051758</ele>
        <time>2020-01-09T08:58:39.000Z</time>
      </trkpt>
      <trkpt lat="47.24008" lon="-2.30037">
        <ele>79.199996948242</ele>
        <time>2020-01-09T08:58:40.000Z</time>
      </trkpt>
      <trkpt lat="47.24017" lon="-2.30014">
        <ele>79.199996948242</ele>
        <time>2020-01-09T08:58:45.000Z</time>
      </trkpt>
      <trkpt lat="47.24027" lon="-2.29996">
        <ele>79.199996948242</ele>
        <time>2020-01-09T08:58:50.000Z</time>
      </trkpt>
      <trkpt lat="47.24035" lon="-2.29982">
        <ele>79.199996948242</ele>
        <time>2020-01-09T08:58:53.000Z</time>
      </trkpt>
      <trkpt lat="47.24044" lon="-2.29981">
        <ele>79.199996948242</ele>
        <time>2020-01-09T08:58:55.000Z</time>
      </trkpt>
      <trkpt lat="47.24058" lon="-2.29983">
        <ele>79.199996948242</ele>
        <time>2020-01-09T08:58:59.000Z</time>
      </trkpt>
      <trkpt lat="47.24076" lon="-2.29995">
        <ele>79.199996948242</ele>
        <time>2020-01-09T08:59:04.000Z</time>
      </trkpt>
      <trkpt lat="47.24089" lon="-2.30004">
        <ele>79.199996948242</ele>
        <time>2020-01-09T08:59:08.000Z</time>
      </trkpt>
      <trkpt lat="47.24098" lon="-2.30004">
        <ele>79.199996948242</ele>
        <time>2020-01-09T08:59:11.000Z</time>
      </trkpt>
      <trkpt lat="47.24099" lon="-2.30001">
        <ele>79.199996948242</ele>
        <time>2020-01-09T08:59:12.000Z</time>
      </trkpt>
      <trkpt lat="47.24106" lon="-2.29987">
        <ele>79.199996948242</ele>
        <time>2020-01-09T08:59:17.000Z</time>
      </trkpt>
      <trkpt lat="47.24107" lon="-2.29986">
        <ele>79.599998474121</ele>
        <time>2020-01-09T08:59:18.000Z</time>
      </trkpt>
      <trkpt lat="47.24109" lon="-2.29985">
        <ele>80.199996948242</ele>
        <time>2020-01-09T08:59:19.000Z</time>
      </trkpt>
      <trkpt lat="47.24111" lon="-2.29985">
        <ele>80.599998474121</ele>
        <time>2020-01-09T08:59:20.000Z</time>
      </trkpt>
      <trkpt lat="47.24113" lon="-2.29984">
        <ele>81</ele>
        <time>2020-01-09T08:59:21.000Z</time>
      </trkpt>
      <trkpt lat="47.24114" lon="-2.29984">
        <ele>81.400001525879</ele>
        <time>2020-01-09T08:59:22.000Z</time>
      </trkpt>
      <trkpt lat="47.24133" lon="-2.29981">
        <ele>81.400001525879</ele>
        <time>2020-01-09T08:59:27.000Z</time>
      </trkpt>
      <trkpt lat="47.24143" lon="-2.2998">
        <ele>81.400001525879</ele>
        <time>2020-01-09T08:59:30.000Z</time>
      </trkpt>
      <trkpt lat="47.24148" lon="-2.29982">
        <ele>81.400001525879</ele>
        <time>2020-01-09T08:59:32.000Z</time>
      </trkpt>
      <trkpt lat="47.24162" lon="-2.2999">
        <ele>81.400001525879</ele>
        <time>2020-01-09T08:59:38.000Z</time>
      </trkpt>
      <trkpt lat="47.24164" lon="-2.30009">
        <ele>81.400001525879</ele>
        <time>2020-01-09T09:00:42.000Z</time>
      </trkpt>
      <trkpt lat="47.2416" lon="-2.30009">
        <ele>81.400001525879</ele>
        <time>2020-01-09T09:00:44.000Z</time>
      </trkpt>
      <trkpt lat="47.24152" lon="-2.30009">
        <ele>81.400001525879</ele>
        <time>2020-01-09T09:00:50.000Z</time>
      </trkpt>
      <trkpt lat="47.24146" lon="-2.3001">
        <ele>81.400001525879</ele>
        <time>2020-01-09T09:00:56.000Z</time>
      </trkpt>
      <trkpt lat="47.24144" lon="-2.30011">
        <ele>81.400001525879</ele>
        <time>2020-01-09T09:00:57.000Z</time>
      </trkpt>
      <trkpt lat="47.24137" lon="-2.30021">
        <ele>81.400001525879</ele>
        <time>2020-01-09T09:01:06.000Z</time>
      </trkpt>
      <trkpt lat="47.24137" lon="-2.30026">
        <ele>81.400001525879</ele>
        <time>2020-01-09T09:01:08.000Z</time>
      </trkpt>
      <trkpt lat="47.24137" lon="-2.30034">
        <ele>81.400001525879</ele>
        <time>2020-01-09T09:01:11.000Z</time>
      </trkpt>
      <trkpt lat="47.24138" lon="-2.30048">
        <ele>81.400001525879</ele>
        <time>2020-01-09T09:01:15.000Z</time>
      </trkpt>
      <trkpt lat="47.24137" lon="-2.3007">
        <ele>81.400001525879</ele>
        <time>2020-01-09T09:01:20.000Z</time>
      </trkpt>
      <trkpt lat="47.24123" lon="-2.30078">
        <ele>81.400001525879</ele>
        <time>2020-01-09T09:01:25.000Z</time>
      </trkpt>
      <trkpt lat="47.2411" lon="-2.30095">
        <ele>81.400001525879</ele>
        <time>2020-01-09T09:01:30.000Z</time>
      </trkpt>
      <trkpt lat="47.24105" lon="-2.30114">
        <ele>81.400001525879</ele>
        <time>2020-01-09T09:01:35.000Z</time>
      </trkpt>
      <trkpt lat="47.24104" lon="-2.30124">
        <ele>81.400001525879</ele>
        <time>2020-01-09T09:01:39.000Z</time>
      </trkpt>
      <trkpt lat="47.24094" lon="-2.30126">
        <ele>81.400001525879</ele>
        <time>2020-01-09T09:01:43.000Z</time>
      </trkpt>
      <trkpt lat="47.2409" lon="-2.30133">
        <ele>81.400001525879</ele>
        <time>2020-01-09T09:01:47.000Z</time>
      </trkpt>
      <trkpt lat="47.2409" lon="-2.30134">
        <ele>81.400001525879</ele>
        <time>2020-01-09T09:01:48.000Z</time>
      </trkpt>
      <trkpt lat="47.2409" lon="-2.30139">
        <ele>81.400001525879</ele>
        <time>2020-01-09T09:01:49.000Z</time>
      </trkpt>
      <trkpt lat="47.2409" lon="-2.30147">
        <ele>81.400001525879</ele>
        <time>2020-01-09T09:01:52.000Z</time>
      </trkpt>
      <trkpt lat="47.24084" lon="-2.30154">
        <ele>81.400001525879</ele>
        <time>2020-01-09T09:01:57.000Z</time>
      </trkpt>
      <trkpt lat="47.24082" lon="-2.30155">
        <ele>81.400001525879</ele>
        <time>2020-01-09T09:01:58.000Z</time>
      </trkpt>
      <trkpt lat="47.24071" lon="-2.30167">
        <ele>81.400001525879</ele>
        <time>2020-01-09T09:02:01.000Z</time>
      </trkpt>
      <trkpt lat="47.24068" lon="-2.30171">
        <ele>81.400001525879</ele>
        <time>2020-01-09T09:02:02.000Z</time>
      </trkpt>
      <trkpt lat="47.24055" lon="-2.30189">
        <ele>81.400001525879</ele>
        <time>2020-01-09T09:02:07.000Z</time>
      </trkpt>
      <trkpt lat="47.2406" lon="-2.30196">
        <ele>81.400001525879</ele>
        <time>2020-01-09T09:02:10.000Z</time>
      </trkpt>
      <trkpt lat="47.24069" lon="-2.30191">
        <ele>81.400001525879</ele>
        <time>2020-01-09T09:02:14.000Z</time>
      </trkpt>
      <trkpt lat="47.24074" lon="-2.30181">
        <ele>81.400001525879</ele>
        <time>2020-01-09T09:02:17.000Z</time>
      </trkpt>
      <trkpt lat="47.24082" lon="-2.30168">
        <ele>81.400001525879</ele>
        <time>2020-01-09T09:02:21.000Z</time>
      </trkpt>
      <trkpt lat="47.24084" lon="-2.30165">
        <ele>81.800003051758</ele>
        <time>2020-01-09T09:02:22.000Z</time>
      </trkpt>
      <trkpt lat="47.24087" lon="-2.30165">
        <ele>82.199996948242</ele>
        <time>2020-01-09T09:02:23.000Z</time>
      </trkpt>
      <trkpt lat="47.24091" lon="-2.30166">
        <ele>83</ele>
        <time>2020-01-09T09:02:24.000Z</time>
      </trkpt>
      <trkpt lat="47.24094" lon="-2.30165">
        <ele>83.400001525879</ele>
        <time>2020-01-09T09:02:25.000Z</time>
      </trkpt>
      <trkpt lat="47.24104" lon="-2.3017">
        <ele>83.400001525879</ele>
        <time>2020-01-09T09:02:28.000Z</time>
      </trkpt>
      <trkpt lat="47.24107" lon="-2.30169">
        <ele>83.400001525879</ele>
        <time>2020-01-09T09:02:29.000Z</time>
      </trkpt>
      <trkpt lat="47.24114" lon="-2.30165">
        <ele>83.400001525879</ele>
        <time>2020-01-09T09:02:32.000Z</time>
      </trkpt>
      <trkpt lat="47.24118" lon="-2.3016">
        <ele>83</ele>
        <time>2020-01-09T09:02:35.000Z</time>
      </trkpt>
      <trkpt lat="47.2412" lon="-2.30158">
        <ele>82.599998474121</ele>
        <time>2020-01-09T09:02:36.000Z</time>
      </trkpt>
      <trkpt lat="47.24122" lon="-2.30157">
        <ele>82.199996948242</ele>
        <time>2020-01-09T09:02:37.000Z</time>
      </trkpt>
      <trkpt lat="47.24123" lon="-2.30156">
        <ele>81.800003051758</ele>
        <time>2020-01-09T09:02:38.000Z</time>
      </trkpt>
      <trkpt lat="47.24124" lon="-2.30153">
        <ele>81.400001525879</ele>
        <time>2020-01-09T09:02:39.000Z</time>
      </trkpt>
      <trkpt lat="47.24127" lon="-2.30152">
        <ele>80.800003051758</ele>
        <time>2020-01-09T09:02:41.000Z</time>
      </trkpt>
      <trkpt lat="47.2413" lon="-2.30151">
        <ele>80.400001525879</ele>
        <time>2020-01-09T09:02:42.000Z</time>
      </trkpt>
      <trkpt lat="47.2413" lon="-2.30151">
        <ele>80</ele>
        <time>2020-01-09T09:02:43.000Z</time>
      </trkpt>
      <trkpt lat="47.24132" lon="-2.30152">
        <ele>79.599998474121</ele>
        <time>2020-01-09T09:02:44.000Z</time>
      </trkpt>
      <trkpt lat="47.24133" lon="-2.30152">
        <ele>79</ele>
        <time>2020-01-09T09:02:45.000Z</time>
      </trkpt>
      <trkpt lat="47.24124" lon="-2.30166">
        <ele>80.400001525879</ele>
        <time>2020-01-09T09:03:02.000Z</time>
      </trkpt>
      <trkpt lat="47.24123" lon="-2.30166">
        <ele>80.800003051758</ele>
        <time>2020-01-09T09:03:03.000Z</time>
      </trkpt>
      <trkpt lat="47.2412" lon="-2.30167">
        <ele>81.199996948242</ele>
        <time>2020-01-09T09:03:04.000Z</time>
      </trkpt>
      <trkpt lat="47.24115" lon="-2.30168">
        <ele>81.199996948242</ele>
        <time>2020-01-09T09:03:07.000Z</time>
      </trkpt>
      <trkpt lat="47.24114" lon="-2.30163">
        <ele>81.199996948242</ele>
        <time>2020-01-09T09:03:10.000Z</time>
      </trkpt>
      <trkpt lat="47.24116" lon="-2.30156">
        <ele>82</ele>
        <time>2020-01-09T09:03:13.000Z</time>
      </trkpt>
      <trkpt lat="47.24117" lon="-2.30156">
        <ele>82.400001525879</ele>
        <time>2020-01-09T09:03:14.000Z</time>
      </trkpt>
      <trkpt lat="47.24118" lon="-2.30155">
        <ele>82.800003051758</ele>
        <time>2020-01-09T09:03:15.000Z</time>
      </trkpt>
      <trkpt lat="47.24119" lon="-2.30153">
        <ele>83.199996948242</ele>
        <time>2020-01-09T09:03:16.000Z</time>
      </trkpt>
      <trkpt lat="47.24125" lon="-2.30148">
        <ele>83.199996948242</ele>
        <time>2020-01-09T09:03:20.000Z</time>
      </trkpt>
      <trkpt lat="47.24128" lon="-2.30146">
        <ele>83.199996948242</ele>
        <time>2020-01-09T09:03:21.000Z</time>
      </trkpt>
      <trkpt lat="47.24136" lon="-2.30132">
        <ele>82.800003051758</ele>
        <time>2020-01-09T09:03:24.000Z</time>
      </trkpt>
      <trkpt lat="47.24138" lon="-2.30127">
        <ele>82.400001525879</ele>
        <time>2020-01-09T09:03:25.000Z</time>
      </trkpt>
      <trkpt lat="47.2414" lon="-2.30123">
        <ele>82</ele>
        <time>2020-01-09T09:03:26.000Z</time>
      </trkpt>
      <trkpt lat="47.24142" lon="-2.30117">
        <ele>81.599998474121</ele>
        <time>2020-01-09T09:03:27.000Z</time>
      </trkpt>
      <trkpt lat="47.24143" lon="-2.30112">
        <ele>81.199996948242</ele>
        <time>2020-01-09T09:03:28.000Z</time>
      </trkpt>
      <trkpt lat="47.24144" lon="-2.30091">
        <ele>81.199996948242</ele>
        <time>2020-01-09T09:03:33.000Z</time>
      </trkpt>
      <trkpt lat="47.24141" lon="-2.30076">
        <ele>81.599998474121</ele>
        <time>2020-01-09T09:03:37.000Z</time>
      </trkpt>
      <trkpt lat="47.2414" lon="-2.30071">
        <ele>82.400001525879</ele>
        <time>2020-01-09T09:03:38.000Z</time>
      </trkpt>
      <trkpt lat="47.2414" lon="-2.30068">
        <ele>82.800003051758</ele>
        <time>2020-01-09T09:03:39.000Z</time>
      </trkpt>
      <trkpt lat="47.2414" lon="-2.30065">
        <ele>83.199996948242</ele>
        <time>2020-01-09T09:03:40.000Z</time>
      </trkpt>
      <trkpt lat="47.24139" lon="-2.30056">
        <ele>83.800003051758</ele>
        <time>2020-01-09T09:03:43.000Z</time>
      </trkpt>
      <trkpt lat="47.24139" lon="-2.30053">
        <ele>84.199996948242</ele>
        <time>2020-01-09T09:03:44.000Z</time>
      </trkpt>
      <trkpt lat="47.24139" lon="-2.30051">
        <ele>84.599998474121</ele>
        <time>2020-01-09T09:03:45.000Z</time>
      </trkpt>
      <trkpt lat="47.24138" lon="-2.30049">
        <ele>85.199996948242</ele>
        <time>2020-01-09T09:03:46.000Z</time>
      </trkpt>
      <trkpt lat="47.24138" lon="-2.30047">
        <ele>85.599998474121</ele>
        <time>2020-01-09T09:03:47.000Z</time>
      </trkpt>
      <trkpt lat="47.24137" lon="-2.30028">
        <ele>85.599998474121</ele>
        <time>2020-01-09T09:03:52.000Z</time>
      </trkpt>
      <trkpt lat="47.24139" lon="-2.30017">
        <ele>85.599998474121</ele>
        <time>2020-01-09T09:03:55.000Z</time>
      </trkpt>
      <trkpt lat="47.2414" lon="-2.30011">
        <ele>85.599998474121</ele>
        <time>2020-01-09T09:03:57.000Z</time>
      </trkpt>
      <trkpt lat="47.24142" lon="-2.30005">
        <ele>85.599998474121</ele>
        <time>2020-01-09T09:03:58.000Z</time>
      </trkpt>
      <trkpt lat="47.24147" lon="-2.29999">
        <ele>85.599998474121</ele>
        <time>2020-01-09T09:04:01.000Z</time>
      </trkpt>
      <trkpt lat="47.24151" lon="-2.30004">
        <ele>85.599998474121</ele>
        <time>2020-01-09T09:04:04.000Z</time>
      </trkpt>
      <trkpt lat="47.24154" lon="-2.30009">
        <ele>85.599998474121</ele>
        <time>2020-01-09T09:04:06.000Z</time>
      </trkpt>
      <trkpt lat="47.24155" lon="-2.3001">
        <ele>85.599998474121</ele>
        <time>2020-01-09T09:04:07.000Z</time>
      </trkpt>
      <trkpt lat="47.24161" lon="-2.30011">
        <ele>85.599998474121</ele>
        <time>2020-01-09T09:04:11.000Z</time>
      </trkpt>
      <trkpt lat="47.24166" lon="-2.30005">
        <ele>85.599998474121</ele>
        <time>2020-01-09T09:04:13.000Z</time>
      </trkpt>
      <trkpt lat="47.24167" lon="-2.29996">
        <ele>85.599998474121</ele>
        <time>2020-01-09T09:04:16.000Z</time>
      </trkpt>
      <trkpt lat="47.24161" lon="-2.29987">
        <ele>86</ele>
        <time>2020-01-09T09:04:19.000Z</time>
      </trkpt>
      <trkpt lat="47.24159" lon="-2.29985">
        <ele>86.400001525879</ele>
        <time>2020-01-09T09:04:20.000Z</time>
      </trkpt>
      <trkpt lat="47.24157" lon="-2.29982">
        <ele>86.800003051758</ele>
        <time>2020-01-09T09:04:21.000Z</time>
      </trkpt>
      <trkpt lat="47.24157" lon="-2.29978">
        <ele>87.400001525879</ele>
        <time>2020-01-09T09:04:22.000Z</time>
      </trkpt>
      <trkpt lat="47.24157" lon="-2.29974">
        <ele>87.800003051758</ele>
        <time>2020-01-09T09:04:23.000Z</time>
      </trkpt>
      <trkpt lat="47.24159" lon="-2.29967">
        <ele>87.800003051758</ele>
        <time>2020-01-09T09:04:25.000Z</time>
      </trkpt>
      <trkpt lat="47.24164" lon="-2.29952">
        <ele>87.800003051758</ele>
        <time>2020-01-09T09:04:29.000Z</time>
      </trkpt>
      <trkpt lat="47.24165" lon="-2.29948">
        <ele>87.800003051758</ele>
        <time>2020-01-09T09:04:31.000Z</time>
      </trkpt>
      <trkpt lat="47.24167" lon="-2.29932">
        <ele>87.800003051758</ele>
        <time>2020-01-09T09:04:34.000Z</time>
      </trkpt>
      <trkpt lat="47.24177" lon="-2.29909">
        <ele>87.800003051758</ele>
        <time>2020-01-09T09:04:40.000Z</time>
      </trkpt>
      <trkpt lat="47.2418" lon="-2.29895">
        <ele>87.800003051758</ele>
        <time>2020-01-09T09:04:45.000Z</time>
      </trkpt>
      <trkpt lat="47.2418" lon="-2.2989">
        <ele>87.800003051758</ele>
        <time>2020-01-09T09:04:47.000Z</time>
      </trkpt>
      <trkpt lat="47.24179" lon="-2.29883">
        <ele>87.800003051758</ele>
        <time>2020-01-09T09:04:49.000Z</time>
      </trkpt>
      <trkpt lat="47.24177" lon="-2.29872">
        <ele>88.599998474121</ele>
        <time>2020-01-09T09:04:52.000Z</time>
      </trkpt>
      <trkpt lat="47.24176" lon="-2.29868">
        <ele>89</ele>
        <time>2020-01-09T09:04:53.000Z</time>
      </trkpt>
      <trkpt lat="47.24176" lon="-2.29864">
        <ele>89.400001525879</ele>
        <time>2020-01-09T09:04:54.000Z</time>
      </trkpt>
      <trkpt lat="47.24177" lon="-2.29858">
        <ele>89.800003051758</ele>
        <time>2020-01-09T09:04:55.000Z</time>
      </trkpt>
      <trkpt lat="47.24177" lon="-2.29852">
        <ele>89.800003051758</ele>
        <time>2020-01-09T09:04:56.000Z</time>
      </trkpt>
      <trkpt lat="47.24176" lon="-2.29843">
        <ele>89.800003051758</ele>
        <time>2020-01-09T09:04:58.000Z</time>
      </trkpt>
      <trkpt lat="47.24174" lon="-2.2984">
        <ele>89.800003051758</ele>
        <time>2020-01-09T09:04:59.000Z</time>
      </trkpt>
      <trkpt lat="47.2416" lon="-2.29838">
        <ele>89.800003051758</ele>
        <time>2020-01-09T09:05:03.000Z</time>
      </trkpt>
      <trkpt lat="47.24142" lon="-2.29841">
        <ele>89.800003051758</ele>
        <time>2020-01-09T09:05:08.000Z</time>
      </trkpt>
      <trkpt lat="47.24121" lon="-2.29847">
        <ele>89.800003051758</ele>
        <time>2020-01-09T09:05:13.000Z</time>
      </trkpt>
      <trkpt lat="47.24099" lon="-2.29848">
        <ele>89.800003051758</ele>
        <time>2020-01-09T09:05:19.000Z</time>
      </trkpt>
      <trkpt lat="47.24088" lon="-2.29838">
        <ele>89.800003051758</ele>
        <time>2020-01-09T09:05:23.000Z</time>
      </trkpt>
      <trkpt lat="47.24084" lon="-2.29822">
        <ele>89.800003051758</ele>
        <time>2020-01-09T09:05:27.000Z</time>
      </trkpt>
      <trkpt lat="47.24084" lon="-2.29817">
        <ele>89.800003051758</ele>
        <time>2020-01-09T09:05:28.000Z</time>
      </trkpt>
      <trkpt lat="47.24077" lon="-2.29805">
        <ele>89.800003051758</ele>
        <time>2020-01-09T09:05:32.000Z</time>
      </trkpt>
      <trkpt lat="47.24067" lon="-2.29803">
        <ele>89.800003051758</ele>
        <time>2020-01-09T09:05:35.000Z</time>
      </trkpt>
      <trkpt lat="47.24057" lon="-2.29803">
        <ele>89.800003051758</ele>
        <time>2020-01-09T09:05:39.000Z</time>
      </trkpt>
      <trkpt lat="47.24052" lon="-2.29805">
        <ele>90.199996948242</ele>
        <time>2020-01-09T09:05:41.000Z</time>
      </trkpt>
      <trkpt lat="47.24049" lon="-2.29806">
        <ele>90.599998474121</ele>
        <time>2020-01-09T09:05:42.000Z</time>
      </trkpt>
      <trkpt lat="47.24045" lon="-2.29805">
        <ele>91</ele>
        <time>2020-01-09T09:05:43.000Z</time>
      </trkpt>
      <trkpt lat="47.24041" lon="-2.29804">
        <ele>91.400001525879</ele>
        <time>2020-01-09T09:05:44.000Z</time>
      </trkpt>
      <trkpt lat="47.24037" lon="-2.29803">
        <ele>91.800003051758</ele>
        <time>2020-01-09T09:05:45.000Z</time>
      </trkpt>
      <trkpt lat="47.2403" lon="-2.29804">
        <ele>91.800003051758</ele>
        <time>2020-01-09T09:05:48.000Z</time>
      </trkpt>
      <trkpt lat="47.2403" lon="-2.29806">
        <ele>91.800003051758</ele>
        <time>2020-01-09T09:05:49.000Z</time>
      </trkpt>
      <trkpt lat="47.24033" lon="-2.29812">
        <ele>91.800003051758</ele>
        <time>2020-01-09T09:05:54.000Z</time>
      </trkpt>
      <trkpt lat="47.24033" lon="-2.29819">
        <ele>91.800003051758</ele>
        <time>2020-01-09T09:05:57.000Z</time>
      </trkpt>
      <trkpt lat="47.24034" lon="-2.29831">
        <ele>91.800003051758</ele>
        <time>2020-01-09T09:06:00.000Z</time>
      </trkpt>
      <trkpt lat="47.24035" lon="-2.29837">
        <ele>91.800003051758</ele>
        <time>2020-01-09T09:06:02.000Z</time>
      </trkpt>
      <trkpt lat="47.24039" lon="-2.29843">
        <ele>91.800003051758</ele>
        <time>2020-01-09T09:06:04.000Z</time>
      </trkpt>
      <trkpt lat="47.24046" lon="-2.29848">
        <ele>91.800003051758</ele>
        <time>2020-01-09T09:06:07.000Z</time>
      </trkpt>
      <trkpt lat="47.24048" lon="-2.29847">
        <ele>91.800003051758</ele>
        <time>2020-01-09T09:06:08.000Z</time>
      </trkpt>
      <trkpt lat="47.24055" lon="-2.2984">
        <ele>91.800003051758</ele>
        <time>2020-01-09T09:06:12.000Z</time>
      </trkpt>
      <trkpt lat="47.24058" lon="-2.29839">
        <ele>91.800003051758</ele>
        <time>2020-01-09T09:06:14.000Z</time>
      </trkpt>
      <trkpt lat="47.24066" lon="-2.2984">
        <ele>91.800003051758</ele>
        <time>2020-01-09T09:06:17.000Z</time>
      </trkpt>
      <trkpt lat="47.24073" lon="-2.29843">
        <ele>91.800003051758</ele>
        <time>2020-01-09T09:06:20.000Z</time>
      </trkpt>
      <trkpt lat="47.24074" lon="-2.29846">
        <ele>91.800003051758</ele>
        <time>2020-01-09T09:06:21.000Z</time>
      </trkpt>
      <trkpt lat="47.24072" lon="-2.29868">
        <ele>91.800003051758</ele>
        <time>2020-01-09T09:06:26.000Z</time>
      </trkpt>
      <trkpt lat="47.24071" lon="-2.29893">
        <ele>91.800003051758</ele>
        <time>2020-01-09T09:06:30.000Z</time>
      </trkpt>
      <trkpt lat="47.2407" lon="-2.299">
        <ele>91.800003051758</ele>
        <time>2020-01-09T09:06:31.000Z</time>
      </trkpt>
      <trkpt lat="47.24065" lon="-2.29918">
        <ele>91.800003051758</ele>
        <time>2020-01-09T09:06:34.000Z</time>
      </trkpt>
      <trkpt lat="47.24066" lon="-2.29922">
        <ele>91.800003051758</ele>
        <time>2020-01-09T09:06:35.000Z</time>
      </trkpt>
      <trkpt lat="47.24072" lon="-2.29938">
        <ele>91.800003051758</ele>
        <time>2020-01-09T09:06:39.000Z</time>
      </trkpt>
      <trkpt lat="47.24075" lon="-2.29942">
        <ele>91.800003051758</ele>
        <time>2020-01-09T09:06:40.000Z</time>
      </trkpt>
      <trkpt lat="47.24076" lon="-2.29949">
        <ele>91.800003051758</ele>
        <time>2020-01-09T09:06:42.000Z</time>
      </trkpt>
      <trkpt lat="47.24075" lon="-2.2996">
        <ele>91.800003051758</ele>
        <time>2020-01-09T09:06:45.000Z</time>
      </trkpt>
      <trkpt lat="47.24079" lon="-2.29988">
        <ele>91.800003051758</ele>
        <time>2020-01-09T09:06:50.000Z</time>
      </trkpt>
      <trkpt lat="47.24084" lon="-2.29999">
        <ele>91.800003051758</ele>
        <time>2020-01-09T09:06:53.000Z</time>
      </trkpt>
      <trkpt lat="47.24085" lon="-2.30002">
        <ele>91.800003051758</ele>
        <time>2020-01-09T09:06:54.000Z</time>
      </trkpt>
      <trkpt lat="47.24092" lon="-2.30009">
        <ele>91.800003051758</ele>
        <time>2020-01-09T09:06:58.000Z</time>
      </trkpt>
      <trkpt lat="47.24094" lon="-2.30009">
        <ele>91.800003051758</ele>
        <time>2020-01-09T09:06:59.000Z</time>
      </trkpt>
      <trkpt lat="47.241" lon="-2.29996">
        <ele>91.800003051758</ele>
        <time>2020-01-09T09:07:03.000Z</time>
      </trkpt>
      <trkpt lat="47.24106" lon="-2.29988">
        <ele>91.800003051758</ele>
        <time>2020-01-09T09:07:07.000Z</time>
      </trkpt>
      <trkpt lat="47.24108" lon="-2.29987">
        <ele>91.800003051758</ele>
        <time>2020-01-09T09:07:08.000Z</time>
      </trkpt>
      <trkpt lat="47.24115" lon="-2.29986">
        <ele>91.800003051758</ele>
        <time>2020-01-09T09:07:12.000Z</time>
      </trkpt>
      <trkpt lat="47.24121" lon="-2.29987">
        <ele>91.800003051758</ele>
        <time>2020-01-09T09:07:14.000Z</time>
      </trkpt>
      <trkpt lat="47.2414" lon="-2.29985">
        <ele>91.800003051758</ele>
        <time>2020-01-09T09:07:20.000Z</time>
      </trkpt>
      <trkpt lat="47.24151" lon="-2.29998">
        <ele>91.800003051758</ele>
        <time>2020-01-09T09:07:25.000Z</time>
      </trkpt>
      <trkpt lat="47.24153" lon="-2.30008">
        <ele>91.800003051758</ele>
        <time>2020-01-09T09:07:27.000Z</time>
      </trkpt>
      <trkpt lat="47.24156" lon="-2.30028">
        <ele>91.800003051758</ele>
        <time>2020-01-09T09:07:30.000Z</time>
      </trkpt>
      <trkpt lat="47.24153" lon="-2.30061">
        <ele>91.400001525879</ele>
        <time>2020-01-09T09:07:35.000Z</time>
      </trkpt>
      <trkpt lat="47.24152" lon="-2.30066">
        <ele>91</ele>
        <time>2020-01-09T09:07:36.000Z</time>
      </trkpt>
      <trkpt lat="47.24151" lon="-2.30071">
        <ele>90.400001525879</ele>
        <time>2020-01-09T09:07:37.000Z</time>
      </trkpt>
      <trkpt lat="47.24149" lon="-2.30075">
        <ele>90</ele>
        <time>2020-01-09T09:07:38.000Z</time>
      </trkpt>
      <trkpt lat="47.24148" lon="-2.3008">
        <ele>89.599998474121</ele>
        <time>2020-01-09T09:07:39.000Z</time>
      </trkpt>
      <trkpt lat="47.24147" lon="-2.30086">
        <ele>89.599998474121</ele>
        <time>2020-01-09T09:07:40.000Z</time>
      </trkpt>
      <trkpt lat="47.24141" lon="-2.30113">
        <ele>88.800003051758</ele>
        <time>2020-01-09T09:07:45.000Z</time>
      </trkpt>
      <trkpt lat="47.2414" lon="-2.30119">
        <ele>88.199996948242</ele>
        <time>2020-01-09T09:07:46.000Z</time>
      </trkpt>
      <trkpt lat="47.24139" lon="-2.30125">
        <ele>87.800003051758</ele>
        <time>2020-01-09T09:07:47.000Z</time>
      </trkpt>
      <trkpt lat="47.24137" lon="-2.3013">
        <ele>87.400001525879</ele>
        <time>2020-01-09T09:07:48.000Z</time>
      </trkpt>
      <trkpt lat="47.2413" lon="-2.30148">
        <ele>87.400001525879</ele>
        <time>2020-01-09T09:07:53.000Z</time>
      </trkpt>
      <trkpt lat="47.24123" lon="-2.30158">
        <ele>87.400001525879</ele>
        <time>2020-01-09T09:07:58.000Z</time>
      </trkpt>
      <trkpt lat="47.24117" lon="-2.30165">
        <ele>87.400001525879</ele>
        <time>2020-01-09T09:08:04.000Z</time>
      </trkpt>
      <trkpt lat="47.24115" lon="-2.30168">
        <ele>87.400001525879</ele>
        <time>2020-01-09T09:08:06.000Z</time>
      </trkpt>
      <trkpt lat="47.24111" lon="-2.30175">
        <ele>87.400001525879</ele>
        <time>2020-01-09T09:08:08.000Z</time>
      </trkpt>
      <trkpt lat="47.24103" lon="-2.30181">
        <ele>87.800003051758</ele>
        <time>2020-01-09T09:08:11.000Z</time>
      </trkpt>
      <trkpt lat="47.24099" lon="-2.30181">
        <ele>88.199996948242</ele>
        <time>2020-01-09T09:08:12.000Z</time>
      </trkpt>
      <trkpt lat="47.24096" lon="-2.30182">
        <ele>88.599998474121</ele>
        <time>2020-01-09T09:08:13.000Z</time>
      </trkpt>
      <trkpt lat="47.24092" lon="-2.30184">
        <ele>89</ele>
        <time>2020-01-09T09:08:14.000Z</time>
      </trkpt>
      <trkpt lat="47.24089" lon="-2.30185">
        <ele>89.599998474121</ele>
        <time>2020-01-09T09:08:15.000Z</time>
      </trkpt>
      <trkpt lat="47.24081" lon="-2.30188">
        <ele>89.599998474121</ele>
        <time>2020-01-09T09:08:19.000Z</time>
      </trkpt>
      <trkpt lat="47.24074" lon="-2.30191">
        <ele>89.599998474121</ele>
        <time>2020-01-09T09:08:23.000Z</time>
      </trkpt>
      <trkpt lat="47.24072" lon="-2.30189">
        <ele>89.599998474121</ele>
        <time>2020-01-09T09:08:24.000Z</time>
      </trkpt>
      <trkpt lat="47.24063" lon="-2.30182">
        <ele>89.599998474121</ele>
        <time>2020-01-09T09:08:28.000Z</time>
      </trkpt>
      <trkpt lat="47.24056" lon="-2.30183">
        <ele>89.599998474121</ele>
        <time>2020-01-09T09:08:31.000Z</time>
      </trkpt>
      <trkpt lat="47.24053" lon="-2.30185">
        <ele>89.599998474121</ele>
        <time>2020-01-09T09:08:32.000Z</time>
      </trkpt>
      <trkpt lat="47.24045" lon="-2.30191">
        <ele>89.599998474121</ele>
        <time>2020-01-09T09:08:36.000Z</time>
      </trkpt>
      <trkpt lat="47.24043" lon="-2.30191">
        <ele>89.599998474121</ele>
        <time>2020-01-09T09:08:38.000Z</time>
      </trkpt>
      <trkpt lat="47.2404" lon="-2.30188">
        <ele>89.599998474121</ele>
        <time>2020-01-09T09:08:41.000Z</time>
      </trkpt>
      <trkpt lat="47.24038" lon="-2.30184">
        <ele>89.599998474121</ele>
        <time>2020-01-09T09:08:44.000Z</time>
      </trkpt>
      <trkpt lat="47.24039" lon="-2.30182">
        <ele>89.599998474121</ele>
        <time>2020-01-09T09:08:47.000Z</time>
      </trkpt>
      <trkpt lat="47.2404" lon="-2.30183">
        <ele>89.599998474121</ele>
        <time>2020-01-09T09:08:49.000Z</time>
      </trkpt>
      <trkpt lat="47.2404" lon="-2.30185">
        <ele>89.599998474121</ele>
        <time>2020-01-09T09:08:50.000Z</time>
      </trkpt>
      <trkpt lat="47.24037" lon="-2.30185">
        <ele>89.599998474121</ele>
        <time>2020-01-09T09:08:53.000Z</time>
      </trkpt>
      <trkpt lat="47.24036" lon="-2.30184">
        <ele>89.599998474121</ele>
        <time>2020-01-09T09:08:54.000Z</time>
      </trkpt>
      <trkpt lat="47.24035" lon="-2.30182">
        <ele>90</ele>
        <time>2020-01-09T09:08:55.000Z</time>
      </trkpt>
      <trkpt lat="47.24033" lon="-2.30179">
        <ele>90.400001525879</ele>
        <time>2020-01-09T09:08:56.000Z</time>
      </trkpt>
      <trkpt lat="47.24031" lon="-2.30177">
        <ele>90.800003051758</ele>
        <time>2020-01-09T09:08:57.000Z</time>
      </trkpt>
      <trkpt lat="47.24028" lon="-2.30175">
        <ele>91.199996948242</ele>
        <time>2020-01-09T09:08:58.000Z</time>
      </trkpt>
      <trkpt lat="47.24025" lon="-2.30173">
        <ele>91.599998474121</ele>
        <time>2020-01-09T09:08:59.000Z</time>
      </trkpt>
      <trkpt lat="47.24022" lon="-2.30172">
        <ele>91.599998474121</ele>
        <time>2020-01-09T09:09:00.000Z</time>
      </trkpt>
      <trkpt lat="47.24008" lon="-2.30165">
        <ele>91.599998474121</ele>
        <time>2020-01-09T09:09:04.000Z</time>
      </trkpt>
      <trkpt lat="47.23993" lon="-2.30154">
        <ele>91.599998474121</ele>
        <time>2020-01-09T09:09:09.000Z</time>
      </trkpt>
      <trkpt lat="47.23979" lon="-2.30141">
        <ele>91.599998474121</ele>
        <time>2020-01-09T09:09:14.000Z</time>
      </trkpt>
      <trkpt lat="47.23962" lon="-2.30135">
        <ele>91.599998474121</ele>
        <time>2020-01-09T09:09:19.000Z</time>
      </trkpt>
      <trkpt lat="47.23954" lon="-2.30128">
        <ele>91.599998474121</ele>
        <time>2020-01-09T09:09:23.000Z</time>
      </trkpt>
      <trkpt lat="47.23959" lon="-2.30117">
        <ele>91.599998474121</ele>
        <time>2020-01-09T09:09:28.000Z</time>
      </trkpt>
      <trkpt lat="47.23962" lon="-2.30114">
        <ele>91.599998474121</ele>
        <time>2020-01-09T09:09:30.000Z</time>
      </trkpt>
      <trkpt lat="47.23965" lon="-2.30112">
        <ele>91.599998474121</ele>
        <time>2020-01-09T09:09:32.000Z</time>
      </trkpt>
      <trkpt lat="47.23967" lon="-2.3011">
        <ele>91.599998474121</ele>
        <time>2020-01-09T09:09:33.000Z</time>
      </trkpt>
      <trkpt lat="47.2398" lon="-2.30094">
        <ele>91.599998474121</ele>
        <time>2020-01-09T09:09:38.000Z</time>
      </trkpt>
      <trkpt lat="47.23996" lon="-2.30056">
        <ele>91.599998474121</ele>
        <time>2020-01-09T09:09:46.000Z</time>
      </trkpt>
      <trkpt lat="47.24" lon="-2.30044">
        <ele>92</ele>
        <time>2020-01-09T09:09:49.000Z</time>
      </trkpt>
      <trkpt lat="47.24002" lon="-2.3004">
        <ele>92.400001525879</ele>
        <time>2020-01-09T09:09:50.000Z</time>
      </trkpt>
      <trkpt lat="47.24004" lon="-2.30036">
        <ele>92.800003051758</ele>
        <time>2020-01-09T09:09:51.000Z</time>
      </trkpt>
      <trkpt lat="47.24006" lon="-2.30032">
        <ele>93.199996948242</ele>
        <time>2020-01-09T09:09:52.000Z</time>
      </trkpt>
      <trkpt lat="47.24007" lon="-2.30027">
        <ele>93.800003051758</ele>
        <time>2020-01-09T09:09:53.000Z</time>
      </trkpt>
      <trkpt lat="47.24014" lon="-2.30012">
        <ele>93.800003051758</ele>
        <time>2020-01-09T09:09:57.000Z</time>
      </trkpt>
      <trkpt lat="47.24033" lon="-2.29986">
        <ele>93.800003051758</ele>
        <time>2020-01-09T09:10:03.000Z</time>
      </trkpt>
      <trkpt lat="47.24053" lon="-2.29957">
        <ele>93.800003051758</ele>
        <time>2020-01-09T09:10:09.000Z</time>
      </trkpt>
      <trkpt lat="47.24068" lon="-2.2994">
        <ele>93.800003051758</ele>
        <time>2020-01-09T09:10:14.000Z</time>
      </trkpt>
      <trkpt lat="47.24073" lon="-2.2992">
        <ele>93.800003051758</ele>
        <time>2020-01-09T09:10:19.000Z</time>
      </trkpt>
      <trkpt lat="47.24077" lon="-2.29904">
        <ele>94.199996948242</ele>
        <time>2020-01-09T09:10:23.000Z</time>
      </trkpt>
      <trkpt lat="47.24079" lon="-2.29898">
        <ele>94.599998474121</ele>
        <time>2020-01-09T09:10:24.000Z</time>
      </trkpt>
      <trkpt lat="47.2408" lon="-2.29893">
        <ele>95</ele>
        <time>2020-01-09T09:10:25.000Z</time>
      </trkpt>
      <trkpt lat="47.24081" lon="-2.29888">
        <ele>95.400001525879</ele>
        <time>2020-01-09T09:10:26.000Z</time>
      </trkpt>
      <trkpt lat="47.24082" lon="-2.29882">
        <ele>95.800003051758</ele>
        <time>2020-01-09T09:10:27.000Z</time>
      </trkpt>
      <trkpt lat="47.24084" lon="-2.29863">
        <ele>95.800003051758</ele>
        <time>2020-01-09T09:10:30.000Z</time>
      </trkpt>
      <trkpt lat="47.24086" lon="-2.2982">
        <ele>95.800003051758</ele>
        <time>2020-01-09T09:10:37.000Z</time>
      </trkpt>
      <trkpt lat="47.24079" lon="-2.29782">
        <ele>95.800003051758</ele>
        <time>2020-01-09T09:10:43.000Z</time>
      </trkpt>
      <trkpt lat="47.24071" lon="-2.29751">
        <ele>95.800003051758</ele>
        <time>2020-01-09T09:10:48.000Z</time>
      </trkpt>
      <trkpt lat="47.24069" lon="-2.29739">
        <ele>96.199996948242</ele>
        <time>2020-01-09T09:10:50.000Z</time>
      </trkpt>
      <trkpt lat="47.24067" lon="-2.29734">
        <ele>96.599998474121</ele>
        <time>2020-01-09T09:10:51.000Z</time>
      </trkpt>
      <trkpt lat="47.24065" lon="-2.29729">
        <ele>97</ele>
        <time>2020-01-09T09:10:52.000Z</time>
      </trkpt>
      <trkpt lat="47.24065" lon="-2.29721">
        <ele>97.400001525879</ele>
        <time>2020-01-09T09:10:53.000Z</time>
      </trkpt>
      <trkpt lat="47.24064" lon="-2.29714">
        <ele>97.800003051758</ele>
        <time>2020-01-09T09:10:54.000Z</time>
      </trkpt>
      <trkpt lat="47.24059" lon="-2.29693">
        <ele>97.800003051758</ele>
        <time>2020-01-09T09:10:57.000Z</time>
      </trkpt>
      <trkpt lat="47.24055" lon="-2.29677">
        <ele>97.800003051758</ele>
        <time>2020-01-09T09:10:59.000Z</time>
      </trkpt>
      <trkpt lat="47.24052" lon="-2.29643">
        <ele>97.800003051758</ele>
        <time>2020-01-09T09:11:04.000Z</time>
      </trkpt>
      <trkpt lat="47.24061" lon="-2.29619">
        <ele>97.800003051758</ele>
        <time>2020-01-09T09:11:08.000Z</time>
      </trkpt>
      <trkpt lat="47.24075" lon="-2.29608">
        <ele>97.800003051758</ele>
        <time>2020-01-09T09:11:11.000Z</time>
      </trkpt>
      <trkpt lat="47.24102" lon="-2.29594">
        <ele>97.800003051758</ele>
        <time>2020-01-09T09:11:16.000Z</time>
      </trkpt>
      <trkpt lat="47.24107" lon="-2.29589">
        <ele>97.800003051758</ele>
        <time>2020-01-09T09:11:17.000Z</time>
      </trkpt>
      <trkpt lat="47.24116" lon="-2.29569">
        <ele>97.800003051758</ele>
        <time>2020-01-09T09:11:20.000Z</time>
      </trkpt>
      <trkpt lat="47.24112" lon="-2.29546">
        <ele>97.800003051758</ele>
        <time>2020-01-09T09:11:23.000Z</time>
      </trkpt>
      <trkpt lat="47.24109" lon="-2.29539">
        <ele>97.800003051758</ele>
        <time>2020-01-09T09:11:24.000Z</time>
      </trkpt>
      <trkpt lat="47.24102" lon="-2.29516">
        <ele>97.800003051758</ele>
        <time>2020-01-09T09:11:27.000Z</time>
      </trkpt>
      <trkpt lat="47.241" lon="-2.29501">
        <ele>97.800003051758</ele>
        <time>2020-01-09T09:11:29.000Z</time>
      </trkpt>
      <trkpt lat="47.24105" lon="-2.29479">
        <ele>97.800003051758</ele>
        <time>2020-01-09T09:11:32.000Z</time>
      </trkpt>
      <trkpt lat="47.24109" lon="-2.29474">
        <ele>97.400001525879</ele>
        <time>2020-01-09T09:11:33.000Z</time>
      </trkpt>
      <trkpt lat="47.24114" lon="-2.2947">
        <ele>97</ele>
        <time>2020-01-09T09:11:34.000Z</time>
      </trkpt>
      <trkpt lat="47.24119" lon="-2.29466">
        <ele>96.599998474121</ele>
        <time>2020-01-09T09:11:35.000Z</time>
      </trkpt>
      <trkpt lat="47.24124" lon="-2.29463">
        <ele>96.199996948242</ele>
        <time>2020-01-09T09:11:36.000Z</time>
      </trkpt>
      <trkpt lat="47.2413" lon="-2.2946">
        <ele>95.800003051758</ele>
        <time>2020-01-09T09:11:37.000Z</time>
      </trkpt>
      <trkpt lat="47.24152" lon="-2.29448">
        <ele>95.800003051758</ele>
        <time>2020-01-09T09:11:41.000Z</time>
      </trkpt>
      <trkpt lat="47.24158" lon="-2.29446">
        <ele>95.800003051758</ele>
        <time>2020-01-09T09:11:42.000Z</time>
      </trkpt>
      <trkpt lat="47.24176" lon="-2.29441">
        <ele>95.800003051758</ele>
        <time>2020-01-09T09:11:45.000Z</time>
      </trkpt>
      <trkpt lat="47.24183" lon="-2.29441">
        <ele>95.800003051758</ele>
        <time>2020-01-09T09:11:46.000Z</time>
      </trkpt>
      <trkpt lat="47.24203" lon="-2.29446">
        <ele>95.800003051758</ele>
        <time>2020-01-09T09:11:49.000Z</time>
      </trkpt>
      <trkpt lat="47.24208" lon="-2.29449">
        <ele>95.800003051758</ele>
        <time>2020-01-09T09:11:50.000Z</time>
      </trkpt>
      <trkpt lat="47.24214" lon="-2.29453">
        <ele>95.800003051758</ele>
        <time>2020-01-09T09:11:51.000Z</time>
      </trkpt>
      <trkpt lat="47.2423" lon="-2.29463">
        <ele>95.400001525879</ele>
        <time>2020-01-09T09:11:54.000Z</time>
      </trkpt>
      <trkpt lat="47.24236" lon="-2.29465">
        <ele>95</ele>
        <time>2020-01-09T09:11:55.000Z</time>
      </trkpt>
      <trkpt lat="47.24243" lon="-2.29467">
        <ele>94.599998474121</ele>
        <time>2020-01-09T09:11:56.000Z</time>
      </trkpt>
      <trkpt lat="47.24249" lon="-2.29466">
        <ele>94.199996948242</ele>
        <time>2020-01-09T09:11:57.000Z</time>
      </trkpt>
      <trkpt lat="47.24255" lon="-2.29464">
        <ele>93.800003051758</ele>
        <time>2020-01-09T09:11:58.000Z</time>
      </trkpt>
      <trkpt lat="47.24261" lon="-2.29462">
        <ele>93.800003051758</ele>
        <time>2020-01-09T09:11:59.000Z</time>
      </trkpt>
      <trkpt lat="47.24271" lon="-2.29455">
        <ele>93.800003051758</ele>
        <time>2020-01-09T09:12:01.000Z</time>
      </trkpt>
      <trkpt lat="47.24277" lon="-2.29452">
        <ele>93.800003051758</ele>
        <time>2020-01-09T09:12:02.000Z</time>
      </trkpt>
      <trkpt lat="47.24283" lon="-2.2945">
        <ele>93.800003051758</ele>
        <time>2020-01-09T09:12:03.000Z</time>
      </trkpt>
      <trkpt lat="47.24314" lon="-2.29439">
        <ele>93.800003051758</ele>
        <time>2020-01-09T09:12:08.000Z</time>
      </trkpt>
      <trkpt lat="47.24319" lon="-2.29439">
        <ele>93.800003051758</ele>
        <time>2020-01-09T09:12:09.000Z</time>
      </trkpt>
      <trkpt lat="47.24333" lon="-2.29448">
        <ele>93.800003051758</ele>
        <time>2020-01-09T09:12:12.000Z</time>
      </trkpt>
      <trkpt lat="47.24348" lon="-2.29462">
        <ele>93.800003051758</ele>
        <time>2020-01-09T09:12:15.000Z</time>
      </trkpt>
      <trkpt lat="47.24358" lon="-2.29467">
        <ele>93.800003051758</ele>
        <time>2020-01-09T09:12:17.000Z</time>
      </trkpt>
      <trkpt lat="47.24371" lon="-2.29464">
        <ele>93.800003051758</ele>
        <time>2020-01-09T09:12:20.000Z</time>
      </trkpt>
      <trkpt lat="47.24383" lon="-2.29449">
        <ele>93.800003051758</ele>
        <time>2020-01-09T09:12:23.000Z</time>
      </trkpt>
      <trkpt lat="47.24388" lon="-2.29444">
        <ele>93.800003051758</ele>
        <time>2020-01-09T09:12:24.000Z</time>
      </trkpt>
      <trkpt lat="47.24398" lon="-2.29436">
        <ele>93.800003051758</ele>
        <time>2020-01-09T09:12:26.000Z</time>
      </trkpt>
      <trkpt lat="47.24411" lon="-2.29431">
        <ele>93.800003051758</ele>
        <time>2020-01-09T09:12:28.000Z</time>
      </trkpt>
      <trkpt lat="47.24423" lon="-2.2943">
        <ele>93.800003051758</ele>
        <time>2020-01-09T09:12:30.000Z</time>
      </trkpt>
      <trkpt lat="47.2444" lon="-2.29429">
        <ele>94.199996948242</ele>
        <time>2020-01-09T09:12:33.000Z</time>
      </trkpt>
      <trkpt lat="47.24445" lon="-2.29428">
        <ele>94.599998474121</ele>
        <time>2020-01-09T09:12:34.000Z</time>
      </trkpt>
      <trkpt lat="47.24451" lon="-2.29427">
        <ele>95</ele>
        <time>2020-01-09T09:12:35.000Z</time>
      </trkpt>
      <trkpt lat="47.24457" lon="-2.29427">
        <ele>95.400001525879</ele>
        <time>2020-01-09T09:12:36.000Z</time>
      </trkpt>
      <trkpt lat="47.24463" lon="-2.29426">
        <ele>95.800003051758</ele>
        <time>2020-01-09T09:12:37.000Z</time>
      </trkpt>
      <trkpt lat="47.245" lon="-2.29421">
        <ele>95.800003051758</ele>
        <time>2020-01-09T09:12:44.000Z</time>
      </trkpt>
      <trkpt lat="47.2451" lon="-2.29419">
        <ele>96.400001525879</ele>
        <time>2020-01-09T09:12:46.000Z</time>
      </trkpt>
      <trkpt lat="47.24515" lon="-2.29417">
        <ele>96.800003051758</ele>
        <time>2020-01-09T09:12:47.000Z</time>
      </trkpt>
      <trkpt lat="47.24519" lon="-2.29413">
        <ele>97.199996948242</ele>
        <time>2020-01-09T09:12:48.000Z</time>
      </trkpt>
      <trkpt lat="47.24521" lon="-2.29408">
        <ele>97.599998474121</ele>
        <time>2020-01-09T09:12:49.000Z</time>
      </trkpt>
      <trkpt lat="47.24522" lon="-2.29401">
        <ele>98</ele>
        <time>2020-01-09T09:12:50.000Z</time>
      </trkpt>
      <trkpt lat="47.24522" lon="-2.29382">
        <ele>98</ele>
        <time>2020-01-09T09:12:53.000Z</time>
      </trkpt>
      <trkpt lat="47.24518" lon="-2.29365">
        <ele>98</ele>
        <time>2020-01-09T09:12:56.000Z</time>
      </trkpt>
      <trkpt lat="47.24514" lon="-2.29356">
        <ele>98</ele>
        <time>2020-01-09T09:12:58.000Z</time>
      </trkpt>
      <trkpt lat="47.24497" lon="-2.29343">
        <ele>98</ele>
        <time>2020-01-09T09:13:03.000Z</time>
      </trkpt>
      <trkpt lat="47.24494" lon="-2.2934">
        <ele>98</ele>
        <time>2020-01-09T09:13:04.000Z</time>
      </trkpt>
      <trkpt lat="47.24475" lon="-2.29333">
        <ele>98</ele>
        <time>2020-01-09T09:13:09.000Z</time>
      </trkpt>
      <trkpt lat="47.24463" lon="-2.29326">
        <ele>98</ele>
        <time>2020-01-09T09:13:14.000Z</time>
      </trkpt>
      <trkpt lat="47.24444" lon="-2.29319">
        <ele>98</ele>
        <time>2020-01-09T09:13:20.000Z</time>
      </trkpt>
      <trkpt lat="47.24422" lon="-2.2931">
        <ele>98</ele>
        <time>2020-01-09T09:13:26.000Z</time>
      </trkpt>
      <trkpt lat="47.24392" lon="-2.29297">
        <ele>98</ele>
        <time>2020-01-09T09:13:33.000Z</time>
      </trkpt>
      <trkpt lat="47.24365" lon="-2.29276">
        <ele>98</ele>
        <time>2020-01-09T09:13:40.000Z</time>
      </trkpt>
      <trkpt lat="47.24345" lon="-2.29249">
        <ele>97.599998474121</ele>
        <time>2020-01-09T09:13:46.000Z</time>
      </trkpt>
      <trkpt lat="47.24342" lon="-2.29245">
        <ele>97.199996948242</ele>
        <time>2020-01-09T09:13:47.000Z</time>
      </trkpt>
      <trkpt lat="47.24339" lon="-2.29241">
        <ele>96.800003051758</ele>
        <time>2020-01-09T09:13:48.000Z</time>
      </trkpt>
      <trkpt lat="47.24336" lon="-2.29237">
        <ele>96.400001525879</ele>
        <time>2020-01-09T09:13:49.000Z</time>
      </trkpt>
      <trkpt lat="47.24332" lon="-2.29233">
        <ele>96</ele>
        <time>2020-01-09T09:13:50.000Z</time>
      </trkpt>
      <trkpt lat="47.24321" lon="-2.29223">
        <ele>96</ele>
        <time>2020-01-09T09:13:53.000Z</time>
      </trkpt>
      <trkpt lat="47.24317" lon="-2.2922">
        <ele>96</ele>
        <time>2020-01-09T09:13:54.000Z</time>
      </trkpt>
      <trkpt lat="47.24301" lon="-2.29208">
        <ele>96</ele>
        <time>2020-01-09T09:13:58.000Z</time>
      </trkpt>
      <trkpt lat="47.24291" lon="-2.29196">
        <ele>96</ele>
        <time>2020-01-09T09:14:01.000Z</time>
      </trkpt>
      <trkpt lat="47.24285" lon="-2.2917">
        <ele>96</ele>
        <time>2020-01-09T09:14:05.000Z</time>
      </trkpt>
      <trkpt lat="47.24284" lon="-2.29163">
        <ele>96</ele>
        <time>2020-01-09T09:14:06.000Z</time>
      </trkpt>
      <trkpt lat="47.2428" lon="-2.29136">
        <ele>95.599998474121</ele>
        <time>2020-01-09T09:14:10.000Z</time>
      </trkpt>
      <trkpt lat="47.24279" lon="-2.29128">
        <ele>95.199996948242</ele>
        <time>2020-01-09T09:14:11.000Z</time>
      </trkpt>
      <trkpt lat="47.24278" lon="-2.2912">
        <ele>94.800003051758</ele>
        <time>2020-01-09T09:14:12.000Z</time>
      </trkpt>
      <trkpt lat="47.24276" lon="-2.29113">
        <ele>94.400001525879</ele>
        <time>2020-01-09T09:14:13.000Z</time>
      </trkpt>
      <trkpt lat="47.24275" lon="-2.29105">
        <ele>94</ele>
        <time>2020-01-09T09:14:14.000Z</time>
      </trkpt>
      <trkpt lat="47.24271" lon="-2.29072">
        <ele>94</ele>
        <time>2020-01-09T09:14:18.000Z</time>
      </trkpt>
      <trkpt lat="47.24262" lon="-2.29017">
        <ele>93.400001525879</ele>
        <time>2020-01-09T09:14:24.000Z</time>
      </trkpt>
      <trkpt lat="47.2426" lon="-2.29007">
        <ele>93</ele>
        <time>2020-01-09T09:14:25.000Z</time>
      </trkpt>
      <trkpt lat="47.24258" lon="-2.28997">
        <ele>92.599998474121</ele>
        <time>2020-01-09T09:14:26.000Z</time>
      </trkpt>
      <trkpt lat="47.24256" lon="-2.28987">
        <ele>92</ele>
        <time>2020-01-09T09:14:27.000Z</time>
      </trkpt>
      <trkpt lat="47.24254" lon="-2.28976">
        <ele>91.599998474121</ele>
        <time>2020-01-09T09:14:28.000Z</time>
      </trkpt>
      <trkpt lat="47.24249" lon="-2.28943">
        <ele>91.199996948242</ele>
        <time>2020-01-09T09:14:31.000Z</time>
      </trkpt>
      <trkpt lat="47.24247" lon="-2.28932">
        <ele>90.800003051758</ele>
        <time>2020-01-09T09:14:32.000Z</time>
      </trkpt>
      <trkpt lat="47.24245" lon="-2.28921">
        <ele>90.400001525879</ele>
        <time>2020-01-09T09:14:33.000Z</time>
      </trkpt>
      <trkpt lat="47.24244" lon="-2.2891">
        <ele>90</ele>
        <time>2020-01-09T09:14:34.000Z</time>
      </trkpt>
      <trkpt lat="47.24242" lon="-2.28899">
        <ele>89.599998474121</ele>
        <time>2020-01-09T09:14:35.000Z</time>
      </trkpt>
      <trkpt lat="47.24235" lon="-2.28864">
        <ele>89.599998474121</ele>
        <time>2020-01-09T09:14:38.000Z</time>
      </trkpt>
      <trkpt lat="47.24233" lon="-2.28853">
        <ele>89</ele>
        <time>2020-01-09T09:14:39.000Z</time>
      </trkpt>
      <trkpt lat="47.24231" lon="-2.28842">
        <ele>88.599998474121</ele>
        <time>2020-01-09T09:14:40.000Z</time>
      </trkpt>
      <trkpt lat="47.24229" lon="-2.2883">
        <ele>88.199996948242</ele>
        <time>2020-01-09T09:14:41.000Z</time>
      </trkpt>
      <trkpt lat="47.24227" lon="-2.28819">
        <ele>87.800003051758</ele>
        <time>2020-01-09T09:14:42.000Z</time>
      </trkpt>
      <trkpt lat="47.24225" lon="-2.28808">
        <ele>87.400001525879</ele>
        <time>2020-01-09T09:14:43.000Z</time>
      </trkpt>
      <trkpt lat="47.24219" lon="-2.28775">
        <ele>87.400001525879</ele>
        <time>2020-01-09T09:14:46.000Z</time>
      </trkpt>
      <trkpt lat="47.24218" lon="-2.28764">
        <ele>86.800003051758</ele>
        <time>2020-01-09T09:14:47.000Z</time>
      </trkpt>
      <trkpt lat="47.24216" lon="-2.28755">
        <ele>86.400001525879</ele>
        <time>2020-01-09T09:14:48.000Z</time>
      </trkpt>
      <trkpt lat="47.24214" lon="-2.28746">
        <ele>86</ele>
        <time>2020-01-09T09:14:49.000Z</time>
      </trkpt>
      <trkpt lat="47.24211" lon="-2.28739">
        <ele>85.599998474121</ele>
        <time>2020-01-09T09:14:50.000Z</time>
      </trkpt>
      <trkpt lat="47.24208" lon="-2.28734">
        <ele>85</ele>
        <time>2020-01-09T09:14:51.000Z</time>
      </trkpt>
      <trkpt lat="47.24194" lon="-2.28726">
        <ele>85</ele>
        <time>2020-01-09T09:14:54.000Z</time>
      </trkpt>
      <trkpt lat="47.2418" lon="-2.28741">
        <ele>85</ele>
        <time>2020-01-09T09:14:57.000Z</time>
      </trkpt>
      <trkpt lat="47.24148" lon="-2.28776">
        <ele>85</ele>
        <time>2020-01-09T09:15:04.000Z</time>
      </trkpt>
      <trkpt lat="47.24126" lon="-2.288">
        <ele>85</ele>
        <time>2020-01-09T09:15:09.000Z</time>
      </trkpt>
      <trkpt lat="47.24089" lon="-2.28831">
        <ele>85</ele>
        <time>2020-01-09T09:15:16.000Z</time>
      </trkpt>
      <trkpt lat="47.24044" lon="-2.2886">
        <ele>85</ele>
        <time>2020-01-09T09:15:24.000Z</time>
      </trkpt>
      <trkpt lat="47.24013" lon="-2.28878">
        <ele>85</ele>
        <time>2020-01-09T09:15:30.000Z</time>
      </trkpt>
      <trkpt lat="47.23985" lon="-2.28893">
        <ele>86</ele>
        <time>2020-01-09T09:15:36.000Z</time>
      </trkpt>
      <trkpt lat="47.2398" lon="-2.28895">
        <ele>86.599998474121</ele>
        <time>2020-01-09T09:15:37.000Z</time>
      </trkpt>
      <trkpt lat="47.23975" lon="-2.28897">
        <ele>87</ele>
        <time>2020-01-09T09:15:38.000Z</time>
      </trkpt>
      <trkpt lat="47.2397" lon="-2.28899">
        <ele>87.400001525879</ele>
        <time>2020-01-09T09:15:39.000Z</time>
      </trkpt>
      <trkpt lat="47.23942" lon="-2.28912">
        <ele>87.800003051758</ele>
        <time>2020-01-09T09:15:45.000Z</time>
      </trkpt>
      <trkpt lat="47.23938" lon="-2.28915">
        <ele>88.199996948242</ele>
        <time>2020-01-09T09:15:46.000Z</time>
      </trkpt>
      <trkpt lat="47.23933" lon="-2.28918">
        <ele>88.599998474121</ele>
        <time>2020-01-09T09:15:47.000Z</time>
      </trkpt>
      <trkpt lat="47.23928" lon="-2.28919">
        <ele>89.199996948242</ele>
        <time>2020-01-09T09:15:48.000Z</time>
      </trkpt>
      <trkpt lat="47.23923" lon="-2.28921">
        <ele>89.599998474121</ele>
        <time>2020-01-09T09:15:49.000Z</time>
      </trkpt>
      <trkpt lat="47.23918" lon="-2.28923">
        <ele>89.599998474121</ele>
        <time>2020-01-09T09:15:50.000Z</time>
      </trkpt>
      <trkpt lat="47.23914" lon="-2.28925">
        <ele>89.599998474121</ele>
        <time>2020-01-09T09:15:51.000Z</time>
      </trkpt>
      <trkpt lat="47.23904" lon="-2.28929">
        <ele>90</ele>
        <time>2020-01-09T09:15:53.000Z</time>
      </trkpt>
      <trkpt lat="47.239" lon="-2.28931">
        <ele>90.400001525879</ele>
        <time>2020-01-09T09:15:54.000Z</time>
      </trkpt>
      <trkpt lat="47.23895" lon="-2.28933">
        <ele>90.800003051758</ele>
        <time>2020-01-09T09:15:55.000Z</time>
      </trkpt>
      <trkpt lat="47.23891" lon="-2.28935">
        <ele>91.199996948242</ele>
        <time>2020-01-09T09:15:56.000Z</time>
      </trkpt>
      <trkpt lat="47.23887" lon="-2.28936">
        <ele>91.599998474121</ele>
        <time>2020-01-09T09:15:57.000Z</time>
      </trkpt>
      <trkpt lat="47.23878" lon="-2.2894">
        <ele>91.599998474121</ele>
        <time>2020-01-09T09:15:59.000Z</time>
      </trkpt>
      <trkpt lat="47.2386" lon="-2.28948">
        <ele>92</ele>
        <time>2020-01-09T09:16:03.000Z</time>
      </trkpt>
      <trkpt lat="47.23856" lon="-2.28951">
        <ele>92.400001525879</ele>
        <time>2020-01-09T09:16:04.000Z</time>
      </trkpt>
      <trkpt lat="47.23852" lon="-2.28953">
        <ele>93</ele>
        <time>2020-01-09T09:16:05.000Z</time>
      </trkpt>
      <trkpt lat="47.23848" lon="-2.28956">
        <ele>93.400001525879</ele>
        <time>2020-01-09T09:16:06.000Z</time>
      </trkpt>
      <trkpt lat="47.23843" lon="-2.28958">
        <ele>93.800003051758</ele>
        <time>2020-01-09T09:16:07.000Z</time>
      </trkpt>
      <trkpt lat="47.23839" lon="-2.2896">
        <ele>93.800003051758</ele>
        <time>2020-01-09T09:16:08.000Z</time>
      </trkpt>
      <trkpt lat="47.23818" lon="-2.28969">
        <ele>93.800003051758</ele>
        <time>2020-01-09T09:16:14.000Z</time>
      </trkpt>
      <trkpt lat="47.23811" lon="-2.28966">
        <ele>93.800003051758</ele>
        <time>2020-01-09T09:16:17.000Z</time>
      </trkpt>
      <trkpt lat="47.23811" lon="-2.28949">
        <ele>93.800003051758</ele>
        <time>2020-01-09T09:16:20.000Z</time>
      </trkpt>
      <trkpt lat="47.23813" lon="-2.28943">
        <ele>93.800003051758</ele>
        <time>2020-01-09T09:16:21.000Z</time>
      </trkpt>
      <trkpt lat="47.23817" lon="-2.28921">
        <ele>93.800003051758</ele>
        <time>2020-01-09T09:16:25.000Z</time>
      </trkpt>
      <trkpt lat="47.23815" lon="-2.28917">
        <ele>93.400001525879</ele>
        <time>2020-01-09T09:16:26.000Z</time>
      </trkpt>
      <trkpt lat="47.23811" lon="-2.28915">
        <ele>93</ele>
        <time>2020-01-09T09:16:27.000Z</time>
      </trkpt>
      <trkpt lat="47.23807" lon="-2.28914">
        <ele>92.599998474121</ele>
        <time>2020-01-09T09:16:28.000Z</time>
      </trkpt>
      <trkpt lat="47.23801" lon="-2.28914">
        <ele>92</ele>
        <time>2020-01-09T09:16:29.000Z</time>
      </trkpt>
      <trkpt lat="47.23796" lon="-2.28914">
        <ele>91.599998474121</ele>
        <time>2020-01-09T09:16:30.000Z</time>
      </trkpt>
      <trkpt lat="47.23784" lon="-2.28914">
        <ele>91.599998474121</ele>
        <time>2020-01-09T09:16:33.000Z</time>
      </trkpt>
      <trkpt lat="47.23781" lon="-2.28912">
        <ele>91.199996948242</ele>
        <time>2020-01-09T09:16:34.000Z</time>
      </trkpt>
      <trkpt lat="47.23778" lon="-2.28909">
        <ele>90.800003051758</ele>
        <time>2020-01-09T09:16:35.000Z</time>
      </trkpt>
      <trkpt lat="47.23776" lon="-2.28904">
        <ele>90.199996948242</ele>
        <time>2020-01-09T09:16:36.000Z</time>
      </trkpt>
      <trkpt lat="47.23775" lon="-2.28899">
        <ele>89.800003051758</ele>
        <time>2020-01-09T09:16:37.000Z</time>
      </trkpt>
      <trkpt lat="47.23775" lon="-2.28893">
        <ele>89.199996948242</ele>
        <time>2020-01-09T09:16:38.000Z</time>
      </trkpt>
      <trkpt lat="47.23775" lon="-2.28887">
        <ele>89.199996948242</ele>
        <time>2020-01-09T09:16:39.000Z</time>
      </trkpt>
      <trkpt lat="47.23775" lon="-2.28879">
        <ele>89.199996948242</ele>
        <time>2020-01-09T09:16:40.000Z</time>
      </trkpt>
      <trkpt lat="47.23771" lon="-2.28831">
        <ele>89.199996948242</ele>
        <time>2020-01-09T09:16:46.000Z</time>
      </trkpt>
      <trkpt lat="47.23768" lon="-2.28783">
        <ele>89.199996948242</ele>
        <time>2020-01-09T09:16:52.000Z</time>
      </trkpt>
      <trkpt lat="47.23767" lon="-2.28755">
        <ele>89.199996948242</ele>
        <time>2020-01-09T09:16:56.000Z</time>
      </trkpt>
      <trkpt lat="47.23766" lon="-2.28749">
        <ele>89.199996948242</ele>
        <time>2020-01-09T09:16:57.000Z</time>
      </trkpt>
      <trkpt lat="47.23763" lon="-2.28737">
        <ele>89.800003051758</ele>
        <time>2020-01-09T09:16:59.000Z</time>
      </trkpt>
      <trkpt lat="47.23762" lon="-2.28732">
        <ele>90.400001525879</ele>
        <time>2020-01-09T09:17:00.000Z</time>
      </trkpt>
      <trkpt lat="47.23761" lon="-2.28726">
        <ele>90.400001525879</ele>
        <time>2020-01-09T09:17:01.000Z</time>
      </trkpt>
      <trkpt lat="47.23761" lon="-2.2872">
        <ele>90.199996948242</ele>
        <time>2020-01-09T09:17:02.000Z</time>
      </trkpt>
      <trkpt lat="47.23761" lon="-2.28714">
        <ele>90</ele>
        <time>2020-01-09T09:17:03.000Z</time>
      </trkpt>
      <trkpt lat="47.23762" lon="-2.28708">
        <ele>90</ele>
        <time>2020-01-09T09:17:04.000Z</time>
      </trkpt>
      <trkpt lat="47.23763" lon="-2.28702">
        <ele>89.800003051758</ele>
        <time>2020-01-09T09:17:05.000Z</time>
      </trkpt>
      <trkpt lat="47.23767" lon="-2.2869">
        <ele>89.800003051758</ele>
        <time>2020-01-09T09:17:07.000Z</time>
      </trkpt>
      <trkpt lat="47.23774" lon="-2.28666">
        <ele>89.800003051758</ele>
        <time>2020-01-09T09:17:12.000Z</time>
      </trkpt>
      <trkpt lat="47.23779" lon="-2.28658">
        <ele>89.400001525879</ele>
        <time>2020-01-09T09:17:16.000Z</time>
      </trkpt>
      <trkpt lat="47.2378" lon="-2.28655">
        <ele>89</ele>
        <time>2020-01-09T09:17:17.000Z</time>
      </trkpt>
      <trkpt lat="47.2378" lon="-2.28653">
        <ele>88.599998474121</ele>
        <time>2020-01-09T09:17:18.000Z</time>
      </trkpt>
      <trkpt lat="47.23781" lon="-2.2865">
        <ele>88.199996948242</ele>
        <time>2020-01-09T09:17:19.000Z</time>
      </trkpt>
      <trkpt lat="47.23782" lon="-2.28649">
        <ele>87.800003051758</ele>
        <time>2020-01-09T09:17:20.000Z</time>
      </trkpt>
      <trkpt lat="47.23784" lon="-2.28643">
        <ele>87.800003051758</ele>
        <time>2020-01-09T09:17:23.000Z</time>
      </trkpt>
      <trkpt lat="47.23789" lon="-2.28632">
        <ele>87.800003051758</ele>
        <time>2020-01-09T09:17:28.000Z</time>
      </trkpt>
      <trkpt lat="47.23793" lon="-2.28623">
        <ele>87.800003051758</ele>
        <time>2020-01-09T09:17:33.000Z</time>
      </trkpt>
      <trkpt lat="47.23793" lon="-2.2862">
        <ele>87.800003051758</ele>
        <time>2020-01-09T09:17:34.000Z</time>
      </trkpt>
      <trkpt lat="47.23792" lon="-2.28613">
        <ele>87.800003051758</ele>
        <time>2020-01-09T09:17:36.000Z</time>
      </trkpt>
      <trkpt lat="47.23789" lon="-2.28605">
        <ele>87.800003051758</ele>
        <time>2020-01-09T09:17:38.000Z</time>
      </trkpt>
      <trkpt lat="47.23783" lon="-2.28582">
        <ele>87.800003051758</ele>
        <time>2020-01-09T09:17:43.000Z</time>
      </trkpt>
      <trkpt lat="47.23784" lon="-2.28556">
        <ele>87.800003051758</ele>
        <time>2020-01-09T09:17:47.000Z</time>
      </trkpt>
      <trkpt lat="47.23786" lon="-2.28532">
        <ele>87.800003051758</ele>
        <time>2020-01-09T09:17:52.000Z</time>
      </trkpt>
      <trkpt lat="47.23779" lon="-2.28514">
        <ele>87.800003051758</ele>
        <time>2020-01-09T09:17:56.000Z</time>
      </trkpt>
      <trkpt lat="47.23769" lon="-2.28494">
        <ele>87.800003051758</ele>
        <time>2020-01-09T09:18:01.000Z</time>
      </trkpt>
      <trkpt lat="47.23764" lon="-2.28487">
        <ele>86.800003051758</ele>
        <time>2020-01-09T09:18:03.000Z</time>
      </trkpt>
      <trkpt lat="47.23761" lon="-2.28483">
        <ele>86.199996948242</ele>
        <time>2020-01-09T09:18:04.000Z</time>
      </trkpt>
      <trkpt lat="47.23758" lon="-2.28479">
        <ele>85.800003051758</ele>
        <time>2020-01-09T09:18:05.000Z</time>
      </trkpt>
      <trkpt lat="47.23757" lon="-2.28474">
        <ele>85.199996948242</ele>
        <time>2020-01-09T09:18:06.000Z</time>
      </trkpt>
      <trkpt lat="47.2376" lon="-2.28457">
        <ele>85.199996948242</ele>
        <time>2020-01-09T09:18:10.000Z</time>
      </trkpt>
      <trkpt lat="47.23766" lon="-2.2845">
        <ele>85.199996948242</ele>
        <time>2020-01-09T09:18:13.000Z</time>
      </trkpt>
      <trkpt lat="47.23771" lon="-2.28446">
        <ele>85.199996948242</ele>
        <time>2020-01-09T09:18:15.000Z</time>
      </trkpt>
      <trkpt lat="47.2379" lon="-2.28434">
        <ele>85.599998474121</ele>
        <time>2020-01-09T09:18:21.000Z</time>
      </trkpt>
      <trkpt lat="47.23792" lon="-2.2843">
        <ele>86</ele>
        <time>2020-01-09T09:18:22.000Z</time>
      </trkpt>
      <trkpt lat="47.23794" lon="-2.28424">
        <ele>86.400001525879</ele>
        <time>2020-01-09T09:18:23.000Z</time>
      </trkpt>
      <trkpt lat="47.23796" lon="-2.28418">
        <ele>86.800003051758</ele>
        <time>2020-01-09T09:18:24.000Z</time>
      </trkpt>
      <trkpt lat="47.23798" lon="-2.28411">
        <ele>87.199996948242</ele>
        <time>2020-01-09T09:18:25.000Z</time>
      </trkpt>
      <trkpt lat="47.23798" lon="-2.28404">
        <ele>87.199996948242</ele>
        <time>2020-01-09T09:18:26.000Z</time>
      </trkpt>
      <trkpt lat="47.23805" lon="-2.28365">
        <ele>87.199996948242</ele>
        <time>2020-01-09T09:18:31.000Z</time>
      </trkpt>
      <trkpt lat="47.23806" lon="-2.28351">
        <ele>87.199996948242</ele>
        <time>2020-01-09T09:18:33.000Z</time>
      </trkpt>
      <trkpt lat="47.23805" lon="-2.2833">
        <ele>87.199996948242</ele>
        <time>2020-01-09T09:18:36.000Z</time>
      </trkpt>
      <trkpt lat="47.23806" lon="-2.28321">
        <ele>86.800003051758</ele>
        <time>2020-01-09T09:18:37.000Z</time>
      </trkpt>
      <trkpt lat="47.23807" lon="-2.28313">
        <ele>86.400001525879</ele>
        <time>2020-01-09T09:18:38.000Z</time>
      </trkpt>
      <trkpt lat="47.23808" lon="-2.28306">
        <ele>86</ele>
        <time>2020-01-09T09:18:39.000Z</time>
      </trkpt>
      <trkpt lat="47.23809" lon="-2.28299">
        <ele>85.599998474121</ele>
        <time>2020-01-09T09:18:40.000Z</time>
      </trkpt>
      <trkpt lat="47.23812" lon="-2.28293">
        <ele>85.199996948242</ele>
        <time>2020-01-09T09:18:41.000Z</time>
      </trkpt>
      <trkpt lat="47.2382" lon="-2.28285">
        <ele>85.199996948242</ele>
        <time>2020-01-09T09:18:43.000Z</time>
      </trkpt>
      <trkpt lat="47.23825" lon="-2.28263">
        <ele>85.199996948242</ele>
        <time>2020-01-09T09:18:46.000Z</time>
      </trkpt>
      <trkpt lat="47.23822" lon="-2.28232">
        <ele>85.199996948242</ele>
        <time>2020-01-09T09:18:50.000Z</time>
      </trkpt>
      <trkpt lat="47.2382" lon="-2.28218">
        <ele>85.199996948242</ele>
        <time>2020-01-09T09:18:52.000Z</time>
      </trkpt>
      <trkpt lat="47.2382" lon="-2.28209">
        <ele>84.400001525879</ele>
        <time>2020-01-09T09:18:53.000Z</time>
      </trkpt>
      <trkpt lat="47.2382" lon="-2.28201">
        <ele>84</ele>
        <time>2020-01-09T09:18:54.000Z</time>
      </trkpt>
      <trkpt lat="47.23821" lon="-2.28193">
        <ele>83.599998474121</ele>
        <time>2020-01-09T09:18:55.000Z</time>
      </trkpt>
      <trkpt lat="47.23821" lon="-2.28185">
        <ele>83.199996948242</ele>
        <time>2020-01-09T09:18:56.000Z</time>
      </trkpt>
      <trkpt lat="47.23821" lon="-2.28177">
        <ele>83.199996948242</ele>
        <time>2020-01-09T09:18:57.000Z</time>
      </trkpt>
      <trkpt lat="47.23822" lon="-2.28154">
        <ele>83.199996948242</ele>
        <time>2020-01-09T09:19:00.000Z</time>
      </trkpt>
      <trkpt lat="47.23824" lon="-2.28127">
        <ele>83.199996948242</ele>
        <time>2020-01-09T09:19:05.000Z</time>
      </trkpt>
      <trkpt lat="47.23824" lon="-2.28119">
        <ele>83.199996948242</ele>
        <time>2020-01-09T09:19:09.000Z</time>
      </trkpt>
      <trkpt lat="47.23826" lon="-2.28117">
        <ele>83.199996948242</ele>
        <time>2020-01-09T09:19:10.000Z</time>
      </trkpt>
      <trkpt lat="47.23832" lon="-2.281">
        <ele>82.599998474121</ele>
        <time>2020-01-09T09:19:14.000Z</time>
      </trkpt>
      <trkpt lat="47.23832" lon="-2.28094">
        <ele>82.199996948242</ele>
        <time>2020-01-09T09:19:15.000Z</time>
      </trkpt>
      <trkpt lat="47.23831" lon="-2.28088">
        <ele>81.800003051758</ele>
        <time>2020-01-09T09:19:16.000Z</time>
      </trkpt>
      <trkpt lat="47.23829" lon="-2.28082">
        <ele>81.400001525879</ele>
        <time>2020-01-09T09:19:17.000Z</time>
      </trkpt>
      <trkpt lat="47.23828" lon="-2.28075">
        <ele>81</ele>
        <time>2020-01-09T09:19:18.000Z</time>
      </trkpt>
      <trkpt lat="47.23827" lon="-2.28067">
        <ele>80.599998474121</ele>
        <time>2020-01-09T09:19:19.000Z</time>
      </trkpt>
      <trkpt lat="47.23827" lon="-2.2806">
        <ele>80.199996948242</ele>
        <time>2020-01-09T09:19:20.000Z</time>
      </trkpt>
      <trkpt lat="47.23826" lon="-2.28051">
        <ele>79.800003051758</ele>
        <time>2020-01-09T09:19:21.000Z</time>
      </trkpt>
      <trkpt lat="47.23826" lon="-2.28043">
        <ele>79.400001525879</ele>
        <time>2020-01-09T09:19:22.000Z</time>
      </trkpt>
      <trkpt lat="47.23827" lon="-2.28033">
        <ele>78.800003051758</ele>
        <time>2020-01-09T09:19:23.000Z</time>
      </trkpt>
      <trkpt lat="47.23829" lon="-2.28024">
        <ele>78.199996948242</ele>
        <time>2020-01-09T09:19:24.000Z</time>
      </trkpt>
      <trkpt lat="47.2383" lon="-2.28013">
        <ele>77.599998474121</ele>
        <time>2020-01-09T09:19:25.000Z</time>
      </trkpt>
      <trkpt lat="47.23832" lon="-2.28003">
        <ele>77</ele>
        <time>2020-01-09T09:19:26.000Z</time>
      </trkpt>
      <trkpt lat="47.23835" lon="-2.27992">
        <ele>76.400001525879</ele>
        <time>2020-01-09T09:19:27.000Z</time>
      </trkpt>
      <trkpt lat="47.23838" lon="-2.27982">
        <ele>76.400001525879</ele>
        <time>2020-01-09T09:19:28.000Z</time>
      </trkpt>
      <trkpt lat="47.23844" lon="-2.27962">
        <ele>76.400001525879</ele>
        <time>2020-01-09T09:19:30.000Z</time>
      </trkpt>
      <trkpt lat="47.23851" lon="-2.27947">
        <ele>76</ele>
        <time>2020-01-09T09:19:32.000Z</time>
      </trkpt>
      <trkpt lat="47.23854" lon="-2.2794">
        <ele>75.599998474121</ele>
        <time>2020-01-09T09:19:33.000Z</time>
      </trkpt>
      <trkpt lat="47.23858" lon="-2.27934">
        <ele>75.199996948242</ele>
        <time>2020-01-09T09:19:34.000Z</time>
      </trkpt>
      <trkpt lat="47.23861" lon="-2.27929">
        <ele>74.800003051758</ele>
        <time>2020-01-09T09:19:35.000Z</time>
      </trkpt>
      <trkpt lat="47.23865" lon="-2.27924">
        <ele>74.400001525879</ele>
        <time>2020-01-09T09:19:36.000Z</time>
      </trkpt>
      <trkpt lat="47.23868" lon="-2.2792">
        <ele>74.400001525879</ele>
        <time>2020-01-09T09:19:37.000Z</time>
      </trkpt>
      <trkpt lat="47.23887" lon="-2.27903">
        <ele>74</ele>
        <time>2020-01-09T09:19:42.000Z</time>
      </trkpt>
      <trkpt lat="47.23892" lon="-2.279">
        <ele>73</ele>
        <time>2020-01-09T09:19:43.000Z</time>
      </trkpt>
      <trkpt lat="47.23897" lon="-2.27897">
        <ele>72.599998474121</ele>
        <time>2020-01-09T09:19:44.000Z</time>
      </trkpt>
      <trkpt lat="47.23902" lon="-2.27894">
        <ele>72.199996948242</ele>
        <time>2020-01-09T09:19:45.000Z</time>
      </trkpt>
      <trkpt lat="47.2391" lon="-2.27889">
        <ele>72.199996948242</ele>
        <time>2020-01-09T09:19:47.000Z</time>
      </trkpt>
      <trkpt lat="47.23921" lon="-2.27886">
        <ele>72.199996948242</ele>
        <time>2020-01-09T09:19:51.000Z</time>
      </trkpt>
      <trkpt lat="47.23924" lon="-2.27885">
        <ele>72.199996948242</ele>
        <time>2020-01-09T09:19:53.000Z</time>
      </trkpt>
      <trkpt lat="47.2393" lon="-2.27882">
        <ele>72.199996948242</ele>
        <time>2020-01-09T09:19:56.000Z</time>
      </trkpt>
      <trkpt lat="47.23937" lon="-2.2788">
        <ele>72.199996948242</ele>
        <time>2020-01-09T09:19:58.000Z</time>
      </trkpt>
      <trkpt lat="47.23944" lon="-2.27876">
        <ele>72.199996948242</ele>
        <time>2020-01-09T09:20:00.000Z</time>
      </trkpt>
      <trkpt lat="47.23963" lon="-2.2787">
        <ele>72.199996948242</ele>
        <time>2020-01-09T09:20:05.000Z</time>
      </trkpt>
      <trkpt lat="47.23979" lon="-2.27866">
        <ele>72.199996948242</ele>
        <time>2020-01-09T09:20:10.000Z</time>
      </trkpt>
      <trkpt lat="47.23982" lon="-2.27868">
        <ele>72.199996948242</ele>
        <time>2020-01-09T09:20:11.000Z</time>
      </trkpt>
      <trkpt lat="47.23989" lon="-2.27866">
        <ele>72.199996948242</ele>
        <time>2020-01-09T09:20:13.000Z</time>
      </trkpt>
      <trkpt lat="47.23992" lon="-2.27863">
        <ele>72.199996948242</ele>
        <time>2020-01-09T09:20:14.000Z</time>
      </trkpt>
      <trkpt lat="47.24011" lon="-2.2785">
        <ele>72.199996948242</ele>
        <time>2020-01-09T09:20:19.000Z</time>
      </trkpt>
      <trkpt lat="47.24015" lon="-2.27848">
        <ele>72.199996948242</ele>
        <time>2020-01-09T09:20:20.000Z</time>
      </trkpt>
      <trkpt lat="47.2402" lon="-2.27847">
        <ele>72.199996948242</ele>
        <time>2020-01-09T09:20:21.000Z</time>
      </trkpt>
      <trkpt lat="47.24033" lon="-2.2784">
        <ele>72.199996948242</ele>
        <time>2020-01-09T09:20:24.000Z</time>
      </trkpt>
      <trkpt lat="47.24061" lon="-2.27831">
        <ele>72.199996948242</ele>
        <time>2020-01-09T09:20:30.000Z</time>
      </trkpt>
      <trkpt lat="47.24075" lon="-2.27826">
        <ele>72.199996948242</ele>
        <time>2020-01-09T09:20:33.000Z</time>
      </trkpt>
      <trkpt lat="47.24083" lon="-2.2782">
        <ele>72.199996948242</ele>
        <time>2020-01-09T09:20:35.000Z</time>
      </trkpt>
      <trkpt lat="47.24088" lon="-2.27818">
        <ele>72.199996948242</ele>
        <time>2020-01-09T09:20:36.000Z</time>
      </trkpt>
      <trkpt lat="47.2411" lon="-2.27803">
        <ele>72.199996948242</ele>
        <time>2020-01-09T09:20:41.000Z</time>
      </trkpt>
      <trkpt lat="47.24114" lon="-2.27799">
        <ele>72.199996948242</ele>
        <time>2020-01-09T09:20:42.000Z</time>
      </trkpt>
      <trkpt lat="47.24118" lon="-2.27795">
        <ele>72.599998474121</ele>
        <time>2020-01-09T09:20:43.000Z</time>
      </trkpt>
      <trkpt lat="47.24122" lon="-2.27792">
        <ele>73.199996948242</ele>
        <time>2020-01-09T09:20:44.000Z</time>
      </trkpt>
      <trkpt lat="47.24126" lon="-2.27789">
        <ele>73.599998474121</ele>
        <time>2020-01-09T09:20:45.000Z</time>
      </trkpt>
      <trkpt lat="47.2413" lon="-2.27785">
        <ele>74</ele>
        <time>2020-01-09T09:20:46.000Z</time>
      </trkpt>
      <trkpt lat="47.24134" lon="-2.27781">
        <ele>74.400001525879</ele>
        <time>2020-01-09T09:20:47.000Z</time>
      </trkpt>
      <trkpt lat="47.24145" lon="-2.27766">
        <ele>74.400001525879</ele>
        <time>2020-01-09T09:20:50.000Z</time>
      </trkpt>
      <trkpt lat="47.24148" lon="-2.27761">
        <ele>74.800003051758</ele>
        <time>2020-01-09T09:20:51.000Z</time>
      </trkpt>
      <trkpt lat="47.2415" lon="-2.27756">
        <ele>75.400001525879</ele>
        <time>2020-01-09T09:20:52.000Z</time>
      </trkpt>
      <trkpt lat="47.24153" lon="-2.2775">
        <ele>75.800003051758</ele>
        <time>2020-01-09T09:20:53.000Z</time>
      </trkpt>
      <trkpt lat="47.24155" lon="-2.27744">
        <ele>76.199996948242</ele>
        <time>2020-01-09T09:20:54.000Z</time>
      </trkpt>
      <trkpt lat="47.24156" lon="-2.27737">
        <ele>76.599998474121</ele>
        <time>2020-01-09T09:20:55.000Z</time>
      </trkpt>
      <trkpt lat="47.24157" lon="-2.27731">
        <ele>77</ele>
        <time>2020-01-09T09:20:56.000Z</time>
      </trkpt>
      <trkpt lat="47.24157" lon="-2.27724">
        <ele>78</ele>
        <time>2020-01-09T09:20:57.000Z</time>
      </trkpt>
      <trkpt lat="47.24157" lon="-2.27717">
        <ele>78.400001525879</ele>
        <time>2020-01-09T09:20:58.000Z</time>
      </trkpt>
      <trkpt lat="47.24156" lon="-2.2771">
        <ele>78.800003051758</ele>
        <time>2020-01-09T09:20:59.000Z</time>
      </trkpt>
      <trkpt lat="47.24152" lon="-2.27691">
        <ele>79.400001525879</ele>
        <time>2020-01-09T09:21:02.000Z</time>
      </trkpt>
      <trkpt lat="47.2415" lon="-2.27685">
        <ele>79.800003051758</ele>
        <time>2020-01-09T09:21:03.000Z</time>
      </trkpt>
      <trkpt lat="47.24148" lon="-2.2768">
        <ele>80.199996948242</ele>
        <time>2020-01-09T09:21:04.000Z</time>
      </trkpt>
      <trkpt lat="47.24146" lon="-2.27674">
        <ele>80.599998474121</ele>
        <time>2020-01-09T09:21:05.000Z</time>
      </trkpt>
      <trkpt lat="47.24146" lon="-2.27669">
        <ele>81.199996948242</ele>
        <time>2020-01-09T09:21:06.000Z</time>
      </trkpt>
      <trkpt lat="47.24147" lon="-2.27654">
        <ele>81.599998474121</ele>
        <time>2020-01-09T09:21:09.000Z</time>
      </trkpt>
      <trkpt lat="47.2415" lon="-2.27651">
        <ele>82</ele>
        <time>2020-01-09T09:21:10.000Z</time>
      </trkpt>
      <trkpt lat="47.24153" lon="-2.27648">
        <ele>82.400001525879</ele>
        <time>2020-01-09T09:21:11.000Z</time>
      </trkpt>
      <trkpt lat="47.24157" lon="-2.27647">
        <ele>82.800003051758</ele>
        <time>2020-01-09T09:21:12.000Z</time>
      </trkpt>
      <trkpt lat="47.24161" lon="-2.27646">
        <ele>83.199996948242</ele>
        <time>2020-01-09T09:21:13.000Z</time>
      </trkpt>
      <trkpt lat="47.24164" lon="-2.27645">
        <ele>83.199996948242</ele>
        <time>2020-01-09T09:21:14.000Z</time>
      </trkpt>
      <trkpt lat="47.24169" lon="-2.27645">
        <ele>83.199996948242</ele>
        <time>2020-01-09T09:21:15.000Z</time>
      </trkpt>
      <trkpt lat="47.24177" lon="-2.27646">
        <ele>83.599998474121</ele>
        <time>2020-01-09T09:21:17.000Z</time>
      </trkpt>
      <trkpt lat="47.24181" lon="-2.27646">
        <ele>84</ele>
        <time>2020-01-09T09:21:18.000Z</time>
      </trkpt>
      <trkpt lat="47.24185" lon="-2.27647">
        <ele>84.599998474121</ele>
        <time>2020-01-09T09:21:19.000Z</time>
      </trkpt>
      <trkpt lat="47.24189" lon="-2.27648">
        <ele>85</ele>
        <time>2020-01-09T09:21:20.000Z</time>
      </trkpt>
      <trkpt lat="47.24193" lon="-2.2765">
        <ele>85.400001525879</ele>
        <time>2020-01-09T09:21:21.000Z</time>
      </trkpt>
      <trkpt lat="47.24196" lon="-2.27652">
        <ele>85.400001525879</ele>
        <time>2020-01-09T09:21:22.000Z</time>
      </trkpt>
      <trkpt lat="47.24199" lon="-2.27655">
        <ele>85.400001525879</ele>
        <time>2020-01-09T09:21:23.000Z</time>
      </trkpt>
      <trkpt lat="47.24218" lon="-2.27672">
        <ele>85.400001525879</ele>
        <time>2020-01-09T09:21:29.000Z</time>
      </trkpt>
      <trkpt lat="47.24237" lon="-2.27686">
        <ele>85.400001525879</ele>
        <time>2020-01-09T09:21:35.000Z</time>
      </trkpt>
      <trkpt lat="47.24252" lon="-2.27694">
        <ele>85.800003051758</ele>
        <time>2020-01-09T09:21:39.000Z</time>
      </trkpt>
      <trkpt lat="47.24255" lon="-2.27695">
        <ele>86.199996948242</ele>
        <time>2020-01-09T09:21:40.000Z</time>
      </trkpt>
      <trkpt lat="47.24259" lon="-2.27696">
        <ele>86.599998474121</ele>
        <time>2020-01-09T09:21:41.000Z</time>
      </trkpt>
      <trkpt lat="47.24262" lon="-2.27697">
        <ele>87</ele>
        <time>2020-01-09T09:21:42.000Z</time>
      </trkpt>
      <trkpt lat="47.24266" lon="-2.27698">
        <ele>87.400001525879</ele>
        <time>2020-01-09T09:21:43.000Z</time>
      </trkpt>
      <trkpt lat="47.24285" lon="-2.27698">
        <ele>87.400001525879</ele>
        <time>2020-01-09T09:21:48.000Z</time>
      </trkpt>
      <trkpt lat="47.2431" lon="-2.27695">
        <ele>87.400001525879</ele>
        <time>2020-01-09T09:21:55.000Z</time>
      </trkpt>
      <trkpt lat="47.24331" lon="-2.2769">
        <ele>87.400001525879</ele>
        <time>2020-01-09T09:22:02.000Z</time>
      </trkpt>
      <trkpt lat="47.24353" lon="-2.27685">
        <ele>87.800003051758</ele>
        <time>2020-01-09T09:22:08.000Z</time>
      </trkpt>
      <trkpt lat="47.24356" lon="-2.27684">
        <ele>88.199996948242</ele>
        <time>2020-01-09T09:22:09.000Z</time>
      </trkpt>
      <trkpt lat="47.2436" lon="-2.27683">
        <ele>88.599998474121</ele>
        <time>2020-01-09T09:22:10.000Z</time>
      </trkpt>
      <trkpt lat="47.24364" lon="-2.27682">
        <ele>89.400001525879</ele>
        <time>2020-01-09T09:22:11.000Z</time>
      </trkpt>
      <trkpt lat="47.24378" lon="-2.27676">
        <ele>89.400001525879</ele>
        <time>2020-01-09T09:22:15.000Z</time>
      </trkpt>
      <trkpt lat="47.24409" lon="-2.27659">
        <ele>89.400001525879</ele>
        <time>2020-01-09T09:22:24.000Z</time>
      </trkpt>
      <trkpt lat="47.24423" lon="-2.27653">
        <ele>89.800003051758</ele>
        <time>2020-01-09T09:22:28.000Z</time>
      </trkpt>
      <trkpt lat="47.24427" lon="-2.27651">
        <ele>90.400001525879</ele>
        <time>2020-01-09T09:22:29.000Z</time>
      </trkpt>
      <trkpt lat="47.2443" lon="-2.2765">
        <ele>90.800003051758</ele>
        <time>2020-01-09T09:22:30.000Z</time>
      </trkpt>
      <trkpt lat="47.24434" lon="-2.27648">
        <ele>91.199996948242</ele>
        <time>2020-01-09T09:22:31.000Z</time>
      </trkpt>
      <trkpt lat="47.24437" lon="-2.27647">
        <ele>91.599998474121</ele>
        <time>2020-01-09T09:22:32.000Z</time>
      </trkpt>
      <trkpt lat="47.24465" lon="-2.27634">
        <ele>91.599998474121</ele>
        <time>2020-01-09T09:22:40.000Z</time>
      </trkpt>
      <trkpt lat="47.2448" lon="-2.27626">
        <ele>92</ele>
        <time>2020-01-09T09:22:44.000Z</time>
      </trkpt>
      <trkpt lat="47.24484" lon="-2.27625">
        <ele>92.400001525879</ele>
        <time>2020-01-09T09:22:45.000Z</time>
      </trkpt>
      <trkpt lat="47.24488" lon="-2.27623">
        <ele>92.800003051758</ele>
        <time>2020-01-09T09:22:46.000Z</time>
      </trkpt>
      <trkpt lat="47.24491" lon="-2.27621">
        <ele>93.199996948242</ele>
        <time>2020-01-09T09:22:47.000Z</time>
      </trkpt>
      <trkpt lat="47.24495" lon="-2.2762">
        <ele>93.599998474121</ele>
        <time>2020-01-09T09:22:48.000Z</time>
      </trkpt>
      <trkpt lat="47.2451" lon="-2.27614">
        <ele>93.599998474121</ele>
        <time>2020-01-09T09:22:53.000Z</time>
      </trkpt>
      <trkpt lat="47.24525" lon="-2.27618">
        <ele>93.599998474121</ele>
        <time>2020-01-09T09:22:57.000Z</time>
      </trkpt>
      <trkpt lat="47.24529" lon="-2.27618">
        <ele>93.599998474121</ele>
        <time>2020-01-09T09:22:58.000Z</time>
      </trkpt>
      <trkpt lat="47.24548" lon="-2.27618">
        <ele>94</ele>
        <time>2020-01-09T09:23:02.000Z</time>
      </trkpt>
      <trkpt lat="47.24553" lon="-2.27617">
        <ele>94.400001525879</ele>
        <time>2020-01-09T09:23:03.000Z</time>
      </trkpt>
      <trkpt lat="47.24558" lon="-2.27617">
        <ele>94.800003051758</ele>
        <time>2020-01-09T09:23:04.000Z</time>
      </trkpt>
      <trkpt lat="47.24562" lon="-2.27617">
        <ele>95.199996948242</ele>
        <time>2020-01-09T09:23:05.000Z</time>
      </trkpt>
      <trkpt lat="47.24567" lon="-2.27617">
        <ele>95.800003051758</ele>
        <time>2020-01-09T09:23:06.000Z</time>
      </trkpt>
      <trkpt lat="47.24585" lon="-2.2762">
        <ele>95.800003051758</ele>
        <time>2020-01-09T09:23:10.000Z</time>
      </trkpt>
      <trkpt lat="47.24596" lon="-2.27622">
        <ele>95.800003051758</ele>
        <time>2020-01-09T09:23:12.000Z</time>
      </trkpt>
      <trkpt lat="47.246" lon="-2.27624">
        <ele>95.800003051758</ele>
        <time>2020-01-09T09:23:13.000Z</time>
      </trkpt>
      <trkpt lat="47.24618" lon="-2.27628">
        <ele>96.199996948242</ele>
        <time>2020-01-09T09:23:17.000Z</time>
      </trkpt>
      <trkpt lat="47.24622" lon="-2.27628">
        <ele>96.599998474121</ele>
        <time>2020-01-09T09:23:18.000Z</time>
      </trkpt>
      <trkpt lat="47.24627" lon="-2.27628">
        <ele>97</ele>
        <time>2020-01-09T09:23:19.000Z</time>
      </trkpt>
      <trkpt lat="47.24631" lon="-2.27628">
        <ele>97.400001525879</ele>
        <time>2020-01-09T09:23:20.000Z</time>
      </trkpt>
      <trkpt lat="47.24635" lon="-2.27627">
        <ele>98</ele>
        <time>2020-01-09T09:23:21.000Z</time>
      </trkpt>
      <trkpt lat="47.2464" lon="-2.27627">
        <ele>98</ele>
        <time>2020-01-09T09:23:22.000Z</time>
      </trkpt>
      <trkpt lat="47.2466" lon="-2.27631">
        <ele>98</ele>
        <time>2020-01-09T09:23:27.000Z</time>
      </trkpt>
      <trkpt lat="47.24678" lon="-2.2764">
        <ele>98</ele>
        <time>2020-01-09T09:23:32.000Z</time>
      </trkpt>
      <trkpt lat="47.2468" lon="-2.27639">
        <ele>98</ele>
        <time>2020-01-09T09:23:33.000Z</time>
      </trkpt>
      <trkpt lat="47.24683" lon="-2.27633">
        <ele>98</ele>
        <time>2020-01-09T09:23:35.000Z</time>
      </trkpt>
      <trkpt lat="47.24688" lon="-2.27624">
        <ele>98</ele>
        <time>2020-01-09T09:23:39.000Z</time>
      </trkpt>
      <trkpt lat="47.24699" lon="-2.27622">
        <ele>98</ele>
        <time>2020-01-09T09:23:42.000Z</time>
      </trkpt>
      <trkpt lat="47.24705" lon="-2.27621">
        <ele>98</ele>
        <time>2020-01-09T09:23:44.000Z</time>
      </trkpt>
      <trkpt lat="47.24722" lon="-2.27623">
        <ele>98</ele>
        <time>2020-01-09T09:23:48.000Z</time>
      </trkpt>
      <trkpt lat="47.24733" lon="-2.27621">
        <ele>98</ele>
        <time>2020-01-09T09:23:52.000Z</time>
      </trkpt>
      <trkpt lat="47.24735" lon="-2.27619">
        <ele>98</ele>
        <time>2020-01-09T09:23:53.000Z</time>
      </trkpt>
      <trkpt lat="47.24739" lon="-2.27611">
        <ele>98</ele>
        <time>2020-01-09T09:23:55.000Z</time>
      </trkpt>
      <trkpt lat="47.2474" lon="-2.27587">
        <ele>98</ele>
        <time>2020-01-09T09:23:59.000Z</time>
      </trkpt>
      <trkpt lat="47.2474" lon="-2.27581">
        <ele>98</ele>
        <time>2020-01-09T09:24:00.000Z</time>
      </trkpt>
      <trkpt lat="47.24739" lon="-2.27569">
        <ele>98.400001525879</ele>
        <time>2020-01-09T09:24:02.000Z</time>
      </trkpt>
      <trkpt lat="47.24739" lon="-2.27563">
        <ele>98.800003051758</ele>
        <time>2020-01-09T09:24:03.000Z</time>
      </trkpt>
      <trkpt lat="47.24739" lon="-2.27556">
        <ele>99.199996948242</ele>
        <time>2020-01-09T09:24:04.000Z</time>
      </trkpt>
      <trkpt lat="47.24739" lon="-2.27549">
        <ele>99.599998474121</ele>
        <time>2020-01-09T09:24:05.000Z</time>
      </trkpt>
      <trkpt lat="47.2474" lon="-2.27543">
        <ele>100</ele>
        <time>2020-01-09T09:24:06.000Z</time>
      </trkpt>
      <trkpt lat="47.24742" lon="-2.27537">
        <ele>100</ele>
        <time>2020-01-09T09:24:07.000Z</time>
      </trkpt>
      <trkpt lat="47.24754" lon="-2.27517">
        <ele>100</ele>
        <time>2020-01-09T09:24:11.000Z</time>
      </trkpt>
      <trkpt lat="47.24757" lon="-2.27512">
        <ele>100</ele>
        <time>2020-01-09T09:24:12.000Z</time>
      </trkpt>
      <trkpt lat="47.24765" lon="-2.27493">
        <ele>100</ele>
        <time>2020-01-09T09:24:16.000Z</time>
      </trkpt>
      <trkpt lat="47.24766" lon="-2.27473">
        <ele>100</ele>
        <time>2020-01-09T09:24:20.000Z</time>
      </trkpt>
      <trkpt lat="47.24768" lon="-2.27444">
        <ele>100</ele>
        <time>2020-01-09T09:24:25.000Z</time>
      </trkpt>
      <trkpt lat="47.2477" lon="-2.27415">
        <ele>100</ele>
        <time>2020-01-09T09:24:30.000Z</time>
      </trkpt>
      <trkpt lat="47.2477" lon="-2.27408">
        <ele>100</ele>
        <time>2020-01-09T09:24:31.000Z</time>
      </trkpt>
      <trkpt lat="47.24773" lon="-2.27378">
        <ele>100.40000152588</ele>
        <time>2020-01-09T09:24:36.000Z</time>
      </trkpt>
      <trkpt lat="47.24773" lon="-2.27372">
        <ele>100.80000305176</ele>
        <time>2020-01-09T09:24:37.000Z</time>
      </trkpt>
      <trkpt lat="47.24773" lon="-2.27367">
        <ele>101.19999694824</ele>
        <time>2020-01-09T09:24:38.000Z</time>
      </trkpt>
      <trkpt lat="47.24773" lon="-2.27361">
        <ele>101.59999847412</ele>
        <time>2020-01-09T09:24:39.000Z</time>
      </trkpt>
      <trkpt lat="47.24772" lon="-2.27356">
        <ele>102</ele>
        <time>2020-01-09T09:24:40.000Z</time>
      </trkpt>
      <trkpt lat="47.2477" lon="-2.2734">
        <ele>102</ele>
        <time>2020-01-09T09:24:43.000Z</time>
      </trkpt>
      <trkpt lat="47.24767" lon="-2.27303">
        <ele>102</ele>
        <time>2020-01-09T09:24:50.000Z</time>
      </trkpt>
      <trkpt lat="47.2477" lon="-2.27282">
        <ele>102</ele>
        <time>2020-01-09T09:24:56.000Z</time>
      </trkpt>
      <trkpt lat="47.24781" lon="-2.27277">
        <ele>102</ele>
        <time>2020-01-09T09:25:00.000Z</time>
      </trkpt>
      <trkpt lat="47.24796" lon="-2.27274">
        <ele>102</ele>
        <time>2020-01-09T09:25:05.000Z</time>
      </trkpt>
      <trkpt lat="47.24813" lon="-2.27271">
        <ele>102.40000152588</ele>
        <time>2020-01-09T09:25:10.000Z</time>
      </trkpt>
      <trkpt lat="47.24817" lon="-2.27271">
        <ele>102.80000305176</ele>
        <time>2020-01-09T09:25:11.000Z</time>
      </trkpt>
      <trkpt lat="47.24821" lon="-2.27272">
        <ele>103.19999694824</ele>
        <time>2020-01-09T09:25:12.000Z</time>
      </trkpt>
      <trkpt lat="47.24825" lon="-2.27272">
        <ele>103.59999847412</ele>
        <time>2020-01-09T09:25:13.000Z</time>
      </trkpt>
      <trkpt lat="47.24828" lon="-2.27271">
        <ele>104</ele>
        <time>2020-01-09T09:25:14.000Z</time>
      </trkpt>
      <trkpt lat="47.24844" lon="-2.27268">
        <ele>104</ele>
        <time>2020-01-09T09:25:18.000Z</time>
      </trkpt>
      <trkpt lat="47.2487" lon="-2.27257">
        <ele>104</ele>
        <time>2020-01-09T09:25:25.000Z</time>
      </trkpt>
      <trkpt lat="47.24871" lon="-2.27252">
        <ele>104</ele>
        <time>2020-01-09T09:25:26.000Z</time>
      </trkpt>
      <trkpt lat="47.24874" lon="-2.27241">
        <ele>104</ele>
        <time>2020-01-09T09:25:28.000Z</time>
      </trkpt>
      <trkpt lat="47.24878" lon="-2.27229">
        <ele>104.40000152588</ele>
        <time>2020-01-09T09:25:30.000Z</time>
      </trkpt>
      <trkpt lat="47.2488" lon="-2.27224">
        <ele>104.80000305176</ele>
        <time>2020-01-09T09:25:31.000Z</time>
      </trkpt>
      <trkpt lat="47.24882" lon="-2.27218">
        <ele>105.19999694824</ele>
        <time>2020-01-09T09:25:32.000Z</time>
      </trkpt>
      <trkpt lat="47.24884" lon="-2.27211">
        <ele>105.59999847412</ele>
        <time>2020-01-09T09:25:33.000Z</time>
      </trkpt>
      <trkpt lat="47.24887" lon="-2.27206">
        <ele>106.19999694824</ele>
        <time>2020-01-09T09:25:34.000Z</time>
      </trkpt>
      <trkpt lat="47.24893" lon="-2.27194">
        <ele>106.19999694824</ele>
        <time>2020-01-09T09:25:36.000Z</time>
      </trkpt>
      <trkpt lat="47.24902" lon="-2.27175">
        <ele>106.19999694824</ele>
        <time>2020-01-09T09:25:39.000Z</time>
      </trkpt>
      <trkpt lat="47.24916" lon="-2.27144">
        <ele>106.19999694824</ele>
        <time>2020-01-09T09:25:45.000Z</time>
      </trkpt>
      <trkpt lat="47.2492" lon="-2.27134">
        <ele>106.59999847412</ele>
        <time>2020-01-09T09:25:47.000Z</time>
      </trkpt>
      <trkpt lat="47.24923" lon="-2.27129">
        <ele>107</ele>
        <time>2020-01-09T09:25:48.000Z</time>
      </trkpt>
      <trkpt lat="47.24925" lon="-2.27124">
        <ele>107.40000152588</ele>
        <time>2020-01-09T09:25:49.000Z</time>
      </trkpt>
      <trkpt lat="47.24927" lon="-2.27118">
        <ele>107.80000305176</ele>
        <time>2020-01-09T09:25:50.000Z</time>
      </trkpt>
      <trkpt lat="47.24928" lon="-2.27112">
        <ele>108.19999694824</ele>
        <time>2020-01-09T09:25:51.000Z</time>
      </trkpt>
      <trkpt lat="47.2493" lon="-2.27106">
        <ele>108.19999694824</ele>
        <time>2020-01-09T09:25:52.000Z</time>
      </trkpt>
      <trkpt lat="47.24942" lon="-2.27073">
        <ele>108.19999694824</ele>
        <time>2020-01-09T09:25:58.000Z</time>
      </trkpt>
      <trkpt lat="47.24946" lon="-2.27068">
        <ele>108.19999694824</ele>
        <time>2020-01-09T09:25:59.000Z</time>
      </trkpt>
      <trkpt lat="47.24962" lon="-2.27057">
        <ele>108.19999694824</ele>
        <time>2020-01-09T09:26:03.000Z</time>
      </trkpt>
      <trkpt lat="47.24992" lon="-2.27045">
        <ele>108.59999847412</ele>
        <time>2020-01-09T09:26:09.000Z</time>
      </trkpt>
      <trkpt lat="47.24997" lon="-2.27042">
        <ele>109</ele>
        <time>2020-01-09T09:26:10.000Z</time>
      </trkpt>
      <trkpt lat="47.25002" lon="-2.27038">
        <ele>109.40000152588</ele>
        <time>2020-01-09T09:26:11.000Z</time>
      </trkpt>
      <trkpt lat="47.25007" lon="-2.27035">
        <ele>109.80000305176</ele>
        <time>2020-01-09T09:26:12.000Z</time>
      </trkpt>
      <trkpt lat="47.25011" lon="-2.27033">
        <ele>110.19999694824</ele>
        <time>2020-01-09T09:26:13.000Z</time>
      </trkpt>
      <trkpt lat="47.25022" lon="-2.27031">
        <ele>110.19999694824</ele>
        <time>2020-01-09T09:26:15.000Z</time>
      </trkpt>
      <trkpt lat="47.25031" lon="-2.27032">
        <ele>110.19999694824</ele>
        <time>2020-01-09T09:26:17.000Z</time>
      </trkpt>
      <trkpt lat="47.25036" lon="-2.27031">
        <ele>110.19999694824</ele>
        <time>2020-01-09T09:26:18.000Z</time>
      </trkpt>
      <trkpt lat="47.25049" lon="-2.27022">
        <ele>110.19999694824</ele>
        <time>2020-01-09T09:26:21.000Z</time>
      </trkpt>
      <trkpt lat="47.25054" lon="-2.27019">
        <ele>110.19999694824</ele>
        <time>2020-01-09T09:26:22.000Z</time>
      </trkpt>
      <trkpt lat="47.25072" lon="-2.27016">
        <ele>110.19999694824</ele>
        <time>2020-01-09T09:26:26.000Z</time>
      </trkpt>
      <trkpt lat="47.25076" lon="-2.27014">
        <ele>110.19999694824</ele>
        <time>2020-01-09T09:26:27.000Z</time>
      </trkpt>
      <trkpt lat="47.25093" lon="-2.27012">
        <ele>110.19999694824</ele>
        <time>2020-01-09T09:26:30.000Z</time>
      </trkpt>
      <trkpt lat="47.25105" lon="-2.27009">
        <ele>110.19999694824</ele>
        <time>2020-01-09T09:26:32.000Z</time>
      </trkpt>
      <trkpt lat="47.2512" lon="-2.26993">
        <ele>110.19999694824</ele>
        <time>2020-01-09T09:26:35.000Z</time>
      </trkpt>
      <trkpt lat="47.25131" lon="-2.26974">
        <ele>110.19999694824</ele>
        <time>2020-01-09T09:26:38.000Z</time>
      </trkpt>
      <trkpt lat="47.25146" lon="-2.26974">
        <ele>110.19999694824</ele>
        <time>2020-01-09T09:26:41.000Z</time>
      </trkpt>
      <trkpt lat="47.25154" lon="-2.26977">
        <ele>110.19999694824</ele>
        <time>2020-01-09T09:26:44.000Z</time>
      </trkpt>
      <trkpt lat="47.25165" lon="-2.26974">
        <ele>110.19999694824</ele>
        <time>2020-01-09T09:26:48.000Z</time>
      </trkpt>
      <trkpt lat="47.25165" lon="-2.2697">
        <ele>110.19999694824</ele>
        <time>2020-01-09T09:26:49.000Z</time>
      </trkpt>
      <trkpt lat="47.25158" lon="-2.2696">
        <ele>110.19999694824</ele>
        <time>2020-01-09T09:26:52.000Z</time>
      </trkpt>
      <trkpt lat="47.25142" lon="-2.26944">
        <ele>110.19999694824</ele>
        <time>2020-01-09T09:26:57.000Z</time>
      </trkpt>
      <trkpt lat="47.25139" lon="-2.26941">
        <ele>110.19999694824</ele>
        <time>2020-01-09T09:26:58.000Z</time>
      </trkpt>
      <trkpt lat="47.25131" lon="-2.26923">
        <ele>110.19999694824</ele>
        <time>2020-01-09T09:27:01.000Z</time>
      </trkpt>
      <trkpt lat="47.25118" lon="-2.269">
        <ele>110.19999694824</ele>
        <time>2020-01-09T09:27:05.000Z</time>
      </trkpt>
      <trkpt lat="47.25109" lon="-2.26898">
        <ele>110.19999694824</ele>
        <time>2020-01-09T09:27:07.000Z</time>
      </trkpt>
      <trkpt lat="47.251" lon="-2.26892">
        <ele>110.19999694824</ele>
        <time>2020-01-09T09:27:09.000Z</time>
      </trkpt>
      <trkpt lat="47.25086" lon="-2.26872">
        <ele>110.19999694824</ele>
        <time>2020-01-09T09:27:13.000Z</time>
      </trkpt>
      <trkpt lat="47.25068" lon="-2.26864">
        <ele>110.19999694824</ele>
        <time>2020-01-09T09:27:17.000Z</time>
      </trkpt>
      <trkpt lat="47.25063" lon="-2.26863">
        <ele>110.19999694824</ele>
        <time>2020-01-09T09:27:18.000Z</time>
      </trkpt>
      <trkpt lat="47.25048" lon="-2.2686">
        <ele>110.19999694824</ele>
        <time>2020-01-09T09:27:22.000Z</time>
      </trkpt>
      <trkpt lat="47.2504" lon="-2.26862">
        <ele>110.19999694824</ele>
        <time>2020-01-09T09:27:24.000Z</time>
      </trkpt>
      <trkpt lat="47.25031" lon="-2.26864">
        <ele>110.19999694824</ele>
        <time>2020-01-09T09:27:26.000Z</time>
      </trkpt>
      <trkpt lat="47.25017" lon="-2.26868">
        <ele>110.59999847412</ele>
        <time>2020-01-09T09:27:29.000Z</time>
      </trkpt>
      <trkpt lat="47.25012" lon="-2.26869">
        <ele>111</ele>
        <time>2020-01-09T09:27:30.000Z</time>
      </trkpt>
      <trkpt lat="47.25007" lon="-2.2687">
        <ele>111.40000152588</ele>
        <time>2020-01-09T09:27:31.000Z</time>
      </trkpt>
      <trkpt lat="47.25002" lon="-2.26871">
        <ele>112.19999694824</ele>
        <time>2020-01-09T09:27:32.000Z</time>
      </trkpt>
      <trkpt lat="47.24997" lon="-2.26872">
        <ele>112.19999694824</ele>
        <time>2020-01-09T09:27:33.000Z</time>
      </trkpt>
      <trkpt lat="47.24976" lon="-2.26872">
        <ele>112.19999694824</ele>
        <time>2020-01-09T09:27:37.000Z</time>
      </trkpt>
      <trkpt lat="47.24971" lon="-2.26868">
        <ele>112.19999694824</ele>
        <time>2020-01-09T09:27:38.000Z</time>
      </trkpt>
      <trkpt lat="47.24956" lon="-2.26853">
        <ele>112.19999694824</ele>
        <time>2020-01-09T09:27:41.000Z</time>
      </trkpt>
      <trkpt lat="47.24938" lon="-2.26847">
        <ele>112.19999694824</ele>
        <time>2020-01-09T09:27:44.000Z</time>
      </trkpt>
      <trkpt lat="47.24933" lon="-2.26843">
        <ele>112.19999694824</ele>
        <time>2020-01-09T09:27:45.000Z</time>
      </trkpt>
      <trkpt lat="47.24919" lon="-2.26832">
        <ele>112.19999694824</ele>
        <time>2020-01-09T09:27:48.000Z</time>
      </trkpt>
      <trkpt lat="47.2491" lon="-2.26828">
        <ele>111.80000305176</ele>
        <time>2020-01-09T09:27:50.000Z</time>
      </trkpt>
      <trkpt lat="47.24906" lon="-2.26827">
        <ele>111.40000152588</ele>
        <time>2020-01-09T09:27:51.000Z</time>
      </trkpt>
      <trkpt lat="47.24902" lon="-2.26826">
        <ele>110.80000305176</ele>
        <time>2020-01-09T09:27:52.000Z</time>
      </trkpt>
      <trkpt lat="47.24897" lon="-2.26825">
        <ele>110.40000152588</ele>
        <time>2020-01-09T09:27:53.000Z</time>
      </trkpt>
      <trkpt lat="47.24891" lon="-2.26823">
        <ele>110</ele>
        <time>2020-01-09T09:27:54.000Z</time>
      </trkpt>
      <trkpt lat="47.24876" lon="-2.26815">
        <ele>110</ele>
        <time>2020-01-09T09:27:57.000Z</time>
      </trkpt>
      <trkpt lat="47.24871" lon="-2.26814">
        <ele>110</ele>
        <time>2020-01-09T09:27:58.000Z</time>
      </trkpt>
      <trkpt lat="47.24861" lon="-2.2681">
        <ele>110</ele>
        <time>2020-01-09T09:28:00.000Z</time>
      </trkpt>
      <trkpt lat="47.24857" lon="-2.26807">
        <ele>110</ele>
        <time>2020-01-09T09:28:01.000Z</time>
      </trkpt>
      <trkpt lat="47.24848" lon="-2.26803">
        <ele>110</ele>
        <time>2020-01-09T09:28:03.000Z</time>
      </trkpt>
      <trkpt lat="47.24837" lon="-2.26804">
        <ele>110</ele>
        <time>2020-01-09T09:28:05.000Z</time>
      </trkpt>
      <trkpt lat="47.24827" lon="-2.26804">
        <ele>110</ele>
        <time>2020-01-09T09:28:07.000Z</time>
      </trkpt>
      <trkpt lat="47.2481" lon="-2.26798">
        <ele>110</ele>
        <time>2020-01-09T09:28:10.000Z</time>
      </trkpt>
      <trkpt lat="47.24781" lon="-2.26787">
        <ele>110</ele>
        <time>2020-01-09T09:28:16.000Z</time>
      </trkpt>
      <trkpt lat="47.24777" lon="-2.26786">
        <ele>109.59999847412</ele>
        <time>2020-01-09T09:28:17.000Z</time>
      </trkpt>
      <trkpt lat="47.24773" lon="-2.26785">
        <ele>109.19999694824</ele>
        <time>2020-01-09T09:28:18.000Z</time>
      </trkpt>
      <trkpt lat="47.24769" lon="-2.26784">
        <ele>108.80000305176</ele>
        <time>2020-01-09T09:28:19.000Z</time>
      </trkpt>
      <trkpt lat="47.24764" lon="-2.26784">
        <ele>108.40000152588</ele>
        <time>2020-01-09T09:28:20.000Z</time>
      </trkpt>
      <trkpt lat="47.24759" lon="-2.26783">
        <ele>107.80000305176</ele>
        <time>2020-01-09T09:28:21.000Z</time>
      </trkpt>
      <trkpt lat="47.24721" lon="-2.26781">
        <ele>107.80000305176</ele>
        <time>2020-01-09T09:28:28.000Z</time>
      </trkpt>
      <trkpt lat="47.24694" lon="-2.26782">
        <ele>107.40000152588</ele>
        <time>2020-01-09T09:28:33.000Z</time>
      </trkpt>
      <trkpt lat="47.24688" lon="-2.26783">
        <ele>107</ele>
        <time>2020-01-09T09:28:34.000Z</time>
      </trkpt>
      <trkpt lat="47.24684" lon="-2.26784">
        <ele>106.59999847412</ele>
        <time>2020-01-09T09:28:35.000Z</time>
      </trkpt>
      <trkpt lat="47.2468" lon="-2.26787">
        <ele>106.19999694824</ele>
        <time>2020-01-09T09:28:36.000Z</time>
      </trkpt>
      <trkpt lat="47.24677" lon="-2.26792">
        <ele>105.80000305176</ele>
        <time>2020-01-09T09:28:37.000Z</time>
      </trkpt>
      <trkpt lat="47.24666" lon="-2.26801">
        <ele>105.80000305176</ele>
        <time>2020-01-09T09:28:40.000Z</time>
      </trkpt>
      <trkpt lat="47.24662" lon="-2.26804">
        <ele>105.80000305176</ele>
        <time>2020-01-09T09:28:41.000Z</time>
      </trkpt>
      <trkpt lat="47.24657" lon="-2.26807">
        <ele>105.80000305176</ele>
        <time>2020-01-09T09:28:42.000Z</time>
      </trkpt>
      <trkpt lat="47.24647" lon="-2.26812">
        <ele>105.80000305176</ele>
        <time>2020-01-09T09:28:44.000Z</time>
      </trkpt>
      <trkpt lat="47.24642" lon="-2.26812">
        <ele>105.80000305176</ele>
        <time>2020-01-09T09:28:45.000Z</time>
      </trkpt>
      <trkpt lat="47.2463" lon="-2.26817">
        <ele>105</ele>
        <time>2020-01-09T09:28:47.000Z</time>
      </trkpt>
      <trkpt lat="47.24626" lon="-2.26821">
        <ele>104.59999847412</ele>
        <time>2020-01-09T09:28:48.000Z</time>
      </trkpt>
      <trkpt lat="47.24621" lon="-2.26823">
        <ele>104</ele>
        <time>2020-01-09T09:28:49.000Z</time>
      </trkpt>
      <trkpt lat="47.24616" lon="-2.26827">
        <ele>103.59999847412</ele>
        <time>2020-01-09T09:28:50.000Z</time>
      </trkpt>
      <trkpt lat="47.24608" lon="-2.26836">
        <ele>103.59999847412</ele>
        <time>2020-01-09T09:28:52.000Z</time>
      </trkpt>
      <trkpt lat="47.24603" lon="-2.26838">
        <ele>103.19999694824</ele>
        <time>2020-01-09T09:28:53.000Z</time>
      </trkpt>
      <trkpt lat="47.24597" lon="-2.2684">
        <ele>102.80000305176</ele>
        <time>2020-01-09T09:28:54.000Z</time>
      </trkpt>
      <trkpt lat="47.24591" lon="-2.26839">
        <ele>102.19999694824</ele>
        <time>2020-01-09T09:28:55.000Z</time>
      </trkpt>
      <trkpt lat="47.24587" lon="-2.26839">
        <ele>101.80000305176</ele>
        <time>2020-01-09T09:28:56.000Z</time>
      </trkpt>
      <trkpt lat="47.24583" lon="-2.26842">
        <ele>101.19999694824</ele>
        <time>2020-01-09T09:28:57.000Z</time>
      </trkpt>
      <trkpt lat="47.24573" lon="-2.26848">
        <ele>101.19999694824</ele>
        <time>2020-01-09T09:28:59.000Z</time>
      </trkpt>
      <trkpt lat="47.24549" lon="-2.2687">
        <ele>101.19999694824</ele>
        <time>2020-01-09T09:29:04.000Z</time>
      </trkpt>
      <trkpt lat="47.24539" lon="-2.26879">
        <ele>100.80000305176</ele>
        <time>2020-01-09T09:29:06.000Z</time>
      </trkpt>
      <trkpt lat="47.24536" lon="-2.26882">
        <ele>100.40000152588</ele>
        <time>2020-01-09T09:29:07.000Z</time>
      </trkpt>
      <trkpt lat="47.24533" lon="-2.26886">
        <ele>100</ele>
        <time>2020-01-09T09:29:08.000Z</time>
      </trkpt>
      <trkpt lat="47.2453" lon="-2.26891">
        <ele>99.599998474121</ele>
        <time>2020-01-09T09:29:09.000Z</time>
      </trkpt>
      <trkpt lat="47.24528" lon="-2.26896">
        <ele>99.199996948242</ele>
        <time>2020-01-09T09:29:10.000Z</time>
      </trkpt>
      <trkpt lat="47.24526" lon="-2.26903">
        <ele>99.199996948242</ele>
        <time>2020-01-09T09:29:11.000Z</time>
      </trkpt>
      <trkpt lat="47.24523" lon="-2.2691">
        <ele>99.199996948242</ele>
        <time>2020-01-09T09:29:12.000Z</time>
      </trkpt>
      <trkpt lat="47.24507" lon="-2.26923">
        <ele>99.199996948242</ele>
        <time>2020-01-09T09:29:15.000Z</time>
      </trkpt>
      <trkpt lat="47.24491" lon="-2.26938">
        <ele>99.199996948242</ele>
        <time>2020-01-09T09:29:18.000Z</time>
      </trkpt>
      <trkpt lat="47.24478" lon="-2.26957">
        <ele>99.199996948242</ele>
        <time>2020-01-09T09:29:21.000Z</time>
      </trkpt>
      <trkpt lat="47.24468" lon="-2.26966">
        <ele>99.199996948242</ele>
        <time>2020-01-09T09:29:23.000Z</time>
      </trkpt>
      <trkpt lat="47.24455" lon="-2.26974">
        <ele>99.199996948242</ele>
        <time>2020-01-09T09:29:25.000Z</time>
      </trkpt>
      <trkpt lat="47.24437" lon="-2.26983">
        <ele>99.199996948242</ele>
        <time>2020-01-09T09:29:28.000Z</time>
      </trkpt>
      <trkpt lat="47.24431" lon="-2.26987">
        <ele>98.800003051758</ele>
        <time>2020-01-09T09:29:29.000Z</time>
      </trkpt>
      <trkpt lat="47.24426" lon="-2.26993">
        <ele>98.400001525879</ele>
        <time>2020-01-09T09:29:30.000Z</time>
      </trkpt>
      <trkpt lat="47.24422" lon="-2.26999">
        <ele>97.800003051758</ele>
        <time>2020-01-09T09:29:31.000Z</time>
      </trkpt>
      <trkpt lat="47.24419" lon="-2.27003">
        <ele>97.400001525879</ele>
        <time>2020-01-09T09:29:32.000Z</time>
      </trkpt>
      <trkpt lat="47.24417" lon="-2.27008">
        <ele>97</ele>
        <time>2020-01-09T09:29:33.000Z</time>
      </trkpt>
      <trkpt lat="47.24414" lon="-2.27027">
        <ele>96.599998474121</ele>
        <time>2020-01-09T09:29:36.000Z</time>
      </trkpt>
      <trkpt lat="47.24415" lon="-2.27038">
        <ele>96.199996948242</ele>
        <time>2020-01-09T09:29:37.000Z</time>
      </trkpt>
      <trkpt lat="47.24414" lon="-2.27046">
        <ele>95.800003051758</ele>
        <time>2020-01-09T09:29:38.000Z</time>
      </trkpt>
      <trkpt lat="47.24412" lon="-2.27052">
        <ele>95.400001525879</ele>
        <time>2020-01-09T09:29:39.000Z</time>
      </trkpt>
      <trkpt lat="47.24409" lon="-2.2706">
        <ele>95</ele>
        <time>2020-01-09T09:29:40.000Z</time>
      </trkpt>
      <trkpt lat="47.24394" lon="-2.27096">
        <ele>95</ele>
        <time>2020-01-09T09:29:44.000Z</time>
      </trkpt>
      <trkpt lat="47.24379" lon="-2.27109">
        <ele>95</ele>
        <time>2020-01-09T09:29:47.000Z</time>
      </trkpt>
      <trkpt lat="47.24377" lon="-2.27113">
        <ele>94.599998474121</ele>
        <time>2020-01-09T09:29:48.000Z</time>
      </trkpt>
      <trkpt lat="47.24376" lon="-2.2712">
        <ele>94.199996948242</ele>
        <time>2020-01-09T09:29:49.000Z</time>
      </trkpt>
      <trkpt lat="47.24378" lon="-2.27125">
        <ele>93.800003051758</ele>
        <time>2020-01-09T09:29:50.000Z</time>
      </trkpt>
      <trkpt lat="47.24381" lon="-2.27131">
        <ele>93.400001525879</ele>
        <time>2020-01-09T09:29:51.000Z</time>
      </trkpt>
      <trkpt lat="47.24383" lon="-2.27137">
        <ele>93</ele>
        <time>2020-01-09T09:29:52.000Z</time>
      </trkpt>
      <trkpt lat="47.24386" lon="-2.27151">
        <ele>93</ele>
        <time>2020-01-09T09:29:54.000Z</time>
      </trkpt>
      <trkpt lat="47.24388" lon="-2.2716">
        <ele>93</ele>
        <time>2020-01-09T09:29:55.000Z</time>
      </trkpt>
      <trkpt lat="47.2438" lon="-2.27178">
        <ele>93</ele>
        <time>2020-01-09T09:29:58.000Z</time>
      </trkpt>
      <trkpt lat="47.24373" lon="-2.27199">
        <ele>93</ele>
        <time>2020-01-09T09:30:01.000Z</time>
      </trkpt>
      <trkpt lat="47.24368" lon="-2.2721">
        <ele>93</ele>
        <time>2020-01-09T09:30:04.000Z</time>
      </trkpt>
      <trkpt lat="47.24364" lon="-2.27213">
        <ele>93</ele>
        <time>2020-01-09T09:30:05.000Z</time>
      </trkpt>
      <trkpt lat="47.24357" lon="-2.27222">
        <ele>93</ele>
        <time>2020-01-09T09:30:07.000Z</time>
      </trkpt>
      <trkpt lat="47.24352" lon="-2.27224">
        <ele>93</ele>
        <time>2020-01-09T09:30:08.000Z</time>
      </trkpt>
      <trkpt lat="47.24341" lon="-2.27239">
        <ele>93</ele>
        <time>2020-01-09T09:30:11.000Z</time>
      </trkpt>
      <trkpt lat="47.24319" lon="-2.2725">
        <ele>93</ele>
        <time>2020-01-09T09:30:15.000Z</time>
      </trkpt>
      <trkpt lat="47.24308" lon="-2.27243">
        <ele>93</ele>
        <time>2020-01-09T09:30:17.000Z</time>
      </trkpt>
      <trkpt lat="47.24302" lon="-2.27241">
        <ele>93</ele>
        <time>2020-01-09T09:30:18.000Z</time>
      </trkpt>
      <trkpt lat="47.24295" lon="-2.27223">
        <ele>93</ele>
        <time>2020-01-09T09:30:21.000Z</time>
      </trkpt>
      <trkpt lat="47.24292" lon="-2.27209">
        <ele>93</ele>
        <time>2020-01-09T09:30:23.000Z</time>
      </trkpt>
      <trkpt lat="47.24294" lon="-2.27195">
        <ele>93</ele>
        <time>2020-01-09T09:30:25.000Z</time>
      </trkpt>
      <trkpt lat="47.24307" lon="-2.27177">
        <ele>93</ele>
        <time>2020-01-09T09:30:29.000Z</time>
      </trkpt>
      <trkpt lat="47.24311" lon="-2.27173">
        <ele>93</ele>
        <time>2020-01-09T09:30:30.000Z</time>
      </trkpt>
      <trkpt lat="47.24318" lon="-2.27163">
        <ele>93</ele>
        <time>2020-01-09T09:30:33.000Z</time>
      </trkpt>
      <trkpt lat="47.24324" lon="-2.2716">
        <ele>93</ele>
        <time>2020-01-09T09:30:35.000Z</time>
      </trkpt>
      <trkpt lat="47.24329" lon="-2.27159">
        <ele>93</ele>
        <time>2020-01-09T09:30:36.000Z</time>
      </trkpt>
      <trkpt lat="47.2434" lon="-2.27155">
        <ele>93</ele>
        <time>2020-01-09T09:30:38.000Z</time>
      </trkpt>
      <trkpt lat="47.24344" lon="-2.2715">
        <ele>93</ele>
        <time>2020-01-09T09:30:39.000Z</time>
      </trkpt>
      <trkpt lat="47.24357" lon="-2.27134">
        <ele>93</ele>
        <time>2020-01-09T09:30:42.000Z</time>
      </trkpt>
      <trkpt lat="47.24367" lon="-2.27127">
        <ele>93</ele>
        <time>2020-01-09T09:30:44.000Z</time>
      </trkpt>
      <trkpt lat="47.24368" lon="-2.27118">
        <ele>93</ele>
        <time>2020-01-09T09:30:46.000Z</time>
      </trkpt>
      <trkpt lat="47.24369" lon="-2.27113">
        <ele>93</ele>
        <time>2020-01-09T09:30:47.000Z</time>
      </trkpt>
      <trkpt lat="47.24377" lon="-2.27092">
        <ele>93</ele>
        <time>2020-01-09T09:30:52.000Z</time>
      </trkpt>
      <trkpt lat="47.24388" lon="-2.27077">
        <ele>93</ele>
        <time>2020-01-09T09:30:58.000Z</time>
      </trkpt>
      <trkpt lat="47.24392" lon="-2.27059">
        <ele>93</ele>
        <time>2020-01-09T09:31:03.000Z</time>
      </trkpt>
      <trkpt lat="47.24395" lon="-2.27035">
        <ele>93.400001525879</ele>
        <time>2020-01-09T09:31:07.000Z</time>
      </trkpt>
      <trkpt lat="47.24396" lon="-2.27029">
        <ele>93.800003051758</ele>
        <time>2020-01-09T09:31:08.000Z</time>
      </trkpt>
      <trkpt lat="47.24395" lon="-2.27023">
        <ele>94.199996948242</ele>
        <time>2020-01-09T09:31:09.000Z</time>
      </trkpt>
      <trkpt lat="47.24394" lon="-2.27017">
        <ele>94.599998474121</ele>
        <time>2020-01-09T09:31:10.000Z</time>
      </trkpt>
      <trkpt lat="47.24393" lon="-2.27013">
        <ele>95</ele>
        <time>2020-01-09T09:31:11.000Z</time>
      </trkpt>
      <trkpt lat="47.2439" lon="-2.27008">
        <ele>95</ele>
        <time>2020-01-09T09:31:12.000Z</time>
      </trkpt>
      <trkpt lat="47.2438" lon="-2.27009">
        <ele>95</ele>
        <time>2020-01-09T09:31:16.000Z</time>
      </trkpt>
      <trkpt lat="47.24377" lon="-2.27015">
        <ele>95.400001525879</ele>
        <time>2020-01-09T09:31:18.000Z</time>
      </trkpt>
      <trkpt lat="47.24375" lon="-2.27019">
        <ele>95.800003051758</ele>
        <time>2020-01-09T09:31:19.000Z</time>
      </trkpt>
      <trkpt lat="47.24372" lon="-2.27024">
        <ele>96.199996948242</ele>
        <time>2020-01-09T09:31:20.000Z</time>
      </trkpt>
      <trkpt lat="47.2437" lon="-2.27028">
        <ele>96.599998474121</ele>
        <time>2020-01-09T09:31:21.000Z</time>
      </trkpt>
      <trkpt lat="47.24367" lon="-2.27032">
        <ele>97</ele>
        <time>2020-01-09T09:31:22.000Z</time>
      </trkpt>
      <trkpt lat="47.24361" lon="-2.27043">
        <ele>97</ele>
        <time>2020-01-09T09:31:24.000Z</time>
      </trkpt>
      <trkpt lat="47.24353" lon="-2.27054">
        <ele>97</ele>
        <time>2020-01-09T09:31:26.000Z</time>
      </trkpt>
      <trkpt lat="47.24349" lon="-2.27059">
        <ele>97</ele>
        <time>2020-01-09T09:31:27.000Z</time>
      </trkpt>
      <trkpt lat="47.24333" lon="-2.27071">
        <ele>97</ele>
        <time>2020-01-09T09:31:30.000Z</time>
      </trkpt>
      <trkpt lat="47.24323" lon="-2.27081">
        <ele>97</ele>
        <time>2020-01-09T09:31:32.000Z</time>
      </trkpt>
      <trkpt lat="47.2431" lon="-2.271">
        <ele>97</ele>
        <time>2020-01-09T09:31:35.000Z</time>
      </trkpt>
      <trkpt lat="47.24305" lon="-2.27104">
        <ele>97</ele>
        <time>2020-01-09T09:31:36.000Z</time>
      </trkpt>
      <trkpt lat="47.24291" lon="-2.27112">
        <ele>97</ele>
        <time>2020-01-09T09:31:39.000Z</time>
      </trkpt>
      <trkpt lat="47.24269" lon="-2.27113">
        <ele>97</ele>
        <time>2020-01-09T09:31:43.000Z</time>
      </trkpt>
      <trkpt lat="47.24251" lon="-2.27122">
        <ele>97</ele>
        <time>2020-01-09T09:31:46.000Z</time>
      </trkpt>
      <trkpt lat="47.24245" lon="-2.27127">
        <ele>97</ele>
        <time>2020-01-09T09:31:47.000Z</time>
      </trkpt>
      <trkpt lat="47.24207" lon="-2.27152">
        <ele>97</ele>
        <time>2020-01-09T09:31:53.000Z</time>
      </trkpt>
      <trkpt lat="47.24188" lon="-2.27163">
        <ele>97</ele>
        <time>2020-01-09T09:31:56.000Z</time>
      </trkpt>
      <trkpt lat="47.24176" lon="-2.27168">
        <ele>97</ele>
        <time>2020-01-09T09:31:58.000Z</time>
      </trkpt>
      <trkpt lat="47.24155" lon="-2.27177">
        <ele>96.599998474121</ele>
        <time>2020-01-09T09:32:01.000Z</time>
      </trkpt>
      <trkpt lat="47.24148" lon="-2.27179">
        <ele>96.199996948242</ele>
        <time>2020-01-09T09:32:02.000Z</time>
      </trkpt>
      <trkpt lat="47.24141" lon="-2.27181">
        <ele>95.400001525879</ele>
        <time>2020-01-09T09:32:03.000Z</time>
      </trkpt>
      <trkpt lat="47.24135" lon="-2.27183">
        <ele>95</ele>
        <time>2020-01-09T09:32:04.000Z</time>
      </trkpt>
      <trkpt lat="47.24118" lon="-2.27188">
        <ele>95</ele>
        <time>2020-01-09T09:32:07.000Z</time>
      </trkpt>
      <trkpt lat="47.24106" lon="-2.27189">
        <ele>95</ele>
        <time>2020-01-09T09:32:11.000Z</time>
      </trkpt>
      <trkpt lat="47.24103" lon="-2.27185">
        <ele>94.599998474121</ele>
        <time>2020-01-09T09:32:13.000Z</time>
      </trkpt>
      <trkpt lat="47.24102" lon="-2.27182">
        <ele>94.199996948242</ele>
        <time>2020-01-09T09:32:14.000Z</time>
      </trkpt>
      <trkpt lat="47.241" lon="-2.27178">
        <ele>93.599998474121</ele>
        <time>2020-01-09T09:32:15.000Z</time>
      </trkpt>
      <trkpt lat="47.24099" lon="-2.27174">
        <ele>93.199996948242</ele>
        <time>2020-01-09T09:32:16.000Z</time>
      </trkpt>
      <trkpt lat="47.24098" lon="-2.27169">
        <ele>92.800003051758</ele>
        <time>2020-01-09T09:32:17.000Z</time>
      </trkpt>
      <trkpt lat="47.24098" lon="-2.27161">
        <ele>92.800003051758</ele>
        <time>2020-01-09T09:32:19.000Z</time>
      </trkpt>
      <trkpt lat="47.24098" lon="-2.27157">
        <ele>92.800003051758</ele>
        <time>2020-01-09T09:32:20.000Z</time>
      </trkpt>
      <trkpt lat="47.24097" lon="-2.27133">
        <ele>92.800003051758</ele>
        <time>2020-01-09T09:32:27.000Z</time>
      </trkpt>
      <trkpt lat="47.241" lon="-2.27114">
        <ele>92.800003051758</ele>
        <time>2020-01-09T09:32:32.000Z</time>
      </trkpt>
      <trkpt lat="47.24104" lon="-2.27093">
        <ele>92.800003051758</ele>
        <time>2020-01-09T09:32:37.000Z</time>
      </trkpt>
      <trkpt lat="47.24103" lon="-2.27084">
        <ele>92.800003051758</ele>
        <time>2020-01-09T09:32:38.000Z</time>
      </trkpt>
      <trkpt lat="47.24102" lon="-2.27053">
        <ele>92.800003051758</ele>
        <time>2020-01-09T09:32:42.000Z</time>
      </trkpt>
      <trkpt lat="47.24102" lon="-2.27017">
        <ele>92.800003051758</ele>
        <time>2020-01-09T09:32:48.000Z</time>
      </trkpt>
      <trkpt lat="47.24102" lon="-2.27008">
        <ele>92.400001525879</ele>
        <time>2020-01-09T09:32:51.000Z</time>
      </trkpt>
      <trkpt lat="47.24102" lon="-2.27006">
        <ele>91.599998474121</ele>
        <time>2020-01-09T09:32:52.000Z</time>
      </trkpt>
      <trkpt lat="47.24103" lon="-2.27005">
        <ele>91.199996948242</ele>
        <time>2020-01-09T09:32:53.000Z</time>
      </trkpt>
      <trkpt lat="47.24103" lon="-2.27004">
        <ele>90.800003051758</ele>
        <time>2020-01-09T09:32:54.000Z</time>
      </trkpt>
      <trkpt lat="47.24102" lon="-2.27001">
        <ele>90.800003051758</ele>
        <time>2020-01-09T09:32:57.000Z</time>
      </trkpt>
      <trkpt lat="47.24102" lon="-2.26989">
        <ele>90.800003051758</ele>
        <time>2020-01-09T09:33:07.000Z</time>
      </trkpt>
      <trkpt lat="47.24102" lon="-2.26985">
        <ele>90.800003051758</ele>
        <time>2020-01-09T09:33:08.000Z</time>
      </trkpt>
      <trkpt lat="47.24102" lon="-2.26965">
        <ele>90.800003051758</ele>
        <time>2020-01-09T09:33:13.000Z</time>
      </trkpt>
      <trkpt lat="47.24102" lon="-2.26941">
        <ele>91.199996948242</ele>
        <time>2020-01-09T09:33:18.000Z</time>
      </trkpt>
      <trkpt lat="47.24102" lon="-2.26936">
        <ele>91.599998474121</ele>
        <time>2020-01-09T09:33:19.000Z</time>
      </trkpt>
      <trkpt lat="47.24102" lon="-2.26931">
        <ele>92</ele>
        <time>2020-01-09T09:33:20.000Z</time>
      </trkpt>
      <trkpt lat="47.24102" lon="-2.26926">
        <ele>92.400001525879</ele>
        <time>2020-01-09T09:33:21.000Z</time>
      </trkpt>
      <trkpt lat="47.24102" lon="-2.26921">
        <ele>93</ele>
        <time>2020-01-09T09:33:22.000Z</time>
      </trkpt>
      <trkpt lat="47.24102" lon="-2.26907">
        <ele>93</ele>
        <time>2020-01-09T09:33:25.000Z</time>
      </trkpt>
      <trkpt lat="47.24102" lon="-2.26886">
        <ele>93.400001525879</ele>
        <time>2020-01-09T09:33:30.000Z</time>
      </trkpt>
      <trkpt lat="47.24102" lon="-2.26882">
        <ele>93.800003051758</ele>
        <time>2020-01-09T09:33:31.000Z</time>
      </trkpt>
      <trkpt lat="47.24102" lon="-2.26877">
        <ele>94.400001525879</ele>
        <time>2020-01-09T09:33:32.000Z</time>
      </trkpt>
      <trkpt lat="47.24102" lon="-2.26874">
        <ele>94.800003051758</ele>
        <time>2020-01-09T09:33:33.000Z</time>
      </trkpt>
      <trkpt lat="47.24102" lon="-2.2687">
        <ele>95.199996948242</ele>
        <time>2020-01-09T09:33:34.000Z</time>
      </trkpt>
      <trkpt lat="47.24103" lon="-2.2686">
        <ele>95.199996948242</ele>
        <time>2020-01-09T09:33:37.000Z</time>
      </trkpt>
      <trkpt lat="47.24103" lon="-2.26844">
        <ele>95.599998474121</ele>
        <time>2020-01-09T09:33:43.000Z</time>
      </trkpt>
      <trkpt lat="47.24101" lon="-2.26841">
        <ele>96</ele>
        <time>2020-01-09T09:33:44.000Z</time>
      </trkpt>
      <trkpt lat="47.24099" lon="-2.2684">
        <ele>96.400001525879</ele>
        <time>2020-01-09T09:33:45.000Z</time>
      </trkpt>
      <trkpt lat="47.24096" lon="-2.26839">
        <ele>96.800003051758</ele>
        <time>2020-01-09T09:33:46.000Z</time>
      </trkpt>
      <trkpt lat="47.24094" lon="-2.26838">
        <ele>97.199996948242</ele>
        <time>2020-01-09T09:33:47.000Z</time>
      </trkpt>
      <trkpt lat="47.24091" lon="-2.26838">
        <ele>97.199996948242</ele>
        <time>2020-01-09T09:33:48.000Z</time>
      </trkpt>
      <trkpt lat="47.24073" lon="-2.26841">
        <ele>97.199996948242</ele>
        <time>2020-01-09T09:33:54.000Z</time>
      </trkpt>
      <trkpt lat="47.24061" lon="-2.26843">
        <ele>97.199996948242</ele>
        <time>2020-01-09T09:34:00.000Z</time>
      </trkpt>
      <trkpt lat="47.2406" lon="-2.26846">
        <ele>97.199996948242</ele>
        <time>2020-01-09T09:34:01.000Z</time>
      </trkpt>
      <trkpt lat="47.24059" lon="-2.26857">
        <ele>97.199996948242</ele>
        <time>2020-01-09T09:34:04.000Z</time>
      </trkpt>
      <trkpt lat="47.24058" lon="-2.26868">
        <ele>97.199996948242</ele>
        <time>2020-01-09T09:34:07.000Z</time>
      </trkpt>
      <trkpt lat="47.24057" lon="-2.26873">
        <ele>97.800003051758</ele>
        <time>2020-01-09T09:34:08.000Z</time>
      </trkpt>
      <trkpt lat="47.24056" lon="-2.26878">
        <ele>98.199996948242</ele>
        <time>2020-01-09T09:34:09.000Z</time>
      </trkpt>
      <trkpt lat="47.24055" lon="-2.26881">
        <ele>98.599998474121</ele>
        <time>2020-01-09T09:34:10.000Z</time>
      </trkpt>
      <trkpt lat="47.24056" lon="-2.26885">
        <ele>99</ele>
        <time>2020-01-09T09:34:11.000Z</time>
      </trkpt>
      <trkpt lat="47.24056" lon="-2.26891">
        <ele>99.400001525879</ele>
        <time>2020-01-09T09:34:12.000Z</time>
      </trkpt>
      <trkpt lat="47.24054" lon="-2.26898">
        <ele>99.400001525879</ele>
        <time>2020-01-09T09:34:13.000Z</time>
      </trkpt>
      <trkpt lat="47.24048" lon="-2.26921">
        <ele>99.400001525879</ele>
        <time>2020-01-09T09:34:17.000Z</time>
      </trkpt>
      <trkpt lat="47.24046" lon="-2.26926">
        <ele>99</ele>
        <time>2020-01-09T09:34:18.000Z</time>
      </trkpt>
      <trkpt lat="47.24045" lon="-2.26932">
        <ele>98.599998474121</ele>
        <time>2020-01-09T09:34:19.000Z</time>
      </trkpt>
      <trkpt lat="47.24046" lon="-2.26938">
        <ele>98.199996948242</ele>
        <time>2020-01-09T09:34:20.000Z</time>
      </trkpt>
      <trkpt lat="47.24046" lon="-2.26943">
        <ele>97.800003051758</ele>
        <time>2020-01-09T09:34:21.000Z</time>
      </trkpt>
      <trkpt lat="47.24047" lon="-2.26948">
        <ele>97.400001525879</ele>
        <time>2020-01-09T09:34:22.000Z</time>
      </trkpt>
      <trkpt lat="47.24047" lon="-2.26952">
        <ele>97</ele>
        <time>2020-01-09T09:34:23.000Z</time>
      </trkpt>
      <trkpt lat="47.24047" lon="-2.26955">
        <ele>96.599998474121</ele>
        <time>2020-01-09T09:34:24.000Z</time>
      </trkpt>
      <trkpt lat="47.24047" lon="-2.26959">
        <ele>95.800003051758</ele>
        <time>2020-01-09T09:34:25.000Z</time>
      </trkpt>
      <trkpt lat="47.24046" lon="-2.26964">
        <ele>95.199996948242</ele>
        <time>2020-01-09T09:34:26.000Z</time>
      </trkpt>
      <trkpt lat="47.24046" lon="-2.26969">
        <ele>94.599998474121</ele>
        <time>2020-01-09T09:34:27.000Z</time>
      </trkpt>
      <trkpt lat="47.24047" lon="-2.26974">
        <ele>93.800003051758</ele>
        <time>2020-01-09T09:34:28.000Z</time>
      </trkpt>
      <trkpt lat="47.24047" lon="-2.26979">
        <ele>93.199996948242</ele>
        <time>2020-01-09T09:34:29.000Z</time>
      </trkpt>
      <trkpt lat="47.24045" lon="-2.26992">
        <ele>92.599998474121</ele>
        <time>2020-01-09T09:34:32.000Z</time>
      </trkpt>
      <trkpt lat="47.24044" lon="-2.26996">
        <ele>92.199996948242</ele>
        <time>2020-01-09T09:34:33.000Z</time>
      </trkpt>
      <trkpt lat="47.24041" lon="-2.26999">
        <ele>91.800003051758</ele>
        <time>2020-01-09T09:34:34.000Z</time>
      </trkpt>
      <trkpt lat="47.24037" lon="-2.27001">
        <ele>91.199996948242</ele>
        <time>2020-01-09T09:34:35.000Z</time>
      </trkpt>
      <trkpt lat="47.24034" lon="-2.27002">
        <ele>90.800003051758</ele>
        <time>2020-01-09T09:34:36.000Z</time>
      </trkpt>
      <trkpt lat="47.2403" lon="-2.27004">
        <ele>90.199996948242</ele>
        <time>2020-01-09T09:34:37.000Z</time>
      </trkpt>
      <trkpt lat="47.24026" lon="-2.27006">
        <ele>89.800003051758</ele>
        <time>2020-01-09T09:34:38.000Z</time>
      </trkpt>
      <trkpt lat="47.24023" lon="-2.27007">
        <ele>89.199996948242</ele>
        <time>2020-01-09T09:34:39.000Z</time>
      </trkpt>
      <trkpt lat="47.24021" lon="-2.27007">
        <ele>88.800003051758</ele>
        <time>2020-01-09T09:34:40.000Z</time>
      </trkpt>
      <trkpt lat="47.24019" lon="-2.27006">
        <ele>88.800003051758</ele>
        <time>2020-01-09T09:34:41.000Z</time>
      </trkpt>
      <trkpt lat="47.24014" lon="-2.26999">
        <ele>88.800003051758</ele>
        <time>2020-01-09T09:34:46.000Z</time>
      </trkpt>
      <trkpt lat="47.2401" lon="-2.26983">
        <ele>88.800003051758</ele>
        <time>2020-01-09T09:34:50.000Z</time>
      </trkpt>
      <trkpt lat="47.23997" lon="-2.26968">
        <ele>88.800003051758</ele>
        <time>2020-01-09T09:34:54.000Z</time>
      </trkpt>
      <trkpt lat="47.23993" lon="-2.26966">
        <ele>88.800003051758</ele>
        <time>2020-01-09T09:34:55.000Z</time>
      </trkpt>
      <trkpt lat="47.23975" lon="-2.26957">
        <ele>88.800003051758</ele>
        <time>2020-01-09T09:34:59.000Z</time>
      </trkpt>
      <trkpt lat="47.23967" lon="-2.26953">
        <ele>88.800003051758</ele>
        <time>2020-01-09T09:35:01.000Z</time>
      </trkpt>
      <trkpt lat="47.23949" lon="-2.26943">
        <ele>88.800003051758</ele>
        <time>2020-01-09T09:35:06.000Z</time>
      </trkpt>
      <trkpt lat="47.23949" lon="-2.26938">
        <ele>88.800003051758</ele>
        <time>2020-01-09T09:35:07.000Z</time>
      </trkpt>
      <trkpt lat="47.23948" lon="-2.26927">
        <ele>88.800003051758</ele>
        <time>2020-01-09T09:35:09.000Z</time>
      </trkpt>
      <trkpt lat="47.23948" lon="-2.26916">
        <ele>89.400001525879</ele>
        <time>2020-01-09T09:35:11.000Z</time>
      </trkpt>
      <trkpt lat="47.23948" lon="-2.26911">
        <ele>89.800003051758</ele>
        <time>2020-01-09T09:35:12.000Z</time>
      </trkpt>
      <trkpt lat="47.23947" lon="-2.26906">
        <ele>90.400001525879</ele>
        <time>2020-01-09T09:35:13.000Z</time>
      </trkpt>
      <trkpt lat="47.23947" lon="-2.26902">
        <ele>91.199996948242</ele>
        <time>2020-01-09T09:35:14.000Z</time>
      </trkpt>
      <trkpt lat="47.23945" lon="-2.26896">
        <ele>92</ele>
        <time>2020-01-09T09:35:15.000Z</time>
      </trkpt>
      <trkpt lat="47.23941" lon="-2.26894">
        <ele>92.599998474121</ele>
        <time>2020-01-09T09:35:16.000Z</time>
      </trkpt>
      <trkpt lat="47.23938" lon="-2.26891">
        <ele>93.400001525879</ele>
        <time>2020-01-09T09:35:17.000Z</time>
      </trkpt>
      <trkpt lat="47.23934" lon="-2.26889">
        <ele>94</ele>
        <time>2020-01-09T09:35:18.000Z</time>
      </trkpt>
      <trkpt lat="47.2392" lon="-2.26884">
        <ele>94</ele>
        <time>2020-01-09T09:35:21.000Z</time>
      </trkpt>
      <trkpt lat="47.2389" lon="-2.26874">
        <ele>94</ele>
        <time>2020-01-09T09:35:28.000Z</time>
      </trkpt>
      <trkpt lat="47.23881" lon="-2.26872">
        <ele>94</ele>
        <time>2020-01-09T09:35:30.000Z</time>
      </trkpt>
      <trkpt lat="47.23871" lon="-2.26863">
        <ele>93.599998474121</ele>
        <time>2020-01-09T09:35:33.000Z</time>
      </trkpt>
      <trkpt lat="47.23869" lon="-2.2686">
        <ele>93.199996948242</ele>
        <time>2020-01-09T09:35:34.000Z</time>
      </trkpt>
      <trkpt lat="47.23868" lon="-2.26855">
        <ele>92.800003051758</ele>
        <time>2020-01-09T09:35:35.000Z</time>
      </trkpt>
      <trkpt lat="47.23869" lon="-2.2685">
        <ele>92.400001525879</ele>
        <time>2020-01-09T09:35:36.000Z</time>
      </trkpt>
      <trkpt lat="47.2387" lon="-2.26846">
        <ele>91.800003051758</ele>
        <time>2020-01-09T09:35:37.000Z</time>
      </trkpt>
      <trkpt lat="47.23872" lon="-2.26842">
        <ele>91.199996948242</ele>
        <time>2020-01-09T09:35:38.000Z</time>
      </trkpt>
      <trkpt lat="47.23875" lon="-2.26838">
        <ele>90.800003051758</ele>
        <time>2020-01-09T09:35:39.000Z</time>
      </trkpt>
      <trkpt lat="47.23879" lon="-2.26836">
        <ele>90.199996948242</ele>
        <time>2020-01-09T09:35:40.000Z</time>
      </trkpt>
      <trkpt lat="47.23884" lon="-2.26835">
        <ele>89.599998474121</ele>
        <time>2020-01-09T09:35:41.000Z</time>
      </trkpt>
      <trkpt lat="47.23899" lon="-2.26826">
        <ele>89.599998474121</ele>
        <time>2020-01-09T09:35:45.000Z</time>
      </trkpt>
      <trkpt lat="47.239" lon="-2.26806">
        <ele>90</ele>
        <time>2020-01-09T09:35:48.000Z</time>
      </trkpt>
      <trkpt lat="47.23899" lon="-2.268">
        <ele>90.400001525879</ele>
        <time>2020-01-09T09:35:49.000Z</time>
      </trkpt>
      <trkpt lat="47.23896" lon="-2.26795">
        <ele>91</ele>
        <time>2020-01-09T09:35:50.000Z</time>
      </trkpt>
      <trkpt lat="47.23894" lon="-2.26788">
        <ele>91.400001525879</ele>
        <time>2020-01-09T09:35:51.000Z</time>
      </trkpt>
      <trkpt lat="47.23894" lon="-2.26782">
        <ele>91.800003051758</ele>
        <time>2020-01-09T09:35:52.000Z</time>
      </trkpt>
      <trkpt lat="47.23899" lon="-2.26766">
        <ele>91.800003051758</ele>
        <time>2020-01-09T09:35:55.000Z</time>
      </trkpt>
      <trkpt lat="47.23913" lon="-2.26752">
        <ele>91.800003051758</ele>
        <time>2020-01-09T09:35:59.000Z</time>
      </trkpt>
      <trkpt lat="47.23925" lon="-2.26751">
        <ele>91.800003051758</ele>
        <time>2020-01-09T09:36:02.000Z</time>
      </trkpt>
      <trkpt lat="47.23929" lon="-2.26752">
        <ele>91.800003051758</ele>
        <time>2020-01-09T09:36:03.000Z</time>
      </trkpt>
      <trkpt lat="47.23931" lon="-2.26759">
        <ele>91.800003051758</ele>
        <time>2020-01-09T09:36:05.000Z</time>
      </trkpt>
      <trkpt lat="47.23932" lon="-2.26762">
        <ele>91.800003051758</ele>
        <time>2020-01-09T09:36:06.000Z</time>
      </trkpt>
      <trkpt lat="47.23931" lon="-2.26764">
        <ele>92.199996948242</ele>
        <time>2020-01-09T09:36:07.000Z</time>
      </trkpt>
      <trkpt lat="47.2393" lon="-2.26767">
        <ele>92.800003051758</ele>
        <time>2020-01-09T09:36:08.000Z</time>
      </trkpt>
      <trkpt lat="47.23929" lon="-2.26769">
        <ele>93.599998474121</ele>
        <time>2020-01-09T09:36:09.000Z</time>
      </trkpt>
      <trkpt lat="47.23928" lon="-2.26772">
        <ele>94.199996948242</ele>
        <time>2020-01-09T09:36:10.000Z</time>
      </trkpt>
      <trkpt lat="47.23926" lon="-2.26786">
        <ele>94.199996948242</ele>
        <time>2020-01-09T09:36:16.000Z</time>
      </trkpt>
      <trkpt lat="47.23927" lon="-2.26794">
        <ele>94.199996948242</ele>
        <time>2020-01-09T09:36:19.000Z</time>
      </trkpt>
      <trkpt lat="47.2393" lon="-2.26793">
        <ele>94.199996948242</ele>
        <time>2020-01-09T09:36:21.000Z</time>
      </trkpt>
      <trkpt lat="47.2393" lon="-2.26793">
        <ele>94.199996948242</ele>
        <time>2020-01-09T09:36:23.000Z</time>
      </trkpt>
      <trkpt lat="47.23931" lon="-2.26789">
        <ele>94.199996948242</ele>
        <time>2020-01-09T09:36:33.000Z</time>
      </trkpt>
      <trkpt lat="47.23932" lon="-2.26787">
        <ele>94.199996948242</ele>
        <time>2020-01-09T09:36:34.000Z</time>
      </trkpt>
      <trkpt lat="47.23931" lon="-2.26785">
        <ele>94.199996948242</ele>
        <time>2020-01-09T09:36:35.000Z</time>
      </trkpt>
      <trkpt lat="47.23932" lon="-2.26776">
        <ele>94.199996948242</ele>
        <time>2020-01-09T09:36:39.000Z</time>
      </trkpt>
      <trkpt lat="47.23933" lon="-2.26774">
        <ele>94.199996948242</ele>
        <time>2020-01-09T09:36:41.000Z</time>
      </trkpt>
      <trkpt lat="47.23933" lon="-2.26772">
        <ele>94.199996948242</ele>
        <time>2020-01-09T09:36:42.000Z</time>
      </trkpt>
      <trkpt lat="47.23935" lon="-2.26769">
        <ele>94.199996948242</ele>
        <time>2020-01-09T09:36:44.000Z</time>
      </trkpt>
      <trkpt lat="47.23937" lon="-2.26766">
        <ele>94.199996948242</ele>
        <time>2020-01-09T09:36:46.000Z</time>
      </trkpt>
      <trkpt lat="47.23942" lon="-2.26767">
        <ele>94.199996948242</ele>
        <time>2020-01-09T09:36:49.000Z</time>
      </trkpt>
      <trkpt lat="47.2395" lon="-2.26773">
        <ele>94.199996948242</ele>
        <time>2020-01-09T09:36:55.000Z</time>
      </trkpt>
      <trkpt lat="47.23958" lon="-2.26778">
        <ele>94.599998474121</ele>
        <time>2020-01-09T09:37:01.000Z</time>
      </trkpt>
      <trkpt lat="47.2396" lon="-2.26779">
        <ele>95</ele>
        <time>2020-01-09T09:37:02.000Z</time>
      </trkpt>
      <trkpt lat="47.23961" lon="-2.26779">
        <ele>95.400001525879</ele>
        <time>2020-01-09T09:37:03.000Z</time>
      </trkpt>
      <trkpt lat="47.23963" lon="-2.2678">
        <ele>95.800003051758</ele>
        <time>2020-01-09T09:37:04.000Z</time>
      </trkpt>
      <trkpt lat="47.23965" lon="-2.2678">
        <ele>96.199996948242</ele>
        <time>2020-01-09T09:37:05.000Z</time>
      </trkpt>
      <trkpt lat="47.23969" lon="-2.26779">
        <ele>96.199996948242</ele>
        <time>2020-01-09T09:37:08.000Z</time>
      </trkpt>
      <trkpt lat="47.2397" lon="-2.26776">
        <ele>96.199996948242</ele>
        <time>2020-01-09T09:37:09.000Z</time>
      </trkpt>
      <trkpt lat="47.2397" lon="-2.26769">
        <ele>96.199996948242</ele>
        <time>2020-01-09T09:37:12.000Z</time>
      </trkpt>
      <trkpt lat="47.23969" lon="-2.2676">
        <ele>96.199996948242</ele>
        <time>2020-01-09T09:37:15.000Z</time>
      </trkpt>
      <trkpt lat="47.23961" lon="-2.26752">
        <ele>96.199996948242</ele>
        <time>2020-01-09T09:37:19.000Z</time>
      </trkpt>
      <trkpt lat="47.2396" lon="-2.26746">
        <ele>96.199996948242</ele>
        <time>2020-01-09T09:37:21.000Z</time>
      </trkpt>
      <trkpt lat="47.23961" lon="-2.26744">
        <ele>95.800003051758</ele>
        <time>2020-01-09T09:37:22.000Z</time>
      </trkpt>
      <trkpt lat="47.23961" lon="-2.26742">
        <ele>95.400001525879</ele>
        <time>2020-01-09T09:37:23.000Z</time>
      </trkpt>
      <trkpt lat="47.23961" lon="-2.26741">
        <ele>94.599998474121</ele>
        <time>2020-01-09T09:37:24.000Z</time>
      </trkpt>
      <trkpt lat="47.23961" lon="-2.26739">
        <ele>94.199996948242</ele>
        <time>2020-01-09T09:37:25.000Z</time>
      </trkpt>
      <trkpt lat="47.23961" lon="-2.26739">
        <ele>94.199996948242</ele>
        <time>2020-01-09T09:37:27.000Z</time>
      </trkpt>
      <trkpt lat="47.23965" lon="-2.26736">
        <ele>94.199996948242</ele>
        <time>2020-01-09T09:37:40.000Z</time>
      </trkpt>
      <trkpt lat="47.23967" lon="-2.26736">
        <ele>94.199996948242</ele>
        <time>2020-01-09T09:37:41.000Z</time>
      </trkpt>
      <trkpt lat="47.23983" lon="-2.26737">
        <ele>94.199996948242</ele>
        <time>2020-01-09T09:37:48.000Z</time>
      </trkpt>
      <trkpt lat="47.23997" lon="-2.26739">
        <ele>94.199996948242</ele>
        <time>2020-01-09T09:37:53.000Z</time>
      </trkpt>
      <trkpt lat="47.24003" lon="-2.26739">
        <ele>94.599998474121</ele>
        <time>2020-01-09T09:37:55.000Z</time>
      </trkpt>
      <trkpt lat="47.24006" lon="-2.26739">
        <ele>95</ele>
        <time>2020-01-09T09:37:56.000Z</time>
      </trkpt>
      <trkpt lat="47.24009" lon="-2.26738">
        <ele>95.400001525879</ele>
        <time>2020-01-09T09:37:57.000Z</time>
      </trkpt>
      <trkpt lat="47.24013" lon="-2.26738">
        <ele>95.800003051758</ele>
        <time>2020-01-09T09:37:58.000Z</time>
      </trkpt>
      <trkpt lat="47.24016" lon="-2.26737">
        <ele>96.199996948242</ele>
        <time>2020-01-09T09:37:59.000Z</time>
      </trkpt>
      <trkpt lat="47.24039" lon="-2.26727">
        <ele>96.199996948242</ele>
        <time>2020-01-09T09:38:05.000Z</time>
      </trkpt>
      <trkpt lat="47.24053" lon="-2.26715">
        <ele>96.199996948242</ele>
        <time>2020-01-09T09:38:09.000Z</time>
      </trkpt>
      <trkpt lat="47.24059" lon="-2.26708">
        <ele>96.199996948242</ele>
        <time>2020-01-09T09:38:11.000Z</time>
      </trkpt>
      <trkpt lat="47.24062" lon="-2.26705">
        <ele>96.599998474121</ele>
        <time>2020-01-09T09:38:12.000Z</time>
      </trkpt>
      <trkpt lat="47.24064" lon="-2.26702">
        <ele>97.599998474121</ele>
        <time>2020-01-09T09:38:13.000Z</time>
      </trkpt>
      <trkpt lat="47.24066" lon="-2.26699">
        <ele>98</ele>
        <time>2020-01-09T09:38:14.000Z</time>
      </trkpt>
      <trkpt lat="47.24068" lon="-2.26696">
        <ele>98.400001525879</ele>
        <time>2020-01-09T09:38:15.000Z</time>
      </trkpt>
      <trkpt lat="47.24071" lon="-2.26692">
        <ele>98.800003051758</ele>
        <time>2020-01-09T09:38:16.000Z</time>
      </trkpt>
      <trkpt lat="47.24074" lon="-2.26688">
        <ele>99.199996948242</ele>
        <time>2020-01-09T09:38:17.000Z</time>
      </trkpt>
      <trkpt lat="47.24076" lon="-2.26683">
        <ele>99.599998474121</ele>
        <time>2020-01-09T09:38:18.000Z</time>
      </trkpt>
      <trkpt lat="47.24078" lon="-2.26678">
        <ele>100</ele>
        <time>2020-01-09T09:38:19.000Z</time>
      </trkpt>
      <trkpt lat="47.24081" lon="-2.26673">
        <ele>100.40000152588</ele>
        <time>2020-01-09T09:38:20.000Z</time>
      </trkpt>
      <trkpt lat="47.24084" lon="-2.26664">
        <ele>100.40000152588</ele>
        <time>2020-01-09T09:38:22.000Z</time>
      </trkpt>
      <trkpt lat="47.2409" lon="-2.26655">
        <ele>100.80000305176</ele>
        <time>2020-01-09T09:38:24.000Z</time>
      </trkpt>
      <trkpt lat="47.24092" lon="-2.26651">
        <ele>101.19999694824</ele>
        <time>2020-01-09T09:38:25.000Z</time>
      </trkpt>
      <trkpt lat="47.24095" lon="-2.26649">
        <ele>101.59999847412</ele>
        <time>2020-01-09T09:38:26.000Z</time>
      </trkpt>
      <trkpt lat="47.24097" lon="-2.2665">
        <ele>102</ele>
        <time>2020-01-09T09:38:27.000Z</time>
      </trkpt>
      <trkpt lat="47.241" lon="-2.26652">
        <ele>102.40000152588</ele>
        <time>2020-01-09T09:38:28.000Z</time>
      </trkpt>
      <trkpt lat="47.24105" lon="-2.26653">
        <ele>102.40000152588</ele>
        <time>2020-01-09T09:38:30.000Z</time>
      </trkpt>
      <trkpt lat="47.24107" lon="-2.26651">
        <ele>102.40000152588</ele>
        <time>2020-01-09T09:38:31.000Z</time>
      </trkpt>
      <trkpt lat="47.24109" lon="-2.26647">
        <ele>102.40000152588</ele>
        <time>2020-01-09T09:38:32.000Z</time>
      </trkpt>
      <trkpt lat="47.24111" lon="-2.2664">
        <ele>102.40000152588</ele>
        <time>2020-01-09T09:38:34.000Z</time>
      </trkpt>
      <trkpt lat="47.24115" lon="-2.26638">
        <ele>102.40000152588</ele>
        <time>2020-01-09T09:38:37.000Z</time>
      </trkpt>
      <trkpt lat="47.24119" lon="-2.26641">
        <ele>102.40000152588</ele>
        <time>2020-01-09T09:38:39.000Z</time>
      </trkpt>
      <trkpt lat="47.2412" lon="-2.26638">
        <ele>102</ele>
        <time>2020-01-09T09:38:40.000Z</time>
      </trkpt>
      <trkpt lat="47.2412" lon="-2.26634">
        <ele>101.59999847412</ele>
        <time>2020-01-09T09:38:41.000Z</time>
      </trkpt>
      <trkpt lat="47.24123" lon="-2.26628">
        <ele>101.19999694824</ele>
        <time>2020-01-09T09:38:42.000Z</time>
      </trkpt>
      <trkpt lat="47.24125" lon="-2.26623">
        <ele>100.80000305176</ele>
        <time>2020-01-09T09:38:43.000Z</time>
      </trkpt>
      <trkpt lat="47.24127" lon="-2.26616">
        <ele>100.40000152588</ele>
        <time>2020-01-09T09:38:44.000Z</time>
      </trkpt>
      <trkpt lat="47.24136" lon="-2.26595">
        <ele>100.40000152588</ele>
        <time>2020-01-09T09:38:49.000Z</time>
      </trkpt>
      <trkpt lat="47.24137" lon="-2.26592">
        <ele>100</ele>
        <time>2020-01-09T09:38:50.000Z</time>
      </trkpt>
      <trkpt lat="47.24137" lon="-2.26589">
        <ele>99.599998474121</ele>
        <time>2020-01-09T09:38:51.000Z</time>
      </trkpt>
      <trkpt lat="47.24137" lon="-2.26585">
        <ele>99.199996948242</ele>
        <time>2020-01-09T09:38:52.000Z</time>
      </trkpt>
      <trkpt lat="47.24138" lon="-2.26582">
        <ele>98.800003051758</ele>
        <time>2020-01-09T09:38:53.000Z</time>
      </trkpt>
      <trkpt lat="47.24139" lon="-2.26578">
        <ele>98.400001525879</ele>
        <time>2020-01-09T09:38:54.000Z</time>
      </trkpt>
      <trkpt lat="47.24143" lon="-2.26576">
        <ele>98.400001525879</ele>
        <time>2020-01-09T09:38:56.000Z</time>
      </trkpt>
      <trkpt lat="47.24146" lon="-2.26576">
        <ele>98.400001525879</ele>
        <time>2020-01-09T09:38:57.000Z</time>
      </trkpt>
      <trkpt lat="47.24155" lon="-2.26579">
        <ele>98.400001525879</ele>
        <time>2020-01-09T09:39:01.000Z</time>
      </trkpt>
      <trkpt lat="47.2416" lon="-2.26587">
        <ele>98.400001525879</ele>
        <time>2020-01-09T09:39:05.000Z</time>
      </trkpt>
      <trkpt lat="47.24159" lon="-2.26591">
        <ele>98.800003051758</ele>
        <time>2020-01-09T09:39:06.000Z</time>
      </trkpt>
      <trkpt lat="47.24158" lon="-2.26594">
        <ele>99.199996948242</ele>
        <time>2020-01-09T09:39:07.000Z</time>
      </trkpt>
      <trkpt lat="47.24158" lon="-2.26597">
        <ele>99.599998474121</ele>
        <time>2020-01-09T09:39:08.000Z</time>
      </trkpt>
      <trkpt lat="47.24158" lon="-2.266">
        <ele>100.19999694824</ele>
        <time>2020-01-09T09:39:09.000Z</time>
      </trkpt>
      <trkpt lat="47.24158" lon="-2.26602">
        <ele>100.59999847412</ele>
        <time>2020-01-09T09:39:10.000Z</time>
      </trkpt>
      <trkpt lat="47.24157" lon="-2.26607">
        <ele>101</ele>
        <time>2020-01-09T09:39:12.000Z</time>
      </trkpt>
      <trkpt lat="47.24156" lon="-2.26609">
        <ele>101.40000152588</ele>
        <time>2020-01-09T09:39:13.000Z</time>
      </trkpt>
      <trkpt lat="47.24158" lon="-2.2661">
        <ele>101.80000305176</ele>
        <time>2020-01-09T09:39:14.000Z</time>
      </trkpt>
      <trkpt lat="47.24161" lon="-2.2661">
        <ele>102.19999694824</ele>
        <time>2020-01-09T09:39:15.000Z</time>
      </trkpt>
      <trkpt lat="47.24164" lon="-2.26611">
        <ele>102.59999847412</ele>
        <time>2020-01-09T09:39:16.000Z</time>
      </trkpt>
      <trkpt lat="47.24176" lon="-2.26613">
        <ele>102.59999847412</ele>
        <time>2020-01-09T09:39:19.000Z</time>
      </trkpt>
      <trkpt lat="47.24198" lon="-2.26623">
        <ele>102.59999847412</ele>
        <time>2020-01-09T09:39:25.000Z</time>
      </trkpt>
      <trkpt lat="47.24214" lon="-2.26628">
        <ele>102.59999847412</ele>
        <time>2020-01-09T09:39:30.000Z</time>
      </trkpt>
      <trkpt lat="47.24229" lon="-2.26621">
        <ele>102.59999847412</ele>
        <time>2020-01-09T09:39:34.000Z</time>
      </trkpt>
      <trkpt lat="47.24257" lon="-2.26595">
        <ele>102.59999847412</ele>
        <time>2020-01-09T09:39:42.000Z</time>
      </trkpt>
      <trkpt lat="47.24283" lon="-2.2657">
        <ele>102.59999847412</ele>
        <time>2020-01-09T09:39:48.000Z</time>
      </trkpt>
      <trkpt lat="47.24313" lon="-2.26543">
        <ele>102.59999847412</ele>
        <time>2020-01-09T09:39:54.000Z</time>
      </trkpt>
      <trkpt lat="47.24357" lon="-2.26504">
        <ele>102.59999847412</ele>
        <time>2020-01-09T09:40:02.000Z</time>
      </trkpt>
      <trkpt lat="47.24389" lon="-2.26477">
        <ele>102.59999847412</ele>
        <time>2020-01-09T09:40:08.000Z</time>
      </trkpt>
      <trkpt lat="47.24405" lon="-2.26466">
        <ele>102.59999847412</ele>
        <time>2020-01-09T09:40:11.000Z</time>
      </trkpt>
      <trkpt lat="47.2441" lon="-2.26463">
        <ele>102.59999847412</ele>
        <time>2020-01-09T09:40:12.000Z</time>
      </trkpt>
      <trkpt lat="47.24436" lon="-2.26446">
        <ele>102.59999847412</ele>
        <time>2020-01-09T09:40:18.000Z</time>
      </trkpt>
      <trkpt lat="47.2444" lon="-2.26443">
        <ele>103</ele>
        <time>2020-01-09T09:40:19.000Z</time>
      </trkpt>
      <trkpt lat="47.24444" lon="-2.26441">
        <ele>103.59999847412</ele>
        <time>2020-01-09T09:40:20.000Z</time>
      </trkpt>
      <trkpt lat="47.24448" lon="-2.26438">
        <ele>104</ele>
        <time>2020-01-09T09:40:21.000Z</time>
      </trkpt>
      <trkpt lat="47.24452" lon="-2.26436">
        <ele>104.40000152588</ele>
        <time>2020-01-09T09:40:22.000Z</time>
      </trkpt>
      <trkpt lat="47.24456" lon="-2.26434">
        <ele>105</ele>
        <time>2020-01-09T09:40:23.000Z</time>
      </trkpt>
      <trkpt lat="47.24465" lon="-2.26429">
        <ele>105</ele>
        <time>2020-01-09T09:40:25.000Z</time>
      </trkpt>
      <trkpt lat="47.24501" lon="-2.26411">
        <ele>105</ele>
        <time>2020-01-09T09:40:33.000Z</time>
      </trkpt>
      <trkpt lat="47.24519" lon="-2.26403">
        <ele>105</ele>
        <time>2020-01-09T09:40:37.000Z</time>
      </trkpt>
      <trkpt lat="47.24533" lon="-2.26396">
        <ele>105</ele>
        <time>2020-01-09T09:40:40.000Z</time>
      </trkpt>
      <trkpt lat="47.24573" lon="-2.26379">
        <ele>105</ele>
        <time>2020-01-09T09:40:48.000Z</time>
      </trkpt>
      <trkpt lat="47.24596" lon="-2.26373">
        <ele>105</ele>
        <time>2020-01-09T09:40:53.000Z</time>
      </trkpt>
      <trkpt lat="47.24617" lon="-2.26371">
        <ele>105</ele>
        <time>2020-01-09T09:40:57.000Z</time>
      </trkpt>
      <trkpt lat="47.24629" lon="-2.26373">
        <ele>105</ele>
        <time>2020-01-09T09:40:59.000Z</time>
      </trkpt>
      <trkpt lat="47.24666" lon="-2.26387">
        <ele>105</ele>
        <time>2020-01-09T09:41:05.000Z</time>
      </trkpt>
      <trkpt lat="47.24696" lon="-2.26403">
        <ele>105</ele>
        <time>2020-01-09T09:41:11.000Z</time>
      </trkpt>
      <trkpt lat="47.24733" lon="-2.26425">
        <ele>105</ele>
        <time>2020-01-09T09:41:18.000Z</time>
      </trkpt>
      <trkpt lat="47.24769" lon="-2.26442">
        <ele>105</ele>
        <time>2020-01-09T09:41:25.000Z</time>
      </trkpt>
      <trkpt lat="47.24798" lon="-2.26454">
        <ele>105</ele>
        <time>2020-01-09T09:41:30.000Z</time>
      </trkpt>
      <trkpt lat="47.24804" lon="-2.26455">
        <ele>105</ele>
        <time>2020-01-09T09:41:31.000Z</time>
      </trkpt>
      <trkpt lat="47.24829" lon="-2.26455">
        <ele>105</ele>
        <time>2020-01-09T09:41:35.000Z</time>
      </trkpt>
      <trkpt lat="47.24852" lon="-2.26451">
        <ele>105.40000152588</ele>
        <time>2020-01-09T09:41:39.000Z</time>
      </trkpt>
      <trkpt lat="47.24858" lon="-2.26449">
        <ele>105.80000305176</ele>
        <time>2020-01-09T09:41:40.000Z</time>
      </trkpt>
      <trkpt lat="47.24863" lon="-2.26448">
        <ele>106.19999694824</ele>
        <time>2020-01-09T09:41:41.000Z</time>
      </trkpt>
      <trkpt lat="47.24869" lon="-2.26446">
        <ele>106.59999847412</ele>
        <time>2020-01-09T09:41:42.000Z</time>
      </trkpt>
      <trkpt lat="47.24874" lon="-2.26445">
        <ele>107.19999694824</ele>
        <time>2020-01-09T09:41:43.000Z</time>
      </trkpt>
      <trkpt lat="47.249" lon="-2.26438">
        <ele>107.19999694824</ele>
        <time>2020-01-09T09:41:48.000Z</time>
      </trkpt>
      <trkpt lat="47.24929" lon="-2.26426">
        <ele>107.19999694824</ele>
        <time>2020-01-09T09:41:54.000Z</time>
      </trkpt>
      <trkpt lat="47.24933" lon="-2.26424">
        <ele>107.19999694824</ele>
        <time>2020-01-09T09:41:55.000Z</time>
      </trkpt>
      <trkpt lat="47.24946" lon="-2.26425">
        <ele>107.19999694824</ele>
        <time>2020-01-09T09:41:58.000Z</time>
      </trkpt>
      <trkpt lat="47.2496" lon="-2.26421">
        <ele>107.19999694824</ele>
        <time>2020-01-09T09:42:02.000Z</time>
      </trkpt>
      <trkpt lat="47.24966" lon="-2.26404">
        <ele>107.19999694824</ele>
        <time>2020-01-09T09:42:05.000Z</time>
      </trkpt>
      <trkpt lat="47.24978" lon="-2.2639">
        <ele>107.19999694824</ele>
        <time>2020-01-09T09:42:08.000Z</time>
      </trkpt>
      <trkpt lat="47.25009" lon="-2.26366">
        <ele>107.19999694824</ele>
        <time>2020-01-09T09:42:14.000Z</time>
      </trkpt>
      <trkpt lat="47.25021" lon="-2.26359">
        <ele>107.19999694824</ele>
        <time>2020-01-09T09:42:16.000Z</time>
      </trkpt>
      <trkpt lat="47.25041" lon="-2.2635">
        <ele>106.40000152588</ele>
        <time>2020-01-09T09:42:19.000Z</time>
      </trkpt>
      <trkpt lat="47.25047" lon="-2.26345">
        <ele>105.80000305176</ele>
        <time>2020-01-09T09:42:20.000Z</time>
      </trkpt>
      <trkpt lat="47.25051" lon="-2.26337">
        <ele>105.40000152588</ele>
        <time>2020-01-09T09:42:21.000Z</time>
      </trkpt>
      <trkpt lat="47.25054" lon="-2.26328">
        <ele>105</ele>
        <time>2020-01-09T09:42:22.000Z</time>
      </trkpt>
      <trkpt lat="47.25056" lon="-2.26288">
        <ele>105</ele>
        <time>2020-01-09T09:42:26.000Z</time>
      </trkpt>
      <trkpt lat="47.25067" lon="-2.26252">
        <ele>105</ele>
        <time>2020-01-09T09:42:30.000Z</time>
      </trkpt>
      <trkpt lat="47.2508" lon="-2.2622">
        <ele>105</ele>
        <time>2020-01-09T09:42:34.000Z</time>
      </trkpt>
      <trkpt lat="47.25084" lon="-2.26187">
        <ele>105</ele>
        <time>2020-01-09T09:42:38.000Z</time>
      </trkpt>
      <trkpt lat="47.25084" lon="-2.26179">
        <ele>105</ele>
        <time>2020-01-09T09:42:39.000Z</time>
      </trkpt>
      <trkpt lat="47.25083" lon="-2.26154">
        <ele>105</ele>
        <time>2020-01-09T09:42:42.000Z</time>
      </trkpt>
      <trkpt lat="47.25081" lon="-2.26149">
        <ele>105</ele>
        <time>2020-01-09T09:42:43.000Z</time>
      </trkpt>
      <trkpt lat="47.25072" lon="-2.26142">
        <ele>105</ele>
        <time>2020-01-09T09:42:46.000Z</time>
      </trkpt>
      <trkpt lat="47.25062" lon="-2.26135">
        <ele>104.59999847412</ele>
        <time>2020-01-09T09:42:49.000Z</time>
      </trkpt>
      <trkpt lat="47.2506" lon="-2.26131">
        <ele>104.19999694824</ele>
        <time>2020-01-09T09:42:50.000Z</time>
      </trkpt>
      <trkpt lat="47.25058" lon="-2.26125">
        <ele>103.80000305176</ele>
        <time>2020-01-09T09:42:51.000Z</time>
      </trkpt>
      <trkpt lat="47.25057" lon="-2.26117">
        <ele>103.19999694824</ele>
        <time>2020-01-09T09:42:52.000Z</time>
      </trkpt>
      <trkpt lat="47.25056" lon="-2.26109">
        <ele>102.80000305176</ele>
        <time>2020-01-09T09:42:53.000Z</time>
      </trkpt>
      <trkpt lat="47.25055" lon="-2.26101">
        <ele>102.80000305176</ele>
        <time>2020-01-09T09:42:54.000Z</time>
      </trkpt>
      <trkpt lat="47.25055" lon="-2.26092">
        <ele>102.40000152588</ele>
        <time>2020-01-09T09:42:55.000Z</time>
      </trkpt>
      <trkpt lat="47.25054" lon="-2.26083">
        <ele>102</ele>
        <time>2020-01-09T09:42:56.000Z</time>
      </trkpt>
      <trkpt lat="47.25055" lon="-2.26074">
        <ele>101.59999847412</ele>
        <time>2020-01-09T09:42:57.000Z</time>
      </trkpt>
      <trkpt lat="47.25055" lon="-2.26065">
        <ele>101</ele>
        <time>2020-01-09T09:42:58.000Z</time>
      </trkpt>
      <trkpt lat="47.25056" lon="-2.26056">
        <ele>100.59999847412</ele>
        <time>2020-01-09T09:42:59.000Z</time>
      </trkpt>
      <trkpt lat="47.25057" lon="-2.26027">
        <ele>100.19999694824</ele>
        <time>2020-01-09T09:43:02.000Z</time>
      </trkpt>
      <trkpt lat="47.25057" lon="-2.26016">
        <ele>99.800003051758</ele>
        <time>2020-01-09T09:43:03.000Z</time>
      </trkpt>
      <trkpt lat="47.25057" lon="-2.26005">
        <ele>99.400001525879</ele>
        <time>2020-01-09T09:43:04.000Z</time>
      </trkpt>
      <trkpt lat="47.25058" lon="-2.25994">
        <ele>99</ele>
        <time>2020-01-09T09:43:05.000Z</time>
      </trkpt>
      <trkpt lat="47.25059" lon="-2.25984">
        <ele>98.400001525879</ele>
        <time>2020-01-09T09:43:06.000Z</time>
      </trkpt>
      <trkpt lat="47.25059" lon="-2.25974">
        <ele>98</ele>
        <time>2020-01-09T09:43:07.000Z</time>
      </trkpt>
      <trkpt lat="47.2506" lon="-2.25965">
        <ele>97.400001525879</ele>
        <time>2020-01-09T09:43:08.000Z</time>
      </trkpt>
      <trkpt lat="47.25061" lon="-2.25958">
        <ele>96.400001525879</ele>
        <time>2020-01-09T09:43:09.000Z</time>
      </trkpt>
      <trkpt lat="47.25062" lon="-2.25951">
        <ele>95.800003051758</ele>
        <time>2020-01-09T09:43:10.000Z</time>
      </trkpt>
      <trkpt lat="47.25062" lon="-2.25944">
        <ele>95.199996948242</ele>
        <time>2020-01-09T09:43:11.000Z</time>
      </trkpt>
      <trkpt lat="47.25062" lon="-2.25937">
        <ele>94.800003051758</ele>
        <time>2020-01-09T09:43:12.000Z</time>
      </trkpt>
      <trkpt lat="47.2506" lon="-2.25932">
        <ele>94.199996948242</ele>
        <time>2020-01-09T09:43:13.000Z</time>
      </trkpt>
      <trkpt lat="47.25057" lon="-2.25921">
        <ele>94.199996948242</ele>
        <time>2020-01-09T09:43:15.000Z</time>
      </trkpt>
      <trkpt lat="47.25055" lon="-2.25912">
        <ele>94.199996948242</ele>
        <time>2020-01-09T09:43:17.000Z</time>
      </trkpt>
      <trkpt lat="47.25055" lon="-2.25907">
        <ele>94.199996948242</ele>
        <time>2020-01-09T09:43:18.000Z</time>
      </trkpt>
      <trkpt lat="47.25051" lon="-2.25883">
        <ele>94.199996948242</ele>
        <time>2020-01-09T09:43:23.000Z</time>
      </trkpt>
      <trkpt lat="47.25041" lon="-2.25889">
        <ele>94.199996948242</ele>
        <time>2020-01-09T09:43:27.000Z</time>
      </trkpt>
      <trkpt lat="47.25035" lon="-2.25904">
        <ele>94.199996948242</ele>
        <time>2020-01-09T09:43:30.000Z</time>
      </trkpt>
      <trkpt lat="47.25033" lon="-2.2591">
        <ele>94.599998474121</ele>
        <time>2020-01-09T09:43:31.000Z</time>
      </trkpt>
      <trkpt lat="47.25032" lon="-2.25915">
        <ele>95</ele>
        <time>2020-01-09T09:43:32.000Z</time>
      </trkpt>
      <trkpt lat="47.25031" lon="-2.2592">
        <ele>95.400001525879</ele>
        <time>2020-01-09T09:43:33.000Z</time>
      </trkpt>
      <trkpt lat="47.25029" lon="-2.25926">
        <ele>96.199996948242</ele>
        <time>2020-01-09T09:43:34.000Z</time>
      </trkpt>
      <trkpt lat="47.25026" lon="-2.2594">
        <ele>96.599998474121</ele>
        <time>2020-01-09T09:43:37.000Z</time>
      </trkpt>
      <trkpt lat="47.25025" lon="-2.25944">
        <ele>97</ele>
        <time>2020-01-09T09:43:38.000Z</time>
      </trkpt>
      <trkpt lat="47.25025" lon="-2.25947">
        <ele>97.400001525879</ele>
        <time>2020-01-09T09:43:39.000Z</time>
      </trkpt>
      <trkpt lat="47.25025" lon="-2.2595">
        <ele>97.800003051758</ele>
        <time>2020-01-09T09:43:40.000Z</time>
      </trkpt>
      <trkpt lat="47.25025" lon="-2.25952">
        <ele>98.400001525879</ele>
        <time>2020-01-09T09:43:41.000Z</time>
      </trkpt>
      <trkpt lat="47.25026" lon="-2.25954">
        <ele>98.400001525879</ele>
        <time>2020-01-09T09:43:42.000Z</time>
      </trkpt>
      <trkpt lat="47.2503" lon="-2.25953">
        <ele>98.400001525879</ele>
        <time>2020-01-09T09:43:46.000Z</time>
      </trkpt>
      <trkpt lat="47.25032" lon="-2.2595">
        <ele>98.400001525879</ele>
        <time>2020-01-09T09:43:49.000Z</time>
      </trkpt>
      <trkpt lat="47.25034" lon="-2.25948">
        <ele>98.400001525879</ele>
        <time>2020-01-09T09:43:51.000Z</time>
      </trkpt>
      <trkpt lat="47.25037" lon="-2.25949">
        <ele>98.400001525879</ele>
        <time>2020-01-09T09:43:53.000Z</time>
      </trkpt>
      <trkpt lat="47.25042" lon="-2.25951">
        <ele>98.400001525879</ele>
        <time>2020-01-09T09:43:55.000Z</time>
      </trkpt>
      <trkpt lat="47.25044" lon="-2.25951">
        <ele>97.800003051758</ele>
        <time>2020-01-09T09:43:56.000Z</time>
      </trkpt>
      <trkpt lat="47.25047" lon="-2.25954">
        <ele>97.400001525879</ele>
        <time>2020-01-09T09:43:57.000Z</time>
      </trkpt>
      <trkpt lat="47.2505" lon="-2.25953">
        <ele>96.400001525879</ele>
        <time>2020-01-09T09:43:58.000Z</time>
      </trkpt>
      <trkpt lat="47.25051" lon="-2.2595">
        <ele>96</ele>
        <time>2020-01-09T09:43:59.000Z</time>
      </trkpt>
      <trkpt lat="47.25053" lon="-2.25946">
        <ele>95.400001525879</ele>
        <time>2020-01-09T09:44:00.000Z</time>
      </trkpt>
      <trkpt lat="47.25054" lon="-2.25941">
        <ele>95</ele>
        <time>2020-01-09T09:44:01.000Z</time>
      </trkpt>
      <trkpt lat="47.25055" lon="-2.25935">
        <ele>94.400001525879</ele>
        <time>2020-01-09T09:44:02.000Z</time>
      </trkpt>
      <trkpt lat="47.25056" lon="-2.25929">
        <ele>94</ele>
        <time>2020-01-09T09:44:03.000Z</time>
      </trkpt>
      <trkpt lat="47.2506" lon="-2.25909">
        <ele>94</ele>
        <time>2020-01-09T09:44:06.000Z</time>
      </trkpt>
      <trkpt lat="47.25062" lon="-2.25893">
        <ele>94</ele>
        <time>2020-01-09T09:44:08.000Z</time>
      </trkpt>
      <trkpt lat="47.25064" lon="-2.25876">
        <ele>94</ele>
        <time>2020-01-09T09:44:10.000Z</time>
      </trkpt>
      <trkpt lat="47.25065" lon="-2.25867">
        <ele>93.599998474121</ele>
        <time>2020-01-09T09:44:11.000Z</time>
      </trkpt>
      <trkpt lat="47.25067" lon="-2.25858">
        <ele>93</ele>
        <time>2020-01-09T09:44:12.000Z</time>
      </trkpt>
      <trkpt lat="47.25069" lon="-2.2585">
        <ele>92.599998474121</ele>
        <time>2020-01-09T09:44:13.000Z</time>
      </trkpt>
      <trkpt lat="47.25072" lon="-2.25842">
        <ele>92.199996948242</ele>
        <time>2020-01-09T09:44:14.000Z</time>
      </trkpt>
      <trkpt lat="47.25074" lon="-2.25835">
        <ele>91.800003051758</ele>
        <time>2020-01-09T09:44:15.000Z</time>
      </trkpt>
      <trkpt lat="47.25076" lon="-2.25829">
        <ele>91.400001525879</ele>
        <time>2020-01-09T09:44:16.000Z</time>
      </trkpt>
      <trkpt lat="47.25077" lon="-2.25825">
        <ele>91</ele>
        <time>2020-01-09T09:44:17.000Z</time>
      </trkpt>
      <trkpt lat="47.25079" lon="-2.2582">
        <ele>90.599998474121</ele>
        <time>2020-01-09T09:44:18.000Z</time>
      </trkpt>
      <trkpt lat="47.2508" lon="-2.25817">
        <ele>90.199996948242</ele>
        <time>2020-01-09T09:44:19.000Z</time>
      </trkpt>
      <trkpt lat="47.2508" lon="-2.25813">
        <ele>89.800003051758</ele>
        <time>2020-01-09T09:44:20.000Z</time>
      </trkpt>
      <trkpt lat="47.25081" lon="-2.25804">
        <ele>89.800003051758</ele>
        <time>2020-01-09T09:44:22.000Z</time>
      </trkpt>
      <trkpt lat="47.25082" lon="-2.258">
        <ele>89.199996948242</ele>
        <time>2020-01-09T09:44:23.000Z</time>
      </trkpt>
      <trkpt lat="47.25082" lon="-2.25796">
        <ele>88.800003051758</ele>
        <time>2020-01-09T09:44:24.000Z</time>
      </trkpt>
      <trkpt lat="47.25082" lon="-2.25792">
        <ele>88.400001525879</ele>
        <time>2020-01-09T09:44:25.000Z</time>
      </trkpt>
      <trkpt lat="47.25083" lon="-2.25787">
        <ele>88</ele>
        <time>2020-01-09T09:44:26.000Z</time>
      </trkpt>
      <trkpt lat="47.25083" lon="-2.25781">
        <ele>87.599998474121</ele>
        <time>2020-01-09T09:44:27.000Z</time>
      </trkpt>
      <trkpt lat="47.25086" lon="-2.25759">
        <ele>87.599998474121</ele>
        <time>2020-01-09T09:44:31.000Z</time>
      </trkpt>
      <trkpt lat="47.25089" lon="-2.25728">
        <ele>87.199996948242</ele>
        <time>2020-01-09T09:44:35.000Z</time>
      </trkpt>
      <trkpt lat="47.25089" lon="-2.2572">
        <ele>86.800003051758</ele>
        <time>2020-01-09T09:44:36.000Z</time>
      </trkpt>
      <trkpt lat="47.2509" lon="-2.25713">
        <ele>86.400001525879</ele>
        <time>2020-01-09T09:44:37.000Z</time>
      </trkpt>
      <trkpt lat="47.25091" lon="-2.25706">
        <ele>86</ele>
        <time>2020-01-09T09:44:38.000Z</time>
      </trkpt>
      <trkpt lat="47.25092" lon="-2.25701">
        <ele>85.599998474121</ele>
        <time>2020-01-09T09:44:39.000Z</time>
      </trkpt>
      <trkpt lat="47.25093" lon="-2.25696">
        <ele>85.599998474121</ele>
        <time>2020-01-09T09:44:40.000Z</time>
      </trkpt>
      <trkpt lat="47.25093" lon="-2.25684">
        <ele>85</ele>
        <time>2020-01-09T09:44:42.000Z</time>
      </trkpt>
      <trkpt lat="47.25093" lon="-2.25679">
        <ele>84.599998474121</ele>
        <time>2020-01-09T09:44:43.000Z</time>
      </trkpt>
      <trkpt lat="47.25092" lon="-2.25673">
        <ele>84.199996948242</ele>
        <time>2020-01-09T09:44:44.000Z</time>
      </trkpt>
      <trkpt lat="47.25092" lon="-2.2567">
        <ele>83.800003051758</ele>
        <time>2020-01-09T09:44:45.000Z</time>
      </trkpt>
      <trkpt lat="47.25092" lon="-2.25666">
        <ele>83.400001525879</ele>
        <time>2020-01-09T09:44:46.000Z</time>
      </trkpt>
      <trkpt lat="47.25092" lon="-2.2565">
        <ele>83.400001525879</ele>
        <time>2020-01-09T09:44:52.000Z</time>
      </trkpt>
      <trkpt lat="47.25092" lon="-2.25646">
        <ele>83</ele>
        <time>2020-01-09T09:44:55.000Z</time>
      </trkpt>
      <trkpt lat="47.25093" lon="-2.25644">
        <ele>82.599998474121</ele>
        <time>2020-01-09T09:44:56.000Z</time>
      </trkpt>
      <trkpt lat="47.25093" lon="-2.25641">
        <ele>82.199996948242</ele>
        <time>2020-01-09T09:44:57.000Z</time>
      </trkpt>
      <trkpt lat="47.25093" lon="-2.2564">
        <ele>81.800003051758</ele>
        <time>2020-01-09T09:44:58.000Z</time>
      </trkpt>
      <trkpt lat="47.25093" lon="-2.25639">
        <ele>81.400001525879</ele>
        <time>2020-01-09T09:44:59.000Z</time>
      </trkpt>
      <trkpt lat="47.25093" lon="-2.25631">
        <ele>81.400001525879</ele>
        <time>2020-01-09T09:45:06.000Z</time>
      </trkpt>
      <trkpt lat="47.25093" lon="-2.25629">
        <ele>81.400001525879</ele>
        <time>2020-01-09T09:45:08.000Z</time>
      </trkpt>
      <trkpt lat="47.25093" lon="-2.25625">
        <ele>81.400001525879</ele>
        <time>2020-01-09T09:45:33.000Z</time>
      </trkpt>
      <trkpt lat="47.25093" lon="-2.25621">
        <ele>81.400001525879</ele>
        <time>2020-01-09T09:45:35.000Z</time>
      </trkpt>
      <trkpt lat="47.25092" lon="-2.25622">
        <ele>81</ele>
        <time>2020-01-09T09:45:37.000Z</time>
      </trkpt>
      <trkpt lat="47.25091" lon="-2.25623">
        <ele>80.599998474121</ele>
        <time>2020-01-09T09:45:38.000Z</time>
      </trkpt>
      <trkpt lat="47.25091" lon="-2.25625">
        <ele>80.199996948242</ele>
        <time>2020-01-09T09:45:39.000Z</time>
      </trkpt>
      <trkpt lat="47.25091" lon="-2.25628">
        <ele>79.800003051758</ele>
        <time>2020-01-09T09:45:40.000Z</time>
      </trkpt>
      <trkpt lat="47.25091" lon="-2.25631">
        <ele>79.400001525879</ele>
        <time>2020-01-09T09:45:41.000Z</time>
      </trkpt>
      <trkpt lat="47.25092" lon="-2.25634">
        <ele>79.400001525879</ele>
        <time>2020-01-09T09:45:42.000Z</time>
      </trkpt>
      <trkpt lat="47.25092" lon="-2.25641">
        <ele>79.400001525879</ele>
        <time>2020-01-09T09:45:44.000Z</time>
      </trkpt>
      <trkpt lat="47.25091" lon="-2.25649">
        <ele>79.800003051758</ele>
        <time>2020-01-09T09:45:46.000Z</time>
      </trkpt>
      <trkpt lat="47.25091" lon="-2.25654">
        <ele>80.199996948242</ele>
        <time>2020-01-09T09:45:47.000Z</time>
      </trkpt>
      <trkpt lat="47.25091" lon="-2.25659">
        <ele>80.599998474121</ele>
        <time>2020-01-09T09:45:48.000Z</time>
      </trkpt>
      <trkpt lat="47.25091" lon="-2.25664">
        <ele>81</ele>
        <time>2020-01-09T09:45:49.000Z</time>
      </trkpt>
      <trkpt lat="47.25091" lon="-2.25669">
        <ele>81.599998474121</ele>
        <time>2020-01-09T09:45:50.000Z</time>
      </trkpt>
      <trkpt lat="47.25092" lon="-2.25684">
        <ele>82</ele>
        <time>2020-01-09T09:45:53.000Z</time>
      </trkpt>
      <trkpt lat="47.25092" lon="-2.25689">
        <ele>82.400001525879</ele>
        <time>2020-01-09T09:45:54.000Z</time>
      </trkpt>
      <trkpt lat="47.25091" lon="-2.25694">
        <ele>82.800003051758</ele>
        <time>2020-01-09T09:45:55.000Z</time>
      </trkpt>
      <trkpt lat="47.25091" lon="-2.25698">
        <ele>83.199996948242</ele>
        <time>2020-01-09T09:45:56.000Z</time>
      </trkpt>
      <trkpt lat="47.2509" lon="-2.25702">
        <ele>83.599998474121</ele>
        <time>2020-01-09T09:45:57.000Z</time>
      </trkpt>
      <trkpt lat="47.25089" lon="-2.25706">
        <ele>83.599998474121</ele>
        <time>2020-01-09T09:45:58.000Z</time>
      </trkpt>
      <trkpt lat="47.25089" lon="-2.25711">
        <ele>83.599998474121</ele>
        <time>2020-01-09T09:45:59.000Z</time>
      </trkpt>
      <trkpt lat="47.25089" lon="-2.25726">
        <ele>83.599998474121</ele>
        <time>2020-01-09T09:46:03.000Z</time>
      </trkpt>
      <trkpt lat="47.25087" lon="-2.25745">
        <ele>84</ele>
        <time>2020-01-09T09:46:08.000Z</time>
      </trkpt>
      <trkpt lat="47.25088" lon="-2.25749">
        <ele>84.400001525879</ele>
        <time>2020-01-09T09:46:09.000Z</time>
      </trkpt>
      <trkpt lat="47.25088" lon="-2.25752">
        <ele>84.800003051758</ele>
        <time>2020-01-09T09:46:10.000Z</time>
      </trkpt>
      <trkpt lat="47.25089" lon="-2.25755">
        <ele>85.199996948242</ele>
        <time>2020-01-09T09:46:11.000Z</time>
      </trkpt>
      <trkpt lat="47.25089" lon="-2.25759">
        <ele>85.599998474121</ele>
        <time>2020-01-09T09:46:12.000Z</time>
      </trkpt>
      <trkpt lat="47.2509" lon="-2.25766">
        <ele>85.599998474121</ele>
        <time>2020-01-09T09:46:14.000Z</time>
      </trkpt>
      <trkpt lat="47.25089" lon="-2.25786">
        <ele>85.599998474121</ele>
        <time>2020-01-09T09:46:20.000Z</time>
      </trkpt>
      <trkpt lat="47.25089" lon="-2.25789">
        <ele>86</ele>
        <time>2020-01-09T09:46:21.000Z</time>
      </trkpt>
      <trkpt lat="47.25089" lon="-2.25792">
        <ele>86.400001525879</ele>
        <time>2020-01-09T09:46:22.000Z</time>
      </trkpt>
      <trkpt lat="47.25089" lon="-2.25796">
        <ele>86.800003051758</ele>
        <time>2020-01-09T09:46:23.000Z</time>
      </trkpt>
      <trkpt lat="47.25089" lon="-2.258">
        <ele>87.199996948242</ele>
        <time>2020-01-09T09:46:24.000Z</time>
      </trkpt>
      <trkpt lat="47.25089" lon="-2.25803">
        <ele>87.599998474121</ele>
        <time>2020-01-09T09:46:25.000Z</time>
      </trkpt>
      <trkpt lat="47.25089" lon="-2.25807">
        <ele>87.599998474121</ele>
        <time>2020-01-09T09:46:27.000Z</time>
      </trkpt>
      <trkpt lat="47.25086" lon="-2.2582">
        <ele>87.599998474121</ele>
        <time>2020-01-09T09:46:32.000Z</time>
      </trkpt>
      <trkpt lat="47.25084" lon="-2.25823">
        <ele>88.199996948242</ele>
        <time>2020-01-09T09:46:33.000Z</time>
      </trkpt>
      <trkpt lat="47.25082" lon="-2.25825">
        <ele>88.599998474121</ele>
        <time>2020-01-09T09:46:34.000Z</time>
      </trkpt>
      <trkpt lat="47.25081" lon="-2.25826">
        <ele>89</ele>
        <time>2020-01-09T09:46:35.000Z</time>
      </trkpt>
      <trkpt lat="47.25079" lon="-2.25826">
        <ele>89.400001525879</ele>
        <time>2020-01-09T09:46:36.000Z</time>
      </trkpt>
      <trkpt lat="47.25078" lon="-2.25824">
        <ele>90</ele>
        <time>2020-01-09T09:46:37.000Z</time>
      </trkpt>
      <trkpt lat="47.2507" lon="-2.25822">
        <ele>90</ele>
        <time>2020-01-09T09:46:40.000Z</time>
      </trkpt>
      <trkpt lat="47.25064" lon="-2.25829">
        <ele>90.400001525879</ele>
        <time>2020-01-09T09:46:43.000Z</time>
      </trkpt>
      <trkpt lat="47.25064" lon="-2.25834">
        <ele>90.800003051758</ele>
        <time>2020-01-09T09:46:44.000Z</time>
      </trkpt>
      <trkpt lat="47.25063" lon="-2.25839">
        <ele>91.199996948242</ele>
        <time>2020-01-09T09:46:45.000Z</time>
      </trkpt>
      <trkpt lat="47.25062" lon="-2.25844">
        <ele>91.800003051758</ele>
        <time>2020-01-09T09:46:46.000Z</time>
      </trkpt>
      <trkpt lat="47.25061" lon="-2.25849">
        <ele>92.199996948242</ele>
        <time>2020-01-09T09:46:47.000Z</time>
      </trkpt>
      <trkpt lat="47.25057" lon="-2.25861">
        <ele>92.199996948242</ele>
        <time>2020-01-09T09:46:50.000Z</time>
      </trkpt>
      <trkpt lat="47.25055" lon="-2.25865">
        <ele>93</ele>
        <time>2020-01-09T09:46:51.000Z</time>
      </trkpt>
      <trkpt lat="47.25053" lon="-2.25868">
        <ele>93.599998474121</ele>
        <time>2020-01-09T09:46:52.000Z</time>
      </trkpt>
      <trkpt lat="47.2505" lon="-2.25871">
        <ele>94</ele>
        <time>2020-01-09T09:46:53.000Z</time>
      </trkpt>
      <trkpt lat="47.25048" lon="-2.25875">
        <ele>94.400001525879</ele>
        <time>2020-01-09T09:46:54.000Z</time>
      </trkpt>
      <trkpt lat="47.25045" lon="-2.25879">
        <ele>94.800003051758</ele>
        <time>2020-01-09T09:46:55.000Z</time>
      </trkpt>
      <trkpt lat="47.25042" lon="-2.25883">
        <ele>95.400001525879</ele>
        <time>2020-01-09T09:46:56.000Z</time>
      </trkpt>
      <trkpt lat="47.2504" lon="-2.25888">
        <ele>95.800003051758</ele>
        <time>2020-01-09T09:46:57.000Z</time>
      </trkpt>
      <trkpt lat="47.25038" lon="-2.25892">
        <ele>96.199996948242</ele>
        <time>2020-01-09T09:46:58.000Z</time>
      </trkpt>
      <trkpt lat="47.25036" lon="-2.25897">
        <ele>96.599998474121</ele>
        <time>2020-01-09T09:46:59.000Z</time>
      </trkpt>
      <trkpt lat="47.25033" lon="-2.2591">
        <ele>96.599998474121</ele>
        <time>2020-01-09T09:47:02.000Z</time>
      </trkpt>
      <trkpt lat="47.25028" lon="-2.25932">
        <ele>97</ele>
        <time>2020-01-09T09:47:07.000Z</time>
      </trkpt>
      <trkpt lat="47.25027" lon="-2.25936">
        <ele>97.400001525879</ele>
        <time>2020-01-09T09:47:08.000Z</time>
      </trkpt>
      <trkpt lat="47.25026" lon="-2.2594">
        <ele>98</ele>
        <time>2020-01-09T09:47:09.000Z</time>
      </trkpt>
      <trkpt lat="47.25025" lon="-2.25944">
        <ele>98.400001525879</ele>
        <time>2020-01-09T09:47:10.000Z</time>
      </trkpt>
      <trkpt lat="47.25025" lon="-2.25948">
        <ele>98.800003051758</ele>
        <time>2020-01-09T09:47:11.000Z</time>
      </trkpt>
      <trkpt lat="47.25025" lon="-2.2595">
        <ele>98.800003051758</ele>
        <time>2020-01-09T09:47:12.000Z</time>
      </trkpt>
      <trkpt lat="47.2503" lon="-2.25953">
        <ele>99.199996948242</ele>
        <time>2020-01-09T09:47:15.000Z</time>
      </trkpt>
      <trkpt lat="47.25032" lon="-2.25953">
        <ele>99.599998474121</ele>
        <time>2020-01-09T09:47:16.000Z</time>
      </trkpt>
      <trkpt lat="47.25033" lon="-2.25952">
        <ele>100</ele>
        <time>2020-01-09T09:47:17.000Z</time>
      </trkpt>
      <trkpt lat="47.25035" lon="-2.25951">
        <ele>100.40000152588</ele>
        <time>2020-01-09T09:47:18.000Z</time>
      </trkpt>
      <trkpt lat="47.25036" lon="-2.2595">
        <ele>100.80000305176</ele>
        <time>2020-01-09T09:47:19.000Z</time>
      </trkpt>
      <trkpt lat="47.2504" lon="-2.25949">
        <ele>100.80000305176</ele>
        <time>2020-01-09T09:47:21.000Z</time>
      </trkpt>
      <trkpt lat="47.25042" lon="-2.2595">
        <ele>100.80000305176</ele>
        <time>2020-01-09T09:47:22.000Z</time>
      </trkpt>
      <trkpt lat="47.25045" lon="-2.25951">
        <ele>100.19999694824</ele>
        <time>2020-01-09T09:47:23.000Z</time>
      </trkpt>
      <trkpt lat="47.25047" lon="-2.25953">
        <ele>99.800003051758</ele>
        <time>2020-01-09T09:47:24.000Z</time>
      </trkpt>
      <trkpt lat="47.25049" lon="-2.25954">
        <ele>99.400001525879</ele>
        <time>2020-01-09T09:47:25.000Z</time>
      </trkpt>
      <trkpt lat="47.25051" lon="-2.25956">
        <ele>98.800003051758</ele>
        <time>2020-01-09T09:47:26.000Z</time>
      </trkpt>
      <trkpt lat="47.25052" lon="-2.25958">
        <ele>98.400001525879</ele>
        <time>2020-01-09T09:47:27.000Z</time>
      </trkpt>
      <trkpt lat="47.25053" lon="-2.25961">
        <ele>97.800003051758</ele>
        <time>2020-01-09T09:47:28.000Z</time>
      </trkpt>
      <trkpt lat="47.25053" lon="-2.25963">
        <ele>97.199996948242</ele>
        <time>2020-01-09T09:47:29.000Z</time>
      </trkpt>
      <trkpt lat="47.25052" lon="-2.25967">
        <ele>96.800003051758</ele>
        <time>2020-01-09T09:47:30.000Z</time>
      </trkpt>
      <trkpt lat="47.25051" lon="-2.25971">
        <ele>96.199996948242</ele>
        <time>2020-01-09T09:47:31.000Z</time>
      </trkpt>
      <trkpt lat="47.25049" lon="-2.25979">
        <ele>96.199996948242</ele>
        <time>2020-01-09T09:47:33.000Z</time>
      </trkpt>
      <trkpt lat="47.25048" lon="-2.25993">
        <ele>96.199996948242</ele>
        <time>2020-01-09T09:47:38.000Z</time>
      </trkpt>
      <trkpt lat="47.25048" lon="-2.25996">
        <ele>96.199996948242</ele>
        <time>2020-01-09T09:47:39.000Z</time>
      </trkpt>
      <trkpt lat="47.25047" lon="-2.25999">
        <ele>96.599998474121</ele>
        <time>2020-01-09T09:47:40.000Z</time>
      </trkpt>
      <trkpt lat="47.25046" lon="-2.26002">
        <ele>97.400001525879</ele>
        <time>2020-01-09T09:47:41.000Z</time>
      </trkpt>
      <trkpt lat="47.25045" lon="-2.26005">
        <ele>97.800003051758</ele>
        <time>2020-01-09T09:47:42.000Z</time>
      </trkpt>
      <trkpt lat="47.25044" lon="-2.26009">
        <ele>98.199996948242</ele>
        <time>2020-01-09T09:47:43.000Z</time>
      </trkpt>
      <trkpt lat="47.25041" lon="-2.26018">
        <ele>98.199996948242</ele>
        <time>2020-01-09T09:47:46.000Z</time>
      </trkpt>
      <trkpt lat="47.25037" lon="-2.26027">
        <ele>98.599998474121</ele>
        <time>2020-01-09T09:47:49.000Z</time>
      </trkpt>
      <trkpt lat="47.25036" lon="-2.2603">
        <ele>99</ele>
        <time>2020-01-09T09:47:50.000Z</time>
      </trkpt>
      <trkpt lat="47.25035" lon="-2.26033">
        <ele>99.400001525879</ele>
        <time>2020-01-09T09:47:51.000Z</time>
      </trkpt>
      <trkpt lat="47.25034" lon="-2.26037">
        <ele>99.800003051758</ele>
        <time>2020-01-09T09:47:52.000Z</time>
      </trkpt>
      <trkpt lat="47.25039" lon="-2.26054">
        <ele>100.19999694824</ele>
        <time>2020-01-09T09:47:53.000Z</time>
      </trkpt>
      <trkpt lat="47.25038" lon="-2.26062">
        <ele>100.19999694824</ele>
        <time>2020-01-09T09:47:55.000Z</time>
      </trkpt>
      <trkpt lat="47.25039" lon="-2.26066">
        <ele>100.19999694824</ele>
        <time>2020-01-09T09:47:56.000Z</time>
      </trkpt>
      <trkpt lat="47.25041" lon="-2.26073">
        <ele>100.59999847412</ele>
        <time>2020-01-09T09:47:58.000Z</time>
      </trkpt>
      <trkpt lat="47.25045" lon="-2.26079">
        <ele>101</ele>
        <time>2020-01-09T09:47:59.000Z</time>
      </trkpt>
      <trkpt lat="47.25049" lon="-2.26084">
        <ele>101.40000152588</ele>
        <time>2020-01-09T09:48:00.000Z</time>
      </trkpt>
      <trkpt lat="47.25053" lon="-2.26088">
        <ele>101.80000305176</ele>
        <time>2020-01-09T09:48:01.000Z</time>
      </trkpt>
      <trkpt lat="47.25056" lon="-2.26091">
        <ele>102.19999694824</ele>
        <time>2020-01-09T09:48:02.000Z</time>
      </trkpt>
      <trkpt lat="47.25064" lon="-2.261">
        <ele>102.19999694824</ele>
        <time>2020-01-09T09:48:04.000Z</time>
      </trkpt>
      <trkpt lat="47.2507" lon="-2.26108">
        <ele>102.80000305176</ele>
        <time>2020-01-09T09:48:05.000Z</time>
      </trkpt>
      <trkpt lat="47.25074" lon="-2.2611">
        <ele>103.19999694824</ele>
        <time>2020-01-09T09:48:06.000Z</time>
      </trkpt>
      <trkpt lat="47.25077" lon="-2.2611">
        <ele>103.59999847412</ele>
        <time>2020-01-09T09:48:07.000Z</time>
      </trkpt>
      <trkpt lat="47.25079" lon="-2.26109">
        <ele>104</ele>
        <time>2020-01-09T09:48:08.000Z</time>
      </trkpt>
      <trkpt lat="47.25081" lon="-2.26106">
        <ele>104.40000152588</ele>
        <time>2020-01-09T09:48:09.000Z</time>
      </trkpt>
      <trkpt lat="47.25082" lon="-2.26103">
        <ele>104.40000152588</ele>
        <time>2020-01-09T09:48:10.000Z</time>
      </trkpt>
      <trkpt lat="47.25088" lon="-2.26076">
        <ele>104.40000152588</ele>
        <time>2020-01-09T09:48:15.000Z</time>
      </trkpt>
      <trkpt lat="47.25094" lon="-2.2605">
        <ele>104.40000152588</ele>
        <time>2020-01-09T09:48:19.000Z</time>
      </trkpt>
      <trkpt lat="47.25097" lon="-2.26034">
        <ele>104.40000152588</ele>
        <time>2020-01-09T09:48:21.000Z</time>
      </trkpt>
      <trkpt lat="47.2511" lon="-2.25974">
        <ele>104.40000152588</ele>
        <time>2020-01-09T09:48:28.000Z</time>
      </trkpt>
      <trkpt lat="47.25124" lon="-2.2595">
        <ele>104.40000152588</ele>
        <time>2020-01-09T09:48:32.000Z</time>
      </trkpt>
      <trkpt lat="47.25139" lon="-2.25931">
        <ele>104.40000152588</ele>
        <time>2020-01-09T09:48:37.000Z</time>
      </trkpt>
      <trkpt lat="47.2515" lon="-2.25912">
        <ele>104.40000152588</ele>
        <time>2020-01-09T09:48:43.000Z</time>
      </trkpt>
      <trkpt lat="47.25161" lon="-2.25879">
        <ele>104.40000152588</ele>
        <time>2020-01-09T09:48:49.000Z</time>
      </trkpt>
      <trkpt lat="47.25162" lon="-2.25873">
        <ele>104</ele>
        <time>2020-01-09T09:48:50.000Z</time>
      </trkpt>
      <trkpt lat="47.25164" lon="-2.25866">
        <ele>103.59999847412</ele>
        <time>2020-01-09T09:48:51.000Z</time>
      </trkpt>
      <trkpt lat="47.25166" lon="-2.2586">
        <ele>103.19999694824</ele>
        <time>2020-01-09T09:48:52.000Z</time>
      </trkpt>
      <trkpt lat="47.25168" lon="-2.25853">
        <ele>102.80000305176</ele>
        <time>2020-01-09T09:48:53.000Z</time>
      </trkpt>
      <trkpt lat="47.2517" lon="-2.25847">
        <ele>102.40000152588</ele>
        <time>2020-01-09T09:48:54.000Z</time>
      </trkpt>
      <trkpt lat="47.25171" lon="-2.25841">
        <ele>102.40000152588</ele>
        <time>2020-01-09T09:48:55.000Z</time>
      </trkpt>
      <trkpt lat="47.25173" lon="-2.25835">
        <ele>102.40000152588</ele>
        <time>2020-01-09T09:48:56.000Z</time>
      </trkpt>
      <trkpt lat="47.25175" lon="-2.25815">
        <ele>102.40000152588</ele>
        <time>2020-01-09T09:49:00.000Z</time>
      </trkpt>
      <trkpt lat="47.25181" lon="-2.25794">
        <ele>102.40000152588</ele>
        <time>2020-01-09T09:49:05.000Z</time>
      </trkpt>
      <trkpt lat="47.25183" lon="-2.25792">
        <ele>102.40000152588</ele>
        <time>2020-01-09T09:49:06.000Z</time>
      </trkpt>
      <trkpt lat="47.2519" lon="-2.25789">
        <ele>102.40000152588</ele>
        <time>2020-01-09T09:49:09.000Z</time>
      </trkpt>
      <trkpt lat="47.25198" lon="-2.25788">
        <ele>102.40000152588</ele>
        <time>2020-01-09T09:49:12.000Z</time>
      </trkpt>
      <trkpt lat="47.25204" lon="-2.25789">
        <ele>102.40000152588</ele>
        <time>2020-01-09T09:49:14.000Z</time>
      </trkpt>
      <trkpt lat="47.25206" lon="-2.25791">
        <ele>102.40000152588</ele>
        <time>2020-01-09T09:49:15.000Z</time>
      </trkpt>
      <trkpt lat="47.25214" lon="-2.25794">
        <ele>102.40000152588</ele>
        <time>2020-01-09T09:49:18.000Z</time>
      </trkpt>
      <trkpt lat="47.25216" lon="-2.25795">
        <ele>102.40000152588</ele>
        <time>2020-01-09T09:49:19.000Z</time>
      </trkpt>
      <trkpt lat="47.25223" lon="-2.25793">
        <ele>102.40000152588</ele>
        <time>2020-01-09T09:49:22.000Z</time>
      </trkpt>
      <trkpt lat="47.25224" lon="-2.25791">
        <ele>102.40000152588</ele>
        <time>2020-01-09T09:49:23.000Z</time>
      </trkpt>
      <trkpt lat="47.25225" lon="-2.25789">
        <ele>102.40000152588</ele>
        <time>2020-01-09T09:49:25.000Z</time>
      </trkpt>
      <trkpt lat="47.25227" lon="-2.25784">
        <ele>102.40000152588</ele>
        <time>2020-01-09T09:49:37.000Z</time>
      </trkpt>
      <trkpt lat="47.2523" lon="-2.25764">
        <ele>102.40000152588</ele>
        <time>2020-01-09T09:49:42.000Z</time>
      </trkpt>
      <trkpt lat="47.25236" lon="-2.2573">
        <ele>102.40000152588</ele>
        <time>2020-01-09T09:49:48.000Z</time>
      </trkpt>
      <trkpt lat="47.25242" lon="-2.25695">
        <ele>102.40000152588</ele>
        <time>2020-01-09T09:49:53.000Z</time>
      </trkpt>
      <trkpt lat="47.2525" lon="-2.25672">
        <ele>102.40000152588</ele>
        <time>2020-01-09T09:49:56.000Z</time>
      </trkpt>
      <trkpt lat="47.25255" lon="-2.25657">
        <ele>102.40000152588</ele>
        <time>2020-01-09T09:49:58.000Z</time>
      </trkpt>
      <trkpt lat="47.25258" lon="-2.25648">
        <ele>102.40000152588</ele>
        <time>2020-01-09T09:49:59.000Z</time>
      </trkpt>
      <trkpt lat="47.25262" lon="-2.25618">
        <ele>102.40000152588</ele>
        <time>2020-01-09T09:50:02.000Z</time>
      </trkpt>
      <trkpt lat="47.25265" lon="-2.25568">
        <ele>102.40000152588</ele>
        <time>2020-01-09T09:50:08.000Z</time>
      </trkpt>
      <trkpt lat="47.25264" lon="-2.25562">
        <ele>101.80000305176</ele>
        <time>2020-01-09T09:50:09.000Z</time>
      </trkpt>
      <trkpt lat="47.25263" lon="-2.25556">
        <ele>101</ele>
        <time>2020-01-09T09:50:10.000Z</time>
      </trkpt>
      <trkpt lat="47.25262" lon="-2.2555">
        <ele>100.59999847412</ele>
        <time>2020-01-09T09:50:11.000Z</time>
      </trkpt>
      <trkpt lat="47.25261" lon="-2.25543">
        <ele>100</ele>
        <time>2020-01-09T09:50:12.000Z</time>
      </trkpt>
      <trkpt lat="47.25259" lon="-2.25535">
        <ele>99.400001525879</ele>
        <time>2020-01-09T09:50:13.000Z</time>
      </trkpt>
      <trkpt lat="47.25257" lon="-2.25527">
        <ele>98.800003051758</ele>
        <time>2020-01-09T09:50:14.000Z</time>
      </trkpt>
      <trkpt lat="47.25256" lon="-2.25519">
        <ele>98.199996948242</ele>
        <time>2020-01-09T09:50:15.000Z</time>
      </trkpt>
      <trkpt lat="47.25255" lon="-2.25511">
        <ele>97.599998474121</ele>
        <time>2020-01-09T09:50:16.000Z</time>
      </trkpt>
      <trkpt lat="47.25255" lon="-2.25503">
        <ele>97</ele>
        <time>2020-01-09T09:50:17.000Z</time>
      </trkpt>
      <trkpt lat="47.25254" lon="-2.25497">
        <ele>96.400001525879</ele>
        <time>2020-01-09T09:50:18.000Z</time>
      </trkpt>
      <trkpt lat="47.25252" lon="-2.25491">
        <ele>95.800003051758</ele>
        <time>2020-01-09T09:50:19.000Z</time>
      </trkpt>
      <trkpt lat="47.25249" lon="-2.25486">
        <ele>95.199996948242</ele>
        <time>2020-01-09T09:50:20.000Z</time>
      </trkpt>
      <trkpt lat="47.25245" lon="-2.25481">
        <ele>94.800003051758</ele>
        <time>2020-01-09T09:50:21.000Z</time>
      </trkpt>
      <trkpt lat="47.2524" lon="-2.25477">
        <ele>94.400001525879</ele>
        <time>2020-01-09T09:50:22.000Z</time>
      </trkpt>
      <trkpt lat="47.25237" lon="-2.25473">
        <ele>94</ele>
        <time>2020-01-09T09:50:23.000Z</time>
      </trkpt>
      <trkpt lat="47.25235" lon="-2.2547">
        <ele>93.599998474121</ele>
        <time>2020-01-09T09:50:24.000Z</time>
      </trkpt>
      <trkpt lat="47.25234" lon="-2.25469">
        <ele>93.199996948242</ele>
        <time>2020-01-09T09:50:25.000Z</time>
      </trkpt>
      <trkpt lat="47.25235" lon="-2.25466">
        <ele>92.800003051758</ele>
        <time>2020-01-09T09:50:27.000Z</time>
      </trkpt>
      <trkpt lat="47.25236" lon="-2.25464">
        <ele>92.199996948242</ele>
        <time>2020-01-09T09:50:28.000Z</time>
      </trkpt>
      <trkpt lat="47.25237" lon="-2.25461">
        <ele>91.800003051758</ele>
        <time>2020-01-09T09:50:29.000Z</time>
      </trkpt>
      <trkpt lat="47.25238" lon="-2.25458">
        <ele>91.400001525879</ele>
        <time>2020-01-09T09:50:30.000Z</time>
      </trkpt>
      <trkpt lat="47.25239" lon="-2.25454">
        <ele>90.800003051758</ele>
        <time>2020-01-09T09:50:31.000Z</time>
      </trkpt>
      <trkpt lat="47.25239" lon="-2.25448">
        <ele>90.800003051758</ele>
        <time>2020-01-09T09:50:32.000Z</time>
      </trkpt>
      <trkpt lat="47.25241" lon="-2.25431">
        <ele>90.800003051758</ele>
        <time>2020-01-09T09:50:34.000Z</time>
      </trkpt>
      <trkpt lat="47.2525" lon="-2.25415">
        <ele>90.400001525879</ele>
        <time>2020-01-09T09:50:37.000Z</time>
      </trkpt>
      <trkpt lat="47.25253" lon="-2.25412">
        <ele>90</ele>
        <time>2020-01-09T09:50:38.000Z</time>
      </trkpt>
      <trkpt lat="47.25256" lon="-2.25411">
        <ele>89.599998474121</ele>
        <time>2020-01-09T09:50:39.000Z</time>
      </trkpt>
      <trkpt lat="47.25259" lon="-2.25413">
        <ele>89.199996948242</ele>
        <time>2020-01-09T09:50:40.000Z</time>
      </trkpt>
      <trkpt lat="47.2526" lon="-2.25413">
        <ele>88.800003051758</ele>
        <time>2020-01-09T09:50:41.000Z</time>
      </trkpt>
      <trkpt lat="47.25264" lon="-2.25412">
        <ele>88.800003051758</ele>
        <time>2020-01-09T09:50:43.000Z</time>
      </trkpt>
      <trkpt lat="47.25265" lon="-2.2541">
        <ele>88.800003051758</ele>
        <time>2020-01-09T09:50:44.000Z</time>
      </trkpt>
      <trkpt lat="47.25269" lon="-2.25393">
        <ele>88.800003051758</ele>
        <time>2020-01-09T09:50:48.000Z</time>
      </trkpt>
      <trkpt lat="47.25272" lon="-2.25383">
        <ele>88.400001525879</ele>
        <time>2020-01-09T09:50:50.000Z</time>
      </trkpt>
      <trkpt lat="47.25274" lon="-2.25379">
        <ele>88</ele>
        <time>2020-01-09T09:50:51.000Z</time>
      </trkpt>
      <trkpt lat="47.25277" lon="-2.25379">
        <ele>87.599998474121</ele>
        <time>2020-01-09T09:50:52.000Z</time>
      </trkpt>
      <trkpt lat="47.25278" lon="-2.25382">
        <ele>87.199996948242</ele>
        <time>2020-01-09T09:50:53.000Z</time>
      </trkpt>
      <trkpt lat="47.25279" lon="-2.25387">
        <ele>86.800003051758</ele>
        <time>2020-01-09T09:50:54.000Z</time>
      </trkpt>
      <trkpt lat="47.2528" lon="-2.25395">
        <ele>86.800003051758</ele>
        <time>2020-01-09T09:50:56.000Z</time>
      </trkpt>
      <trkpt lat="47.25284" lon="-2.25403">
        <ele>86.800003051758</ele>
        <time>2020-01-09T09:50:59.000Z</time>
      </trkpt>
      <trkpt lat="47.25289" lon="-2.25404">
        <ele>86.800003051758</ele>
        <time>2020-01-09T09:51:00.000Z</time>
      </trkpt>
      <trkpt lat="47.25298" lon="-2.25408">
        <ele>86.800003051758</ele>
        <time>2020-01-09T09:51:03.000Z</time>
      </trkpt>
      <trkpt lat="47.25303" lon="-2.25413">
        <ele>86.800003051758</ele>
        <time>2020-01-09T09:51:05.000Z</time>
      </trkpt>
      <trkpt lat="47.25314" lon="-2.25422">
        <ele>86.800003051758</ele>
        <time>2020-01-09T09:51:09.000Z</time>
      </trkpt>
      <trkpt lat="47.25321" lon="-2.25429">
        <ele>86.800003051758</ele>
        <time>2020-01-09T09:51:13.000Z</time>
      </trkpt>
      <trkpt lat="47.25322" lon="-2.25434">
        <ele>86.800003051758</ele>
        <time>2020-01-09T09:51:15.000Z</time>
      </trkpt>
      <trkpt lat="47.25322" lon="-2.25443">
        <ele>86.800003051758</ele>
        <time>2020-01-09T09:51:19.000Z</time>
      </trkpt>
      <trkpt lat="47.25322" lon="-2.25449">
        <ele>86.800003051758</ele>
        <time>2020-01-09T09:51:21.000Z</time>
      </trkpt>
      <trkpt lat="47.25325" lon="-2.25457">
        <ele>87.199996948242</ele>
        <time>2020-01-09T09:51:23.000Z</time>
      </trkpt>
      <trkpt lat="47.25325" lon="-2.25461">
        <ele>88.199996948242</ele>
        <time>2020-01-09T09:51:24.000Z</time>
      </trkpt>
      <trkpt lat="47.25325" lon="-2.25464">
        <ele>88.599998474121</ele>
        <time>2020-01-09T09:51:25.000Z</time>
      </trkpt>
      <trkpt lat="47.25325" lon="-2.25467">
        <ele>89</ele>
        <time>2020-01-09T09:51:26.000Z</time>
      </trkpt>
      <trkpt lat="47.25327" lon="-2.25478">
        <ele>89</ele>
        <time>2020-01-09T09:51:29.000Z</time>
      </trkpt>
      <trkpt lat="47.25328" lon="-2.25488">
        <ele>89.400001525879</ele>
        <time>2020-01-09T09:51:32.000Z</time>
      </trkpt>
      <trkpt lat="47.25328" lon="-2.25492">
        <ele>89.800003051758</ele>
        <time>2020-01-09T09:51:33.000Z</time>
      </trkpt>
      <trkpt lat="47.25329" lon="-2.25496">
        <ele>90.400001525879</ele>
        <time>2020-01-09T09:51:34.000Z</time>
      </trkpt>
      <trkpt lat="47.25329" lon="-2.255">
        <ele>90.800003051758</ele>
        <time>2020-01-09T09:51:35.000Z</time>
      </trkpt>
      <trkpt lat="47.25329" lon="-2.25504">
        <ele>91.199996948242</ele>
        <time>2020-01-09T09:51:36.000Z</time>
      </trkpt>
      <trkpt lat="47.25329" lon="-2.25516">
        <ele>91.199996948242</ele>
        <time>2020-01-09T09:51:40.000Z</time>
      </trkpt>
      <trkpt lat="47.2533" lon="-2.25519">
        <ele>91.199996948242</ele>
        <time>2020-01-09T09:51:41.000Z</time>
      </trkpt>
      <trkpt lat="47.2533" lon="-2.25527">
        <ele>91.599998474121</ele>
        <time>2020-01-09T09:51:44.000Z</time>
      </trkpt>
      <trkpt lat="47.25329" lon="-2.25531">
        <ele>92</ele>
        <time>2020-01-09T09:51:45.000Z</time>
      </trkpt>
      <trkpt lat="47.25329" lon="-2.25534">
        <ele>92.400001525879</ele>
        <time>2020-01-09T09:51:46.000Z</time>
      </trkpt>
      <trkpt lat="47.2533" lon="-2.25538">
        <ele>92.800003051758</ele>
        <time>2020-01-09T09:51:47.000Z</time>
      </trkpt>
      <trkpt lat="47.2533" lon="-2.25543">
        <ele>93.199996948242</ele>
        <time>2020-01-09T09:51:48.000Z</time>
      </trkpt>
      <trkpt lat="47.2533" lon="-2.25551">
        <ele>93.199996948242</ele>
        <time>2020-01-09T09:51:50.000Z</time>
      </trkpt>
      <trkpt lat="47.2533" lon="-2.25558">
        <ele>93.199996948242</ele>
        <time>2020-01-09T09:51:52.000Z</time>
      </trkpt>
      <trkpt lat="47.25331" lon="-2.25566">
        <ele>93.199996948242</ele>
        <time>2020-01-09T09:51:55.000Z</time>
      </trkpt>
      <trkpt lat="47.25332" lon="-2.2557">
        <ele>93.199996948242</ele>
        <time>2020-01-09T09:51:57.000Z</time>
      </trkpt>
      <trkpt lat="47.25334" lon="-2.25586">
        <ele>93.199996948242</ele>
        <time>2020-01-09T10:09:31.000Z</time>
      </trkpt>
      <trkpt lat="47.25334" lon="-2.25589">
        <ele>93.199996948242</ele>
        <time>2020-01-09T10:09:32.000Z</time>
      </trkpt>
      <trkpt lat="47.25335" lon="-2.25597">
        <ele>93.199996948242</ele>
        <time>2020-01-09T10:09:35.000Z</time>
      </trkpt>
      <trkpt lat="47.25335" lon="-2.25601">
        <ele>93.199996948242</ele>
        <time>2020-01-09T10:09:37.000Z</time>
      </trkpt>
      <trkpt lat="47.25335" lon="-2.25603">
        <ele>93.199996948242</ele>
        <time>2020-01-09T10:09:39.000Z</time>
      </trkpt>
      <trkpt lat="47.25337" lon="-2.25614">
        <ele>93.199996948242</ele>
        <time>2020-01-09T10:09:51.000Z</time>
      </trkpt>
      <trkpt lat="47.25338" lon="-2.2562">
        <ele>93.199996948242</ele>
        <time>2020-01-09T10:09:53.000Z</time>
      </trkpt>
      <trkpt lat="47.2534" lon="-2.25625">
        <ele>93.199996948242</ele>
        <time>2020-01-09T10:09:55.000Z</time>
      </trkpt>
      <trkpt lat="47.25342" lon="-2.2564">
        <ele>93.199996948242</ele>
        <time>2020-01-09T10:09:59.000Z</time>
      </trkpt>
      <trkpt lat="47.25345" lon="-2.2566">
        <ele>93.199996948242</ele>
        <time>2020-01-09T10:10:04.000Z</time>
      </trkpt>
      <trkpt lat="47.25349" lon="-2.25678">
        <ele>93.199996948242</ele>
        <time>2020-01-09T10:10:08.000Z</time>
      </trkpt>
      <trkpt lat="47.25348" lon="-2.25702">
        <ele>93.199996948242</ele>
        <time>2020-01-09T10:10:12.000Z</time>
      </trkpt>
      <trkpt lat="47.2535" lon="-2.25719">
        <ele>93.199996948242</ele>
        <time>2020-01-09T10:10:15.000Z</time>
      </trkpt>
      <trkpt lat="47.25351" lon="-2.25723">
        <ele>93.199996948242</ele>
        <time>2020-01-09T10:10:16.000Z</time>
      </trkpt>
      <trkpt lat="47.25352" lon="-2.2573">
        <ele>93.199996948242</ele>
        <time>2020-01-09T10:10:18.000Z</time>
      </trkpt>
      <trkpt lat="47.25353" lon="-2.25741">
        <ele>93.199996948242</ele>
        <time>2020-01-09T10:10:20.000Z</time>
      </trkpt>
      <trkpt lat="47.25352" lon="-2.25753">
        <ele>93.199996948242</ele>
        <time>2020-01-09T10:10:23.000Z</time>
      </trkpt>
      <trkpt lat="47.25351" lon="-2.2576">
        <ele>93.199996948242</ele>
        <time>2020-01-09T10:10:25.000Z</time>
      </trkpt>
      <trkpt lat="47.25348" lon="-2.25779">
        <ele>93.199996948242</ele>
        <time>2020-01-09T10:10:30.000Z</time>
      </trkpt>
      <trkpt lat="47.25345" lon="-2.25796">
        <ele>93.199996948242</ele>
        <time>2020-01-09T10:10:35.000Z</time>
      </trkpt>
      <trkpt lat="47.25338" lon="-2.25834">
        <ele>93.599998474121</ele>
        <time>2020-01-09T10:10:44.000Z</time>
      </trkpt>
      <trkpt lat="47.25337" lon="-2.25838">
        <ele>94</ele>
        <time>2020-01-09T10:10:45.000Z</time>
      </trkpt>
      <trkpt lat="47.25336" lon="-2.25842">
        <ele>94.400001525879</ele>
        <time>2020-01-09T10:10:46.000Z</time>
      </trkpt>
      <trkpt lat="47.25336" lon="-2.25844">
        <ele>95.199996948242</ele>
        <time>2020-01-09T10:10:47.000Z</time>
      </trkpt>
      <trkpt lat="47.25336" lon="-2.25846">
        <ele>95.199996948242</ele>
        <time>2020-01-09T10:10:48.000Z</time>
      </trkpt>
      <trkpt lat="47.25333" lon="-2.25858">
        <ele>95.199996948242</ele>
        <time>2020-01-09T10:10:53.000Z</time>
      </trkpt>
      <trkpt lat="47.25334" lon="-2.25866">
        <ele>95.599998474121</ele>
        <time>2020-01-09T10:10:56.000Z</time>
      </trkpt>
      <trkpt lat="47.25334" lon="-2.25868">
        <ele>96.199996948242</ele>
        <time>2020-01-09T10:10:57.000Z</time>
      </trkpt>
      <trkpt lat="47.25335" lon="-2.25871">
        <ele>96.599998474121</ele>
        <time>2020-01-09T10:10:58.000Z</time>
      </trkpt>
      <trkpt lat="47.25335" lon="-2.25874">
        <ele>97</ele>
        <time>2020-01-09T10:10:59.000Z</time>
      </trkpt>
      <trkpt lat="47.25334" lon="-2.25876">
        <ele>97.400001525879</ele>
        <time>2020-01-09T10:11:00.000Z</time>
      </trkpt>
      <trkpt lat="47.25336" lon="-2.25888">
        <ele>97.400001525879</ele>
        <time>2020-01-09T10:11:04.000Z</time>
      </trkpt>
      <trkpt lat="47.2534" lon="-2.25911">
        <ele>97.400001525879</ele>
        <time>2020-01-09T10:11:09.000Z</time>
      </trkpt>
      <trkpt lat="47.25341" lon="-2.25938">
        <ele>97.400001525879</ele>
        <time>2020-01-09T10:11:15.000Z</time>
      </trkpt>
      <trkpt lat="47.2534" lon="-2.25957">
        <ele>97.400001525879</ele>
        <time>2020-01-09T10:11:19.000Z</time>
      </trkpt>
      <trkpt lat="47.25333" lon="-2.25982">
        <ele>97.400001525879</ele>
        <time>2020-01-09T10:11:25.000Z</time>
      </trkpt>
      <trkpt lat="47.25331" lon="-2.25994">
        <ele>97.800003051758</ele>
        <time>2020-01-09T10:11:28.000Z</time>
      </trkpt>
      <trkpt lat="47.2533" lon="-2.25998">
        <ele>98.199996948242</ele>
        <time>2020-01-09T10:11:29.000Z</time>
      </trkpt>
      <trkpt lat="47.25329" lon="-2.26001">
        <ele>98.599998474121</ele>
        <time>2020-01-09T10:11:30.000Z</time>
      </trkpt>
      <trkpt lat="47.25328" lon="-2.26004">
        <ele>99</ele>
        <time>2020-01-09T10:11:31.000Z</time>
      </trkpt>
      <trkpt lat="47.25329" lon="-2.26005">
        <ele>99.599998474121</ele>
        <time>2020-01-09T10:11:32.000Z</time>
      </trkpt>
      <trkpt lat="47.25327" lon="-2.26009">
        <ele>99.599998474121</ele>
        <time>2020-01-09T10:11:36.000Z</time>
      </trkpt>
      <trkpt lat="47.25328" lon="-2.26011">
        <ele>99.599998474121</ele>
        <time>2020-01-09T10:11:38.000Z</time>
      </trkpt>
      <trkpt lat="47.25328" lon="-2.26017">
        <ele>99.599998474121</ele>
        <time>2020-01-09T10:11:42.000Z</time>
      </trkpt>
      <trkpt lat="47.25328" lon="-2.26019">
        <ele>99.599998474121</ele>
        <time>2020-01-09T10:11:43.000Z</time>
      </trkpt>
      <trkpt lat="47.25327" lon="-2.26026">
        <ele>100</ele>
        <time>2020-01-09T10:11:47.000Z</time>
      </trkpt>
      <trkpt lat="47.25326" lon="-2.26027">
        <ele>100.40000152588</ele>
        <time>2020-01-09T10:11:48.000Z</time>
      </trkpt>
      <trkpt lat="47.25325" lon="-2.26027">
        <ele>100.80000305176</ele>
        <time>2020-01-09T10:11:49.000Z</time>
      </trkpt>
      <trkpt lat="47.25324" lon="-2.26026">
        <ele>101.19999694824</ele>
        <time>2020-01-09T10:11:50.000Z</time>
      </trkpt>
      <trkpt lat="47.25325" lon="-2.26027">
        <ele>101.59999847412</ele>
        <time>2020-01-09T10:11:51.000Z</time>
      </trkpt>
      <trkpt lat="47.25325" lon="-2.26023">
        <ele>101.59999847412</ele>
        <time>2020-01-09T10:11:53.000Z</time>
      </trkpt>
      <trkpt lat="47.25331" lon="-2.26015">
        <ele>101.59999847412</ele>
        <time>2020-01-09T10:11:57.000Z</time>
      </trkpt>
      <trkpt lat="47.25338" lon="-2.26016">
        <ele>101.59999847412</ele>
        <time>2020-01-09T10:12:00.000Z</time>
      </trkpt>
      <trkpt lat="47.2534" lon="-2.26015">
        <ele>101.59999847412</ele>
        <time>2020-01-09T10:12:01.000Z</time>
      </trkpt>
      <trkpt lat="47.25356" lon="-2.26017">
        <ele>101.59999847412</ele>
        <time>2020-01-09T10:12:07.000Z</time>
      </trkpt>
      <trkpt lat="47.25362" lon="-2.26019">
        <ele>101.19999694824</ele>
        <time>2020-01-09T10:12:09.000Z</time>
      </trkpt>
      <trkpt lat="47.25365" lon="-2.26019">
        <ele>100.80000305176</ele>
        <time>2020-01-09T10:12:10.000Z</time>
      </trkpt>
      <trkpt lat="47.25367" lon="-2.2602">
        <ele>100.40000152588</ele>
        <time>2020-01-09T10:12:11.000Z</time>
      </trkpt>
      <trkpt lat="47.2537" lon="-2.26021">
        <ele>100</ele>
        <time>2020-01-09T10:12:12.000Z</time>
      </trkpt>
      <trkpt lat="47.25372" lon="-2.26022">
        <ele>99.599998474121</ele>
        <time>2020-01-09T10:12:13.000Z</time>
      </trkpt>
      <trkpt lat="47.25378" lon="-2.26026">
        <ele>99.199996948242</ele>
        <time>2020-01-09T10:12:15.000Z</time>
      </trkpt>
      <trkpt lat="47.25381" lon="-2.26028">
        <ele>98.800003051758</ele>
        <time>2020-01-09T10:12:16.000Z</time>
      </trkpt>
      <trkpt lat="47.25385" lon="-2.26031">
        <ele>98.400001525879</ele>
        <time>2020-01-09T10:12:17.000Z</time>
      </trkpt>
      <trkpt lat="47.25387" lon="-2.26034">
        <ele>97.800003051758</ele>
        <time>2020-01-09T10:12:18.000Z</time>
      </trkpt>
      <trkpt lat="47.25388" lon="-2.26037">
        <ele>97.400001525879</ele>
        <time>2020-01-09T10:12:19.000Z</time>
      </trkpt>
      <trkpt lat="47.25389" lon="-2.26045">
        <ele>97.400001525879</ele>
        <time>2020-01-09T10:12:22.000Z</time>
      </trkpt>
      <trkpt lat="47.25388" lon="-2.26049">
        <ele>97.400001525879</ele>
        <time>2020-01-09T10:12:23.000Z</time>
      </trkpt>
      <trkpt lat="47.25387" lon="-2.26067">
        <ele>97.400001525879</ele>
        <time>2020-01-09T10:12:27.000Z</time>
      </trkpt>
      <trkpt lat="47.25388" lon="-2.26072">
        <ele>97.400001525879</ele>
        <time>2020-01-09T10:12:28.000Z</time>
      </trkpt>
      <trkpt lat="47.2539" lon="-2.26085">
        <ele>97.400001525879</ele>
        <time>2020-01-09T10:12:31.000Z</time>
      </trkpt>
      <trkpt lat="47.25391" lon="-2.2609">
        <ele>97.400001525879</ele>
        <time>2020-01-09T10:12:32.000Z</time>
      </trkpt>
      <trkpt lat="47.25389" lon="-2.26105">
        <ele>97.400001525879</ele>
        <time>2020-01-09T10:12:36.000Z</time>
      </trkpt>
      <trkpt lat="47.25387" lon="-2.26107">
        <ele>97.400001525879</ele>
        <time>2020-01-09T10:12:37.000Z</time>
      </trkpt>
      <trkpt lat="47.25381" lon="-2.26115">
        <ele>97.400001525879</ele>
        <time>2020-01-09T10:12:41.000Z</time>
      </trkpt>
      <trkpt lat="47.25379" lon="-2.26128">
        <ele>97.400001525879</ele>
        <time>2020-01-09T10:12:45.000Z</time>
      </trkpt>
      <trkpt lat="47.25378" lon="-2.26131">
        <ele>97.400001525879</ele>
        <time>2020-01-09T10:12:46.000Z</time>
      </trkpt>
      <trkpt lat="47.25373" lon="-2.26135">
        <ele>97.400001525879</ele>
        <time>2020-01-09T10:12:50.000Z</time>
      </trkpt>
      <trkpt lat="47.25368" lon="-2.26136">
        <ele>97.800003051758</ele>
        <time>2020-01-09T10:12:54.000Z</time>
      </trkpt>
      <trkpt lat="47.25367" lon="-2.26138">
        <ele>98.199996948242</ele>
        <time>2020-01-09T10:12:55.000Z</time>
      </trkpt>
      <trkpt lat="47.25367" lon="-2.2614">
        <ele>98.599998474121</ele>
        <time>2020-01-09T10:12:56.000Z</time>
      </trkpt>
      <trkpt lat="47.25366" lon="-2.26141">
        <ele>99</ele>
        <time>2020-01-09T10:12:57.000Z</time>
      </trkpt>
      <trkpt lat="47.25364" lon="-2.26142">
        <ele>99.400001525879</ele>
        <time>2020-01-09T10:12:58.000Z</time>
      </trkpt>
      <trkpt lat="47.25362" lon="-2.26141">
        <ele>99.400001525879</ele>
        <time>2020-01-09T10:13:00.000Z</time>
      </trkpt>
      <trkpt lat="47.25354" lon="-2.26145">
        <ele>99.800003051758</ele>
        <time>2020-01-09T10:13:06.000Z</time>
      </trkpt>
      <trkpt lat="47.25353" lon="-2.26145">
        <ele>100.40000152588</ele>
        <time>2020-01-09T10:13:07.000Z</time>
      </trkpt>
      <trkpt lat="47.25352" lon="-2.26145">
        <ele>100.80000305176</ele>
        <time>2020-01-09T10:13:08.000Z</time>
      </trkpt>
      <trkpt lat="47.25351" lon="-2.26145">
        <ele>101.19999694824</ele>
        <time>2020-01-09T10:13:09.000Z</time>
      </trkpt>
      <trkpt lat="47.25349" lon="-2.26146">
        <ele>101.59999847412</ele>
        <time>2020-01-09T10:13:10.000Z</time>
      </trkpt>
      <trkpt lat="47.25349" lon="-2.26147">
        <ele>101.59999847412</ele>
        <time>2020-01-09T10:13:11.000Z</time>
      </trkpt>
      <trkpt lat="47.25346" lon="-2.26161">
        <ele>101.59999847412</ele>
        <time>2020-01-09T10:13:26.000Z</time>
      </trkpt>
      <trkpt lat="47.25343" lon="-2.26166">
        <ele>101.59999847412</ele>
        <time>2020-01-09T10:13:30.000Z</time>
      </trkpt>
      <trkpt lat="47.2534" lon="-2.26166">
        <ele>102</ele>
        <time>2020-01-09T10:13:32.000Z</time>
      </trkpt>
      <trkpt lat="47.25339" lon="-2.26166">
        <ele>102.40000152588</ele>
        <time>2020-01-09T10:13:33.000Z</time>
      </trkpt>
      <trkpt lat="47.25338" lon="-2.26164">
        <ele>102.80000305176</ele>
        <time>2020-01-09T10:13:34.000Z</time>
      </trkpt>
      <trkpt lat="47.25337" lon="-2.26163">
        <ele>103.40000152588</ele>
        <time>2020-01-09T10:13:35.000Z</time>
      </trkpt>
      <trkpt lat="47.25336" lon="-2.26163">
        <ele>103.80000305176</ele>
        <time>2020-01-09T10:13:36.000Z</time>
      </trkpt>
      <trkpt lat="47.25334" lon="-2.26161">
        <ele>103.80000305176</ele>
        <time>2020-01-09T10:13:37.000Z</time>
      </trkpt>
      <trkpt lat="47.25334" lon="-2.26157">
        <ele>103.80000305176</ele>
        <time>2020-01-09T10:13:39.000Z</time>
      </trkpt>
      <trkpt lat="47.2534" lon="-2.26149">
        <ele>103.80000305176</ele>
        <time>2020-01-09T10:13:44.000Z</time>
      </trkpt>
      <trkpt lat="47.25344" lon="-2.26148">
        <ele>103.40000152588</ele>
        <time>2020-01-09T10:13:47.000Z</time>
      </trkpt>
      <trkpt lat="47.25346" lon="-2.26149">
        <ele>103</ele>
        <time>2020-01-09T10:13:48.000Z</time>
      </trkpt>
      <trkpt lat="47.25349" lon="-2.26148">
        <ele>102.59999847412</ele>
        <time>2020-01-09T10:13:49.000Z</time>
      </trkpt>
      <trkpt lat="47.2535" lon="-2.26149">
        <ele>102.19999694824</ele>
        <time>2020-01-09T10:13:50.000Z</time>
      </trkpt>
      <trkpt lat="47.25353" lon="-2.26149">
        <ele>101.80000305176</ele>
        <time>2020-01-09T10:13:51.000Z</time>
      </trkpt>
      <trkpt lat="47.2536" lon="-2.26155">
        <ele>101.80000305176</ele>
        <time>2020-01-09T10:13:54.000Z</time>
      </trkpt>
      <trkpt lat="47.25368" lon="-2.26172">
        <ele>101.80000305176</ele>
        <time>2020-01-09T10:13:59.000Z</time>
      </trkpt>
      <trkpt lat="47.25373" lon="-2.26194">
        <ele>101.80000305176</ele>
        <time>2020-01-09T10:14:04.000Z</time>
      </trkpt>
      <trkpt lat="47.25378" lon="-2.26203">
        <ele>101.80000305176</ele>
        <time>2020-01-09T10:14:07.000Z</time>
      </trkpt>
      <trkpt lat="47.25383" lon="-2.26217">
        <ele>101.80000305176</ele>
        <time>2020-01-09T10:14:10.000Z</time>
      </trkpt>
      <trkpt lat="47.25385" lon="-2.26251">
        <ele>102.19999694824</ele>
        <time>2020-01-09T10:14:15.000Z</time>
      </trkpt>
      <trkpt lat="47.25384" lon="-2.26257">
        <ele>102.59999847412</ele>
        <time>2020-01-09T10:14:16.000Z</time>
      </trkpt>
      <trkpt lat="47.25384" lon="-2.26262">
        <ele>103.19999694824</ele>
        <time>2020-01-09T10:14:17.000Z</time>
      </trkpt>
      <trkpt lat="47.25385" lon="-2.26265">
        <ele>103.59999847412</ele>
        <time>2020-01-09T10:14:18.000Z</time>
      </trkpt>
      <trkpt lat="47.25386" lon="-2.26268">
        <ele>104</ele>
        <time>2020-01-09T10:14:19.000Z</time>
      </trkpt>
      <trkpt lat="47.25393" lon="-2.26294">
        <ele>104</ele>
        <time>2020-01-09T10:14:24.000Z</time>
      </trkpt>
      <trkpt lat="47.25402" lon="-2.26318">
        <ele>104</ele>
        <time>2020-01-09T10:14:29.000Z</time>
      </trkpt>
      <trkpt lat="47.25406" lon="-2.2634">
        <ele>104</ele>
        <time>2020-01-09T10:14:34.000Z</time>
      </trkpt>
      <trkpt lat="47.25411" lon="-2.26348">
        <ele>104</ele>
        <time>2020-01-09T10:14:36.000Z</time>
      </trkpt>
      <trkpt lat="47.25416" lon="-2.26354">
        <ele>104</ele>
        <time>2020-01-09T10:14:38.000Z</time>
      </trkpt>
      <trkpt lat="47.25419" lon="-2.26361">
        <ele>104</ele>
        <time>2020-01-09T10:14:39.000Z</time>
      </trkpt>
      <trkpt lat="47.25426" lon="-2.26376">
        <ele>104</ele>
        <time>2020-01-09T10:14:41.000Z</time>
      </trkpt>
      <trkpt lat="47.25431" lon="-2.26403">
        <ele>104</ele>
        <time>2020-01-09T10:14:45.000Z</time>
      </trkpt>
      <trkpt lat="47.25435" lon="-2.26425">
        <ele>104</ele>
        <time>2020-01-09T10:14:49.000Z</time>
      </trkpt>
      <trkpt lat="47.25446" lon="-2.26427">
        <ele>104</ele>
        <time>2020-01-09T10:14:52.000Z</time>
      </trkpt>
      <trkpt lat="47.25449" lon="-2.26429">
        <ele>104</ele>
        <time>2020-01-09T10:14:53.000Z</time>
      </trkpt>
      <trkpt lat="47.25451" lon="-2.26433">
        <ele>103.59999847412</ele>
        <time>2020-01-09T10:14:55.000Z</time>
      </trkpt>
      <trkpt lat="47.25452" lon="-2.26436">
        <ele>103.19999694824</ele>
        <time>2020-01-09T10:14:56.000Z</time>
      </trkpt>
      <trkpt lat="47.25454" lon="-2.26441">
        <ele>102.80000305176</ele>
        <time>2020-01-09T10:14:57.000Z</time>
      </trkpt>
      <trkpt lat="47.25455" lon="-2.26447">
        <ele>102.40000152588</ele>
        <time>2020-01-09T10:14:58.000Z</time>
      </trkpt>
      <trkpt lat="47.25456" lon="-2.26454">
        <ele>102</ele>
        <time>2020-01-09T10:14:59.000Z</time>
      </trkpt>
      <trkpt lat="47.25459" lon="-2.26469">
        <ele>102</ele>
        <time>2020-01-09T10:15:01.000Z</time>
      </trkpt>
      <trkpt lat="47.25465" lon="-2.2648">
        <ele>102</ele>
        <time>2020-01-09T10:15:03.000Z</time>
      </trkpt>
      <trkpt lat="47.25468" lon="-2.26484">
        <ele>102.40000152588</ele>
        <time>2020-01-09T10:15:04.000Z</time>
      </trkpt>
      <trkpt lat="47.25469" lon="-2.26488">
        <ele>102.80000305176</ele>
        <time>2020-01-09T10:15:05.000Z</time>
      </trkpt>
      <trkpt lat="47.25471" lon="-2.26493">
        <ele>103.40000152588</ele>
        <time>2020-01-09T10:15:06.000Z</time>
      </trkpt>
      <trkpt lat="47.25472" lon="-2.26497">
        <ele>103.80000305176</ele>
        <time>2020-01-09T10:15:07.000Z</time>
      </trkpt>
      <trkpt lat="47.25473" lon="-2.26501">
        <ele>104.19999694824</ele>
        <time>2020-01-09T10:15:08.000Z</time>
      </trkpt>
      <trkpt lat="47.25473" lon="-2.26505">
        <ele>104.59999847412</ele>
        <time>2020-01-09T10:15:09.000Z</time>
      </trkpt>
      <trkpt lat="47.25474" lon="-2.2651">
        <ele>105</ele>
        <time>2020-01-09T10:15:10.000Z</time>
      </trkpt>
      <trkpt lat="47.25474" lon="-2.26515">
        <ele>105.59999847412</ele>
        <time>2020-01-09T10:15:11.000Z</time>
      </trkpt>
      <trkpt lat="47.25476" lon="-2.2652">
        <ele>106</ele>
        <time>2020-01-09T10:15:12.000Z</time>
      </trkpt>
      <trkpt lat="47.25477" lon="-2.26525">
        <ele>106.40000152588</ele>
        <time>2020-01-09T10:15:13.000Z</time>
      </trkpt>
      <trkpt lat="47.25481" lon="-2.26545">
        <ele>106.40000152588</ele>
        <time>2020-01-09T10:15:18.000Z</time>
      </trkpt>
      <trkpt lat="47.25486" lon="-2.26564">
        <ele>106.40000152588</ele>
        <time>2020-01-09T10:15:24.000Z</time>
      </trkpt>
      <trkpt lat="47.25487" lon="-2.26584">
        <ele>106.80000305176</ele>
        <time>2020-01-09T10:15:28.000Z</time>
      </trkpt>
      <trkpt lat="47.25487" lon="-2.26589">
        <ele>107.19999694824</ele>
        <time>2020-01-09T10:15:29.000Z</time>
      </trkpt>
      <trkpt lat="47.25486" lon="-2.26594">
        <ele>107.59999847412</ele>
        <time>2020-01-09T10:15:30.000Z</time>
      </trkpt>
      <trkpt lat="47.25487" lon="-2.26599">
        <ele>108</ele>
        <time>2020-01-09T10:15:31.000Z</time>
      </trkpt>
      <trkpt lat="47.25487" lon="-2.26605">
        <ele>108.59999847412</ele>
        <time>2020-01-09T10:15:32.000Z</time>
      </trkpt>
      <trkpt lat="47.25487" lon="-2.2662">
        <ele>108.59999847412</ele>
        <time>2020-01-09T10:15:35.000Z</time>
      </trkpt>
      <trkpt lat="47.25487" lon="-2.2666">
        <ele>108.59999847412</ele>
        <time>2020-01-09T10:15:42.000Z</time>
      </trkpt>
      <trkpt lat="47.25485" lon="-2.26688">
        <ele>108.59999847412</ele>
        <time>2020-01-09T10:15:48.000Z</time>
      </trkpt>
      <trkpt lat="47.25478" lon="-2.26707">
        <ele>109</ele>
        <time>2020-01-09T10:15:53.000Z</time>
      </trkpt>
      <trkpt lat="47.25477" lon="-2.26711">
        <ele>109.40000152588</ele>
        <time>2020-01-09T10:15:54.000Z</time>
      </trkpt>
      <trkpt lat="47.25476" lon="-2.26713">
        <ele>109.80000305176</ele>
        <time>2020-01-09T10:15:55.000Z</time>
      </trkpt>
      <trkpt lat="47.25476" lon="-2.26716">
        <ele>110.19999694824</ele>
        <time>2020-01-09T10:15:56.000Z</time>
      </trkpt>
      <trkpt lat="47.25475" lon="-2.26719">
        <ele>110.80000305176</ele>
        <time>2020-01-09T10:15:57.000Z</time>
      </trkpt>
      <trkpt lat="47.25474" lon="-2.2672">
        <ele>110.80000305176</ele>
        <time>2020-01-09T10:15:58.000Z</time>
      </trkpt>
      <trkpt lat="47.2547" lon="-2.26723">
        <ele>110.80000305176</ele>
        <time>2020-01-09T10:16:01.000Z</time>
      </trkpt>
      <trkpt lat="47.25467" lon="-2.26724">
        <ele>110.80000305176</ele>
        <time>2020-01-09T10:16:02.000Z</time>
      </trkpt>
      <trkpt lat="47.25459" lon="-2.26732">
        <ele>110.80000305176</ele>
        <time>2020-01-09T10:16:05.000Z</time>
      </trkpt>
      <trkpt lat="47.25458" lon="-2.26737">
        <ele>110.80000305176</ele>
        <time>2020-01-09T10:16:06.000Z</time>
      </trkpt>
      <trkpt lat="47.25455" lon="-2.26745">
        <ele>111.19999694824</ele>
        <time>2020-01-09T10:16:08.000Z</time>
      </trkpt>
      <trkpt lat="47.25453" lon="-2.26749">
        <ele>112</ele>
        <time>2020-01-09T10:16:09.000Z</time>
      </trkpt>
      <trkpt lat="47.25449" lon="-2.2675">
        <ele>112.59999847412</ele>
        <time>2020-01-09T10:16:10.000Z</time>
      </trkpt>
      <trkpt lat="47.25446" lon="-2.26751">
        <ele>113</ele>
        <time>2020-01-09T10:16:11.000Z</time>
      </trkpt>
      <trkpt lat="47.25434" lon="-2.26746">
        <ele>113</ele>
        <time>2020-01-09T10:16:14.000Z</time>
      </trkpt>
      <trkpt lat="47.2543" lon="-2.26744">
        <ele>113</ele>
        <time>2020-01-09T10:16:15.000Z</time>
      </trkpt>
      <trkpt lat="47.25425" lon="-2.26742">
        <ele>113</ele>
        <time>2020-01-09T10:16:16.000Z</time>
      </trkpt>
      <trkpt lat="47.25408" lon="-2.26738">
        <ele>113</ele>
        <time>2020-01-09T10:16:20.000Z</time>
      </trkpt>
      <trkpt lat="47.25389" lon="-2.26736">
        <ele>113.40000152588</ele>
        <time>2020-01-09T10:16:25.000Z</time>
      </trkpt>
      <trkpt lat="47.25384" lon="-2.26735">
        <ele>113.80000305176</ele>
        <time>2020-01-09T10:16:26.000Z</time>
      </trkpt>
      <trkpt lat="47.25379" lon="-2.26734">
        <ele>114.19999694824</ele>
        <time>2020-01-09T10:16:27.000Z</time>
      </trkpt>
      <trkpt lat="47.25375" lon="-2.26734">
        <ele>114.59999847412</ele>
        <time>2020-01-09T10:16:28.000Z</time>
      </trkpt>
      <trkpt lat="47.2537" lon="-2.26733">
        <ele>115</ele>
        <time>2020-01-09T10:16:29.000Z</time>
      </trkpt>
      <trkpt lat="47.25356" lon="-2.26733">
        <ele>115</ele>
        <time>2020-01-09T10:16:32.000Z</time>
      </trkpt>
      <trkpt lat="47.25342" lon="-2.26732">
        <ele>115</ele>
        <time>2020-01-09T10:16:35.000Z</time>
      </trkpt>
      <trkpt lat="47.25329" lon="-2.26728">
        <ele>115</ele>
        <time>2020-01-09T10:16:38.000Z</time>
      </trkpt>
      <trkpt lat="47.25303" lon="-2.26721">
        <ele>115</ele>
        <time>2020-01-09T10:16:44.000Z</time>
      </trkpt>
      <trkpt lat="47.2528" lon="-2.26721">
        <ele>115</ele>
        <time>2020-01-09T10:16:49.000Z</time>
      </trkpt>
      <trkpt lat="47.25276" lon="-2.26723">
        <ele>115</ele>
        <time>2020-01-09T10:16:50.000Z</time>
      </trkpt>
      <trkpt lat="47.2525" lon="-2.26732">
        <ele>115</ele>
        <time>2020-01-09T10:16:55.000Z</time>
      </trkpt>
      <trkpt lat="47.25245" lon="-2.26735">
        <ele>115</ele>
        <time>2020-01-09T10:16:56.000Z</time>
      </trkpt>
      <trkpt lat="47.25226" lon="-2.26752">
        <ele>115</ele>
        <time>2020-01-09T10:17:00.000Z</time>
      </trkpt>
      <trkpt lat="47.252" lon="-2.26774">
        <ele>115</ele>
        <time>2020-01-09T10:17:06.000Z</time>
      </trkpt>
      <trkpt lat="47.25177" lon="-2.2679">
        <ele>115</ele>
        <time>2020-01-09T10:17:11.000Z</time>
      </trkpt>
      <trkpt lat="47.25173" lon="-2.26796">
        <ele>115</ele>
        <time>2020-01-09T10:17:12.000Z</time>
      </trkpt>
      <trkpt lat="47.2517" lon="-2.26802">
        <ele>115.40000152588</ele>
        <time>2020-01-09T10:17:13.000Z</time>
      </trkpt>
      <trkpt lat="47.25166" lon="-2.26808">
        <ele>115.80000305176</ele>
        <time>2020-01-09T10:17:14.000Z</time>
      </trkpt>
      <trkpt lat="47.25163" lon="-2.26814">
        <ele>116.40000152588</ele>
        <time>2020-01-09T10:17:15.000Z</time>
      </trkpt>
      <trkpt lat="47.25161" lon="-2.2682">
        <ele>116.80000305176</ele>
        <time>2020-01-09T10:17:16.000Z</time>
      </trkpt>
      <trkpt lat="47.2516" lon="-2.26827">
        <ele>117.19999694824</ele>
        <time>2020-01-09T10:17:17.000Z</time>
      </trkpt>
      <trkpt lat="47.25154" lon="-2.26853">
        <ele>117.19999694824</ele>
        <time>2020-01-09T10:17:21.000Z</time>
      </trkpt>
      <trkpt lat="47.25152" lon="-2.26858">
        <ele>117.19999694824</ele>
        <time>2020-01-09T10:17:22.000Z</time>
      </trkpt>
      <trkpt lat="47.2515" lon="-2.26885">
        <ele>117.19999694824</ele>
        <time>2020-01-09T10:17:26.000Z</time>
      </trkpt>
      <trkpt lat="47.2515" lon="-2.26907">
        <ele>117.19999694824</ele>
        <time>2020-01-09T10:17:29.000Z</time>
      </trkpt>
      <trkpt lat="47.25148" lon="-2.26922">
        <ele>117.19999694824</ele>
        <time>2020-01-09T10:17:31.000Z</time>
      </trkpt>
      <trkpt lat="47.25149" lon="-2.26935">
        <ele>117.19999694824</ele>
        <time>2020-01-09T10:17:33.000Z</time>
      </trkpt>
      <trkpt lat="47.25154" lon="-2.26951">
        <ele>117.19999694824</ele>
        <time>2020-01-09T10:17:36.000Z</time>
      </trkpt>
      <trkpt lat="47.25156" lon="-2.26956">
        <ele>117.19999694824</ele>
        <time>2020-01-09T10:17:37.000Z</time>
      </trkpt>
      <trkpt lat="47.25161" lon="-2.26968">
        <ele>117.19999694824</ele>
        <time>2020-01-09T10:17:39.000Z</time>
      </trkpt>
      <trkpt lat="47.25167" lon="-2.26975">
        <ele>117.19999694824</ele>
        <time>2020-01-09T10:17:41.000Z</time>
      </trkpt>
      <trkpt lat="47.25171" lon="-2.26975">
        <ele>117.19999694824</ele>
        <time>2020-01-09T10:17:43.000Z</time>
      </trkpt>
      <trkpt lat="47.25173" lon="-2.26973">
        <ele>117.19999694824</ele>
        <time>2020-01-09T10:17:44.000Z</time>
      </trkpt>
      <trkpt lat="47.25176" lon="-2.26975">
        <ele>116.80000305176</ele>
        <time>2020-01-09T10:17:45.000Z</time>
      </trkpt>
      <trkpt lat="47.25178" lon="-2.26977">
        <ele>116.40000152588</ele>
        <time>2020-01-09T10:17:46.000Z</time>
      </trkpt>
      <trkpt lat="47.25179" lon="-2.26981">
        <ele>116</ele>
        <time>2020-01-09T10:17:47.000Z</time>
      </trkpt>
      <trkpt lat="47.2518" lon="-2.26985">
        <ele>115.19999694824</ele>
        <time>2020-01-09T10:17:48.000Z</time>
      </trkpt>
      <trkpt lat="47.25181" lon="-2.26996">
        <ele>115.19999694824</ele>
        <time>2020-01-09T10:17:50.000Z</time>
      </trkpt>
      <trkpt lat="47.25184" lon="-2.27009">
        <ele>115.19999694824</ele>
        <time>2020-01-09T10:17:52.000Z</time>
      </trkpt>
      <trkpt lat="47.25196" lon="-2.27046">
        <ele>115.19999694824</ele>
        <time>2020-01-09T10:17:58.000Z</time>
      </trkpt>
      <trkpt lat="47.25213" lon="-2.27072">
        <ele>115.19999694824</ele>
        <time>2020-01-09T10:18:02.000Z</time>
      </trkpt>
      <trkpt lat="47.25224" lon="-2.27092">
        <ele>115.19999694824</ele>
        <time>2020-01-09T10:18:05.000Z</time>
      </trkpt>
      <trkpt lat="47.25234" lon="-2.27113">
        <ele>115.19999694824</ele>
        <time>2020-01-09T10:18:08.000Z</time>
      </trkpt>
      <trkpt lat="47.25251" lon="-2.27143">
        <ele>116</ele>
        <time>2020-01-09T10:18:13.000Z</time>
      </trkpt>
      <trkpt lat="47.25256" lon="-2.27147">
        <ele>116.40000152588</ele>
        <time>2020-01-09T10:18:14.000Z</time>
      </trkpt>
      <trkpt lat="47.25259" lon="-2.27151">
        <ele>116.80000305176</ele>
        <time>2020-01-09T10:18:15.000Z</time>
      </trkpt>
      <trkpt lat="47.25263" lon="-2.27156">
        <ele>117.19999694824</ele>
        <time>2020-01-09T10:18:16.000Z</time>
      </trkpt>
      <trkpt lat="47.25266" lon="-2.27162">
        <ele>117.19999694824</ele>
        <time>2020-01-09T10:18:17.000Z</time>
      </trkpt>
      <trkpt lat="47.25283" lon="-2.2719">
        <ele>117.19999694824</ele>
        <time>2020-01-09T10:18:22.000Z</time>
      </trkpt>
      <trkpt lat="47.2529" lon="-2.27203">
        <ele>117.19999694824</ele>
        <time>2020-01-09T10:18:24.000Z</time>
      </trkpt>
      <trkpt lat="47.25297" lon="-2.27224">
        <ele>117.59999847412</ele>
        <time>2020-01-09T10:18:27.000Z</time>
      </trkpt>
      <trkpt lat="47.253" lon="-2.27232">
        <ele>118</ele>
        <time>2020-01-09T10:18:28.000Z</time>
      </trkpt>
      <trkpt lat="47.25304" lon="-2.27239">
        <ele>118.40000152588</ele>
        <time>2020-01-09T10:18:29.000Z</time>
      </trkpt>
      <trkpt lat="47.25308" lon="-2.27247">
        <ele>118.80000305176</ele>
        <time>2020-01-09T10:18:30.000Z</time>
      </trkpt>
      <trkpt lat="47.25313" lon="-2.27255">
        <ele>119.19999694824</ele>
        <time>2020-01-09T10:18:31.000Z</time>
      </trkpt>
      <trkpt lat="47.25317" lon="-2.27262">
        <ele>119.19999694824</ele>
        <time>2020-01-09T10:18:32.000Z</time>
      </trkpt>
      <trkpt lat="47.25331" lon="-2.27279">
        <ele>119.19999694824</ele>
        <time>2020-01-09T10:18:35.000Z</time>
      </trkpt>
      <trkpt lat="47.25337" lon="-2.27291">
        <ele>119.19999694824</ele>
        <time>2020-01-09T10:18:37.000Z</time>
      </trkpt>
      <trkpt lat="47.25342" lon="-2.27305">
        <ele>119.19999694824</ele>
        <time>2020-01-09T10:18:39.000Z</time>
      </trkpt>
      <trkpt lat="47.25343" lon="-2.27328">
        <ele>119.19999694824</ele>
        <time>2020-01-09T10:18:42.000Z</time>
      </trkpt>
      <trkpt lat="47.25343" lon="-2.27333">
        <ele>119.19999694824</ele>
        <time>2020-01-09T10:18:43.000Z</time>
      </trkpt>
      <trkpt lat="47.25347" lon="-2.27337">
        <ele>119.19999694824</ele>
        <time>2020-01-09T10:18:44.000Z</time>
      </trkpt>
      <trkpt lat="47.25351" lon="-2.2734">
        <ele>119.19999694824</ele>
        <time>2020-01-09T10:18:45.000Z</time>
      </trkpt>
      <trkpt lat="47.25366" lon="-2.27352">
        <ele>119.19999694824</ele>
        <time>2020-01-09T10:18:49.000Z</time>
      </trkpt>
      <trkpt lat="47.25368" lon="-2.27356">
        <ele>119.19999694824</ele>
        <time>2020-01-09T10:18:50.000Z</time>
      </trkpt>
      <trkpt lat="47.25375" lon="-2.27376">
        <ele>119.19999694824</ele>
        <time>2020-01-09T10:18:54.000Z</time>
      </trkpt>
      <trkpt lat="47.25386" lon="-2.27377">
        <ele>119.19999694824</ele>
        <time>2020-01-09T10:18:57.000Z</time>
      </trkpt>
      <trkpt lat="47.25393" lon="-2.27388">
        <ele>119.19999694824</ele>
        <time>2020-01-09T10:19:00.000Z</time>
      </trkpt>
      <trkpt lat="47.25401" lon="-2.27417">
        <ele>119.19999694824</ele>
        <time>2020-01-09T10:19:04.000Z</time>
      </trkpt>
      <trkpt lat="47.25403" lon="-2.27425">
        <ele>119.19999694824</ele>
        <time>2020-01-09T10:19:05.000Z</time>
      </trkpt>
      <trkpt lat="47.25418" lon="-2.27475">
        <ele>119.19999694824</ele>
        <time>2020-01-09T10:19:11.000Z</time>
      </trkpt>
      <trkpt lat="47.25422" lon="-2.27482">
        <ele>119.19999694824</ele>
        <time>2020-01-09T10:19:12.000Z</time>
      </trkpt>
      <trkpt lat="47.25434" lon="-2.27501">
        <ele>119.19999694824</ele>
        <time>2020-01-09T10:19:15.000Z</time>
      </trkpt>
      <trkpt lat="47.2544" lon="-2.27509">
        <ele>119.19999694824</ele>
        <time>2020-01-09T10:19:17.000Z</time>
      </trkpt>
      <trkpt lat="47.25443" lon="-2.27516">
        <ele>119.19999694824</ele>
        <time>2020-01-09T10:19:19.000Z</time>
      </trkpt>
      <trkpt lat="47.25448" lon="-2.27534">
        <ele>119.19999694824</ele>
        <time>2020-01-09T10:19:23.000Z</time>
      </trkpt>
      <trkpt lat="47.2545" lon="-2.2754">
        <ele>119.19999694824</ele>
        <time>2020-01-09T10:19:24.000Z</time>
      </trkpt>
      <trkpt lat="47.25456" lon="-2.27558">
        <ele>119.19999694824</ele>
        <time>2020-01-09T10:19:27.000Z</time>
      </trkpt>
      <trkpt lat="47.25459" lon="-2.2757">
        <ele>119.19999694824</ele>
        <time>2020-01-09T10:19:29.000Z</time>
      </trkpt>
      <trkpt lat="47.25468" lon="-2.27596">
        <ele>119.19999694824</ele>
        <time>2020-01-09T10:19:34.000Z</time>
      </trkpt>
      <trkpt lat="47.25485" lon="-2.27623">
        <ele>119.19999694824</ele>
        <time>2020-01-09T10:19:40.000Z</time>
      </trkpt>
      <trkpt lat="47.2549" lon="-2.27648">
        <ele>119.19999694824</ele>
        <time>2020-01-09T10:19:44.000Z</time>
      </trkpt>
      <trkpt lat="47.25496" lon="-2.27684">
        <ele>119.19999694824</ele>
        <time>2020-01-09T10:19:49.000Z</time>
      </trkpt>
      <trkpt lat="47.25503" lon="-2.27723">
        <ele>119.19999694824</ele>
        <time>2020-01-09T10:19:54.000Z</time>
      </trkpt>
      <trkpt lat="47.25505" lon="-2.2773">
        <ele>119.19999694824</ele>
        <time>2020-01-09T10:19:55.000Z</time>
      </trkpt>
      <trkpt lat="47.25512" lon="-2.2775">
        <ele>119.19999694824</ele>
        <time>2020-01-09T10:19:58.000Z</time>
      </trkpt>
      <trkpt lat="47.25515" lon="-2.27756">
        <ele>119.19999694824</ele>
        <time>2020-01-09T10:19:59.000Z</time>
      </trkpt>
      <trkpt lat="47.25535" lon="-2.27789">
        <ele>119.19999694824</ele>
        <time>2020-01-09T10:20:05.000Z</time>
      </trkpt>
      <trkpt lat="47.25556" lon="-2.27823">
        <ele>119.19999694824</ele>
        <time>2020-01-09T10:20:11.000Z</time>
      </trkpt>
      <trkpt lat="47.2558" lon="-2.27854">
        <ele>119.19999694824</ele>
        <time>2020-01-09T10:20:17.000Z</time>
      </trkpt>
      <trkpt lat="47.2561" lon="-2.27889">
        <ele>119.59999847412</ele>
        <time>2020-01-09T10:20:24.000Z</time>
      </trkpt>
      <trkpt lat="47.25615" lon="-2.27893">
        <ele>120</ele>
        <time>2020-01-09T10:20:25.000Z</time>
      </trkpt>
      <trkpt lat="47.25619" lon="-2.27898">
        <ele>120.40000152588</ele>
        <time>2020-01-09T10:20:26.000Z</time>
      </trkpt>
      <trkpt lat="47.25624" lon="-2.27902">
        <ele>120.80000305176</ele>
        <time>2020-01-09T10:20:27.000Z</time>
      </trkpt>
      <trkpt lat="47.25629" lon="-2.27906">
        <ele>121.19999694824</ele>
        <time>2020-01-09T10:20:28.000Z</time>
      </trkpt>
      <trkpt lat="47.25638" lon="-2.27914">
        <ele>121.19999694824</ele>
        <time>2020-01-09T10:20:30.000Z</time>
      </trkpt>
      <trkpt lat="47.25643" lon="-2.27918">
        <ele>121.19999694824</ele>
        <time>2020-01-09T10:20:31.000Z</time>
      </trkpt>
      <trkpt lat="47.25654" lon="-2.27936">
        <ele>121.19999694824</ele>
        <time>2020-01-09T10:20:34.000Z</time>
      </trkpt>
      <trkpt lat="47.25665" lon="-2.27954">
        <ele>121.19999694824</ele>
        <time>2020-01-09T10:20:37.000Z</time>
      </trkpt>
      <trkpt lat="47.25668" lon="-2.2796">
        <ele>121.19999694824</ele>
        <time>2020-01-09T10:20:38.000Z</time>
      </trkpt>
      <trkpt lat="47.25681" lon="-2.27985">
        <ele>121.19999694824</ele>
        <time>2020-01-09T10:20:42.000Z</time>
      </trkpt>
      <trkpt lat="47.25688" lon="-2.27995">
        <ele>121.19999694824</ele>
        <time>2020-01-09T10:20:44.000Z</time>
      </trkpt>
      <trkpt lat="47.25711" lon="-2.28022">
        <ele>121.19999694824</ele>
        <time>2020-01-09T10:20:50.000Z</time>
      </trkpt>
      <trkpt lat="47.25733" lon="-2.28046">
        <ele>121.19999694824</ele>
        <time>2020-01-09T10:20:55.000Z</time>
      </trkpt>
      <trkpt lat="47.25762" lon="-2.28076">
        <ele>121.19999694824</ele>
        <time>2020-01-09T10:21:01.000Z</time>
      </trkpt>
      <trkpt lat="47.25799" lon="-2.28108">
        <ele>121.19999694824</ele>
        <time>2020-01-09T10:21:08.000Z</time>
      </trkpt>
      <trkpt lat="47.25828" lon="-2.28135">
        <ele>121.19999694824</ele>
        <time>2020-01-09T10:21:14.000Z</time>
      </trkpt>
      <trkpt lat="47.25833" lon="-2.2814">
        <ele>121.80000305176</ele>
        <time>2020-01-09T10:21:15.000Z</time>
      </trkpt>
      <trkpt lat="47.25837" lon="-2.28145">
        <ele>122.19999694824</ele>
        <time>2020-01-09T10:21:16.000Z</time>
      </trkpt>
      <trkpt lat="47.25842" lon="-2.28149">
        <ele>122.59999847412</ele>
        <time>2020-01-09T10:21:17.000Z</time>
      </trkpt>
      <trkpt lat="47.25847" lon="-2.28154">
        <ele>123</ele>
        <time>2020-01-09T10:21:18.000Z</time>
      </trkpt>
      <trkpt lat="47.25851" lon="-2.28159">
        <ele>123.40000152588</ele>
        <time>2020-01-09T10:21:19.000Z</time>
      </trkpt>
      <trkpt lat="47.25874" lon="-2.28181">
        <ele>123.40000152588</ele>
        <time>2020-01-09T10:21:24.000Z</time>
      </trkpt>
      <trkpt lat="47.25895" lon="-2.28185">
        <ele>123.40000152588</ele>
        <time>2020-01-09T10:21:28.000Z</time>
      </trkpt>
      <trkpt lat="47.259" lon="-2.28185">
        <ele>123.40000152588</ele>
        <time>2020-01-09T10:21:29.000Z</time>
      </trkpt>
      <trkpt lat="47.25913" lon="-2.28188">
        <ele>123.40000152588</ele>
        <time>2020-01-09T10:21:32.000Z</time>
      </trkpt>
      <trkpt lat="47.25927" lon="-2.28185">
        <ele>123.40000152588</ele>
        <time>2020-01-09T10:21:36.000Z</time>
      </trkpt>
      <trkpt lat="47.25938" lon="-2.28181">
        <ele>123.40000152588</ele>
        <time>2020-01-09T10:21:38.000Z</time>
      </trkpt>
      <trkpt lat="47.25949" lon="-2.28182">
        <ele>123.40000152588</ele>
        <time>2020-01-09T10:21:40.000Z</time>
      </trkpt>
      <trkpt lat="47.25963" lon="-2.28197">
        <ele>123.40000152588</ele>
        <time>2020-01-09T10:21:43.000Z</time>
      </trkpt>
      <trkpt lat="47.25972" lon="-2.28217">
        <ele>123.40000152588</ele>
        <time>2020-01-09T10:21:46.000Z</time>
      </trkpt>
      <trkpt lat="47.25975" lon="-2.28224">
        <ele>123.40000152588</ele>
        <time>2020-01-09T10:21:47.000Z</time>
      </trkpt>
      <trkpt lat="47.25978" lon="-2.28229">
        <ele>123.40000152588</ele>
        <time>2020-01-09T10:21:48.000Z</time>
      </trkpt>
      <trkpt lat="47.25986" lon="-2.28237">
        <ele>123.40000152588</ele>
        <time>2020-01-09T10:21:50.000Z</time>
      </trkpt>
      <trkpt lat="47.26001" lon="-2.28243">
        <ele>123.40000152588</ele>
        <time>2020-01-09T10:21:53.000Z</time>
      </trkpt>
      <trkpt lat="47.26007" lon="-2.28245">
        <ele>123.40000152588</ele>
        <time>2020-01-09T10:21:54.000Z</time>
      </trkpt>
      <trkpt lat="47.26037" lon="-2.28264">
        <ele>123.40000152588</ele>
        <time>2020-01-09T10:21:59.000Z</time>
      </trkpt>
      <trkpt lat="47.26069" lon="-2.28287">
        <ele>123.40000152588</ele>
        <time>2020-01-09T10:22:04.000Z</time>
      </trkpt>
      <trkpt lat="47.26106" lon="-2.28323">
        <ele>123.40000152588</ele>
        <time>2020-01-09T10:22:10.000Z</time>
      </trkpt>
      <trkpt lat="47.26151" lon="-2.28365">
        <ele>123.40000152588</ele>
        <time>2020-01-09T10:22:17.000Z</time>
      </trkpt>
      <trkpt lat="47.26189" lon="-2.28405">
        <ele>123.40000152588</ele>
        <time>2020-01-09T10:22:23.000Z</time>
      </trkpt>
      <trkpt lat="47.26228" lon="-2.28439">
        <ele>123.40000152588</ele>
        <time>2020-01-09T10:22:29.000Z</time>
      </trkpt>
      <trkpt lat="47.26274" lon="-2.28474">
        <ele>123.40000152588</ele>
        <time>2020-01-09T10:22:36.000Z</time>
      </trkpt>
      <trkpt lat="47.26313" lon="-2.28501">
        <ele>123.40000152588</ele>
        <time>2020-01-09T10:22:42.000Z</time>
      </trkpt>
      <trkpt lat="47.26354" lon="-2.28533">
        <ele>123.40000152588</ele>
        <time>2020-01-09T10:22:49.000Z</time>
      </trkpt>
      <trkpt lat="47.26393" lon="-2.28558">
        <ele>123.40000152588</ele>
        <time>2020-01-09T10:22:55.000Z</time>
      </trkpt>
      <trkpt lat="47.26435" lon="-2.28583">
        <ele>123.40000152588</ele>
        <time>2020-01-09T10:23:01.000Z</time>
      </trkpt>
      <trkpt lat="47.26474" lon="-2.28601">
        <ele>123.40000152588</ele>
        <time>2020-01-09T10:23:07.000Z</time>
      </trkpt>
      <trkpt lat="47.26493" lon="-2.28611">
        <ele>123.40000152588</ele>
        <time>2020-01-09T10:23:10.000Z</time>
      </trkpt>
      <trkpt lat="47.26511" lon="-2.28627">
        <ele>123.40000152588</ele>
        <time>2020-01-09T10:23:13.000Z</time>
      </trkpt>
      <trkpt lat="47.26517" lon="-2.28634">
        <ele>123.40000152588</ele>
        <time>2020-01-09T10:23:14.000Z</time>
      </trkpt>
      <trkpt lat="47.26522" lon="-2.28641">
        <ele>123.40000152588</ele>
        <time>2020-01-09T10:23:15.000Z</time>
      </trkpt>
      <trkpt lat="47.26537" lon="-2.28664">
        <ele>123.40000152588</ele>
        <time>2020-01-09T10:23:18.000Z</time>
      </trkpt>
      <trkpt lat="47.26572" lon="-2.28701">
        <ele>123.40000152588</ele>
        <time>2020-01-09T10:23:24.000Z</time>
      </trkpt>
      <trkpt lat="47.26588" lon="-2.28717">
        <ele>123.40000152588</ele>
        <time>2020-01-09T10:23:27.000Z</time>
      </trkpt>
      <trkpt lat="47.26598" lon="-2.28729">
        <ele>123.40000152588</ele>
        <time>2020-01-09T10:23:29.000Z</time>
      </trkpt>
      <trkpt lat="47.26626" lon="-2.28755">
        <ele>123.40000152588</ele>
        <time>2020-01-09T10:23:34.000Z</time>
      </trkpt>
      <trkpt lat="47.26642" lon="-2.28771">
        <ele>123.40000152588</ele>
        <time>2020-01-09T10:23:38.000Z</time>
      </trkpt>
      <trkpt lat="47.26653" lon="-2.28782">
        <ele>123.40000152588</ele>
        <time>2020-01-09T10:23:43.000Z</time>
      </trkpt>
      <trkpt lat="47.26656" lon="-2.28787">
        <ele>123.40000152588</ele>
        <time>2020-01-09T10:23:47.000Z</time>
      </trkpt>
      <trkpt lat="47.26657" lon="-2.28789">
        <ele>123.40000152588</ele>
        <time>2020-01-09T10:24:05.000Z</time>
      </trkpt>
      <trkpt lat="47.2666" lon="-2.28793">
        <ele>123.40000152588</ele>
        <time>2020-01-09T10:24:07.000Z</time>
      </trkpt>
      <trkpt lat="47.2667" lon="-2.28802">
        <ele>123.40000152588</ele>
        <time>2020-01-09T10:24:10.000Z</time>
      </trkpt>
      <trkpt lat="47.26673" lon="-2.28806">
        <ele>123.40000152588</ele>
        <time>2020-01-09T10:24:11.000Z</time>
      </trkpt>
      <trkpt lat="47.26698" lon="-2.28831">
        <ele>123.40000152588</ele>
        <time>2020-01-09T10:24:16.000Z</time>
      </trkpt>
      <trkpt lat="47.26732" lon="-2.28861">
        <ele>123.40000152588</ele>
        <time>2020-01-09T10:24:22.000Z</time>
      </trkpt>
      <trkpt lat="47.26767" lon="-2.28893">
        <ele>123.40000152588</ele>
        <time>2020-01-09T10:24:28.000Z</time>
      </trkpt>
      <trkpt lat="47.26806" lon="-2.28919">
        <ele>123.40000152588</ele>
        <time>2020-01-09T10:24:34.000Z</time>
      </trkpt>
      <trkpt lat="47.26844" lon="-2.28942">
        <ele>123.40000152588</ele>
        <time>2020-01-09T10:24:40.000Z</time>
      </trkpt>
      <trkpt lat="47.26888" lon="-2.28967">
        <ele>123.40000152588</ele>
        <time>2020-01-09T10:24:47.000Z</time>
      </trkpt>
      <trkpt lat="47.26926" lon="-2.28985">
        <ele>123.40000152588</ele>
        <time>2020-01-09T10:24:53.000Z</time>
      </trkpt>
      <trkpt lat="47.26961" lon="-2.28995">
        <ele>123.40000152588</ele>
        <time>2020-01-09T10:24:58.000Z</time>
      </trkpt>
      <trkpt lat="47.27009" lon="-2.29011">
        <ele>123.40000152588</ele>
        <time>2020-01-09T10:25:05.000Z</time>
      </trkpt>
      <trkpt lat="47.27025" lon="-2.29014">
        <ele>123.40000152588</ele>
        <time>2020-01-09T10:25:08.000Z</time>
      </trkpt>
      <trkpt lat="47.2703" lon="-2.29015">
        <ele>123.40000152588</ele>
        <time>2020-01-09T10:25:09.000Z</time>
      </trkpt>
      <trkpt lat="47.27038" lon="-2.29027">
        <ele>123.40000152588</ele>
        <time>2020-01-09T10:25:12.000Z</time>
      </trkpt>
      <trkpt lat="47.27043" lon="-2.29038">
        <ele>123.40000152588</ele>
        <time>2020-01-09T10:25:14.000Z</time>
      </trkpt>
      <trkpt lat="47.27049" lon="-2.2905">
        <ele>123.40000152588</ele>
        <time>2020-01-09T10:25:16.000Z</time>
      </trkpt>
      <trkpt lat="47.27053" lon="-2.29054">
        <ele>123.40000152588</ele>
        <time>2020-01-09T10:25:17.000Z</time>
      </trkpt>
      <trkpt lat="47.27067" lon="-2.29062">
        <ele>123.40000152588</ele>
        <time>2020-01-09T10:25:20.000Z</time>
      </trkpt>
      <trkpt lat="47.27072" lon="-2.29064">
        <ele>123.40000152588</ele>
        <time>2020-01-09T10:25:21.000Z</time>
      </trkpt>
      <trkpt lat="47.27094" lon="-2.29071">
        <ele>123.40000152588</ele>
        <time>2020-01-09T10:25:25.000Z</time>
      </trkpt>
      <trkpt lat="47.271" lon="-2.29073">
        <ele>123.40000152588</ele>
        <time>2020-01-09T10:25:26.000Z</time>
      </trkpt>
      <trkpt lat="47.27138" lon="-2.29092">
        <ele>123.40000152588</ele>
        <time>2020-01-09T10:25:32.000Z</time>
      </trkpt>
      <trkpt lat="47.27164" lon="-2.29108">
        <ele>123.40000152588</ele>
        <time>2020-01-09T10:25:37.000Z</time>
      </trkpt>
      <trkpt lat="47.2718" lon="-2.29114">
        <ele>123.40000152588</ele>
        <time>2020-01-09T10:25:40.000Z</time>
      </trkpt>
      <trkpt lat="47.27186" lon="-2.29112">
        <ele>123.40000152588</ele>
        <time>2020-01-09T10:25:41.000Z</time>
      </trkpt>
      <trkpt lat="47.27202" lon="-2.291">
        <ele>123.40000152588</ele>
        <time>2020-01-09T10:25:44.000Z</time>
      </trkpt>
      <trkpt lat="47.27207" lon="-2.29095">
        <ele>123.40000152588</ele>
        <time>2020-01-09T10:25:45.000Z</time>
      </trkpt>
      <trkpt lat="47.27229" lon="-2.29072">
        <ele>123.40000152588</ele>
        <time>2020-01-09T10:25:50.000Z</time>
      </trkpt>
      <trkpt lat="47.27233" lon="-2.29068">
        <ele>123.40000152588</ele>
        <time>2020-01-09T10:25:51.000Z</time>
      </trkpt>
      <trkpt lat="47.27247" lon="-2.29057">
        <ele>123.40000152588</ele>
        <time>2020-01-09T10:25:54.000Z</time>
      </trkpt>
      <trkpt lat="47.27254" lon="-2.29047">
        <ele>123.40000152588</ele>
        <time>2020-01-09T10:25:56.000Z</time>
      </trkpt>
      <trkpt lat="47.27264" lon="-2.29032">
        <ele>123.40000152588</ele>
        <time>2020-01-09T10:25:59.000Z</time>
      </trkpt>
      <trkpt lat="47.27269" lon="-2.29018">
        <ele>123.40000152588</ele>
        <time>2020-01-09T10:26:01.000Z</time>
      </trkpt>
      <trkpt lat="47.27277" lon="-2.29003">
        <ele>123.40000152588</ele>
        <time>2020-01-09T10:26:04.000Z</time>
      </trkpt>
      <trkpt lat="47.27279" lon="-2.28999">
        <ele>123.40000152588</ele>
        <time>2020-01-09T10:26:05.000Z</time>
      </trkpt>
      <trkpt lat="47.27293" lon="-2.28984">
        <ele>123.40000152588</ele>
        <time>2020-01-09T10:26:10.000Z</time>
      </trkpt>
      <trkpt lat="47.27302" lon="-2.28973">
        <ele>123.40000152588</ele>
        <time>2020-01-09T10:26:15.000Z</time>
      </trkpt>
      <trkpt lat="47.27303" lon="-2.28971">
        <ele>123.40000152588</ele>
        <time>2020-01-09T10:26:16.000Z</time>
      </trkpt>
      <trkpt lat="47.27307" lon="-2.28964">
        <ele>123.40000152588</ele>
        <time>2020-01-09T10:26:19.000Z</time>
      </trkpt>
      <trkpt lat="47.27316" lon="-2.28957">
        <ele>123.40000152588</ele>
        <time>2020-01-09T10:26:22.000Z</time>
      </trkpt>
      <trkpt lat="47.27324" lon="-2.28959">
        <ele>123.40000152588</ele>
        <time>2020-01-09T10:26:24.000Z</time>
      </trkpt>
      <trkpt lat="47.2733" lon="-2.2896">
        <ele>123.40000152588</ele>
        <time>2020-01-09T10:26:25.000Z</time>
      </trkpt>
      <trkpt lat="47.27335" lon="-2.28957">
        <ele>123.40000152588</ele>
        <time>2020-01-09T10:26:26.000Z</time>
      </trkpt>
      <trkpt lat="47.27338" lon="-2.28953">
        <ele>123.40000152588</ele>
        <time>2020-01-09T10:26:27.000Z</time>
      </trkpt>
      <trkpt lat="47.27342" lon="-2.28934">
        <ele>123.40000152588</ele>
        <time>2020-01-09T10:26:30.000Z</time>
      </trkpt>
      <trkpt lat="47.27345" lon="-2.28928">
        <ele>123.40000152588</ele>
        <time>2020-01-09T10:26:31.000Z</time>
      </trkpt>
      <trkpt lat="47.27349" lon="-2.28914">
        <ele>123.40000152588</ele>
        <time>2020-01-09T10:26:33.000Z</time>
      </trkpt>
      <trkpt lat="47.27352" lon="-2.28894">
        <ele>123.40000152588</ele>
        <time>2020-01-09T10:26:35.000Z</time>
      </trkpt>
      <trkpt lat="47.27361" lon="-2.28848">
        <ele>123.40000152588</ele>
        <time>2020-01-09T10:26:40.000Z</time>
      </trkpt>
      <trkpt lat="47.27363" lon="-2.28838">
        <ele>123.40000152588</ele>
        <time>2020-01-09T10:26:41.000Z</time>
      </trkpt>
      <trkpt lat="47.27378" lon="-2.28795">
        <ele>123.40000152588</ele>
        <time>2020-01-09T10:26:46.000Z</time>
      </trkpt>
      <trkpt lat="47.27404" lon="-2.28741">
        <ele>123.40000152588</ele>
        <time>2020-01-09T10:26:53.000Z</time>
      </trkpt>
      <trkpt lat="47.27422" lon="-2.28702">
        <ele>123.40000152588</ele>
        <time>2020-01-09T10:26:58.000Z</time>
      </trkpt>
      <trkpt lat="47.27426" lon="-2.28695">
        <ele>123.40000152588</ele>
        <time>2020-01-09T10:26:59.000Z</time>
      </trkpt>
      <trkpt lat="47.27441" lon="-2.28665">
        <ele>123.40000152588</ele>
        <time>2020-01-09T10:27:03.000Z</time>
      </trkpt>
      <trkpt lat="47.27445" lon="-2.28658">
        <ele>123.40000152588</ele>
        <time>2020-01-09T10:27:04.000Z</time>
      </trkpt>
      <trkpt lat="47.27448" lon="-2.28651">
        <ele>123.40000152588</ele>
        <time>2020-01-09T10:27:05.000Z</time>
      </trkpt>
      <trkpt lat="47.27452" lon="-2.28637">
        <ele>123.40000152588</ele>
        <time>2020-01-09T10:27:07.000Z</time>
      </trkpt>
      <trkpt lat="47.27455" lon="-2.28631">
        <ele>123.40000152588</ele>
        <time>2020-01-09T10:27:08.000Z</time>
      </trkpt>
      <trkpt lat="47.27467" lon="-2.28613">
        <ele>123.40000152588</ele>
        <time>2020-01-09T10:27:12.000Z</time>
      </trkpt>
      <trkpt lat="47.27481" lon="-2.28625">
        <ele>123.40000152588</ele>
        <time>2020-01-09T10:27:15.000Z</time>
      </trkpt>
      <trkpt lat="47.27484" lon="-2.28632">
        <ele>123.40000152588</ele>
        <time>2020-01-09T10:27:16.000Z</time>
      </trkpt>
      <trkpt lat="47.27493" lon="-2.28652">
        <ele>123</ele>
        <time>2020-01-09T10:27:19.000Z</time>
      </trkpt>
      <trkpt lat="47.27496" lon="-2.28659">
        <ele>122.59999847412</ele>
        <time>2020-01-09T10:27:20.000Z</time>
      </trkpt>
      <trkpt lat="47.275" lon="-2.28665">
        <ele>122.19999694824</ele>
        <time>2020-01-09T10:27:21.000Z</time>
      </trkpt>
      <trkpt lat="47.27504" lon="-2.28671">
        <ele>121.80000305176</ele>
        <time>2020-01-09T10:27:22.000Z</time>
      </trkpt>
      <trkpt lat="47.27508" lon="-2.28676">
        <ele>121.40000152588</ele>
        <time>2020-01-09T10:27:23.000Z</time>
      </trkpt>
      <trkpt lat="47.2752" lon="-2.2869">
        <ele>121.40000152588</ele>
        <time>2020-01-09T10:27:26.000Z</time>
      </trkpt>
      <trkpt lat="47.27525" lon="-2.28695">
        <ele>121.40000152588</ele>
        <time>2020-01-09T10:27:27.000Z</time>
      </trkpt>
      <trkpt lat="47.2754" lon="-2.28707">
        <ele>121.40000152588</ele>
        <time>2020-01-09T10:27:30.000Z</time>
      </trkpt>
      <trkpt lat="47.27545" lon="-2.2871">
        <ele>121.40000152588</ele>
        <time>2020-01-09T10:27:31.000Z</time>
      </trkpt>
      <trkpt lat="47.27558" lon="-2.28717">
        <ele>121.40000152588</ele>
        <time>2020-01-09T10:27:33.000Z</time>
      </trkpt>
      <trkpt lat="47.27597" lon="-2.2874">
        <ele>121.40000152588</ele>
        <time>2020-01-09T10:27:39.000Z</time>
      </trkpt>
      <trkpt lat="47.27636" lon="-2.28755">
        <ele>121.40000152588</ele>
        <time>2020-01-09T10:27:45.000Z</time>
      </trkpt>
      <trkpt lat="47.27643" lon="-2.28756">
        <ele>121.40000152588</ele>
        <time>2020-01-09T10:27:46.000Z</time>
      </trkpt>
      <trkpt lat="47.27668" lon="-2.28768">
        <ele>121.40000152588</ele>
        <time>2020-01-09T10:27:50.000Z</time>
      </trkpt>
      <trkpt lat="47.27675" lon="-2.28773">
        <ele>121.40000152588</ele>
        <time>2020-01-09T10:27:51.000Z</time>
      </trkpt>
      <trkpt lat="47.27694" lon="-2.28796">
        <ele>121.40000152588</ele>
        <time>2020-01-09T10:27:55.000Z</time>
      </trkpt>
      <trkpt lat="47.27697" lon="-2.28815">
        <ele>121.40000152588</ele>
        <time>2020-01-09T10:27:58.000Z</time>
      </trkpt>
      <trkpt lat="47.27685" lon="-2.28825">
        <ele>121.40000152588</ele>
        <time>2020-01-09T10:28:01.000Z</time>
      </trkpt>
      <trkpt lat="47.27675" lon="-2.28829">
        <ele>121.40000152588</ele>
        <time>2020-01-09T10:28:03.000Z</time>
      </trkpt>
      <trkpt lat="47.27665" lon="-2.28834">
        <ele>121.40000152588</ele>
        <time>2020-01-09T10:28:05.000Z</time>
      </trkpt>
      <trkpt lat="47.27636" lon="-2.28847">
        <ele>121.40000152588</ele>
        <time>2020-01-09T10:28:10.000Z</time>
      </trkpt>
      <trkpt lat="47.27605" lon="-2.2886">
        <ele>121.40000152588</ele>
        <time>2020-01-09T10:28:15.000Z</time>
      </trkpt>
      <trkpt lat="47.27599" lon="-2.28863">
        <ele>121.40000152588</ele>
        <time>2020-01-09T10:28:16.000Z</time>
      </trkpt>
      <trkpt lat="47.27567" lon="-2.28884">
        <ele>121.40000152588</ele>
        <time>2020-01-09T10:28:22.000Z</time>
      </trkpt>
      <trkpt lat="47.27555" lon="-2.2889">
        <ele>121.40000152588</ele>
        <time>2020-01-09T10:28:24.000Z</time>
      </trkpt>
      <trkpt lat="47.27537" lon="-2.28899">
        <ele>121.40000152588</ele>
        <time>2020-01-09T10:28:27.000Z</time>
      </trkpt>
      <trkpt lat="47.27533" lon="-2.28901">
        <ele>121.40000152588</ele>
        <time>2020-01-09T10:28:28.000Z</time>
      </trkpt>
      <trkpt lat="47.27518" lon="-2.28911">
        <ele>121.40000152588</ele>
        <time>2020-01-09T10:28:31.000Z</time>
      </trkpt>
      <trkpt lat="47.27513" lon="-2.28915">
        <ele>121.40000152588</ele>
        <time>2020-01-09T10:28:32.000Z</time>
      </trkpt>
      <trkpt lat="47.27503" lon="-2.28923">
        <ele>121.40000152588</ele>
        <time>2020-01-09T10:28:34.000Z</time>
      </trkpt>
      <trkpt lat="47.27493" lon="-2.2893">
        <ele>121.40000152588</ele>
        <time>2020-01-09T10:28:36.000Z</time>
      </trkpt>
      <trkpt lat="47.27483" lon="-2.2894">
        <ele>121.40000152588</ele>
        <time>2020-01-09T10:28:38.000Z</time>
      </trkpt>
      <trkpt lat="47.27468" lon="-2.28959">
        <ele>121.40000152588</ele>
        <time>2020-01-09T10:28:41.000Z</time>
      </trkpt>
      <trkpt lat="47.27451" lon="-2.29002">
        <ele>121.40000152588</ele>
        <time>2020-01-09T10:28:46.000Z</time>
      </trkpt>
      <trkpt lat="47.27434" lon="-2.29027">
        <ele>121.40000152588</ele>
        <time>2020-01-09T10:28:50.000Z</time>
      </trkpt>
      <trkpt lat="47.27417" lon="-2.29034">
        <ele>121.40000152588</ele>
        <time>2020-01-09T10:28:53.000Z</time>
      </trkpt>
      <trkpt lat="47.2741" lon="-2.29035">
        <ele>121.40000152588</ele>
        <time>2020-01-09T10:28:54.000Z</time>
      </trkpt>
      <trkpt lat="47.27385" lon="-2.29037">
        <ele>121.40000152588</ele>
        <time>2020-01-09T10:28:58.000Z</time>
      </trkpt>
      <trkpt lat="47.27366" lon="-2.29033">
        <ele>121.40000152588</ele>
        <time>2020-01-09T10:29:01.000Z</time>
      </trkpt>
      <trkpt lat="47.27361" lon="-2.29033">
        <ele>121.40000152588</ele>
        <time>2020-01-09T10:29:02.000Z</time>
      </trkpt>
      <trkpt lat="47.27334" lon="-2.29037">
        <ele>121.40000152588</ele>
        <time>2020-01-09T10:29:07.000Z</time>
      </trkpt>
      <trkpt lat="47.27329" lon="-2.29041">
        <ele>121.40000152588</ele>
        <time>2020-01-09T10:29:08.000Z</time>
      </trkpt>
      <trkpt lat="47.27322" lon="-2.2906">
        <ele>121.40000152588</ele>
        <time>2020-01-09T10:29:11.000Z</time>
      </trkpt>
      <trkpt lat="47.2732" lon="-2.29067">
        <ele>121.40000152588</ele>
        <time>2020-01-09T10:29:12.000Z</time>
      </trkpt>
      <trkpt lat="47.27313" lon="-2.29103">
        <ele>121.40000152588</ele>
        <time>2020-01-09T10:29:17.000Z</time>
      </trkpt>
      <trkpt lat="47.27312" lon="-2.29111">
        <ele>121.40000152588</ele>
        <time>2020-01-09T10:29:18.000Z</time>
      </trkpt>
      <trkpt lat="47.27305" lon="-2.29141">
        <ele>121.40000152588</ele>
        <time>2020-01-09T10:29:23.000Z</time>
      </trkpt>
      <trkpt lat="47.273" lon="-2.29167">
        <ele>121.40000152588</ele>
        <time>2020-01-09T10:29:29.000Z</time>
      </trkpt>
      <trkpt lat="47.273" lon="-2.2917">
        <ele>121.40000152588</ele>
        <time>2020-01-09T10:29:30.000Z</time>
      </trkpt>
      <trkpt lat="47.273" lon="-2.29172">
        <ele>121.40000152588</ele>
        <time>2020-01-09T10:29:32.000Z</time>
      </trkpt>
      <trkpt lat="47.273" lon="-2.29175">
        <ele>121.40000152588</ele>
        <time>2020-01-09T10:29:41.000Z</time>
      </trkpt>
      <trkpt lat="47.27295" lon="-2.29194">
        <ele>121.40000152588</ele>
        <time>2020-01-09T10:29:47.000Z</time>
      </trkpt>
      <trkpt lat="47.27291" lon="-2.29218">
        <ele>121.40000152588</ele>
        <time>2020-01-09T10:29:53.000Z</time>
      </trkpt>
      <trkpt lat="47.27288" lon="-2.29244">
        <ele>121.40000152588</ele>
        <time>2020-01-09T10:29:59.000Z</time>
      </trkpt>
      <trkpt lat="47.27281" lon="-2.29284">
        <ele>121.40000152588</ele>
        <time>2020-01-09T10:30:06.000Z</time>
      </trkpt>
      <trkpt lat="47.27276" lon="-2.29323">
        <ele>121.40000152588</ele>
        <time>2020-01-09T10:30:12.000Z</time>
      </trkpt>
      <trkpt lat="47.27271" lon="-2.29368">
        <ele>121.40000152588</ele>
        <time>2020-01-09T10:30:19.000Z</time>
      </trkpt>
      <trkpt lat="47.27267" lon="-2.29402">
        <ele>121.40000152588</ele>
        <time>2020-01-09T10:30:25.000Z</time>
      </trkpt>
      <trkpt lat="47.27259" lon="-2.2945">
        <ele>121.40000152588</ele>
        <time>2020-01-09T10:30:32.000Z</time>
      </trkpt>
      <trkpt lat="47.27254" lon="-2.29496">
        <ele>121.40000152588</ele>
        <time>2020-01-09T10:30:39.000Z</time>
      </trkpt>
      <trkpt lat="47.27251" lon="-2.29525">
        <ele>121.40000152588</ele>
        <time>2020-01-09T10:30:44.000Z</time>
      </trkpt>
      <trkpt lat="47.27252" lon="-2.29563">
        <ele>121.40000152588</ele>
        <time>2020-01-09T10:30:50.000Z</time>
      </trkpt>
      <trkpt lat="47.27253" lon="-2.29575">
        <ele>121.40000152588</ele>
        <time>2020-01-09T10:30:52.000Z</time>
      </trkpt>
      <trkpt lat="47.27256" lon="-2.29594">
        <ele>121.40000152588</ele>
        <time>2020-01-09T10:30:55.000Z</time>
      </trkpt>
      <trkpt lat="47.27263" lon="-2.29633">
        <ele>121.40000152588</ele>
        <time>2020-01-09T10:31:02.000Z</time>
      </trkpt>
      <trkpt lat="47.2727" lon="-2.29656">
        <ele>121.40000152588</ele>
        <time>2020-01-09T10:31:07.000Z</time>
      </trkpt>
      <trkpt lat="47.27269" lon="-2.29664">
        <ele>121.40000152588</ele>
        <time>2020-01-09T10:31:08.000Z</time>
      </trkpt>
      <trkpt lat="47.27271" lon="-2.29678">
        <ele>121.40000152588</ele>
        <time>2020-01-09T10:31:10.000Z</time>
      </trkpt>
      <trkpt lat="47.27277" lon="-2.29708">
        <ele>121.40000152588</ele>
        <time>2020-01-09T10:31:14.000Z</time>
      </trkpt>
      <trkpt lat="47.27279" lon="-2.29714">
        <ele>121.40000152588</ele>
        <time>2020-01-09T10:31:15.000Z</time>
      </trkpt>
      <trkpt lat="47.27295" lon="-2.29769">
        <ele>121.40000152588</ele>
        <time>2020-01-09T10:31:22.000Z</time>
      </trkpt>
      <trkpt lat="47.27303" lon="-2.29792">
        <ele>121</ele>
        <time>2020-01-09T10:31:25.000Z</time>
      </trkpt>
      <trkpt lat="47.27307" lon="-2.298">
        <ele>120.40000152588</ele>
        <time>2020-01-09T10:31:26.000Z</time>
      </trkpt>
      <trkpt lat="47.27311" lon="-2.29807">
        <ele>120</ele>
        <time>2020-01-09T10:31:27.000Z</time>
      </trkpt>
      <trkpt lat="47.27315" lon="-2.29813">
        <ele>119.59999847412</ele>
        <time>2020-01-09T10:31:28.000Z</time>
      </trkpt>
      <trkpt lat="47.27319" lon="-2.29818">
        <ele>119.19999694824</ele>
        <time>2020-01-09T10:31:29.000Z</time>
      </trkpt>
      <trkpt lat="47.27326" lon="-2.29829">
        <ele>119.19999694824</ele>
        <time>2020-01-09T10:31:31.000Z</time>
      </trkpt>
      <trkpt lat="47.2734" lon="-2.29853">
        <ele>119.19999694824</ele>
        <time>2020-01-09T10:31:35.000Z</time>
      </trkpt>
      <trkpt lat="47.27344" lon="-2.29859">
        <ele>119.19999694824</ele>
        <time>2020-01-09T10:31:36.000Z</time>
      </trkpt>
      <trkpt lat="47.27353" lon="-2.29877">
        <ele>119.19999694824</ele>
        <time>2020-01-09T10:31:39.000Z</time>
      </trkpt>
      <trkpt lat="47.2736" lon="-2.29891">
        <ele>119.19999694824</ele>
        <time>2020-01-09T10:31:41.000Z</time>
      </trkpt>
      <trkpt lat="47.27367" lon="-2.29912">
        <ele>119.19999694824</ele>
        <time>2020-01-09T10:31:44.000Z</time>
      </trkpt>
      <trkpt lat="47.27382" lon="-2.29948">
        <ele>119.19999694824</ele>
        <time>2020-01-09T10:31:49.000Z</time>
      </trkpt>
      <trkpt lat="47.2739" lon="-2.2997">
        <ele>119.19999694824</ele>
        <time>2020-01-09T10:31:52.000Z</time>
      </trkpt>
      <trkpt lat="47.274" lon="-2.2999">
        <ele>119.19999694824</ele>
        <time>2020-01-09T10:31:55.000Z</time>
      </trkpt>
      <trkpt lat="47.27402" lon="-2.29996">
        <ele>119.19999694824</ele>
        <time>2020-01-09T10:31:56.000Z</time>
      </trkpt>
      <trkpt lat="47.27412" lon="-2.3002">
        <ele>119.19999694824</ele>
        <time>2020-01-09T10:31:59.000Z</time>
      </trkpt>
      <trkpt lat="47.27414" lon="-2.30027">
        <ele>119.19999694824</ele>
        <time>2020-01-09T10:32:00.000Z</time>
      </trkpt>
      <trkpt lat="47.27426" lon="-2.30059">
        <ele>119.19999694824</ele>
        <time>2020-01-09T10:32:04.000Z</time>
      </trkpt>
      <trkpt lat="47.27436" lon="-2.30093">
        <ele>119.19999694824</ele>
        <time>2020-01-09T10:32:08.000Z</time>
      </trkpt>
      <trkpt lat="47.2744" lon="-2.3011">
        <ele>119.19999694824</ele>
        <time>2020-01-09T10:32:10.000Z</time>
      </trkpt>
      <trkpt lat="47.27451" lon="-2.30158">
        <ele>119.19999694824</ele>
        <time>2020-01-09T10:32:16.000Z</time>
      </trkpt>
      <trkpt lat="47.27458" lon="-2.30194">
        <ele>119.19999694824</ele>
        <time>2020-01-09T10:32:21.000Z</time>
      </trkpt>
      <trkpt lat="47.27458" lon="-2.30207">
        <ele>119.19999694824</ele>
        <time>2020-01-09T10:32:25.000Z</time>
      </trkpt>
      <trkpt lat="47.27445" lon="-2.30215">
        <ele>119.19999694824</ele>
        <time>2020-01-09T10:32:29.000Z</time>
      </trkpt>
      <trkpt lat="47.27441" lon="-2.30216">
        <ele>119.19999694824</ele>
        <time>2020-01-09T10:32:30.000Z</time>
      </trkpt>
      <trkpt lat="47.27424" lon="-2.30226">
        <ele>119.19999694824</ele>
        <time>2020-01-09T10:32:34.000Z</time>
      </trkpt>
      <trkpt lat="47.2742" lon="-2.30227">
        <ele>119.19999694824</ele>
        <time>2020-01-09T10:32:35.000Z</time>
      </trkpt>
      <trkpt lat="47.27401" lon="-2.30237">
        <ele>119.19999694824</ele>
        <time>2020-01-09T10:32:39.000Z</time>
      </trkpt>
      <trkpt lat="47.27391" lon="-2.30242">
        <ele>119.19999694824</ele>
        <time>2020-01-09T10:32:41.000Z</time>
      </trkpt>
      <trkpt lat="47.27383" lon="-2.30245">
        <ele>119.19999694824</ele>
        <time>2020-01-09T10:32:43.000Z</time>
      </trkpt>
      <trkpt lat="47.27363" lon="-2.3025">
        <ele>119.19999694824</ele>
        <time>2020-01-09T10:32:47.000Z</time>
      </trkpt>
      <trkpt lat="47.27357" lon="-2.30251">
        <ele>119.19999694824</ele>
        <time>2020-01-09T10:32:48.000Z</time>
      </trkpt>
      <trkpt lat="47.27334" lon="-2.30256">
        <ele>119.19999694824</ele>
        <time>2020-01-09T10:32:52.000Z</time>
      </trkpt>
      <trkpt lat="47.27328" lon="-2.30257">
        <ele>119.19999694824</ele>
        <time>2020-01-09T10:32:53.000Z</time>
      </trkpt>
      <trkpt lat="47.27295" lon="-2.3026">
        <ele>119.19999694824</ele>
        <time>2020-01-09T10:32:59.000Z</time>
      </trkpt>
      <trkpt lat="47.2729" lon="-2.3026">
        <ele>119.19999694824</ele>
        <time>2020-01-09T10:33:00.000Z</time>
      </trkpt>
      <trkpt lat="47.27273" lon="-2.30265">
        <ele>119.19999694824</ele>
        <time>2020-01-09T10:33:03.000Z</time>
      </trkpt>
      <trkpt lat="47.27268" lon="-2.30267">
        <ele>119.19999694824</ele>
        <time>2020-01-09T10:33:04.000Z</time>
      </trkpt>
      <trkpt lat="47.27256" lon="-2.30268">
        <ele>119.19999694824</ele>
        <time>2020-01-09T10:33:07.000Z</time>
      </trkpt>
      <trkpt lat="47.27244" lon="-2.30264">
        <ele>119.19999694824</ele>
        <time>2020-01-09T10:33:11.000Z</time>
      </trkpt>
      <trkpt lat="47.27235" lon="-2.30262">
        <ele>119.19999694824</ele>
        <time>2020-01-09T10:33:16.000Z</time>
      </trkpt>
      <trkpt lat="47.27228" lon="-2.30259">
        <ele>119.19999694824</ele>
        <time>2020-01-09T10:33:19.000Z</time>
      </trkpt>
      <trkpt lat="47.27219" lon="-2.30256">
        <ele>119.19999694824</ele>
        <time>2020-01-09T10:33:25.000Z</time>
      </trkpt>
      <trkpt lat="47.27217" lon="-2.30257">
        <ele>119.19999694824</ele>
        <time>2020-01-09T10:33:26.000Z</time>
      </trkpt>
      <trkpt lat="47.27207" lon="-2.30261">
        <ele>119.19999694824</ele>
        <time>2020-01-09T10:33:29.000Z</time>
      </trkpt>
      <trkpt lat="47.27194" lon="-2.30265">
        <ele>119.19999694824</ele>
        <time>2020-01-09T10:33:33.000Z</time>
      </trkpt>
      <trkpt lat="47.27182" lon="-2.30259">
        <ele>119.19999694824</ele>
        <time>2020-01-09T10:33:37.000Z</time>
      </trkpt>
      <trkpt lat="47.27179" lon="-2.30258">
        <ele>119.19999694824</ele>
        <time>2020-01-09T10:33:38.000Z</time>
      </trkpt>
      <trkpt lat="47.27166" lon="-2.30253">
        <ele>119.19999694824</ele>
        <time>2020-01-09T10:33:43.000Z</time>
      </trkpt>
      <trkpt lat="47.2716" lon="-2.30252">
        <ele>119.19999694824</ele>
        <time>2020-01-09T10:33:45.000Z</time>
      </trkpt>
      <trkpt lat="47.27148" lon="-2.30253">
        <ele>119.19999694824</ele>
        <time>2020-01-09T10:33:48.000Z</time>
      </trkpt>
      <trkpt lat="47.2713" lon="-2.30257">
        <ele>119.19999694824</ele>
        <time>2020-01-09T10:33:52.000Z</time>
      </trkpt>
      <trkpt lat="47.27125" lon="-2.30259">
        <ele>119.19999694824</ele>
        <time>2020-01-09T10:33:53.000Z</time>
      </trkpt>
      <trkpt lat="47.27104" lon="-2.30268">
        <ele>119.19999694824</ele>
        <time>2020-01-09T10:33:58.000Z</time>
      </trkpt>
      <trkpt lat="47.27089" lon="-2.30284">
        <ele>119.19999694824</ele>
        <time>2020-01-09T10:34:03.000Z</time>
      </trkpt>
      <trkpt lat="47.27082" lon="-2.30306">
        <ele>119.19999694824</ele>
        <time>2020-01-09T10:34:07.000Z</time>
      </trkpt>
      <trkpt lat="47.2708" lon="-2.30312">
        <ele>119.19999694824</ele>
        <time>2020-01-09T10:34:08.000Z</time>
      </trkpt>
      <trkpt lat="47.27075" lon="-2.30338">
        <ele>119.19999694824</ele>
        <time>2020-01-09T10:34:12.000Z</time>
      </trkpt>
      <trkpt lat="47.27072" lon="-2.30358">
        <ele>119.19999694824</ele>
        <time>2020-01-09T10:34:15.000Z</time>
      </trkpt>
      <trkpt lat="47.27066" lon="-2.30379">
        <ele>119.19999694824</ele>
        <time>2020-01-09T10:34:18.000Z</time>
      </trkpt>
      <trkpt lat="47.27058" lon="-2.30425">
        <ele>119.19999694824</ele>
        <time>2020-01-09T10:34:24.000Z</time>
      </trkpt>
      <trkpt lat="47.27054" lon="-2.30439">
        <ele>119.19999694824</ele>
        <time>2020-01-09T10:34:26.000Z</time>
      </trkpt>
      <trkpt lat="47.2705" lon="-2.30461">
        <ele>119.19999694824</ele>
        <time>2020-01-09T10:34:30.000Z</time>
      </trkpt>
      <trkpt lat="47.27048" lon="-2.30468">
        <ele>119.19999694824</ele>
        <time>2020-01-09T10:34:31.000Z</time>
      </trkpt>
      <trkpt lat="47.27044" lon="-2.30483">
        <ele>119.19999694824</ele>
        <time>2020-01-09T10:34:33.000Z</time>
      </trkpt>
      <trkpt lat="47.2704" lon="-2.30496">
        <ele>119.19999694824</ele>
        <time>2020-01-09T10:34:35.000Z</time>
      </trkpt>
      <trkpt lat="47.27038" lon="-2.30504">
        <ele>119.19999694824</ele>
        <time>2020-01-09T10:34:36.000Z</time>
      </trkpt>
      <trkpt lat="47.27029" lon="-2.30532">
        <ele>119.19999694824</ele>
        <time>2020-01-09T10:34:40.000Z</time>
      </trkpt>
      <trkpt lat="47.27014" lon="-2.30579">
        <ele>119.19999694824</ele>
        <time>2020-01-09T10:34:47.000Z</time>
      </trkpt>
      <trkpt lat="47.27012" lon="-2.30585">
        <ele>119.19999694824</ele>
        <time>2020-01-09T10:34:48.000Z</time>
      </trkpt>
      <trkpt lat="47.26999" lon="-2.306">
        <ele>119.19999694824</ele>
        <time>2020-01-09T10:34:51.000Z</time>
      </trkpt>
      <trkpt lat="47.26984" lon="-2.30611">
        <ele>119.19999694824</ele>
        <time>2020-01-09T10:34:54.000Z</time>
      </trkpt>
      <trkpt lat="47.26974" lon="-2.30617">
        <ele>119.19999694824</ele>
        <time>2020-01-09T10:34:56.000Z</time>
      </trkpt>
      <trkpt lat="47.26959" lon="-2.30624">
        <ele>119.19999694824</ele>
        <time>2020-01-09T10:34:59.000Z</time>
      </trkpt>
      <trkpt lat="47.2695" lon="-2.30628">
        <ele>119.19999694824</ele>
        <time>2020-01-09T10:35:01.000Z</time>
      </trkpt>
      <trkpt lat="47.26929" lon="-2.30634">
        <ele>119.19999694824</ele>
        <time>2020-01-09T10:35:07.000Z</time>
      </trkpt>
      <trkpt lat="47.26914" lon="-2.30643">
        <ele>119.19999694824</ele>
        <time>2020-01-09T10:35:12.000Z</time>
      </trkpt>
      <trkpt lat="47.26904" lon="-2.30657">
        <ele>119.19999694824</ele>
        <time>2020-01-09T10:35:17.000Z</time>
      </trkpt>
      <trkpt lat="47.26903" lon="-2.30668">
        <ele>119.19999694824</ele>
        <time>2020-01-09T10:35:21.000Z</time>
      </trkpt>
      <trkpt lat="47.26904" lon="-2.30669">
        <ele>119.19999694824</ele>
        <time>2020-01-09T10:35:22.000Z</time>
      </trkpt>
      <trkpt lat="47.26904" lon="-2.30669">
        <ele>119.19999694824</ele>
        <time>2020-01-09T10:35:23.000Z</time>
      </trkpt>
      <trkpt lat="47.26905" lon="-2.30671">
        <ele>113.19999694824</ele>
        <time>2020-01-09T10:36:12.000Z</time>
      </trkpt>
      <trkpt lat="47.26905" lon="-2.30673">
        <ele>113.19999694824</ele>
        <time>2020-01-09T10:36:13.000Z</time>
      </trkpt>
      <trkpt lat="47.26914" lon="-2.30684">
        <ele>113.19999694824</ele>
        <time>2020-01-09T10:36:18.000Z</time>
      </trkpt>
      <trkpt lat="47.26932" lon="-2.30709">
        <ele>113.19999694824</ele>
        <time>2020-01-09T10:36:25.000Z</time>
      </trkpt>
      <trkpt lat="47.26947" lon="-2.30733">
        <ele>113.19999694824</ele>
        <time>2020-01-09T10:36:30.000Z</time>
      </trkpt>
      <trkpt lat="47.26958" lon="-2.30748">
        <ele>113.19999694824</ele>
        <time>2020-01-09T10:36:33.000Z</time>
      </trkpt>
      <trkpt lat="47.2697" lon="-2.30763">
        <ele>113.19999694824</ele>
        <time>2020-01-09T10:36:36.000Z</time>
      </trkpt>
      <trkpt lat="47.26973" lon="-2.30768">
        <ele>113.19999694824</ele>
        <time>2020-01-09T10:36:37.000Z</time>
      </trkpt>
      <trkpt lat="47.26991" lon="-2.30793">
        <ele>113.19999694824</ele>
        <time>2020-01-09T10:36:42.000Z</time>
      </trkpt>
      <trkpt lat="47.27005" lon="-2.30813">
        <ele>113.19999694824</ele>
        <time>2020-01-09T10:36:47.000Z</time>
      </trkpt>
      <trkpt lat="47.27014" lon="-2.30832">
        <ele>113.19999694824</ele>
        <time>2020-01-09T10:36:52.000Z</time>
      </trkpt>
      <trkpt lat="47.27029" lon="-2.30853">
        <ele>113.19999694824</ele>
        <time>2020-01-09T10:36:57.000Z</time>
      </trkpt>
      <trkpt lat="47.27045" lon="-2.30877">
        <ele>113.19999694824</ele>
        <time>2020-01-09T10:37:02.000Z</time>
      </trkpt>
      <trkpt lat="47.27051" lon="-2.30891">
        <ele>113.19999694824</ele>
        <time>2020-01-09T10:37:06.000Z</time>
      </trkpt>
      <trkpt lat="47.27061" lon="-2.3091">
        <ele>113.19999694824</ele>
        <time>2020-01-09T10:37:11.000Z</time>
      </trkpt>
      <trkpt lat="47.27064" lon="-2.30921">
        <ele>113.19999694824</ele>
        <time>2020-01-09T10:37:15.000Z</time>
      </trkpt>
      <trkpt lat="47.27067" lon="-2.30938">
        <ele>113.19999694824</ele>
        <time>2020-01-09T10:37:20.000Z</time>
      </trkpt>
      <trkpt lat="47.27068" lon="-2.30966">
        <ele>113.19999694824</ele>
        <time>2020-01-09T10:37:26.000Z</time>
      </trkpt>
      <trkpt lat="47.27069" lon="-2.30977">
        <ele>113.19999694824</ele>
        <time>2020-01-09T10:37:28.000Z</time>
      </trkpt>
      <trkpt lat="47.27063" lon="-2.30987">
        <ele>113.19999694824</ele>
        <time>2020-01-09T10:37:30.000Z</time>
      </trkpt>
      <trkpt lat="47.27046" lon="-2.31">
        <ele>113.19999694824</ele>
        <time>2020-01-09T10:37:35.000Z</time>
      </trkpt>
      <trkpt lat="47.27032" lon="-2.31014">
        <ele>113.19999694824</ele>
        <time>2020-01-09T10:37:39.000Z</time>
      </trkpt>
      <trkpt lat="47.27014" lon="-2.31031">
        <ele>113.19999694824</ele>
        <time>2020-01-09T10:37:44.000Z</time>
      </trkpt>
      <trkpt lat="47.26999" lon="-2.31056">
        <ele>113.19999694824</ele>
        <time>2020-01-09T10:37:49.000Z</time>
      </trkpt>
      <trkpt lat="47.26998" lon="-2.31063">
        <ele>113.19999694824</ele>
        <time>2020-01-09T10:37:50.000Z</time>
      </trkpt>
      <trkpt lat="47.27" lon="-2.31077">
        <ele>113.19999694824</ele>
        <time>2020-01-09T10:37:52.000Z</time>
      </trkpt>
      <trkpt lat="47.27001" lon="-2.31092">
        <ele>113.19999694824</ele>
        <time>2020-01-09T10:37:54.000Z</time>
      </trkpt>
      <trkpt lat="47.27" lon="-2.31111">
        <ele>113.19999694824</ele>
        <time>2020-01-09T10:37:57.000Z</time>
      </trkpt>
      <trkpt lat="47.26996" lon="-2.31145">
        <ele>113.19999694824</ele>
        <time>2020-01-09T10:38:02.000Z</time>
      </trkpt>
      <trkpt lat="47.26991" lon="-2.3118">
        <ele>113.19999694824</ele>
        <time>2020-01-09T10:38:08.000Z</time>
      </trkpt>
      <trkpt lat="47.26989" lon="-2.31192">
        <ele>113.19999694824</ele>
        <time>2020-01-09T10:38:10.000Z</time>
      </trkpt>
      <trkpt lat="47.26984" lon="-2.31216">
        <ele>113.19999694824</ele>
        <time>2020-01-09T10:38:14.000Z</time>
      </trkpt>
      <trkpt lat="47.26982" lon="-2.31228">
        <ele>113.19999694824</ele>
        <time>2020-01-09T10:38:16.000Z</time>
      </trkpt>
      <trkpt lat="47.26983" lon="-2.31241">
        <ele>113.19999694824</ele>
        <time>2020-01-09T10:38:18.000Z</time>
      </trkpt>
      <trkpt lat="47.26983" lon="-2.31271">
        <ele>113.19999694824</ele>
        <time>2020-01-09T10:38:23.000Z</time>
      </trkpt>
      <trkpt lat="47.26984" lon="-2.313">
        <ele>113.19999694824</ele>
        <time>2020-01-09T10:38:28.000Z</time>
      </trkpt>
      <trkpt lat="47.26985" lon="-2.31317">
        <ele>113.19999694824</ele>
        <time>2020-01-09T10:38:31.000Z</time>
      </trkpt>
      <trkpt lat="47.26986" lon="-2.3133">
        <ele>113.19999694824</ele>
        <time>2020-01-09T10:38:33.000Z</time>
      </trkpt>
      <trkpt lat="47.26987" lon="-2.31353">
        <ele>113.19999694824</ele>
        <time>2020-01-09T10:38:36.000Z</time>
      </trkpt>
      <trkpt lat="47.26987" lon="-2.31361">
        <ele>113.19999694824</ele>
        <time>2020-01-09T10:38:37.000Z</time>
      </trkpt>
      <trkpt lat="47.26989" lon="-2.31389">
        <ele>113.19999694824</ele>
        <time>2020-01-09T10:38:40.000Z</time>
      </trkpt>
      <trkpt lat="47.26991" lon="-2.31408">
        <ele>113.19999694824</ele>
        <time>2020-01-09T10:38:42.000Z</time>
      </trkpt>
      <trkpt lat="47.26992" lon="-2.31435">
        <ele>113.19999694824</ele>
        <time>2020-01-09T10:38:45.000Z</time>
      </trkpt>
      <trkpt lat="47.26994" lon="-2.31452">
        <ele>113.19999694824</ele>
        <time>2020-01-09T10:38:47.000Z</time>
      </trkpt>
      <trkpt lat="47.26996" lon="-2.31461">
        <ele>113.19999694824</ele>
        <time>2020-01-09T10:38:48.000Z</time>
      </trkpt>
      <trkpt lat="47.26999" lon="-2.31485">
        <ele>113.19999694824</ele>
        <time>2020-01-09T10:38:51.000Z</time>
      </trkpt>
      <trkpt lat="47.2701" lon="-2.31533">
        <ele>113.19999694824</ele>
        <time>2020-01-09T10:38:56.000Z</time>
      </trkpt>
      <trkpt lat="47.27018" lon="-2.31561">
        <ele>113.19999694824</ele>
        <time>2020-01-09T10:38:59.000Z</time>
      </trkpt>
      <trkpt lat="47.27025" lon="-2.31577">
        <ele>113.19999694824</ele>
        <time>2020-01-09T10:39:01.000Z</time>
      </trkpt>
      <trkpt lat="47.2703" lon="-2.3159">
        <ele>113.19999694824</ele>
        <time>2020-01-09T10:39:03.000Z</time>
      </trkpt>
      <trkpt lat="47.27031" lon="-2.31597">
        <ele>113.19999694824</ele>
        <time>2020-01-09T10:39:04.000Z</time>
      </trkpt>
      <trkpt lat="47.27038" lon="-2.31625">
        <ele>113.19999694824</ele>
        <time>2020-01-09T10:39:08.000Z</time>
      </trkpt>
      <trkpt lat="47.27041" lon="-2.31661">
        <ele>113.19999694824</ele>
        <time>2020-01-09T10:39:12.000Z</time>
      </trkpt>
      <trkpt lat="47.27039" lon="-2.31676">
        <ele>113.19999694824</ele>
        <time>2020-01-09T10:39:14.000Z</time>
      </trkpt>
      <trkpt lat="47.27036" lon="-2.31687">
        <ele>113.19999694824</ele>
        <time>2020-01-09T10:39:16.000Z</time>
      </trkpt>
      <trkpt lat="47.27035" lon="-2.31692">
        <ele>112.59999847412</ele>
        <time>2020-01-09T10:39:17.000Z</time>
      </trkpt>
      <trkpt lat="47.27036" lon="-2.31697">
        <ele>112.19999694824</ele>
        <time>2020-01-09T10:39:18.000Z</time>
      </trkpt>
      <trkpt lat="47.27038" lon="-2.317">
        <ele>111.80000305176</ele>
        <time>2020-01-09T10:39:19.000Z</time>
      </trkpt>
      <trkpt lat="47.27041" lon="-2.31704">
        <ele>111.40000152588</ele>
        <time>2020-01-09T10:39:20.000Z</time>
      </trkpt>
      <trkpt lat="47.27043" lon="-2.31708">
        <ele>111</ele>
        <time>2020-01-09T10:39:21.000Z</time>
      </trkpt>
      <trkpt lat="47.27052" lon="-2.31718">
        <ele>111</ele>
        <time>2020-01-09T10:39:24.000Z</time>
      </trkpt>
      <trkpt lat="47.27069" lon="-2.31735">
        <ele>111</ele>
        <time>2020-01-09T10:39:29.000Z</time>
      </trkpt>
      <trkpt lat="47.27096" lon="-2.3176">
        <ele>111</ele>
        <time>2020-01-09T10:39:35.000Z</time>
      </trkpt>
      <trkpt lat="47.27107" lon="-2.3177">
        <ele>111</ele>
        <time>2020-01-09T10:39:39.000Z</time>
      </trkpt>
      <trkpt lat="47.27108" lon="-2.31771">
        <ele>111</ele>
        <time>2020-01-09T10:39:40.000Z</time>
      </trkpt>
      <trkpt lat="47.27109" lon="-2.31771">
        <ele>111</ele>
        <time>2020-01-09T10:39:42.000Z</time>
      </trkpt>
      <trkpt lat="47.27112" lon="-2.31775">
        <ele>111</ele>
        <time>2020-01-09T10:40:01.000Z</time>
      </trkpt>
      <trkpt lat="47.27126" lon="-2.31792">
        <ele>111</ele>
        <time>2020-01-09T10:40:07.000Z</time>
      </trkpt>
      <trkpt lat="47.27142" lon="-2.31819">
        <ele>110.59999847412</ele>
        <time>2020-01-09T10:40:13.000Z</time>
      </trkpt>
      <trkpt lat="47.27145" lon="-2.31824">
        <ele>110.19999694824</ele>
        <time>2020-01-09T10:40:14.000Z</time>
      </trkpt>
      <trkpt lat="47.27148" lon="-2.31829">
        <ele>109.80000305176</ele>
        <time>2020-01-09T10:40:15.000Z</time>
      </trkpt>
      <trkpt lat="47.27151" lon="-2.31835">
        <ele>109.19999694824</ele>
        <time>2020-01-09T10:40:16.000Z</time>
      </trkpt>
      <trkpt lat="47.27154" lon="-2.3184">
        <ele>108.80000305176</ele>
        <time>2020-01-09T10:40:17.000Z</time>
      </trkpt>
      <trkpt lat="47.27161" lon="-2.31851">
        <ele>108.80000305176</ele>
        <time>2020-01-09T10:40:19.000Z</time>
      </trkpt>
      <trkpt lat="47.27185" lon="-2.31881">
        <ele>108.80000305176</ele>
        <time>2020-01-09T10:40:25.000Z</time>
      </trkpt>
      <trkpt lat="47.27211" lon="-2.31907">
        <ele>108.80000305176</ele>
        <time>2020-01-09T10:40:31.000Z</time>
      </trkpt>
      <trkpt lat="47.27222" lon="-2.31911">
        <ele>108.80000305176</ele>
        <time>2020-01-09T10:40:34.000Z</time>
      </trkpt>
      <trkpt lat="47.27225" lon="-2.31911">
        <ele>108.80000305176</ele>
        <time>2020-01-09T10:40:35.000Z</time>
      </trkpt>
      <trkpt lat="47.27227" lon="-2.31913">
        <ele>108.80000305176</ele>
        <time>2020-01-09T10:40:37.000Z</time>
      </trkpt>
      <trkpt lat="47.27227" lon="-2.31913">
        <ele>108.80000305176</ele>
        <time>2020-01-09T10:40:38.000Z</time>
      </trkpt>
      <trkpt lat="47.27231" lon="-2.31918">
        <ele>108.80000305176</ele>
        <time>2020-01-09T10:41:14.000Z</time>
      </trkpt>
      <trkpt lat="47.27233" lon="-2.31919">
        <ele>108.80000305176</ele>
        <time>2020-01-09T10:41:16.000Z</time>
      </trkpt>
      <trkpt lat="47.27235" lon="-2.31919">
        <ele>108.80000305176</ele>
        <time>2020-01-09T10:41:17.000Z</time>
      </trkpt>
      <trkpt lat="47.27241" lon="-2.31922">
        <ele>108.80000305176</ele>
        <time>2020-01-09T10:41:20.000Z</time>
      </trkpt>
      <trkpt lat="47.27251" lon="-2.31927">
        <ele>108.40000152588</ele>
        <time>2020-01-09T10:41:24.000Z</time>
      </trkpt>
      <trkpt lat="47.27254" lon="-2.31928">
        <ele>108</ele>
        <time>2020-01-09T10:41:25.000Z</time>
      </trkpt>
      <trkpt lat="47.27257" lon="-2.31929">
        <ele>107.59999847412</ele>
        <time>2020-01-09T10:41:26.000Z</time>
      </trkpt>
      <trkpt lat="47.2726" lon="-2.3193">
        <ele>107.19999694824</ele>
        <time>2020-01-09T10:41:27.000Z</time>
      </trkpt>
      <trkpt lat="47.27263" lon="-2.31931">
        <ele>106.80000305176</ele>
        <time>2020-01-09T10:41:28.000Z</time>
      </trkpt>
      <trkpt lat="47.2727" lon="-2.31933">
        <ele>106.80000305176</ele>
        <time>2020-01-09T10:41:30.000Z</time>
      </trkpt>
      <trkpt lat="47.27288" lon="-2.31941">
        <ele>106.80000305176</ele>
        <time>2020-01-09T10:41:36.000Z</time>
      </trkpt>
      <trkpt lat="47.2731" lon="-2.31957">
        <ele>106.80000305176</ele>
        <time>2020-01-09T10:41:42.000Z</time>
      </trkpt>
      <trkpt lat="47.27332" lon="-2.31977">
        <ele>106.80000305176</ele>
        <time>2020-01-09T10:41:48.000Z</time>
      </trkpt>
      <trkpt lat="47.27356" lon="-2.32003">
        <ele>106.80000305176</ele>
        <time>2020-01-09T10:41:56.000Z</time>
      </trkpt>
      <trkpt lat="47.27362" lon="-2.32009">
        <ele>106.19999694824</ele>
        <time>2020-01-09T10:41:58.000Z</time>
      </trkpt>
      <trkpt lat="47.27364" lon="-2.32011">
        <ele>105.80000305176</ele>
        <time>2020-01-09T10:41:59.000Z</time>
      </trkpt>
      <trkpt lat="47.27367" lon="-2.32014">
        <ele>105.19999694824</ele>
        <time>2020-01-09T10:42:00.000Z</time>
      </trkpt>
      <trkpt lat="47.2737" lon="-2.32017">
        <ele>104.59999847412</ele>
        <time>2020-01-09T10:42:01.000Z</time>
      </trkpt>
      <trkpt lat="47.27372" lon="-2.3202">
        <ele>104.19999694824</ele>
        <time>2020-01-09T10:42:02.000Z</time>
      </trkpt>
      <trkpt lat="47.27376" lon="-2.32023">
        <ele>104.19999694824</ele>
        <time>2020-01-09T10:42:03.000Z</time>
      </trkpt>
      <trkpt lat="47.27395" lon="-2.32042">
        <ele>104.19999694824</ele>
        <time>2020-01-09T10:42:10.000Z</time>
      </trkpt>
      <trkpt lat="47.27413" lon="-2.32061">
        <ele>104.19999694824</ele>
        <time>2020-01-09T10:42:17.000Z</time>
      </trkpt>
      <trkpt lat="47.27435" lon="-2.32085">
        <ele>104.19999694824</ele>
        <time>2020-01-09T10:42:25.000Z</time>
      </trkpt>
      <trkpt lat="47.27453" lon="-2.32111">
        <ele>104.19999694824</ele>
        <time>2020-01-09T10:42:32.000Z</time>
      </trkpt>
      <trkpt lat="47.27476" lon="-2.32145">
        <ele>104.19999694824</ele>
        <time>2020-01-09T10:42:40.000Z</time>
      </trkpt>
      <trkpt lat="47.27499" lon="-2.32173">
        <ele>104.19999694824</ele>
        <time>2020-01-09T10:42:47.000Z</time>
      </trkpt>
      <trkpt lat="47.2752" lon="-2.32201">
        <ele>104.19999694824</ele>
        <time>2020-01-09T10:42:54.000Z</time>
      </trkpt>
      <trkpt lat="47.27534" lon="-2.32216">
        <ele>104.19999694824</ele>
        <time>2020-01-09T10:42:58.000Z</time>
      </trkpt>
      <trkpt lat="47.27544" lon="-2.32226">
        <ele>104.19999694824</ele>
        <time>2020-01-09T10:43:01.000Z</time>
      </trkpt>
      <trkpt lat="47.27566" lon="-2.32245">
        <ele>104.19999694824</ele>
        <time>2020-01-09T10:43:08.000Z</time>
      </trkpt>
      <trkpt lat="47.27591" lon="-2.32266">
        <ele>104.19999694824</ele>
        <time>2020-01-09T10:43:16.000Z</time>
      </trkpt>
      <trkpt lat="47.27609" lon="-2.32285">
        <ele>104.19999694824</ele>
        <time>2020-01-09T10:43:23.000Z</time>
      </trkpt>
      <trkpt lat="47.2761" lon="-2.32301">
        <ele>104.19999694824</ele>
        <time>2020-01-09T10:43:26.000Z</time>
      </trkpt>
      <trkpt lat="47.276" lon="-2.32324">
        <ele>104.19999694824</ele>
        <time>2020-01-09T10:43:30.000Z</time>
      </trkpt>
      <trkpt lat="47.27598" lon="-2.32331">
        <ele>104.19999694824</ele>
        <time>2020-01-09T10:43:31.000Z</time>
      </trkpt>
      <trkpt lat="47.27579" lon="-2.32384">
        <ele>104.19999694824</ele>
        <time>2020-01-09T10:43:39.000Z</time>
      </trkpt>
      <trkpt lat="47.27575" lon="-2.32412">
        <ele>104.19999694824</ele>
        <time>2020-01-09T10:43:44.000Z</time>
      </trkpt>
      <trkpt lat="47.27569" lon="-2.32423">
        <ele>104.19999694824</ele>
        <time>2020-01-09T10:43:47.000Z</time>
      </trkpt>
      <trkpt lat="47.27566" lon="-2.32428">
        <ele>104.19999694824</ele>
        <time>2020-01-09T10:43:48.000Z</time>
      </trkpt>
      <trkpt lat="47.2756" lon="-2.32449">
        <ele>104.19999694824</ele>
        <time>2020-01-09T10:43:51.000Z</time>
      </trkpt>
      <trkpt lat="47.27558" lon="-2.32455">
        <ele>104.19999694824</ele>
        <time>2020-01-09T10:43:52.000Z</time>
      </trkpt>
      <trkpt lat="47.2755" lon="-2.3249">
        <ele>104.19999694824</ele>
        <time>2020-01-09T10:43:57.000Z</time>
      </trkpt>
      <trkpt lat="47.27547" lon="-2.32497">
        <ele>104.19999694824</ele>
        <time>2020-01-09T10:43:58.000Z</time>
      </trkpt>
      <trkpt lat="47.27538" lon="-2.32518">
        <ele>104.19999694824</ele>
        <time>2020-01-09T10:44:01.000Z</time>
      </trkpt>
      <trkpt lat="47.27537" lon="-2.32525">
        <ele>104.19999694824</ele>
        <time>2020-01-09T10:44:02.000Z</time>
      </trkpt>
      <trkpt lat="47.27537" lon="-2.32541">
        <ele>104.19999694824</ele>
        <time>2020-01-09T10:44:04.000Z</time>
      </trkpt>
      <trkpt lat="47.27545" lon="-2.32564">
        <ele>104.19999694824</ele>
        <time>2020-01-09T10:44:07.000Z</time>
      </trkpt>
      <trkpt lat="47.27548" lon="-2.3257">
        <ele>103.80000305176</ele>
        <time>2020-01-09T10:44:08.000Z</time>
      </trkpt>
      <trkpt lat="47.27552" lon="-2.32577">
        <ele>103</ele>
        <time>2020-01-09T10:44:09.000Z</time>
      </trkpt>
      <trkpt lat="47.27554" lon="-2.32583">
        <ele>102.59999847412</ele>
        <time>2020-01-09T10:44:10.000Z</time>
      </trkpt>
      <trkpt lat="47.27554" lon="-2.32588">
        <ele>102.19999694824</ele>
        <time>2020-01-09T10:44:11.000Z</time>
      </trkpt>
      <trkpt lat="47.27553" lon="-2.32593">
        <ele>102.19999694824</ele>
        <time>2020-01-09T10:44:12.000Z</time>
      </trkpt>
      <trkpt lat="47.27549" lon="-2.32603">
        <ele>102.19999694824</ele>
        <time>2020-01-09T10:44:14.000Z</time>
      </trkpt>
      <trkpt lat="47.27538" lon="-2.32614">
        <ele>102.19999694824</ele>
        <time>2020-01-09T10:44:16.000Z</time>
      </trkpt>
      <trkpt lat="47.27516" lon="-2.32628">
        <ele>102.19999694824</ele>
        <time>2020-01-09T10:44:20.000Z</time>
      </trkpt>
      <trkpt lat="47.27508" lon="-2.32652">
        <ele>102.19999694824</ele>
        <time>2020-01-09T10:44:23.000Z</time>
      </trkpt>
      <trkpt lat="47.27505" lon="-2.32659">
        <ele>102.19999694824</ele>
        <time>2020-01-09T10:44:24.000Z</time>
      </trkpt>
      <trkpt lat="47.27492" lon="-2.32675">
        <ele>102.19999694824</ele>
        <time>2020-01-09T10:44:27.000Z</time>
      </trkpt>
      <trkpt lat="47.27482" lon="-2.32679">
        <ele>102.19999694824</ele>
        <time>2020-01-09T10:44:29.000Z</time>
      </trkpt>
      <trkpt lat="47.27478" lon="-2.32681">
        <ele>102.19999694824</ele>
        <time>2020-01-09T10:44:30.000Z</time>
      </trkpt>
      <trkpt lat="47.27474" lon="-2.32683">
        <ele>102.19999694824</ele>
        <time>2020-01-09T10:44:31.000Z</time>
      </trkpt>
      <trkpt lat="47.27466" lon="-2.32698">
        <ele>102.19999694824</ele>
        <time>2020-01-09T10:44:34.000Z</time>
      </trkpt>
      <trkpt lat="47.27461" lon="-2.32709">
        <ele>102.19999694824</ele>
        <time>2020-01-09T10:44:36.000Z</time>
      </trkpt>
      <trkpt lat="47.27455" lon="-2.32725">
        <ele>102.19999694824</ele>
        <time>2020-01-09T10:44:39.000Z</time>
      </trkpt>
      <trkpt lat="47.27448" lon="-2.32749">
        <ele>102.19999694824</ele>
        <time>2020-01-09T10:44:44.000Z</time>
      </trkpt>
      <trkpt lat="47.27439" lon="-2.32783">
        <ele>102.19999694824</ele>
        <time>2020-01-09T10:44:50.000Z</time>
      </trkpt>
      <trkpt lat="47.27435" lon="-2.32804">
        <ele>102.19999694824</ele>
        <time>2020-01-09T10:44:53.000Z</time>
      </trkpt>
      <trkpt lat="47.27432" lon="-2.32819">
        <ele>102.19999694824</ele>
        <time>2020-01-09T10:44:55.000Z</time>
      </trkpt>
      <trkpt lat="47.27426" lon="-2.3284">
        <ele>102.19999694824</ele>
        <time>2020-01-09T10:44:58.000Z</time>
      </trkpt>
      <trkpt lat="47.27419" lon="-2.32859">
        <ele>102.19999694824</ele>
        <time>2020-01-09T10:45:01.000Z</time>
      </trkpt>
      <trkpt lat="47.27412" lon="-2.32878">
        <ele>102.19999694824</ele>
        <time>2020-01-09T10:45:05.000Z</time>
      </trkpt>
      <trkpt lat="47.2741" lon="-2.32883">
        <ele>102.19999694824</ele>
        <time>2020-01-09T10:45:06.000Z</time>
      </trkpt>
      <trkpt lat="47.27399" lon="-2.32908">
        <ele>102.19999694824</ele>
        <time>2020-01-09T10:45:11.000Z</time>
      </trkpt>
      <trkpt lat="47.2739" lon="-2.3293">
        <ele>102.19999694824</ele>
        <time>2020-01-09T10:45:16.000Z</time>
      </trkpt>
      <trkpt lat="47.27379" lon="-2.32949">
        <ele>102.19999694824</ele>
        <time>2020-01-09T10:45:20.000Z</time>
      </trkpt>
      <trkpt lat="47.27372" lon="-2.32963">
        <ele>102.19999694824</ele>
        <time>2020-01-09T10:45:23.000Z</time>
      </trkpt>
      <trkpt lat="47.27366" lon="-2.32979">
        <ele>102.19999694824</ele>
        <time>2020-01-09T10:45:26.000Z</time>
      </trkpt>
      <trkpt lat="47.27359" lon="-2.32995">
        <ele>102.19999694824</ele>
        <time>2020-01-09T10:45:29.000Z</time>
      </trkpt>
      <trkpt lat="47.27356" lon="-2.33001">
        <ele>102.19999694824</ele>
        <time>2020-01-09T10:45:30.000Z</time>
      </trkpt>
      <trkpt lat="47.27354" lon="-2.33007">
        <ele>102.19999694824</ele>
        <time>2020-01-09T10:45:31.000Z</time>
      </trkpt>
      <trkpt lat="47.27344" lon="-2.33035">
        <ele>102.19999694824</ele>
        <time>2020-01-09T10:45:36.000Z</time>
      </trkpt>
      <trkpt lat="47.2733" lon="-2.33076">
        <ele>102.19999694824</ele>
        <time>2020-01-09T10:45:43.000Z</time>
      </trkpt>
      <trkpt lat="47.27317" lon="-2.33105">
        <ele>102.19999694824</ele>
        <time>2020-01-09T10:45:49.000Z</time>
      </trkpt>
      <trkpt lat="47.27308" lon="-2.33113">
        <ele>102.19999694824</ele>
        <time>2020-01-09T10:45:52.000Z</time>
      </trkpt>
      <trkpt lat="47.27304" lon="-2.33111">
        <ele>102.19999694824</ele>
        <time>2020-01-09T10:45:53.000Z</time>
      </trkpt>
      <trkpt lat="47.27294" lon="-2.33099">
        <ele>102.19999694824</ele>
        <time>2020-01-09T10:45:56.000Z</time>
      </trkpt>
      <trkpt lat="47.2729" lon="-2.33095">
        <ele>102.19999694824</ele>
        <time>2020-01-09T10:45:57.000Z</time>
      </trkpt>
      <trkpt lat="47.27268" lon="-2.33063">
        <ele>102.19999694824</ele>
        <time>2020-01-09T10:46:04.000Z</time>
      </trkpt>
      <trkpt lat="47.27246" lon="-2.33029">
        <ele>102.19999694824</ele>
        <time>2020-01-09T10:46:10.000Z</time>
      </trkpt>
      <trkpt lat="47.27217" lon="-2.32981">
        <ele>102.19999694824</ele>
        <time>2020-01-09T10:46:17.000Z</time>
      </trkpt>
      <trkpt lat="47.27205" lon="-2.32982">
        <ele>102.19999694824</ele>
        <time>2020-01-09T10:46:19.000Z</time>
      </trkpt>
      <trkpt lat="47.2719" lon="-2.32995">
        <ele>102.19999694824</ele>
        <time>2020-01-09T10:46:22.000Z</time>
      </trkpt>
      <trkpt lat="47.2718" lon="-2.33003">
        <ele>102.19999694824</ele>
        <time>2020-01-09T10:46:24.000Z</time>
      </trkpt>
      <trkpt lat="47.2716" lon="-2.33017">
        <ele>102.19999694824</ele>
        <time>2020-01-09T10:46:28.000Z</time>
      </trkpt>
      <trkpt lat="47.27156" lon="-2.3302">
        <ele>102.19999694824</ele>
        <time>2020-01-09T10:46:29.000Z</time>
      </trkpt>
      <trkpt lat="47.27137" lon="-2.33035">
        <ele>102.19999694824</ele>
        <time>2020-01-09T10:46:33.000Z</time>
      </trkpt>
      <trkpt lat="47.27113" lon="-2.33054">
        <ele>102.19999694824</ele>
        <time>2020-01-09T10:46:38.000Z</time>
      </trkpt>
      <trkpt lat="47.27109" lon="-2.33059">
        <ele>102.19999694824</ele>
        <time>2020-01-09T10:46:39.000Z</time>
      </trkpt>
      <trkpt lat="47.27094" lon="-2.33069">
        <ele>102.19999694824</ele>
        <time>2020-01-09T10:46:42.000Z</time>
      </trkpt>
      <trkpt lat="47.2709" lon="-2.33072">
        <ele>102.19999694824</ele>
        <time>2020-01-09T10:46:43.000Z</time>
      </trkpt>
      <trkpt lat="47.27086" lon="-2.33076">
        <ele>102.19999694824</ele>
        <time>2020-01-09T10:46:44.000Z</time>
      </trkpt>
      <trkpt lat="47.27078" lon="-2.33086">
        <ele>102.19999694824</ele>
        <time>2020-01-09T10:46:46.000Z</time>
      </trkpt>
      <trkpt lat="47.2707" lon="-2.33095">
        <ele>102.19999694824</ele>
        <time>2020-01-09T10:46:48.000Z</time>
      </trkpt>
      <trkpt lat="47.27062" lon="-2.33103">
        <ele>102.19999694824</ele>
        <time>2020-01-09T10:46:50.000Z</time>
      </trkpt>
      <trkpt lat="47.27053" lon="-2.33113">
        <ele>102.19999694824</ele>
        <time>2020-01-09T10:46:52.000Z</time>
      </trkpt>
      <trkpt lat="47.2705" lon="-2.33117">
        <ele>102.19999694824</ele>
        <time>2020-01-09T10:46:53.000Z</time>
      </trkpt>
      <trkpt lat="47.27042" lon="-2.33126">
        <ele>102.19999694824</ele>
        <time>2020-01-09T10:46:55.000Z</time>
      </trkpt>
      <trkpt lat="47.27032" lon="-2.33138">
        <ele>102.19999694824</ele>
        <time>2020-01-09T10:46:58.000Z</time>
      </trkpt>
      <trkpt lat="47.27027" lon="-2.33141">
        <ele>102.19999694824</ele>
        <time>2020-01-09T10:46:59.000Z</time>
      </trkpt>
      <trkpt lat="47.27009" lon="-2.33156">
        <ele>102.19999694824</ele>
        <time>2020-01-09T10:47:03.000Z</time>
      </trkpt>
      <trkpt lat="47.27005" lon="-2.3316">
        <ele>102.19999694824</ele>
        <time>2020-01-09T10:47:04.000Z</time>
      </trkpt>
      <trkpt lat="47.26986" lon="-2.33175">
        <ele>102.19999694824</ele>
        <time>2020-01-09T10:47:08.000Z</time>
      </trkpt>
      <trkpt lat="47.26982" lon="-2.33179">
        <ele>102.19999694824</ele>
        <time>2020-01-09T10:47:09.000Z</time>
      </trkpt>
      <trkpt lat="47.26971" lon="-2.33196">
        <ele>102.19999694824</ele>
        <time>2020-01-09T10:47:12.000Z</time>
      </trkpt>
      <trkpt lat="47.26962" lon="-2.33203">
        <ele>102.19999694824</ele>
        <time>2020-01-09T10:47:14.000Z</time>
      </trkpt>
      <trkpt lat="47.26951" lon="-2.33209">
        <ele>102.19999694824</ele>
        <time>2020-01-09T10:47:16.000Z</time>
      </trkpt>
      <trkpt lat="47.26942" lon="-2.33214">
        <ele>102.59999847412</ele>
        <time>2020-01-09T10:47:18.000Z</time>
      </trkpt>
      <trkpt lat="47.26938" lon="-2.33218">
        <ele>103</ele>
        <time>2020-01-09T10:47:19.000Z</time>
      </trkpt>
      <trkpt lat="47.26933" lon="-2.33221">
        <ele>103.80000305176</ele>
        <time>2020-01-09T10:47:20.000Z</time>
      </trkpt>
      <trkpt lat="47.2693" lon="-2.33226">
        <ele>104.19999694824</ele>
        <time>2020-01-09T10:47:21.000Z</time>
      </trkpt>
      <trkpt lat="47.26929" lon="-2.33246">
        <ele>104.19999694824</ele>
        <time>2020-01-09T10:47:24.000Z</time>
      </trkpt>
      <trkpt lat="47.2693" lon="-2.33253">
        <ele>104.19999694824</ele>
        <time>2020-01-09T10:47:25.000Z</time>
      </trkpt>
      <trkpt lat="47.26941" lon="-2.33288">
        <ele>104.19999694824</ele>
        <time>2020-01-09T10:47:30.000Z</time>
      </trkpt>
      <trkpt lat="47.26944" lon="-2.33295">
        <ele>104.19999694824</ele>
        <time>2020-01-09T10:47:31.000Z</time>
      </trkpt>
      <trkpt lat="47.26961" lon="-2.33342">
        <ele>104.19999694824</ele>
        <time>2020-01-09T10:47:38.000Z</time>
      </trkpt>
      <trkpt lat="47.26971" lon="-2.33367">
        <ele>104.19999694824</ele>
        <time>2020-01-09T10:47:42.000Z</time>
      </trkpt>
      <trkpt lat="47.26971" lon="-2.33372">
        <ele>104.19999694824</ele>
        <time>2020-01-09T10:47:43.000Z</time>
      </trkpt>
      <trkpt lat="47.26961" lon="-2.33381">
        <ele>104.19999694824</ele>
        <time>2020-01-09T10:47:46.000Z</time>
      </trkpt>
      <trkpt lat="47.26957" lon="-2.33384">
        <ele>104.19999694824</ele>
        <time>2020-01-09T10:47:47.000Z</time>
      </trkpt>
      <trkpt lat="47.26925" lon="-2.33399">
        <ele>104.19999694824</ele>
        <time>2020-01-09T10:47:53.000Z</time>
      </trkpt>
      <trkpt lat="47.26891" lon="-2.33416">
        <ele>104.19999694824</ele>
        <time>2020-01-09T10:47:59.000Z</time>
      </trkpt>
      <trkpt lat="47.26883" lon="-2.33421">
        <ele>104.19999694824</ele>
        <time>2020-01-09T10:48:02.000Z</time>
      </trkpt>
      <trkpt lat="47.26881" lon="-2.33425">
        <ele>104.19999694824</ele>
        <time>2020-01-09T10:48:03.000Z</time>
      </trkpt>
      <trkpt lat="47.26879" lon="-2.33435">
        <ele>104.19999694824</ele>
        <time>2020-01-09T10:48:05.000Z</time>
      </trkpt>
      <trkpt lat="47.26879" lon="-2.33459">
        <ele>104.19999694824</ele>
        <time>2020-01-09T10:48:08.000Z</time>
      </trkpt>
      <trkpt lat="47.26881" lon="-2.33468">
        <ele>104.19999694824</ele>
        <time>2020-01-09T10:48:09.000Z</time>
      </trkpt>
      <trkpt lat="47.26889" lon="-2.33514">
        <ele>104.19999694824</ele>
        <time>2020-01-09T10:48:14.000Z</time>
      </trkpt>
      <trkpt lat="47.2689" lon="-2.33521">
        <ele>104.19999694824</ele>
        <time>2020-01-09T10:48:15.000Z</time>
      </trkpt>
      <trkpt lat="47.26887" lon="-2.33533">
        <ele>104.19999694824</ele>
        <time>2020-01-09T10:48:17.000Z</time>
      </trkpt>
      <trkpt lat="47.26873" lon="-2.3354">
        <ele>103.80000305176</ele>
        <time>2020-01-09T10:48:20.000Z</time>
      </trkpt>
      <trkpt lat="47.26867" lon="-2.33542">
        <ele>103.19999694824</ele>
        <time>2020-01-09T10:48:21.000Z</time>
      </trkpt>
      <trkpt lat="47.26861" lon="-2.33544">
        <ele>102.80000305176</ele>
        <time>2020-01-09T10:48:22.000Z</time>
      </trkpt>
      <trkpt lat="47.26855" lon="-2.33545">
        <ele>102.40000152588</ele>
        <time>2020-01-09T10:48:23.000Z</time>
      </trkpt>
      <trkpt lat="47.26849" lon="-2.33547">
        <ele>102</ele>
        <time>2020-01-09T10:48:24.000Z</time>
      </trkpt>
      <trkpt lat="47.26843" lon="-2.3355">
        <ele>102</ele>
        <time>2020-01-09T10:48:25.000Z</time>
      </trkpt>
      <trkpt lat="47.26803" lon="-2.33564">
        <ele>102</ele>
        <time>2020-01-09T10:48:32.000Z</time>
      </trkpt>
      <trkpt lat="47.26786" lon="-2.33569">
        <ele>102</ele>
        <time>2020-01-09T10:48:36.000Z</time>
      </trkpt>
      <trkpt lat="47.26783" lon="-2.33568">
        <ele>102</ele>
        <time>2020-01-09T10:48:37.000Z</time>
      </trkpt>
      <trkpt lat="47.26779" lon="-2.33559">
        <ele>102</ele>
        <time>2020-01-09T10:48:39.000Z</time>
      </trkpt>
      <trkpt lat="47.26777" lon="-2.33546">
        <ele>102</ele>
        <time>2020-01-09T10:48:41.000Z</time>
      </trkpt>
      <trkpt lat="47.26774" lon="-2.3353">
        <ele>102</ele>
        <time>2020-01-09T10:48:43.000Z</time>
      </trkpt>
      <trkpt lat="47.26766" lon="-2.33485">
        <ele>102</ele>
        <time>2020-01-09T10:48:48.000Z</time>
      </trkpt>
      <trkpt lat="47.26759" lon="-2.33432">
        <ele>102</ele>
        <time>2020-01-09T10:48:54.000Z</time>
      </trkpt>
      <trkpt lat="47.26753" lon="-2.33392">
        <ele>102</ele>
        <time>2020-01-09T10:48:59.000Z</time>
      </trkpt>
      <trkpt lat="47.26752" lon="-2.33385">
        <ele>102</ele>
        <time>2020-01-09T10:49:00.000Z</time>
      </trkpt>
      <trkpt lat="47.2675" lon="-2.33365">
        <ele>101.59999847412</ele>
        <time>2020-01-09T10:49:03.000Z</time>
      </trkpt>
      <trkpt lat="47.26749" lon="-2.33359">
        <ele>101.19999694824</ele>
        <time>2020-01-09T10:49:04.000Z</time>
      </trkpt>
      <trkpt lat="47.26749" lon="-2.33354">
        <ele>100.80000305176</ele>
        <time>2020-01-09T10:49:05.000Z</time>
      </trkpt>
      <trkpt lat="47.26748" lon="-2.3335">
        <ele>100.40000152588</ele>
        <time>2020-01-09T10:49:06.000Z</time>
      </trkpt>
      <trkpt lat="47.26747" lon="-2.33347">
        <ele>100</ele>
        <time>2020-01-09T10:49:07.000Z</time>
      </trkpt>
      <trkpt lat="47.26747" lon="-2.33343">
        <ele>100</ele>
        <time>2020-01-09T10:49:08.000Z</time>
      </trkpt>
      <trkpt lat="47.26746" lon="-2.3334">
        <ele>100</ele>
        <time>2020-01-09T10:49:09.000Z</time>
      </trkpt>
      <trkpt lat="47.26743" lon="-2.33336">
        <ele>100</ele>
        <time>2020-01-09T10:49:12.000Z</time>
      </trkpt>
      <trkpt lat="47.26735" lon="-2.33332">
        <ele>100</ele>
        <time>2020-01-09T10:49:17.000Z</time>
      </trkpt>
      <trkpt lat="47.26733" lon="-2.33331">
        <ele>100</ele>
        <time>2020-01-09T10:49:18.000Z</time>
      </trkpt>
      <trkpt lat="47.26722" lon="-2.33323">
        <ele>100</ele>
        <time>2020-01-09T10:49:22.000Z</time>
      </trkpt>
      <trkpt lat="47.26713" lon="-2.33298">
        <ele>100</ele>
        <time>2020-01-09T10:49:26.000Z</time>
      </trkpt>
      <trkpt lat="47.2671" lon="-2.33277">
        <ele>100</ele>
        <time>2020-01-09T10:49:29.000Z</time>
      </trkpt>
      <trkpt lat="47.26709" lon="-2.33271">
        <ele>100</ele>
        <time>2020-01-09T10:49:30.000Z</time>
      </trkpt>
      <trkpt lat="47.26708" lon="-2.33264">
        <ele>100</ele>
        <time>2020-01-09T10:49:31.000Z</time>
      </trkpt>
      <trkpt lat="47.26705" lon="-2.33246">
        <ele>100</ele>
        <time>2020-01-09T10:49:34.000Z</time>
      </trkpt>
      <trkpt lat="47.26698" lon="-2.33225">
        <ele>100</ele>
        <time>2020-01-09T10:49:39.000Z</time>
      </trkpt>
      <trkpt lat="47.26697" lon="-2.33212">
        <ele>100</ele>
        <time>2020-01-09T10:49:42.000Z</time>
      </trkpt>
      <trkpt lat="47.26697" lon="-2.33208">
        <ele>100</ele>
        <time>2020-01-09T10:49:43.000Z</time>
      </trkpt>
      <trkpt lat="47.26693" lon="-2.33189">
        <ele>99.599998474121</ele>
        <time>2020-01-09T10:49:47.000Z</time>
      </trkpt>
      <trkpt lat="47.26692" lon="-2.33184">
        <ele>99.199996948242</ele>
        <time>2020-01-09T10:49:48.000Z</time>
      </trkpt>
      <trkpt lat="47.26692" lon="-2.3318">
        <ele>98.800003051758</ele>
        <time>2020-01-09T10:49:49.000Z</time>
      </trkpt>
      <trkpt lat="47.26691" lon="-2.33178">
        <ele>98.400001525879</ele>
        <time>2020-01-09T10:49:50.000Z</time>
      </trkpt>
      <trkpt lat="47.26689" lon="-2.33176">
        <ele>98</ele>
        <time>2020-01-09T10:49:51.000Z</time>
      </trkpt>
      <trkpt lat="47.26687" lon="-2.33174">
        <ele>98</ele>
        <time>2020-01-09T10:49:53.000Z</time>
      </trkpt>
      <trkpt lat="47.26686" lon="-2.33172">
        <ele>98</ele>
        <time>2020-01-09T10:49:54.000Z</time>
      </trkpt>
      <trkpt lat="47.26677" lon="-2.33167">
        <ele>98</ele>
        <time>2020-01-09T10:49:58.000Z</time>
      </trkpt>
      <trkpt lat="47.26667" lon="-2.33174">
        <ele>98</ele>
        <time>2020-01-09T10:50:01.000Z</time>
      </trkpt>
      <trkpt lat="47.26646" lon="-2.33196">
        <ele>98</ele>
        <time>2020-01-09T10:50:06.000Z</time>
      </trkpt>
      <trkpt lat="47.26612" lon="-2.33228">
        <ele>98</ele>
        <time>2020-01-09T10:50:13.000Z</time>
      </trkpt>
      <trkpt lat="47.26577" lon="-2.33261">
        <ele>98</ele>
        <time>2020-01-09T10:50:21.000Z</time>
      </trkpt>
      <trkpt lat="47.26574" lon="-2.33265">
        <ele>98</ele>
        <time>2020-01-09T10:50:22.000Z</time>
      </trkpt>
      <trkpt lat="47.26564" lon="-2.33276">
        <ele>98</ele>
        <time>2020-01-09T10:50:25.000Z</time>
      </trkpt>
      <trkpt lat="47.26547" lon="-2.33294">
        <ele>98</ele>
        <time>2020-01-09T10:50:31.000Z</time>
      </trkpt>
      <trkpt lat="47.26542" lon="-2.33299">
        <ele>98</ele>
        <time>2020-01-09T10:50:34.000Z</time>
      </trkpt>
      <trkpt lat="47.2654" lon="-2.33298">
        <ele>98</ele>
        <time>2020-01-09T10:50:35.000Z</time>
      </trkpt>
      <trkpt lat="47.26534" lon="-2.33288">
        <ele>98</ele>
        <time>2020-01-09T10:50:39.000Z</time>
      </trkpt>
      <trkpt lat="47.26532" lon="-2.33283">
        <ele>98</ele>
        <time>2020-01-09T10:50:40.000Z</time>
      </trkpt>
      <trkpt lat="47.26529" lon="-2.33281">
        <ele>98</ele>
        <time>2020-01-09T10:50:41.000Z</time>
      </trkpt>
      <trkpt lat="47.26526" lon="-2.33282">
        <ele>98</ele>
        <time>2020-01-09T10:50:42.000Z</time>
      </trkpt>
      <trkpt lat="47.26513" lon="-2.33282">
        <ele>98</ele>
        <time>2020-01-09T10:50:46.000Z</time>
      </trkpt>
      <trkpt lat="47.26503" lon="-2.33274">
        <ele>97.599998474121</ele>
        <time>2020-01-09T10:50:49.000Z</time>
      </trkpt>
      <trkpt lat="47.26501" lon="-2.33269">
        <ele>97.199996948242</ele>
        <time>2020-01-09T10:50:50.000Z</time>
      </trkpt>
      <trkpt lat="47.265" lon="-2.33263">
        <ele>96.800003051758</ele>
        <time>2020-01-09T10:50:51.000Z</time>
      </trkpt>
      <trkpt lat="47.265" lon="-2.33257">
        <ele>96.400001525879</ele>
        <time>2020-01-09T10:50:52.000Z</time>
      </trkpt>
      <trkpt lat="47.26502" lon="-2.3325">
        <ele>96</ele>
        <time>2020-01-09T10:50:53.000Z</time>
      </trkpt>
      <trkpt lat="47.26512" lon="-2.33233">
        <ele>96</ele>
        <time>2020-01-09T10:50:56.000Z</time>
      </trkpt>
      <trkpt lat="47.26526" lon="-2.33221">
        <ele>96</ele>
        <time>2020-01-09T10:50:59.000Z</time>
      </trkpt>
      <trkpt lat="47.26542" lon="-2.33211">
        <ele>96</ele>
        <time>2020-01-09T10:51:02.000Z</time>
      </trkpt>
      <trkpt lat="47.26573" lon="-2.33191">
        <ele>96</ele>
        <time>2020-01-09T10:51:08.000Z</time>
      </trkpt>
      <trkpt lat="47.26578" lon="-2.33186">
        <ele>96</ele>
        <time>2020-01-09T10:51:09.000Z</time>
      </trkpt>
      <trkpt lat="47.26588" lon="-2.33165">
        <ele>96</ele>
        <time>2020-01-09T10:51:12.000Z</time>
      </trkpt>
      <trkpt lat="47.266" lon="-2.33147">
        <ele>96</ele>
        <time>2020-01-09T10:51:16.000Z</time>
      </trkpt>
      <trkpt lat="47.26619" lon="-2.33149">
        <ele>96</ele>
        <time>2020-01-09T10:51:20.000Z</time>
      </trkpt>
      <trkpt lat="47.2663" lon="-2.33149">
        <ele>96</ele>
        <time>2020-01-09T10:51:22.000Z</time>
      </trkpt>
      <trkpt lat="47.26642" lon="-2.33143">
        <ele>96</ele>
        <time>2020-01-09T10:51:24.000Z</time>
      </trkpt>
      <trkpt lat="47.2667" lon="-2.33121">
        <ele>96</ele>
        <time>2020-01-09T10:51:29.000Z</time>
      </trkpt>
      <trkpt lat="47.26703" lon="-2.3309">
        <ele>96</ele>
        <time>2020-01-09T10:51:35.000Z</time>
      </trkpt>
      <trkpt lat="47.26722" lon="-2.33067">
        <ele>96</ele>
        <time>2020-01-09T10:51:39.000Z</time>
      </trkpt>
      <trkpt lat="47.26726" lon="-2.33061">
        <ele>96</ele>
        <time>2020-01-09T10:51:40.000Z</time>
      </trkpt>
      <trkpt lat="47.26732" lon="-2.33039">
        <ele>96</ele>
        <time>2020-01-09T10:51:43.000Z</time>
      </trkpt>
      <trkpt lat="47.26733" lon="-2.33032">
        <ele>96</ele>
        <time>2020-01-09T10:51:44.000Z</time>
      </trkpt>
      <trkpt lat="47.26735" lon="-2.3301">
        <ele>96</ele>
        <time>2020-01-09T10:51:47.000Z</time>
      </trkpt>
      <trkpt lat="47.26738" lon="-2.32995">
        <ele>96</ele>
        <time>2020-01-09T10:51:49.000Z</time>
      </trkpt>
      <trkpt lat="47.2674" lon="-2.32986">
        <ele>96</ele>
        <time>2020-01-09T10:51:50.000Z</time>
      </trkpt>
      <trkpt lat="47.26748" lon="-2.32972">
        <ele>96</ele>
        <time>2020-01-09T10:51:52.000Z</time>
      </trkpt>
      <trkpt lat="47.26757" lon="-2.3296">
        <ele>96</ele>
        <time>2020-01-09T10:51:54.000Z</time>
      </trkpt>
      <trkpt lat="47.26773" lon="-2.32943">
        <ele>96</ele>
        <time>2020-01-09T10:51:57.000Z</time>
      </trkpt>
      <trkpt lat="47.26777" lon="-2.32937">
        <ele>95.599998474121</ele>
        <time>2020-01-09T10:51:58.000Z</time>
      </trkpt>
      <trkpt lat="47.26782" lon="-2.32932">
        <ele>95.199996948242</ele>
        <time>2020-01-09T10:51:59.000Z</time>
      </trkpt>
      <trkpt lat="47.26786" lon="-2.32927">
        <ele>94.800003051758</ele>
        <time>2020-01-09T10:52:00.000Z</time>
      </trkpt>
      <trkpt lat="47.26791" lon="-2.32924">
        <ele>94.400001525879</ele>
        <time>2020-01-09T10:52:01.000Z</time>
      </trkpt>
      <trkpt lat="47.26797" lon="-2.3292">
        <ele>94</ele>
        <time>2020-01-09T10:52:02.000Z</time>
      </trkpt>
      <trkpt lat="47.26813" lon="-2.32908">
        <ele>94</ele>
        <time>2020-01-09T10:52:05.000Z</time>
      </trkpt>
      <trkpt lat="47.26822" lon="-2.32899">
        <ele>94</ele>
        <time>2020-01-09T10:52:07.000Z</time>
      </trkpt>
      <trkpt lat="47.26827" lon="-2.32894">
        <ele>94</ele>
        <time>2020-01-09T10:52:08.000Z</time>
      </trkpt>
      <trkpt lat="47.26837" lon="-2.32886">
        <ele>94</ele>
        <time>2020-01-09T10:52:10.000Z</time>
      </trkpt>
      <trkpt lat="47.26848" lon="-2.32882">
        <ele>94</ele>
        <time>2020-01-09T10:52:12.000Z</time>
      </trkpt>
      <trkpt lat="47.26858" lon="-2.32878">
        <ele>94</ele>
        <time>2020-01-09T10:52:14.000Z</time>
      </trkpt>
      <trkpt lat="47.26864" lon="-2.32869">
        <ele>94</ele>
        <time>2020-01-09T10:52:16.000Z</time>
      </trkpt>
      <trkpt lat="47.26861" lon="-2.3285">
        <ele>94</ele>
        <time>2020-01-09T10:52:19.000Z</time>
      </trkpt>
      <trkpt lat="47.26855" lon="-2.32835">
        <ele>94</ele>
        <time>2020-01-09T10:52:22.000Z</time>
      </trkpt>
      <trkpt lat="47.26853" lon="-2.3283">
        <ele>94</ele>
        <time>2020-01-09T10:52:23.000Z</time>
      </trkpt>
      <trkpt lat="47.26846" lon="-2.32808">
        <ele>94</ele>
        <time>2020-01-09T10:52:28.000Z</time>
      </trkpt>
      <trkpt lat="47.26848" lon="-2.32787">
        <ele>94</ele>
        <time>2020-01-09T10:52:34.000Z</time>
      </trkpt>
      <trkpt lat="47.26843" lon="-2.32769">
        <ele>94</ele>
        <time>2020-01-09T10:52:38.000Z</time>
      </trkpt>
      <trkpt lat="47.26836" lon="-2.3275">
        <ele>94</ele>
        <time>2020-01-09T10:52:43.000Z</time>
      </trkpt>
      <trkpt lat="47.26825" lon="-2.32727">
        <ele>94</ele>
        <time>2020-01-09T10:52:49.000Z</time>
      </trkpt>
      <trkpt lat="47.26808" lon="-2.32696">
        <ele>94</ele>
        <time>2020-01-09T10:52:56.000Z</time>
      </trkpt>
      <trkpt lat="47.26806" lon="-2.32675">
        <ele>94</ele>
        <time>2020-01-09T10:53:00.000Z</time>
      </trkpt>
      <trkpt lat="47.26812" lon="-2.3266">
        <ele>94</ele>
        <time>2020-01-09T10:53:03.000Z</time>
      </trkpt>
      <trkpt lat="47.26812" lon="-2.32654">
        <ele>94</ele>
        <time>2020-01-09T10:53:04.000Z</time>
      </trkpt>
      <trkpt lat="47.2681" lon="-2.32628">
        <ele>94</ele>
        <time>2020-01-09T10:53:08.000Z</time>
      </trkpt>
      <trkpt lat="47.26801" lon="-2.32578">
        <ele>94</ele>
        <time>2020-01-09T10:53:15.000Z</time>
      </trkpt>
      <trkpt lat="47.268" lon="-2.32564">
        <ele>94</ele>
        <time>2020-01-09T10:53:17.000Z</time>
      </trkpt>
      <trkpt lat="47.26799" lon="-2.3255">
        <ele>94</ele>
        <time>2020-01-09T10:53:19.000Z</time>
      </trkpt>
      <trkpt lat="47.26796" lon="-2.32507">
        <ele>94</ele>
        <time>2020-01-09T10:53:25.000Z</time>
      </trkpt>
      <trkpt lat="47.26794" lon="-2.32487">
        <ele>94</ele>
        <time>2020-01-09T10:53:28.000Z</time>
      </trkpt>
      <trkpt lat="47.26792" lon="-2.32465">
        <ele>94</ele>
        <time>2020-01-09T10:53:31.000Z</time>
      </trkpt>
      <trkpt lat="47.2679" lon="-2.32452">
        <ele>94</ele>
        <time>2020-01-09T10:53:33.000Z</time>
      </trkpt>
      <trkpt lat="47.26787" lon="-2.32432">
        <ele>94</ele>
        <time>2020-01-09T10:53:36.000Z</time>
      </trkpt>
      <trkpt lat="47.26781" lon="-2.32393">
        <ele>94</ele>
        <time>2020-01-09T10:53:42.000Z</time>
      </trkpt>
      <trkpt lat="47.2678" lon="-2.32374">
        <ele>94</ele>
        <time>2020-01-09T10:53:45.000Z</time>
      </trkpt>
      <trkpt lat="47.26782" lon="-2.3237">
        <ele>94</ele>
        <time>2020-01-09T10:53:46.000Z</time>
      </trkpt>
      <trkpt lat="47.26797" lon="-2.32363">
        <ele>94</ele>
        <time>2020-01-09T10:53:49.000Z</time>
      </trkpt>
      <trkpt lat="47.26817" lon="-2.32358">
        <ele>94</ele>
        <time>2020-01-09T10:53:52.000Z</time>
      </trkpt>
      <trkpt lat="47.26831" lon="-2.32355">
        <ele>94</ele>
        <time>2020-01-09T10:53:54.000Z</time>
      </trkpt>
      <trkpt lat="47.26869" lon="-2.32345">
        <ele>94</ele>
        <time>2020-01-09T10:53:59.000Z</time>
      </trkpt>
      <trkpt lat="47.26914" lon="-2.32333">
        <ele>94</ele>
        <time>2020-01-09T10:54:05.000Z</time>
      </trkpt>
      <trkpt lat="47.26919" lon="-2.32318">
        <ele>94</ele>
        <time>2020-01-09T10:54:08.000Z</time>
      </trkpt>
      <trkpt lat="47.26914" lon="-2.32301">
        <ele>94</ele>
        <time>2020-01-09T10:54:11.000Z</time>
      </trkpt>
      <trkpt lat="47.26912" lon="-2.32295">
        <ele>94</ele>
        <time>2020-01-09T10:54:12.000Z</time>
      </trkpt>
      <trkpt lat="47.26899" lon="-2.32267">
        <ele>94</ele>
        <time>2020-01-09T10:54:17.000Z</time>
      </trkpt>
      <trkpt lat="47.26894" lon="-2.32259">
        <ele>94</ele>
        <time>2020-01-09T10:54:20.000Z</time>
      </trkpt>
      <trkpt lat="47.26892" lon="-2.32252">
        <ele>94</ele>
        <time>2020-01-09T10:54:22.000Z</time>
      </trkpt>
      <trkpt lat="47.26891" lon="-2.32243">
        <ele>94</ele>
        <time>2020-01-09T10:54:24.000Z</time>
      </trkpt>
      <trkpt lat="47.26889" lon="-2.32238">
        <ele>94</ele>
        <time>2020-01-09T10:54:25.000Z</time>
      </trkpt>
      <trkpt lat="47.26884" lon="-2.32226">
        <ele>94</ele>
        <time>2020-01-09T10:54:27.000Z</time>
      </trkpt>
      <trkpt lat="47.26875" lon="-2.32205">
        <ele>94</ele>
        <time>2020-01-09T10:54:30.000Z</time>
      </trkpt>
      <trkpt lat="47.26864" lon="-2.32184">
        <ele>94</ele>
        <time>2020-01-09T10:54:33.000Z</time>
      </trkpt>
      <trkpt lat="47.26848" lon="-2.32144">
        <ele>94</ele>
        <time>2020-01-09T10:54:39.000Z</time>
      </trkpt>
      <trkpt lat="47.26846" lon="-2.32136">
        <ele>94</ele>
        <time>2020-01-09T10:54:40.000Z</time>
      </trkpt>
      <trkpt lat="47.26838" lon="-2.32115">
        <ele>94</ele>
        <time>2020-01-09T10:54:43.000Z</time>
      </trkpt>
      <trkpt lat="47.26835" lon="-2.32109">
        <ele>94</ele>
        <time>2020-01-09T10:54:44.000Z</time>
      </trkpt>
      <trkpt lat="47.2683" lon="-2.32096">
        <ele>94</ele>
        <time>2020-01-09T10:54:46.000Z</time>
      </trkpt>
      <trkpt lat="47.26826" lon="-2.32081">
        <ele>94</ele>
        <time>2020-01-09T10:54:48.000Z</time>
      </trkpt>
      <trkpt lat="47.26816" lon="-2.32044">
        <ele>94</ele>
        <time>2020-01-09T10:54:54.000Z</time>
      </trkpt>
      <trkpt lat="47.26808" lon="-2.32016">
        <ele>94</ele>
        <time>2020-01-09T10:54:59.000Z</time>
      </trkpt>
      <trkpt lat="47.26802" lon="-2.32001">
        <ele>94</ele>
        <time>2020-01-09T10:55:02.000Z</time>
      </trkpt>
      <trkpt lat="47.26798" lon="-2.31992">
        <ele>94</ele>
        <time>2020-01-09T10:55:04.000Z</time>
      </trkpt>
      <trkpt lat="47.26792" lon="-2.31983">
        <ele>94</ele>
        <time>2020-01-09T10:55:06.000Z</time>
      </trkpt>
      <trkpt lat="47.26782" lon="-2.31965">
        <ele>94</ele>
        <time>2020-01-09T10:55:10.000Z</time>
      </trkpt>
      <trkpt lat="47.26774" lon="-2.3195">
        <ele>94</ele>
        <time>2020-01-09T10:55:14.000Z</time>
      </trkpt>
      <trkpt lat="47.26771" lon="-2.31948">
        <ele>94</ele>
        <time>2020-01-09T10:55:15.000Z</time>
      </trkpt>
      <trkpt lat="47.26764" lon="-2.31952">
        <ele>94</ele>
        <time>2020-01-09T10:55:17.000Z</time>
      </trkpt>
      <trkpt lat="47.26755" lon="-2.31968">
        <ele>94</ele>
        <time>2020-01-09T10:55:21.000Z</time>
      </trkpt>
      <trkpt lat="47.26744" lon="-2.31979">
        <ele>94</ele>
        <time>2020-01-09T10:55:25.000Z</time>
      </trkpt>
      <trkpt lat="47.26729" lon="-2.3199">
        <ele>94</ele>
        <time>2020-01-09T10:55:30.000Z</time>
      </trkpt>
      <trkpt lat="47.26726" lon="-2.31991">
        <ele>94</ele>
        <time>2020-01-09T10:55:31.000Z</time>
      </trkpt>
      <trkpt lat="47.26715" lon="-2.31996">
        <ele>94</ele>
        <time>2020-01-09T10:55:35.000Z</time>
      </trkpt>
      <trkpt lat="47.26701" lon="-2.32011">
        <ele>94</ele>
        <time>2020-01-09T10:55:41.000Z</time>
      </trkpt>
      <trkpt lat="47.26693" lon="-2.3203">
        <ele>94</ele>
        <time>2020-01-09T10:55:46.000Z</time>
      </trkpt>
      <trkpt lat="47.26689" lon="-2.32051">
        <ele>94</ele>
        <time>2020-01-09T10:55:51.000Z</time>
      </trkpt>
      <trkpt lat="47.26688" lon="-2.32078">
        <ele>94</ele>
        <time>2020-01-09T10:55:56.000Z</time>
      </trkpt>
      <trkpt lat="47.26685" lon="-2.32118">
        <ele>94</ele>
        <time>2020-01-09T10:56:03.000Z</time>
      </trkpt>
      <trkpt lat="47.26683" lon="-2.32121">
        <ele>94</ele>
        <time>2020-01-09T10:56:04.000Z</time>
      </trkpt>
      <trkpt lat="47.26678" lon="-2.32121">
        <ele>94</ele>
        <time>2020-01-09T10:56:06.000Z</time>
      </trkpt>
      <trkpt lat="47.26672" lon="-2.32107">
        <ele>94</ele>
        <time>2020-01-09T10:56:09.000Z</time>
      </trkpt>
      <trkpt lat="47.26668" lon="-2.32089">
        <ele>94</ele>
        <time>2020-01-09T10:56:12.000Z</time>
      </trkpt>
      <trkpt lat="47.26665" lon="-2.32077">
        <ele>94</ele>
        <time>2020-01-09T10:56:14.000Z</time>
      </trkpt>
      <trkpt lat="47.26649" lon="-2.32011">
        <ele>94</ele>
        <time>2020-01-09T10:56:24.000Z</time>
      </trkpt>
      <trkpt lat="47.26642" lon="-2.32002">
        <ele>94</ele>
        <time>2020-01-09T10:56:27.000Z</time>
      </trkpt>
      <trkpt lat="47.26631" lon="-2.32006">
        <ele>94</ele>
        <time>2020-01-09T10:56:30.000Z</time>
      </trkpt>
      <trkpt lat="47.26626" lon="-2.32008">
        <ele>94</ele>
        <time>2020-01-09T10:56:31.000Z</time>
      </trkpt>
      <trkpt lat="47.26593" lon="-2.32021">
        <ele>94</ele>
        <time>2020-01-09T10:56:37.000Z</time>
      </trkpt>
      <trkpt lat="47.26554" lon="-2.32037">
        <ele>94</ele>
        <time>2020-01-09T10:56:44.000Z</time>
      </trkpt>
      <trkpt lat="47.2655" lon="-2.32037">
        <ele>94</ele>
        <time>2020-01-09T10:56:45.000Z</time>
      </trkpt>
      <trkpt lat="47.26546" lon="-2.32032">
        <ele>94</ele>
        <time>2020-01-09T10:56:47.000Z</time>
      </trkpt>
      <trkpt lat="47.26545" lon="-2.32023">
        <ele>94</ele>
        <time>2020-01-09T10:56:49.000Z</time>
      </trkpt>
      <trkpt lat="47.26544" lon="-2.32016">
        <ele>94</ele>
        <time>2020-01-09T10:56:51.000Z</time>
      </trkpt>
      <trkpt lat="47.26533" lon="-2.32002">
        <ele>94</ele>
        <time>2020-01-09T10:56:56.000Z</time>
      </trkpt>
      <trkpt lat="47.2653" lon="-2.32002">
        <ele>94</ele>
        <time>2020-01-09T10:56:57.000Z</time>
      </trkpt>
      <trkpt lat="47.26522" lon="-2.32002">
        <ele>94</ele>
        <time>2020-01-09T10:57:00.000Z</time>
      </trkpt>
      <trkpt lat="47.26512" lon="-2.32002">
        <ele>94</ele>
        <time>2020-01-09T10:57:03.000Z</time>
      </trkpt>
      <trkpt lat="47.26506" lon="-2.32001">
        <ele>94</ele>
        <time>2020-01-09T10:57:06.000Z</time>
      </trkpt>
      <trkpt lat="47.26501" lon="-2.32001">
        <ele>94</ele>
        <time>2020-01-09T10:57:08.000Z</time>
      </trkpt>
      <trkpt lat="47.26488" lon="-2.32001">
        <ele>94</ele>
        <time>2020-01-09T10:57:13.000Z</time>
      </trkpt>
      <trkpt lat="47.26477" lon="-2.32">
        <ele>94</ele>
        <time>2020-01-09T10:57:16.000Z</time>
      </trkpt>
      <trkpt lat="47.26473" lon="-2.32001">
        <ele>94</ele>
        <time>2020-01-09T10:57:17.000Z</time>
      </trkpt>
      <trkpt lat="47.26448" lon="-2.32004">
        <ele>94</ele>
        <time>2020-01-09T10:57:23.000Z</time>
      </trkpt>
      <trkpt lat="47.26419" lon="-2.32007">
        <ele>94</ele>
        <time>2020-01-09T10:57:30.000Z</time>
      </trkpt>
      <trkpt lat="47.2639" lon="-2.32003">
        <ele>94</ele>
        <time>2020-01-09T10:57:36.000Z</time>
      </trkpt>
      <trkpt lat="47.26381" lon="-2.31998">
        <ele>94</ele>
        <time>2020-01-09T10:57:39.000Z</time>
      </trkpt>
      <trkpt lat="47.26379" lon="-2.31993">
        <ele>94</ele>
        <time>2020-01-09T10:57:40.000Z</time>
      </trkpt>
      <trkpt lat="47.26369" lon="-2.31969">
        <ele>94</ele>
        <time>2020-01-09T10:57:45.000Z</time>
      </trkpt>
      <trkpt lat="47.26356" lon="-2.31949">
        <ele>94</ele>
        <time>2020-01-09T10:57:50.000Z</time>
      </trkpt>
      <trkpt lat="47.26344" lon="-2.31944">
        <ele>94</ele>
        <time>2020-01-09T10:57:54.000Z</time>
      </trkpt>
      <trkpt lat="47.26328" lon="-2.31941">
        <ele>94</ele>
        <time>2020-01-09T10:57:59.000Z</time>
      </trkpt>
      <trkpt lat="47.26325" lon="-2.31938">
        <ele>94</ele>
        <time>2020-01-09T10:58:01.000Z</time>
      </trkpt>
      <trkpt lat="47.26323" lon="-2.3193">
        <ele>94</ele>
        <time>2020-01-09T10:58:03.000Z</time>
      </trkpt>
      <trkpt lat="47.26318" lon="-2.31911">
        <ele>94</ele>
        <time>2020-01-09T10:58:06.000Z</time>
      </trkpt>
      <trkpt lat="47.26315" lon="-2.31898">
        <ele>94</ele>
        <time>2020-01-09T10:58:08.000Z</time>
      </trkpt>
      <trkpt lat="47.26311" lon="-2.31863">
        <ele>94</ele>
        <time>2020-01-09T10:58:13.000Z</time>
      </trkpt>
      <trkpt lat="47.2631" lon="-2.3185">
        <ele>94</ele>
        <time>2020-01-09T10:58:15.000Z</time>
      </trkpt>
      <trkpt lat="47.2631" lon="-2.31843">
        <ele>94</ele>
        <time>2020-01-09T10:58:16.000Z</time>
      </trkpt>
      <trkpt lat="47.26309" lon="-2.31829">
        <ele>94</ele>
        <time>2020-01-09T10:58:18.000Z</time>
      </trkpt>
      <trkpt lat="47.26309" lon="-2.31807">
        <ele>94</ele>
        <time>2020-01-09T10:58:21.000Z</time>
      </trkpt>
      <trkpt lat="47.26308" lon="-2.31792">
        <ele>94</ele>
        <time>2020-01-09T10:58:23.000Z</time>
      </trkpt>
      <trkpt lat="47.26307" lon="-2.31779">
        <ele>94</ele>
        <time>2020-01-09T10:58:25.000Z</time>
      </trkpt>
      <trkpt lat="47.26305" lon="-2.31767">
        <ele>94</ele>
        <time>2020-01-09T10:58:27.000Z</time>
      </trkpt>
      <trkpt lat="47.263" lon="-2.31738">
        <ele>94</ele>
        <time>2020-01-09T10:58:31.000Z</time>
      </trkpt>
      <trkpt lat="47.26295" lon="-2.3172">
        <ele>94</ele>
        <time>2020-01-09T10:58:34.000Z</time>
      </trkpt>
      <trkpt lat="47.26293" lon="-2.31715">
        <ele>94</ele>
        <time>2020-01-09T10:58:35.000Z</time>
      </trkpt>
      <trkpt lat="47.26287" lon="-2.31702">
        <ele>94</ele>
        <time>2020-01-09T10:58:37.000Z</time>
      </trkpt>
      <trkpt lat="47.26281" lon="-2.31694">
        <ele>94</ele>
        <time>2020-01-09T10:58:38.000Z</time>
      </trkpt>
      <trkpt lat="47.26271" lon="-2.31675">
        <ele>94</ele>
        <time>2020-01-09T10:58:41.000Z</time>
      </trkpt>
      <trkpt lat="47.26263" lon="-2.31657">
        <ele>94</ele>
        <time>2020-01-09T10:58:44.000Z</time>
      </trkpt>
      <trkpt lat="47.26258" lon="-2.31645">
        <ele>94</ele>
        <time>2020-01-09T10:58:46.000Z</time>
      </trkpt>
      <trkpt lat="47.2625" lon="-2.31634">
        <ele>93.400001525879</ele>
        <time>2020-01-09T10:58:48.000Z</time>
      </trkpt>
      <trkpt lat="47.26246" lon="-2.31629">
        <ele>93</ele>
        <time>2020-01-09T10:58:49.000Z</time>
      </trkpt>
      <trkpt lat="47.26242" lon="-2.31624">
        <ele>92.599998474121</ele>
        <time>2020-01-09T10:58:50.000Z</time>
      </trkpt>
      <trkpt lat="47.26238" lon="-2.31619">
        <ele>91.800003051758</ele>
        <time>2020-01-09T10:58:51.000Z</time>
      </trkpt>
      <trkpt lat="47.26225" lon="-2.31602">
        <ele>91.800003051758</ele>
        <time>2020-01-09T10:58:55.000Z</time>
      </trkpt>
      <trkpt lat="47.26213" lon="-2.31596">
        <ele>91.800003051758</ele>
        <time>2020-01-09T10:58:58.000Z</time>
      </trkpt>
      <trkpt lat="47.26194" lon="-2.31598">
        <ele>91.800003051758</ele>
        <time>2020-01-09T10:59:02.000Z</time>
      </trkpt>
      <trkpt lat="47.2619" lon="-2.31599">
        <ele>91.800003051758</ele>
        <time>2020-01-09T10:59:03.000Z</time>
      </trkpt>
      <trkpt lat="47.26176" lon="-2.31603">
        <ele>91.800003051758</ele>
        <time>2020-01-09T10:59:07.000Z</time>
      </trkpt>
      <trkpt lat="47.26152" lon="-2.31612">
        <ele>91.800003051758</ele>
        <time>2020-01-09T10:59:13.000Z</time>
      </trkpt>
      <trkpt lat="47.26129" lon="-2.31616">
        <ele>91.800003051758</ele>
        <time>2020-01-09T10:59:19.000Z</time>
      </trkpt>
      <trkpt lat="47.26107" lon="-2.31616">
        <ele>91.800003051758</ele>
        <time>2020-01-09T10:59:25.000Z</time>
      </trkpt>
      <trkpt lat="47.26096" lon="-2.31604">
        <ele>91.800003051758</ele>
        <time>2020-01-09T10:59:29.000Z</time>
      </trkpt>
      <trkpt lat="47.26088" lon="-2.31589">
        <ele>91.800003051758</ele>
        <time>2020-01-09T10:59:34.000Z</time>
      </trkpt>
      <trkpt lat="47.26084" lon="-2.31585">
        <ele>91.800003051758</ele>
        <time>2020-01-09T10:59:37.000Z</time>
      </trkpt>
      <trkpt lat="47.2608" lon="-2.31582">
        <ele>91.800003051758</ele>
        <time>2020-01-09T10:59:39.000Z</time>
      </trkpt>
      <trkpt lat="47.26073" lon="-2.31568">
        <ele>91.800003051758</ele>
        <time>2020-01-09T10:59:44.000Z</time>
      </trkpt>
      <trkpt lat="47.26068" lon="-2.31553">
        <ele>91.800003051758</ele>
        <time>2020-01-09T10:59:47.000Z</time>
      </trkpt>
      <trkpt lat="47.26066" lon="-2.31548">
        <ele>91.800003051758</ele>
        <time>2020-01-09T10:59:48.000Z</time>
      </trkpt>
      <trkpt lat="47.26046" lon="-2.31516">
        <ele>91.800003051758</ele>
        <time>2020-01-09T10:59:55.000Z</time>
      </trkpt>
      <trkpt lat="47.26037" lon="-2.31518">
        <ele>91.800003051758</ele>
        <time>2020-01-09T10:59:58.000Z</time>
      </trkpt>
      <trkpt lat="47.26029" lon="-2.31537">
        <ele>91.800003051758</ele>
        <time>2020-01-09T11:00:02.000Z</time>
      </trkpt>
      <trkpt lat="47.26025" lon="-2.31547">
        <ele>91.800003051758</ele>
        <time>2020-01-09T11:00:04.000Z</time>
      </trkpt>
      <trkpt lat="47.26018" lon="-2.3156">
        <ele>91.800003051758</ele>
        <time>2020-01-09T11:00:07.000Z</time>
      </trkpt>
      <trkpt lat="47.26015" lon="-2.31561">
        <ele>91.800003051758</ele>
        <time>2020-01-09T11:00:08.000Z</time>
      </trkpt>
      <trkpt lat="47.2601" lon="-2.31557">
        <ele>91.800003051758</ele>
        <time>2020-01-09T11:00:10.000Z</time>
      </trkpt>
      <trkpt lat="47.26002" lon="-2.31547">
        <ele>91.800003051758</ele>
        <time>2020-01-09T11:00:13.000Z</time>
      </trkpt>
      <trkpt lat="47.25996" lon="-2.31539">
        <ele>91.800003051758</ele>
        <time>2020-01-09T11:00:15.000Z</time>
      </trkpt>
      <trkpt lat="47.2598" lon="-2.31507">
        <ele>91.800003051758</ele>
        <time>2020-01-09T11:00:21.000Z</time>
      </trkpt>
      <trkpt lat="47.25978" lon="-2.31501">
        <ele>91.800003051758</ele>
        <time>2020-01-09T11:00:22.000Z</time>
      </trkpt>
      <trkpt lat="47.25963" lon="-2.31476">
        <ele>91.800003051758</ele>
        <time>2020-01-09T11:00:27.000Z</time>
      </trkpt>
      <trkpt lat="47.25955" lon="-2.31469">
        <ele>91.800003051758</ele>
        <time>2020-01-09T11:00:29.000Z</time>
      </trkpt>
      <trkpt lat="47.25945" lon="-2.31462">
        <ele>91.800003051758</ele>
        <time>2020-01-09T11:00:32.000Z</time>
      </trkpt>
      <trkpt lat="47.25932" lon="-2.31462">
        <ele>91.800003051758</ele>
        <time>2020-01-09T11:00:36.000Z</time>
      </trkpt>
      <trkpt lat="47.25928" lon="-2.3147">
        <ele>91.400001525879</ele>
        <time>2020-01-09T11:00:38.000Z</time>
      </trkpt>
      <trkpt lat="47.25926" lon="-2.31475">
        <ele>91</ele>
        <time>2020-01-09T11:00:39.000Z</time>
      </trkpt>
      <trkpt lat="47.25925" lon="-2.3148">
        <ele>90.599998474121</ele>
        <time>2020-01-09T11:00:40.000Z</time>
      </trkpt>
      <trkpt lat="47.25923" lon="-2.31484">
        <ele>90.199996948242</ele>
        <time>2020-01-09T11:00:41.000Z</time>
      </trkpt>
      <trkpt lat="47.25922" lon="-2.31487">
        <ele>89.800003051758</ele>
        <time>2020-01-09T11:00:42.000Z</time>
      </trkpt>
      <trkpt lat="47.25921" lon="-2.3149">
        <ele>89.800003051758</ele>
        <time>2020-01-09T11:00:43.000Z</time>
      </trkpt>
      <trkpt lat="47.2592" lon="-2.31492">
        <ele>89.800003051758</ele>
        <time>2020-01-09T11:00:46.000Z</time>
      </trkpt>
      <trkpt lat="47.25915" lon="-2.31501">
        <ele>89.800003051758</ele>
        <time>2020-01-09T11:00:59.000Z</time>
      </trkpt>
      <trkpt lat="47.25914" lon="-2.31503">
        <ele>89.800003051758</ele>
        <time>2020-01-09T11:01:00.000Z</time>
      </trkpt>
      <trkpt lat="47.25915" lon="-2.31508">
        <ele>89.800003051758</ele>
        <time>2020-01-09T11:01:04.000Z</time>
      </trkpt>
      <trkpt lat="47.25906" lon="-2.31522">
        <ele>89.800003051758</ele>
        <time>2020-01-09T11:01:08.000Z</time>
      </trkpt>
      <trkpt lat="47.25898" lon="-2.3154">
        <ele>89.800003051758</ele>
        <time>2020-01-09T11:01:11.000Z</time>
      </trkpt>
      <trkpt lat="47.25893" lon="-2.31553">
        <ele>89.800003051758</ele>
        <time>2020-01-09T11:01:13.000Z</time>
      </trkpt>
      <trkpt lat="47.25884" lon="-2.31573">
        <ele>89.800003051758</ele>
        <time>2020-01-09T11:01:16.000Z</time>
      </trkpt>
      <trkpt lat="47.25877" lon="-2.31581">
        <ele>89.800003051758</ele>
        <time>2020-01-09T11:01:18.000Z</time>
      </trkpt>
      <trkpt lat="47.25864" lon="-2.31593">
        <ele>89.800003051758</ele>
        <time>2020-01-09T11:01:21.000Z</time>
      </trkpt>
      <trkpt lat="47.2586" lon="-2.31598">
        <ele>89.800003051758</ele>
        <time>2020-01-09T11:01:22.000Z</time>
      </trkpt>
      <trkpt lat="47.25856" lon="-2.31603">
        <ele>89.800003051758</ele>
        <time>2020-01-09T11:01:23.000Z</time>
      </trkpt>
      <trkpt lat="47.25848" lon="-2.31611">
        <ele>89.800003051758</ele>
        <time>2020-01-09T11:01:25.000Z</time>
      </trkpt>
      <trkpt lat="47.25835" lon="-2.31621">
        <ele>89.800003051758</ele>
        <time>2020-01-09T11:01:28.000Z</time>
      </trkpt>
      <trkpt lat="47.25814" lon="-2.31636">
        <ele>89.800003051758</ele>
        <time>2020-01-09T11:01:33.000Z</time>
      </trkpt>
      <trkpt lat="47.2581" lon="-2.3164">
        <ele>89.800003051758</ele>
        <time>2020-01-09T11:01:34.000Z</time>
      </trkpt>
      <trkpt lat="47.25782" lon="-2.31666">
        <ele>89.800003051758</ele>
        <time>2020-01-09T11:01:41.000Z</time>
      </trkpt>
      <trkpt lat="47.25777" lon="-2.31669">
        <ele>89.800003051758</ele>
        <time>2020-01-09T11:01:42.000Z</time>
      </trkpt>
      <trkpt lat="47.25754" lon="-2.31687">
        <ele>89.800003051758</ele>
        <time>2020-01-09T11:01:47.000Z</time>
      </trkpt>
      <trkpt lat="47.25732" lon="-2.31707">
        <ele>89.800003051758</ele>
        <time>2020-01-09T11:01:52.000Z</time>
      </trkpt>
      <trkpt lat="47.25728" lon="-2.31708">
        <ele>89.800003051758</ele>
        <time>2020-01-09T11:01:53.000Z</time>
      </trkpt>
      <trkpt lat="47.25719" lon="-2.317">
        <ele>89.800003051758</ele>
        <time>2020-01-09T11:01:56.000Z</time>
      </trkpt>
      <trkpt lat="47.25702" lon="-2.31688">
        <ele>89.800003051758</ele>
        <time>2020-01-09T11:02:01.000Z</time>
      </trkpt>
      <trkpt lat="47.25678" lon="-2.31681">
        <ele>89.800003051758</ele>
        <time>2020-01-09T11:02:07.000Z</time>
      </trkpt>
      <trkpt lat="47.25656" lon="-2.31693">
        <ele>89.800003051758</ele>
        <time>2020-01-09T11:02:14.000Z</time>
      </trkpt>
      <trkpt lat="47.25638" lon="-2.31715">
        <ele>89.800003051758</ele>
        <time>2020-01-09T11:02:20.000Z</time>
      </trkpt>
      <trkpt lat="47.2563" lon="-2.31728">
        <ele>89.800003051758</ele>
        <time>2020-01-09T11:02:23.000Z</time>
      </trkpt>
      <trkpt lat="47.25627" lon="-2.31739">
        <ele>89.800003051758</ele>
        <time>2020-01-09T11:02:25.000Z</time>
      </trkpt>
      <trkpt lat="47.25617" lon="-2.31763">
        <ele>89.800003051758</ele>
        <time>2020-01-09T11:02:30.000Z</time>
      </trkpt>
      <trkpt lat="47.25609" lon="-2.31767">
        <ele>89.800003051758</ele>
        <time>2020-01-09T11:02:32.000Z</time>
      </trkpt>
      <trkpt lat="47.25601" lon="-2.31768">
        <ele>89.800003051758</ele>
        <time>2020-01-09T11:02:34.000Z</time>
      </trkpt>
      <trkpt lat="47.25588" lon="-2.31771">
        <ele>89.800003051758</ele>
        <time>2020-01-09T11:02:37.000Z</time>
      </trkpt>
      <trkpt lat="47.25576" lon="-2.31776">
        <ele>89.800003051758</ele>
        <time>2020-01-09T11:02:40.000Z</time>
      </trkpt>
      <trkpt lat="47.25567" lon="-2.3179">
        <ele>89.800003051758</ele>
        <time>2020-01-09T11:02:44.000Z</time>
      </trkpt>
      <trkpt lat="47.25553" lon="-2.31803">
        <ele>89.800003051758</ele>
        <time>2020-01-09T11:02:49.000Z</time>
      </trkpt>
      <trkpt lat="47.25534" lon="-2.31809">
        <ele>89.800003051758</ele>
        <time>2020-01-09T11:02:55.000Z</time>
      </trkpt>
      <trkpt lat="47.25517" lon="-2.31814">
        <ele>89.800003051758</ele>
        <time>2020-01-09T11:03:02.000Z</time>
      </trkpt>
      <trkpt lat="47.25508" lon="-2.31823">
        <ele>89.800003051758</ele>
        <time>2020-01-09T11:03:08.000Z</time>
      </trkpt>
      <trkpt lat="47.25508" lon="-2.31828">
        <ele>89.800003051758</ele>
        <time>2020-01-09T11:03:12.000Z</time>
      </trkpt>
      <trkpt lat="47.25508" lon="-2.31829">
        <ele>89.800003051758</ele>
        <time>2020-01-09T11:03:14.000Z</time>
      </trkpt>
      <trkpt lat="47.2551" lon="-2.31827">
        <ele>91.800003051758</ele>
        <time>2020-01-09T11:06:50.000Z</time>
      </trkpt>
      <trkpt lat="47.25511" lon="-2.31826">
        <ele>91.800003051758</ele>
        <time>2020-01-09T11:06:51.000Z</time>
      </trkpt>
      <trkpt lat="47.25512" lon="-2.31825">
        <ele>91.800003051758</ele>
        <time>2020-01-09T11:06:52.000Z</time>
      </trkpt>
      <trkpt lat="47.25512" lon="-2.31816">
        <ele>91.800003051758</ele>
        <time>2020-01-09T11:06:56.000Z</time>
      </trkpt>
      <trkpt lat="47.25513" lon="-2.31813">
        <ele>91.800003051758</ele>
        <time>2020-01-09T11:06:57.000Z</time>
      </trkpt>
      <trkpt lat="47.2552" lon="-2.31809">
        <ele>91.800003051758</ele>
        <time>2020-01-09T11:07:00.000Z</time>
      </trkpt>
      <trkpt lat="47.25522" lon="-2.31808">
        <ele>91.800003051758</ele>
        <time>2020-01-09T11:07:01.000Z</time>
      </trkpt>
      <trkpt lat="47.25541" lon="-2.31801">
        <ele>91.800003051758</ele>
        <time>2020-01-09T11:07:07.000Z</time>
      </trkpt>
      <trkpt lat="47.25554" lon="-2.31797">
        <ele>91.800003051758</ele>
        <time>2020-01-09T11:07:10.000Z</time>
      </trkpt>
      <trkpt lat="47.25563" lon="-2.31794">
        <ele>91.800003051758</ele>
        <time>2020-01-09T11:07:13.000Z</time>
      </trkpt>
      <trkpt lat="47.25565" lon="-2.31792">
        <ele>91.800003051758</ele>
        <time>2020-01-09T11:07:14.000Z</time>
      </trkpt>
      <trkpt lat="47.25571" lon="-2.3178">
        <ele>91.800003051758</ele>
        <time>2020-01-09T11:07:17.000Z</time>
      </trkpt>
      <trkpt lat="47.25587" lon="-2.31753">
        <ele>91.800003051758</ele>
        <time>2020-01-09T11:07:22.000Z</time>
      </trkpt>
      <trkpt lat="47.25597" lon="-2.31722">
        <ele>91.800003051758</ele>
        <time>2020-01-09T11:07:26.000Z</time>
      </trkpt>
      <trkpt lat="47.25601" lon="-2.31716">
        <ele>91.800003051758</ele>
        <time>2020-01-09T11:07:27.000Z</time>
      </trkpt>
      <trkpt lat="47.2561" lon="-2.3171">
        <ele>91.800003051758</ele>
        <time>2020-01-09T11:07:29.000Z</time>
      </trkpt>
      <trkpt lat="47.25626" lon="-2.31707">
        <ele>91.800003051758</ele>
        <time>2020-01-09T11:07:32.000Z</time>
      </trkpt>
      <trkpt lat="47.25637" lon="-2.31703">
        <ele>91.800003051758</ele>
        <time>2020-01-09T11:07:34.000Z</time>
      </trkpt>
      <trkpt lat="47.25653" lon="-2.31685">
        <ele>91.800003051758</ele>
        <time>2020-01-09T11:07:37.000Z</time>
      </trkpt>
      <trkpt lat="47.25658" lon="-2.31668">
        <ele>91.400001525879</ele>
        <time>2020-01-09T11:07:39.000Z</time>
      </trkpt>
      <trkpt lat="47.25661" lon="-2.31664">
        <ele>91</ele>
        <time>2020-01-09T11:07:40.000Z</time>
      </trkpt>
      <trkpt lat="47.25665" lon="-2.31662">
        <ele>90.599998474121</ele>
        <time>2020-01-09T11:07:41.000Z</time>
      </trkpt>
      <trkpt lat="47.2567" lon="-2.31663">
        <ele>90.199996948242</ele>
        <time>2020-01-09T11:07:42.000Z</time>
      </trkpt>
      <trkpt lat="47.25674" lon="-2.31666">
        <ele>89.800003051758</ele>
        <time>2020-01-09T11:07:43.000Z</time>
      </trkpt>
      <trkpt lat="47.25694" lon="-2.31675">
        <ele>89.800003051758</ele>
        <time>2020-01-09T11:07:47.000Z</time>
      </trkpt>
      <trkpt lat="47.25699" lon="-2.31678">
        <ele>89.800003051758</ele>
        <time>2020-01-09T11:07:48.000Z</time>
      </trkpt>
      <trkpt lat="47.2572" lon="-2.3169">
        <ele>89.800003051758</ele>
        <time>2020-01-09T11:07:51.000Z</time>
      </trkpt>
      <trkpt lat="47.25732" lon="-2.31695">
        <ele>89.800003051758</ele>
        <time>2020-01-09T11:07:53.000Z</time>
      </trkpt>
      <trkpt lat="47.25738" lon="-2.31693">
        <ele>89.800003051758</ele>
        <time>2020-01-09T11:07:54.000Z</time>
      </trkpt>
      <trkpt lat="47.25754" lon="-2.3168">
        <ele>89.800003051758</ele>
        <time>2020-01-09T11:07:57.000Z</time>
      </trkpt>
      <trkpt lat="47.25759" lon="-2.31677">
        <ele>89.800003051758</ele>
        <time>2020-01-09T11:07:58.000Z</time>
      </trkpt>
      <trkpt lat="47.25778" lon="-2.3166">
        <ele>89.800003051758</ele>
        <time>2020-01-09T11:08:02.000Z</time>
      </trkpt>
      <trkpt lat="47.25804" lon="-2.31639">
        <ele>89.800003051758</ele>
        <time>2020-01-09T11:08:08.000Z</time>
      </trkpt>
      <trkpt lat="47.25829" lon="-2.31619">
        <ele>89.800003051758</ele>
        <time>2020-01-09T11:08:15.000Z</time>
      </trkpt>
      <trkpt lat="47.25832" lon="-2.31616">
        <ele>89.800003051758</ele>
        <time>2020-01-09T11:08:16.000Z</time>
      </trkpt>
      <trkpt lat="47.25844" lon="-2.31604">
        <ele>89.800003051758</ele>
        <time>2020-01-09T11:08:19.000Z</time>
      </trkpt>
      <trkpt lat="47.25879" lon="-2.31572">
        <ele>89.800003051758</ele>
        <time>2020-01-09T11:08:26.000Z</time>
      </trkpt>
      <trkpt lat="47.25884" lon="-2.31565">
        <ele>89.800003051758</ele>
        <time>2020-01-09T11:08:27.000Z</time>
      </trkpt>
      <trkpt lat="47.25892" lon="-2.31549">
        <ele>89.800003051758</ele>
        <time>2020-01-09T11:08:29.000Z</time>
      </trkpt>
      <trkpt lat="47.25898" lon="-2.31532">
        <ele>89.800003051758</ele>
        <time>2020-01-09T11:08:31.000Z</time>
      </trkpt>
      <trkpt lat="47.25905" lon="-2.3152">
        <ele>89.800003051758</ele>
        <time>2020-01-09T11:08:33.000Z</time>
      </trkpt>
      <trkpt lat="47.2591" lon="-2.31516">
        <ele>89.800003051758</ele>
        <time>2020-01-09T11:08:34.000Z</time>
      </trkpt>
      <trkpt lat="47.2592" lon="-2.31519">
        <ele>89.800003051758</ele>
        <time>2020-01-09T11:08:36.000Z</time>
      </trkpt>
      <trkpt lat="47.25932" lon="-2.31534">
        <ele>89.800003051758</ele>
        <time>2020-01-09T11:08:39.000Z</time>
      </trkpt>
      <trkpt lat="47.25935" lon="-2.31539">
        <ele>89.800003051758</ele>
        <time>2020-01-09T11:08:40.000Z</time>
      </trkpt>
      <trkpt lat="47.25947" lon="-2.31572">
        <ele>89.800003051758</ele>
        <time>2020-01-09T11:08:45.000Z</time>
      </trkpt>
      <trkpt lat="47.25957" lon="-2.31589">
        <ele>89.800003051758</ele>
        <time>2020-01-09T11:08:48.000Z</time>
      </trkpt>
      <trkpt lat="47.25964" lon="-2.31599">
        <ele>89.800003051758</ele>
        <time>2020-01-09T11:08:50.000Z</time>
      </trkpt>
      <trkpt lat="47.25968" lon="-2.31605">
        <ele>89.800003051758</ele>
        <time>2020-01-09T11:08:51.000Z</time>
      </trkpt>
      <trkpt lat="47.25986" lon="-2.31631">
        <ele>89.800003051758</ele>
        <time>2020-01-09T11:08:56.000Z</time>
      </trkpt>
      <trkpt lat="47.26007" lon="-2.31661">
        <ele>89.800003051758</ele>
        <time>2020-01-09T11:09:02.000Z</time>
      </trkpt>
      <trkpt lat="47.26011" lon="-2.3166">
        <ele>89.800003051758</ele>
        <time>2020-01-09T11:09:03.000Z</time>
      </trkpt>
      <trkpt lat="47.26019" lon="-2.31654">
        <ele>89.800003051758</ele>
        <time>2020-01-09T11:09:05.000Z</time>
      </trkpt>
      <trkpt lat="47.26033" lon="-2.3164">
        <ele>89.800003051758</ele>
        <time>2020-01-09T11:09:08.000Z</time>
      </trkpt>
      <trkpt lat="47.26042" lon="-2.31629">
        <ele>89.800003051758</ele>
        <time>2020-01-09T11:09:10.000Z</time>
      </trkpt>
      <trkpt lat="47.26069" lon="-2.31594">
        <ele>89.800003051758</ele>
        <time>2020-01-09T11:09:16.000Z</time>
      </trkpt>
      <trkpt lat="47.26084" lon="-2.31584">
        <ele>89.800003051758</ele>
        <time>2020-01-09T11:09:19.000Z</time>
      </trkpt>
      <trkpt lat="47.26089" lon="-2.31588">
        <ele>89.800003051758</ele>
        <time>2020-01-09T11:09:20.000Z</time>
      </trkpt>
      <trkpt lat="47.26099" lon="-2.31606">
        <ele>89.800003051758</ele>
        <time>2020-01-09T11:09:23.000Z</time>
      </trkpt>
      <trkpt lat="47.26103" lon="-2.31612">
        <ele>89.800003051758</ele>
        <time>2020-01-09T11:09:24.000Z</time>
      </trkpt>
      <trkpt lat="47.26107" lon="-2.31616">
        <ele>89.800003051758</ele>
        <time>2020-01-09T11:09:25.000Z</time>
      </trkpt>
      <trkpt lat="47.26116" lon="-2.3162">
        <ele>89.800003051758</ele>
        <time>2020-01-09T11:09:27.000Z</time>
      </trkpt>
      <trkpt lat="47.26132" lon="-2.31617">
        <ele>89.800003051758</ele>
        <time>2020-01-09T11:09:30.000Z</time>
      </trkpt>
      <trkpt lat="47.26136" lon="-2.31617">
        <ele>89.800003051758</ele>
        <time>2020-01-09T11:09:31.000Z</time>
      </trkpt>
      <trkpt lat="47.26144" lon="-2.31613">
        <ele>89.800003051758</ele>
        <time>2020-01-09T11:09:33.000Z</time>
      </trkpt>
      <trkpt lat="47.26159" lon="-2.31606">
        <ele>89.800003051758</ele>
        <time>2020-01-09T11:09:36.000Z</time>
      </trkpt>
      <trkpt lat="47.26193" lon="-2.31594">
        <ele>89.800003051758</ele>
        <time>2020-01-09T11:09:43.000Z</time>
      </trkpt>
      <trkpt lat="47.26197" lon="-2.31592">
        <ele>89.800003051758</ele>
        <time>2020-01-09T11:09:44.000Z</time>
      </trkpt>
      <trkpt lat="47.26213" lon="-2.31591">
        <ele>89.800003051758</ele>
        <time>2020-01-09T11:09:47.000Z</time>
      </trkpt>
      <trkpt lat="47.26221" lon="-2.31594">
        <ele>89.800003051758</ele>
        <time>2020-01-09T11:09:49.000Z</time>
      </trkpt>
      <trkpt lat="47.26225" lon="-2.31598">
        <ele>89.800003051758</ele>
        <time>2020-01-09T11:09:50.000Z</time>
      </trkpt>
      <trkpt lat="47.26229" lon="-2.31601">
        <ele>89.800003051758</ele>
        <time>2020-01-09T11:09:51.000Z</time>
      </trkpt>
      <trkpt lat="47.26241" lon="-2.31613">
        <ele>89.800003051758</ele>
        <time>2020-01-09T11:09:54.000Z</time>
      </trkpt>
      <trkpt lat="47.26253" lon="-2.31629">
        <ele>89.800003051758</ele>
        <time>2020-01-09T11:09:57.000Z</time>
      </trkpt>
      <trkpt lat="47.26256" lon="-2.31635">
        <ele>89.800003051758</ele>
        <time>2020-01-09T11:09:58.000Z</time>
      </trkpt>
      <trkpt lat="47.26264" lon="-2.31654">
        <ele>89.800003051758</ele>
        <time>2020-01-09T11:10:01.000Z</time>
      </trkpt>
      <trkpt lat="47.26267" lon="-2.3166">
        <ele>89.800003051758</ele>
        <time>2020-01-09T11:10:02.000Z</time>
      </trkpt>
      <trkpt lat="47.26285" lon="-2.31695">
        <ele>89.800003051758</ele>
        <time>2020-01-09T11:10:08.000Z</time>
      </trkpt>
      <trkpt lat="47.26302" lon="-2.31713">
        <ele>89.800003051758</ele>
        <time>2020-01-09T11:10:13.000Z</time>
      </trkpt>
      <trkpt lat="47.26305" lon="-2.31712">
        <ele>89.800003051758</ele>
        <time>2020-01-09T11:10:14.000Z</time>
      </trkpt>
      <trkpt lat="47.26317" lon="-2.31708">
        <ele>89.800003051758</ele>
        <time>2020-01-09T11:10:17.000Z</time>
      </trkpt>
      <trkpt lat="47.2633" lon="-2.31698">
        <ele>89.800003051758</ele>
        <time>2020-01-09T11:10:21.000Z</time>
      </trkpt>
      <trkpt lat="47.26333" lon="-2.31695">
        <ele>89.800003051758</ele>
        <time>2020-01-09T11:10:22.000Z</time>
      </trkpt>
      <trkpt lat="47.26341" lon="-2.31688">
        <ele>89.800003051758</ele>
        <time>2020-01-09T11:10:25.000Z</time>
      </trkpt>
      <trkpt lat="47.26345" lon="-2.31687">
        <ele>89.800003051758</ele>
        <time>2020-01-09T11:10:26.000Z</time>
      </trkpt>
      <trkpt lat="47.26359" lon="-2.3168">
        <ele>89.800003051758</ele>
        <time>2020-01-09T11:10:30.000Z</time>
      </trkpt>
      <trkpt lat="47.26381" lon="-2.31671">
        <ele>89.800003051758</ele>
        <time>2020-01-09T11:10:36.000Z</time>
      </trkpt>
      <trkpt lat="47.26399" lon="-2.3166">
        <ele>89.800003051758</ele>
        <time>2020-01-09T11:10:42.000Z</time>
      </trkpt>
      <trkpt lat="47.26408" lon="-2.3165">
        <ele>89.800003051758</ele>
        <time>2020-01-09T11:10:46.000Z</time>
      </trkpt>
      <trkpt lat="47.26408" lon="-2.31626">
        <ele>89.800003051758</ele>
        <time>2020-01-09T11:10:51.000Z</time>
      </trkpt>
      <trkpt lat="47.2641" lon="-2.31595">
        <ele>89.800003051758</ele>
        <time>2020-01-09T11:10:57.000Z</time>
      </trkpt>
      <trkpt lat="47.26409" lon="-2.31569">
        <ele>89.800003051758</ele>
        <time>2020-01-09T11:11:02.000Z</time>
      </trkpt>
      <trkpt lat="47.26412" lon="-2.31554">
        <ele>89.800003051758</ele>
        <time>2020-01-09T11:11:06.000Z</time>
      </trkpt>
      <trkpt lat="47.26416" lon="-2.31554">
        <ele>89.800003051758</ele>
        <time>2020-01-09T11:11:09.000Z</time>
      </trkpt>
      <trkpt lat="47.26417" lon="-2.31554">
        <ele>89.800003051758</ele>
        <time>2020-01-09T11:11:11.000Z</time>
      </trkpt>
    </trkseg>
  </trk>
</gpx>